<?xml version="1.0" encoding="UTF-8" standalone="no" ?>
<gpx xmlns="http://www.topografix.com/GPX/1/1" xmlns:xsi="http://www.w3.org/2001/XMLSchema-instance" xsi:schemaLocation="http://www.topografix.com/GPX/1/1 http://www.topografix.com/GPX/1/1/gpx.xsd" version="1.1" creator="VisuGPX - https://www.visugpx.com">
  <metadata>
    <name>9767728-Tour du lac de Vouglans VTT</name>
  </metadata>
  <trk>
    <name><![CDATA[9767728-Tour du lac de Vouglans VTT]]></name>
    <trkseg>
      <trkpt lat="46.57955" lon="5.70176">
        <ele>430</ele>
        <time>2019-04-03T10:23:14Z</time>
      </trkpt>
      <trkpt lat="46.5796" lon="5.70179">
        <ele>430</ele>
        <time>2019-04-03T10:24:14Z</time>
      </trkpt>
      <trkpt lat="46.57974" lon="5.70181">
        <ele>431</ele>
        <time>2019-04-03T10:25:14Z</time>
      </trkpt>
      <trkpt lat="46.57978" lon="5.70182">
        <ele>431</ele>
        <time>2019-04-03T10:26:14Z</time>
      </trkpt>
      <trkpt lat="46.57984" lon="5.70184">
        <ele>431</ele>
        <time>2019-04-03T10:27:14Z</time>
      </trkpt>
      <trkpt lat="46.58003" lon="5.70187">
        <ele>432</ele>
        <time>2019-04-03T10:28:14Z</time>
      </trkpt>
      <trkpt lat="46.58011" lon="5.70189">
        <ele>432</ele>
        <time>2019-04-03T10:29:14Z</time>
      </trkpt>
      <trkpt lat="46.58044" lon="5.70199">
        <ele>433</ele>
        <time>2019-04-03T10:30:14Z</time>
      </trkpt>
      <trkpt lat="46.58067" lon="5.70204">
        <ele>433</ele>
        <time>2019-04-03T10:31:14Z</time>
      </trkpt>
      <trkpt lat="46.5809" lon="5.70204">
        <ele>433</ele>
        <time>2019-04-03T10:32:14Z</time>
      </trkpt>
      <trkpt lat="46.58099" lon="5.70202">
        <ele>433</ele>
        <time>2019-04-03T10:33:14Z</time>
      </trkpt>
      <trkpt lat="46.58103" lon="5.702">
        <ele>433</ele>
        <time>2019-04-03T10:34:14Z</time>
      </trkpt>
      <trkpt lat="46.58165" lon="5.70149">
        <ele>434</ele>
        <time>2019-04-03T10:35:14Z</time>
      </trkpt>
      <trkpt lat="46.5818" lon="5.70137">
        <ele>434</ele>
        <time>2019-04-03T10:36:14Z</time>
      </trkpt>
      <trkpt lat="46.58189" lon="5.70128">
        <ele>435</ele>
        <time>2019-04-03T10:37:14Z</time>
      </trkpt>
      <trkpt lat="46.58195" lon="5.70122">
        <ele>435</ele>
        <time>2019-04-03T10:38:14Z</time>
      </trkpt>
      <trkpt lat="46.58239" lon="5.70086">
        <ele>435</ele>
        <time>2019-04-03T10:39:14Z</time>
      </trkpt>
      <trkpt lat="46.58246" lon="5.70081">
        <ele>435</ele>
        <time>2019-04-03T10:40:14Z</time>
      </trkpt>
      <trkpt lat="46.58255" lon="5.70077">
        <ele>436</ele>
        <time>2019-04-03T10:41:14Z</time>
      </trkpt>
      <trkpt lat="46.58263" lon="5.70074">
        <ele>436</ele>
        <time>2019-04-03T10:42:14Z</time>
      </trkpt>
      <trkpt lat="46.58288" lon="5.70069">
        <ele>436</ele>
        <time>2019-04-03T10:43:14Z</time>
      </trkpt>
      <trkpt lat="46.58296" lon="5.70066">
        <ele>436</ele>
        <time>2019-04-03T10:44:14Z</time>
      </trkpt>
      <trkpt lat="46.58307" lon="5.70062">
        <ele>435</ele>
        <time>2019-04-03T10:45:14Z</time>
      </trkpt>
      <trkpt lat="46.58321" lon="5.70056">
        <ele>435</ele>
        <time>2019-04-03T10:46:14Z</time>
      </trkpt>
      <trkpt lat="46.58353" lon="5.70041">
        <ele>435</ele>
        <time>2019-04-03T10:47:14Z</time>
      </trkpt>
      <trkpt lat="46.58372" lon="5.70033">
        <ele>436</ele>
        <time>2019-04-03T10:48:14Z</time>
      </trkpt>
      <trkpt lat="46.58413" lon="5.70016">
        <ele>436</ele>
        <time>2019-04-03T10:49:14Z</time>
      </trkpt>
      <trkpt lat="46.58437" lon="5.70005">
        <ele>436</ele>
        <time>2019-04-03T10:50:14Z</time>
      </trkpt>
      <trkpt lat="46.58449" lon="5.69999">
        <ele>436</ele>
        <time>2019-04-03T10:51:14Z</time>
      </trkpt>
      <trkpt lat="46.58474" lon="5.69989">
        <ele>437</ele>
        <time>2019-04-03T10:52:14Z</time>
      </trkpt>
      <trkpt lat="46.58493" lon="5.69982">
        <ele>437</ele>
        <time>2019-04-03T10:53:14Z</time>
      </trkpt>
      <trkpt lat="46.58498" lon="5.69979">
        <ele>437</ele>
        <time>2019-04-03T10:54:14Z</time>
      </trkpt>
      <trkpt lat="46.58499" lon="5.69994">
        <ele>437</ele>
        <time>2019-04-03T10:55:14Z</time>
      </trkpt>
      <trkpt lat="46.585" lon="5.70014">
        <ele>437</ele>
        <time>2019-04-03T10:56:14Z</time>
      </trkpt>
      <trkpt lat="46.58504" lon="5.7006">
        <ele>438</ele>
        <time>2019-04-03T10:57:14Z</time>
      </trkpt>
      <trkpt lat="46.58507" lon="5.70093">
        <ele>439</ele>
        <time>2019-04-03T10:58:14Z</time>
      </trkpt>
      <trkpt lat="46.58509" lon="5.70108">
        <ele>440</ele>
        <time>2019-04-03T10:59:14Z</time>
      </trkpt>
      <trkpt lat="46.5851" lon="5.7012">
        <ele>440</ele>
        <time>2019-04-03T11:00:14Z</time>
      </trkpt>
      <trkpt lat="46.58514" lon="5.70138">
        <ele>441</ele>
        <time>2019-04-03T11:01:14Z</time>
      </trkpt>
      <trkpt lat="46.58518" lon="5.70154">
        <ele>442</ele>
        <time>2019-04-03T11:02:14Z</time>
      </trkpt>
      <trkpt lat="46.58512" lon="5.70159">
        <ele>442</ele>
        <time>2019-04-03T11:03:14Z</time>
      </trkpt>
      <trkpt lat="46.58504" lon="5.70161">
        <ele>442</ele>
        <time>2019-04-03T11:04:14Z</time>
      </trkpt>
      <trkpt lat="46.58468" lon="5.70164">
        <ele>440</ele>
        <time>2019-04-03T11:05:14Z</time>
      </trkpt>
      <trkpt lat="46.58454" lon="5.70166">
        <ele>440</ele>
        <time>2019-04-03T11:06:14Z</time>
      </trkpt>
      <trkpt lat="46.58429" lon="5.70172">
        <ele>439</ele>
        <time>2019-04-03T11:07:14Z</time>
      </trkpt>
      <trkpt lat="46.58411" lon="5.70179">
        <ele>439</ele>
        <time>2019-04-03T11:08:14Z</time>
      </trkpt>
      <trkpt lat="46.58386" lon="5.70192">
        <ele>439</ele>
        <time>2019-04-03T11:09:14Z</time>
      </trkpt>
      <trkpt lat="46.58379" lon="5.70196">
        <ele>439</ele>
        <time>2019-04-03T11:10:14Z</time>
      </trkpt>
      <trkpt lat="46.58369" lon="5.70202">
        <ele>439</ele>
        <time>2019-04-03T11:11:14Z</time>
      </trkpt>
      <trkpt lat="46.58351" lon="5.70215">
        <ele>438</ele>
        <time>2019-04-03T11:12:14Z</time>
      </trkpt>
      <trkpt lat="46.58343" lon="5.70219">
        <ele>438</ele>
        <time>2019-04-03T11:13:14Z</time>
      </trkpt>
      <trkpt lat="46.58335" lon="5.70227">
        <ele>437</ele>
        <time>2019-04-03T11:14:14Z</time>
      </trkpt>
      <trkpt lat="46.58325" lon="5.70235">
        <ele>437</ele>
        <time>2019-04-03T11:15:14Z</time>
      </trkpt>
      <trkpt lat="46.58298" lon="5.70256">
        <ele>437</ele>
        <time>2019-04-03T11:16:14Z</time>
      </trkpt>
      <trkpt lat="46.58264" lon="5.70282">
        <ele>438</ele>
        <time>2019-04-03T11:17:14Z</time>
      </trkpt>
      <trkpt lat="46.58224" lon="5.70314">
        <ele>438</ele>
        <time>2019-04-03T11:18:14Z</time>
      </trkpt>
      <trkpt lat="46.58211" lon="5.70324">
        <ele>438</ele>
        <time>2019-04-03T11:19:14Z</time>
      </trkpt>
      <trkpt lat="46.58117" lon="5.70395">
        <ele>439</ele>
        <time>2019-04-03T11:20:14Z</time>
      </trkpt>
      <trkpt lat="46.58102" lon="5.70402">
        <ele>439</ele>
        <time>2019-04-03T11:21:14Z</time>
      </trkpt>
      <trkpt lat="46.58092" lon="5.70405">
        <ele>439</ele>
        <time>2019-04-03T11:22:14Z</time>
      </trkpt>
      <trkpt lat="46.5808" lon="5.70406">
        <ele>438</ele>
        <time>2019-04-03T11:23:14Z</time>
      </trkpt>
      <trkpt lat="46.58068" lon="5.70408">
        <ele>439</ele>
        <time>2019-04-03T11:24:14Z</time>
      </trkpt>
      <trkpt lat="46.5806" lon="5.70409">
        <ele>440</ele>
        <time>2019-04-03T11:25:14Z</time>
      </trkpt>
      <trkpt lat="46.58" lon="5.70416">
        <ele>443</ele>
        <time>2019-04-03T11:26:14Z</time>
      </trkpt>
      <trkpt lat="46.57986" lon="5.70417">
        <ele>444</ele>
        <time>2019-04-03T11:27:14Z</time>
      </trkpt>
      <trkpt lat="46.57966" lon="5.70421">
        <ele>445</ele>
        <time>2019-04-03T11:28:14Z</time>
      </trkpt>
      <trkpt lat="46.57942" lon="5.70423">
        <ele>447</ele>
        <time>2019-04-03T11:29:14Z</time>
      </trkpt>
      <trkpt lat="46.57923" lon="5.70429">
        <ele>449</ele>
        <time>2019-04-03T11:30:14Z</time>
      </trkpt>
      <trkpt lat="46.57911" lon="5.70435">
        <ele>450</ele>
        <time>2019-04-03T11:31:14Z</time>
      </trkpt>
      <trkpt lat="46.57891" lon="5.70447">
        <ele>450</ele>
        <time>2019-04-03T11:32:14Z</time>
      </trkpt>
      <trkpt lat="46.57869" lon="5.70461">
        <ele>451</ele>
        <time>2019-04-03T11:33:14Z</time>
      </trkpt>
      <trkpt lat="46.57846" lon="5.70474">
        <ele>452</ele>
        <time>2019-04-03T11:34:14Z</time>
      </trkpt>
      <trkpt lat="46.57828" lon="5.70484">
        <ele>453</ele>
        <time>2019-04-03T11:35:14Z</time>
      </trkpt>
      <trkpt lat="46.57812" lon="5.70489">
        <ele>454</ele>
        <time>2019-04-03T11:36:14Z</time>
      </trkpt>
      <trkpt lat="46.57791" lon="5.70489">
        <ele>454</ele>
        <time>2019-04-03T11:37:14Z</time>
      </trkpt>
      <trkpt lat="46.57774" lon="5.70489">
        <ele>454</ele>
        <time>2019-04-03T11:38:14Z</time>
      </trkpt>
      <trkpt lat="46.57758" lon="5.70491">
        <ele>455</ele>
        <time>2019-04-03T11:39:14Z</time>
      </trkpt>
      <trkpt lat="46.57745" lon="5.70497">
        <ele>456</ele>
        <time>2019-04-03T11:40:14Z</time>
      </trkpt>
      <trkpt lat="46.57728" lon="5.70512">
        <ele>457</ele>
        <time>2019-04-03T11:41:14Z</time>
      </trkpt>
      <trkpt lat="46.57592" lon="5.70652">
        <ele>465</ele>
        <time>2019-04-03T11:42:14Z</time>
      </trkpt>
      <trkpt lat="46.57576" lon="5.70668">
        <ele>466</ele>
        <time>2019-04-03T11:43:14Z</time>
      </trkpt>
      <trkpt lat="46.57565" lon="5.70677">
        <ele>467</ele>
        <time>2019-04-03T11:44:14Z</time>
      </trkpt>
      <trkpt lat="46.5754" lon="5.70687">
        <ele>468</ele>
        <time>2019-04-03T11:45:14Z</time>
      </trkpt>
      <trkpt lat="46.57516" lon="5.70697">
        <ele>469</ele>
        <time>2019-04-03T11:46:14Z</time>
      </trkpt>
      <trkpt lat="46.57501" lon="5.70704">
        <ele>470</ele>
        <time>2019-04-03T11:47:14Z</time>
      </trkpt>
      <trkpt lat="46.57487" lon="5.70714">
        <ele>471</ele>
        <time>2019-04-03T11:48:14Z</time>
      </trkpt>
      <trkpt lat="46.57467" lon="5.7073">
        <ele>472</ele>
        <time>2019-04-03T11:49:14Z</time>
      </trkpt>
      <trkpt lat="46.57445" lon="5.70748">
        <ele>474</ele>
        <time>2019-04-03T11:50:14Z</time>
      </trkpt>
      <trkpt lat="46.57419" lon="5.70772">
        <ele>475</ele>
        <time>2019-04-03T11:51:14Z</time>
      </trkpt>
      <trkpt lat="46.57396" lon="5.70792">
        <ele>476</ele>
        <time>2019-04-03T11:52:14Z</time>
      </trkpt>
      <trkpt lat="46.5737" lon="5.70813">
        <ele>477</ele>
        <time>2019-04-03T11:53:14Z</time>
      </trkpt>
      <trkpt lat="46.57271" lon="5.70889">
        <ele>480</ele>
        <time>2019-04-03T11:54:14Z</time>
      </trkpt>
      <trkpt lat="46.57249" lon="5.70905">
        <ele>481</ele>
        <time>2019-04-03T11:55:14Z</time>
      </trkpt>
      <trkpt lat="46.57231" lon="5.70918">
        <ele>481</ele>
        <time>2019-04-03T11:56:14Z</time>
      </trkpt>
      <trkpt lat="46.57213" lon="5.70927">
        <ele>481</ele>
        <time>2019-04-03T11:57:14Z</time>
      </trkpt>
      <trkpt lat="46.57195" lon="5.70937">
        <ele>481</ele>
        <time>2019-04-03T11:58:14Z</time>
      </trkpt>
      <trkpt lat="46.5713" lon="5.70969">
        <ele>483</ele>
        <time>2019-04-03T11:59:14Z</time>
      </trkpt>
      <trkpt lat="46.57103" lon="5.70983">
        <ele>484</ele>
        <time>2019-04-03T12:00:14Z</time>
      </trkpt>
      <trkpt lat="46.57085" lon="5.7099">
        <ele>485</ele>
        <time>2019-04-03T12:01:14Z</time>
      </trkpt>
      <trkpt lat="46.57055" lon="5.71004">
        <ele>485</ele>
        <time>2019-04-03T12:02:14Z</time>
      </trkpt>
      <trkpt lat="46.57029" lon="5.71013">
        <ele>484</ele>
        <time>2019-04-03T12:03:14Z</time>
      </trkpt>
      <trkpt lat="46.57003" lon="5.71024">
        <ele>484</ele>
        <time>2019-04-03T12:04:14Z</time>
      </trkpt>
      <trkpt lat="46.5699" lon="5.7103">
        <ele>482</ele>
        <time>2019-04-03T12:05:14Z</time>
      </trkpt>
      <trkpt lat="46.56982" lon="5.71029">
        <ele>481</ele>
        <time>2019-04-03T12:06:14Z</time>
      </trkpt>
      <trkpt lat="46.56977" lon="5.71182">
        <ele>480</ele>
        <time>2019-04-03T12:07:14Z</time>
      </trkpt>
      <trkpt lat="46.56973" lon="5.71277">
        <ele>480</ele>
        <time>2019-04-03T12:08:14Z</time>
      </trkpt>
      <trkpt lat="46.56967" lon="5.7135">
        <ele>481</ele>
        <time>2019-04-03T12:09:14Z</time>
      </trkpt>
      <trkpt lat="46.56961" lon="5.71391">
        <ele>482</ele>
        <time>2019-04-03T12:10:14Z</time>
      </trkpt>
      <trkpt lat="46.56946" lon="5.71446">
        <ele>482</ele>
        <time>2019-04-03T12:11:14Z</time>
      </trkpt>
      <trkpt lat="46.56913" lon="5.71523">
        <ele>482</ele>
        <time>2019-04-03T12:12:14Z</time>
      </trkpt>
      <trkpt lat="46.56881" lon="5.71595">
        <ele>482</ele>
        <time>2019-04-03T12:13:14Z</time>
      </trkpt>
      <trkpt lat="46.56837" lon="5.7169">
        <ele>483</ele>
        <time>2019-04-03T12:14:14Z</time>
      </trkpt>
      <trkpt lat="46.56798" lon="5.71774">
        <ele>483</ele>
        <time>2019-04-03T12:15:14Z</time>
      </trkpt>
      <trkpt lat="46.56725" lon="5.71933">
        <ele>482</ele>
        <time>2019-04-03T12:16:14Z</time>
      </trkpt>
      <trkpt lat="46.56655" lon="5.72077">
        <ele>483</ele>
        <time>2019-04-03T12:17:14Z</time>
      </trkpt>
      <trkpt lat="46.56612" lon="5.72143">
        <ele>483</ele>
        <time>2019-04-03T12:18:14Z</time>
      </trkpt>
      <trkpt lat="46.5657" lon="5.72193">
        <ele>482</ele>
        <time>2019-04-03T12:19:14Z</time>
      </trkpt>
      <trkpt lat="46.56532" lon="5.72231">
        <ele>482</ele>
        <time>2019-04-03T12:20:14Z</time>
      </trkpt>
      <trkpt lat="46.56487" lon="5.72261">
        <ele>482</ele>
        <time>2019-04-03T12:21:14Z</time>
      </trkpt>
      <trkpt lat="46.56423" lon="5.72306">
        <ele>483</ele>
        <time>2019-04-03T12:22:14Z</time>
      </trkpt>
      <trkpt lat="46.56002" lon="5.72586">
        <ele>488</ele>
        <time>2019-04-03T12:23:14Z</time>
      </trkpt>
      <trkpt lat="46.5596" lon="5.72613">
        <ele>489</ele>
        <time>2019-04-03T12:24:14Z</time>
      </trkpt>
      <trkpt lat="46.55941" lon="5.72603">
        <ele>490</ele>
        <time>2019-04-03T12:25:14Z</time>
      </trkpt>
      <trkpt lat="46.55934" lon="5.72596">
        <ele>490</ele>
        <time>2019-04-03T12:26:14Z</time>
      </trkpt>
      <trkpt lat="46.55917" lon="5.72571">
        <ele>490</ele>
        <time>2019-04-03T12:27:14Z</time>
      </trkpt>
      <trkpt lat="46.55788" lon="5.724">
        <ele>493</ele>
        <time>2019-04-03T12:28:14Z</time>
      </trkpt>
      <trkpt lat="46.55742" lon="5.72337">
        <ele>496</ele>
        <time>2019-04-03T12:29:14Z</time>
      </trkpt>
      <trkpt lat="46.55696" lon="5.72274">
        <ele>495</ele>
        <time>2019-04-03T12:30:14Z</time>
      </trkpt>
      <trkpt lat="46.55673" lon="5.72242">
        <ele>496</ele>
        <time>2019-04-03T12:31:14Z</time>
      </trkpt>
      <trkpt lat="46.55658" lon="5.72213">
        <ele>496</ele>
        <time>2019-04-03T12:32:14Z</time>
      </trkpt>
      <trkpt lat="46.55624" lon="5.72156">
        <ele>494</ele>
        <time>2019-04-03T12:33:14Z</time>
      </trkpt>
      <trkpt lat="46.55603" lon="5.72124">
        <ele>494</ele>
        <time>2019-04-03T12:34:14Z</time>
      </trkpt>
      <trkpt lat="46.55615" lon="5.7211">
        <ele>494</ele>
        <time>2019-04-03T12:35:14Z</time>
      </trkpt>
      <trkpt lat="46.55625" lon="5.72099">
        <ele>494</ele>
        <time>2019-04-03T12:36:14Z</time>
      </trkpt>
      <trkpt lat="46.55632" lon="5.72088">
        <ele>494</ele>
        <time>2019-04-03T12:37:14Z</time>
      </trkpt>
      <trkpt lat="46.55635" lon="5.72078">
        <ele>494</ele>
        <time>2019-04-03T12:38:14Z</time>
      </trkpt>
      <trkpt lat="46.55635" lon="5.72059">
        <ele>494</ele>
        <time>2019-04-03T12:39:14Z</time>
      </trkpt>
      <trkpt lat="46.55634" lon="5.72022">
        <ele>494</ele>
        <time>2019-04-03T12:40:14Z</time>
      </trkpt>
      <trkpt lat="46.55632" lon="5.71973">
        <ele>493</ele>
        <time>2019-04-03T12:41:14Z</time>
      </trkpt>
      <trkpt lat="46.55631" lon="5.71951">
        <ele>494</ele>
        <time>2019-04-03T12:42:14Z</time>
      </trkpt>
      <trkpt lat="46.55628" lon="5.71931">
        <ele>494</ele>
        <time>2019-04-03T12:43:14Z</time>
      </trkpt>
      <trkpt lat="46.55625" lon="5.7191">
        <ele>493</ele>
        <time>2019-04-03T12:44:14Z</time>
      </trkpt>
      <trkpt lat="46.5562" lon="5.71886">
        <ele>493</ele>
        <time>2019-04-03T12:45:14Z</time>
      </trkpt>
      <trkpt lat="46.55613" lon="5.7184">
        <ele>493</ele>
        <time>2019-04-03T12:46:14Z</time>
      </trkpt>
      <trkpt lat="46.55611" lon="5.71825">
        <ele>493</ele>
        <time>2019-04-03T12:47:14Z</time>
      </trkpt>
      <trkpt lat="46.55609" lon="5.71818">
        <ele>493</ele>
        <time>2019-04-03T12:48:14Z</time>
      </trkpt>
      <trkpt lat="46.55602" lon="5.7181">
        <ele>493</ele>
        <time>2019-04-03T12:49:14Z</time>
      </trkpt>
      <trkpt lat="46.55594" lon="5.71798">
        <ele>493</ele>
        <time>2019-04-03T12:50:14Z</time>
      </trkpt>
      <trkpt lat="46.55588" lon="5.71785">
        <ele>493</ele>
        <time>2019-04-03T12:51:14Z</time>
      </trkpt>
      <trkpt lat="46.55584" lon="5.71769">
        <ele>493</ele>
        <time>2019-04-03T12:52:14Z</time>
      </trkpt>
      <trkpt lat="46.55581" lon="5.71723">
        <ele>493</ele>
        <time>2019-04-03T12:53:14Z</time>
      </trkpt>
      <trkpt lat="46.55579" lon="5.71704">
        <ele>493</ele>
        <time>2019-04-03T12:54:14Z</time>
      </trkpt>
      <trkpt lat="46.55576" lon="5.71683">
        <ele>493</ele>
        <time>2019-04-03T12:55:14Z</time>
      </trkpt>
      <trkpt lat="46.55573" lon="5.71665">
        <ele>493</ele>
        <time>2019-04-03T12:56:14Z</time>
      </trkpt>
      <trkpt lat="46.55575" lon="5.71651">
        <ele>493</ele>
        <time>2019-04-03T12:57:14Z</time>
      </trkpt>
      <trkpt lat="46.55575" lon="5.71637">
        <ele>492</ele>
        <time>2019-04-03T12:58:14Z</time>
      </trkpt>
      <trkpt lat="46.55579" lon="5.71621">
        <ele>492</ele>
        <time>2019-04-03T12:59:14Z</time>
      </trkpt>
      <trkpt lat="46.55584" lon="5.71605">
        <ele>492</ele>
        <time>2019-04-03T13:00:14Z</time>
      </trkpt>
      <trkpt lat="46.55548" lon="5.71573">
        <ele>492</ele>
        <time>2019-04-03T13:01:14Z</time>
      </trkpt>
      <trkpt lat="46.55536" lon="5.71564">
        <ele>492</ele>
        <time>2019-04-03T13:02:14Z</time>
      </trkpt>
      <trkpt lat="46.55525" lon="5.71557">
        <ele>492</ele>
        <time>2019-04-03T13:03:14Z</time>
      </trkpt>
      <trkpt lat="46.55508" lon="5.71549">
        <ele>491</ele>
        <time>2019-04-03T13:04:14Z</time>
      </trkpt>
      <trkpt lat="46.55481" lon="5.71532">
        <ele>491</ele>
        <time>2019-04-03T13:05:14Z</time>
      </trkpt>
      <trkpt lat="46.55475" lon="5.71526">
        <ele>491</ele>
        <time>2019-04-03T13:06:14Z</time>
      </trkpt>
      <trkpt lat="46.55468" lon="5.71517">
        <ele>491</ele>
        <time>2019-04-03T13:07:14Z</time>
      </trkpt>
      <trkpt lat="46.55461" lon="5.71505">
        <ele>491</ele>
        <time>2019-04-03T13:08:14Z</time>
      </trkpt>
      <trkpt lat="46.55429" lon="5.71454">
        <ele>490</ele>
        <time>2019-04-03T13:09:14Z</time>
      </trkpt>
      <trkpt lat="46.55415" lon="5.71433">
        <ele>491</ele>
        <time>2019-04-03T13:10:14Z</time>
      </trkpt>
      <trkpt lat="46.55365" lon="5.71361">
        <ele>490</ele>
        <time>2019-04-03T13:11:14Z</time>
      </trkpt>
      <trkpt lat="46.55356" lon="5.71347">
        <ele>489</ele>
        <time>2019-04-03T13:12:14Z</time>
      </trkpt>
      <trkpt lat="46.55342" lon="5.71331">
        <ele>489</ele>
        <time>2019-04-03T13:13:14Z</time>
      </trkpt>
      <trkpt lat="46.55338" lon="5.71329">
        <ele>489</ele>
        <time>2019-04-03T13:14:14Z</time>
      </trkpt>
      <trkpt lat="46.55336" lon="5.71318">
        <ele>489</ele>
        <time>2019-04-03T13:15:14Z</time>
      </trkpt>
      <trkpt lat="46.55331" lon="5.71293">
        <ele>489</ele>
        <time>2019-04-03T13:16:14Z</time>
      </trkpt>
      <trkpt lat="46.55315" lon="5.71211">
        <ele>489</ele>
        <time>2019-04-03T13:17:14Z</time>
      </trkpt>
      <trkpt lat="46.55309" lon="5.71183">
        <ele>489</ele>
        <time>2019-04-03T13:18:14Z</time>
      </trkpt>
      <trkpt lat="46.55303" lon="5.71149">
        <ele>489</ele>
        <time>2019-04-03T13:19:14Z</time>
      </trkpt>
      <trkpt lat="46.55297" lon="5.7112">
        <ele>490</ele>
        <time>2019-04-03T13:20:14Z</time>
      </trkpt>
      <trkpt lat="46.55294" lon="5.71104">
        <ele>490</ele>
        <time>2019-04-03T13:21:14Z</time>
      </trkpt>
      <trkpt lat="46.5527" lon="5.71125">
        <ele>489</ele>
        <time>2019-04-03T13:22:14Z</time>
      </trkpt>
      <trkpt lat="46.55251" lon="5.7113">
        <ele>489</ele>
        <time>2019-04-03T13:23:14Z</time>
      </trkpt>
      <trkpt lat="46.55232" lon="5.71129">
        <ele>488</ele>
        <time>2019-04-03T13:24:14Z</time>
      </trkpt>
      <trkpt lat="46.55217" lon="5.71124">
        <ele>487</ele>
        <time>2019-04-03T13:25:14Z</time>
      </trkpt>
      <trkpt lat="46.55205" lon="5.71112">
        <ele>487</ele>
        <time>2019-04-03T13:26:14Z</time>
      </trkpt>
      <trkpt lat="46.55186" lon="5.71094">
        <ele>487</ele>
        <time>2019-04-03T13:27:14Z</time>
      </trkpt>
      <trkpt lat="46.55166" lon="5.71071">
        <ele>486</ele>
        <time>2019-04-03T13:28:14Z</time>
      </trkpt>
      <trkpt lat="46.55148" lon="5.71059">
        <ele>485</ele>
        <time>2019-04-03T13:29:14Z</time>
      </trkpt>
      <trkpt lat="46.55133" lon="5.71056">
        <ele>484</ele>
        <time>2019-04-03T13:30:14Z</time>
      </trkpt>
      <trkpt lat="46.55117" lon="5.71055">
        <ele>483</ele>
        <time>2019-04-03T13:31:14Z</time>
      </trkpt>
      <trkpt lat="46.55108" lon="5.71058">
        <ele>483</ele>
        <time>2019-04-03T13:32:14Z</time>
      </trkpt>
      <trkpt lat="46.5507" lon="5.70843">
        <ele>481</ele>
        <time>2019-04-03T13:33:14Z</time>
      </trkpt>
      <trkpt lat="46.55042" lon="5.70847">
        <ele>480</ele>
        <time>2019-04-03T13:34:14Z</time>
      </trkpt>
      <trkpt lat="46.55012" lon="5.70846">
        <ele>480</ele>
        <time>2019-04-03T13:35:14Z</time>
      </trkpt>
      <trkpt lat="46.54982" lon="5.70852">
        <ele>480</ele>
        <time>2019-04-03T13:36:14Z</time>
      </trkpt>
      <trkpt lat="46.54963" lon="5.70877">
        <ele>482</ele>
        <time>2019-04-03T13:37:14Z</time>
      </trkpt>
      <trkpt lat="46.54961" lon="5.7093">
        <ele>484</ele>
        <time>2019-04-03T13:38:14Z</time>
      </trkpt>
      <trkpt lat="46.54956" lon="5.70972">
        <ele>487</ele>
        <time>2019-04-03T13:39:14Z</time>
      </trkpt>
      <trkpt lat="46.54907" lon="5.70985">
        <ele>488</ele>
        <time>2019-04-03T13:40:14Z</time>
      </trkpt>
      <trkpt lat="46.5489" lon="5.70976">
        <ele>488</ele>
        <time>2019-04-03T13:41:14Z</time>
      </trkpt>
      <trkpt lat="46.54888" lon="5.7097">
        <ele>488</ele>
        <time>2019-04-03T13:42:14Z</time>
      </trkpt>
      <trkpt lat="46.54886" lon="5.70965">
        <ele>488</ele>
        <time>2019-04-03T13:43:14Z</time>
      </trkpt>
      <trkpt lat="46.54883" lon="5.70954">
        <ele>487</ele>
        <time>2019-04-03T13:44:14Z</time>
      </trkpt>
      <trkpt lat="46.54879" lon="5.70932">
        <ele>486</ele>
        <time>2019-04-03T13:45:14Z</time>
      </trkpt>
      <trkpt lat="46.54877" lon="5.70909">
        <ele>485</ele>
        <time>2019-04-03T13:46:14Z</time>
      </trkpt>
      <trkpt lat="46.54877" lon="5.70897">
        <ele>484</ele>
        <time>2019-04-03T13:47:14Z</time>
      </trkpt>
      <trkpt lat="46.54877" lon="5.70868">
        <ele>483</ele>
        <time>2019-04-03T13:48:14Z</time>
      </trkpt>
      <trkpt lat="46.54879" lon="5.70832">
        <ele>481</ele>
        <time>2019-04-03T13:49:14Z</time>
      </trkpt>
      <trkpt lat="46.5488" lon="5.70813">
        <ele>480</ele>
        <time>2019-04-03T13:50:14Z</time>
      </trkpt>
      <trkpt lat="46.54881" lon="5.70794">
        <ele>480</ele>
        <time>2019-04-03T13:51:14Z</time>
      </trkpt>
      <trkpt lat="46.5488" lon="5.70783">
        <ele>480</ele>
        <time>2019-04-03T13:52:14Z</time>
      </trkpt>
      <trkpt lat="46.54878" lon="5.70769">
        <ele>479</ele>
        <time>2019-04-03T13:53:14Z</time>
      </trkpt>
      <trkpt lat="46.54871" lon="5.70751">
        <ele>478</ele>
        <time>2019-04-03T13:54:14Z</time>
      </trkpt>
      <trkpt lat="46.54864" lon="5.70734">
        <ele>478</ele>
        <time>2019-04-03T13:55:14Z</time>
      </trkpt>
      <trkpt lat="46.54852" lon="5.70709">
        <ele>477</ele>
        <time>2019-04-03T13:56:14Z</time>
      </trkpt>
      <trkpt lat="46.54843" lon="5.70689">
        <ele>476</ele>
        <time>2019-04-03T13:57:14Z</time>
      </trkpt>
      <trkpt lat="46.54835" lon="5.70668">
        <ele>475</ele>
        <time>2019-04-03T13:58:14Z</time>
      </trkpt>
      <trkpt lat="46.5482" lon="5.70617">
        <ele>474</ele>
        <time>2019-04-03T13:59:14Z</time>
      </trkpt>
      <trkpt lat="46.54813" lon="5.70602">
        <ele>474</ele>
        <time>2019-04-03T14:00:14Z</time>
      </trkpt>
      <trkpt lat="46.54798" lon="5.70574">
        <ele>474</ele>
        <time>2019-04-03T14:01:14Z</time>
      </trkpt>
      <trkpt lat="46.54791" lon="5.70562">
        <ele>474</ele>
        <time>2019-04-03T14:02:14Z</time>
      </trkpt>
      <trkpt lat="46.54785" lon="5.70553">
        <ele>474</ele>
        <time>2019-04-03T14:03:14Z</time>
      </trkpt>
      <trkpt lat="46.54777" lon="5.70542">
        <ele>474</ele>
        <time>2019-04-03T14:04:14Z</time>
      </trkpt>
      <trkpt lat="46.54764" lon="5.70521">
        <ele>473</ele>
        <time>2019-04-03T14:05:14Z</time>
      </trkpt>
      <trkpt lat="46.54758" lon="5.70508">
        <ele>473</ele>
        <time>2019-04-03T14:06:14Z</time>
      </trkpt>
      <trkpt lat="46.54752" lon="5.70493">
        <ele>473</ele>
        <time>2019-04-03T14:07:14Z</time>
      </trkpt>
      <trkpt lat="46.54748" lon="5.70478">
        <ele>472</ele>
        <time>2019-04-03T14:08:14Z</time>
      </trkpt>
      <trkpt lat="46.5474" lon="5.70438">
        <ele>472</ele>
        <time>2019-04-03T14:09:14Z</time>
      </trkpt>
      <trkpt lat="46.54733" lon="5.70408">
        <ele>472</ele>
        <time>2019-04-03T14:10:14Z</time>
      </trkpt>
      <trkpt lat="46.54725" lon="5.70387">
        <ele>472</ele>
        <time>2019-04-03T14:11:14Z</time>
      </trkpt>
      <trkpt lat="46.54716" lon="5.70365">
        <ele>472</ele>
        <time>2019-04-03T14:12:14Z</time>
      </trkpt>
      <trkpt lat="46.54707" lon="5.70345">
        <ele>473</ele>
        <time>2019-04-03T14:13:14Z</time>
      </trkpt>
      <trkpt lat="46.54699" lon="5.70332">
        <ele>473</ele>
        <time>2019-04-03T14:14:14Z</time>
      </trkpt>
      <trkpt lat="46.54692" lon="5.70318">
        <ele>472</ele>
        <time>2019-04-03T14:15:14Z</time>
      </trkpt>
      <trkpt lat="46.54674" lon="5.70291">
        <ele>471</ele>
        <time>2019-04-03T14:16:14Z</time>
      </trkpt>
      <trkpt lat="46.54665" lon="5.70282">
        <ele>471</ele>
        <time>2019-04-03T14:17:14Z</time>
      </trkpt>
      <trkpt lat="46.5464" lon="5.70267">
        <ele>471</ele>
        <time>2019-04-03T14:18:14Z</time>
      </trkpt>
      <trkpt lat="46.54583" lon="5.70235">
        <ele>470</ele>
        <time>2019-04-03T14:19:14Z</time>
      </trkpt>
      <trkpt lat="46.54561" lon="5.70224">
        <ele>469</ele>
        <time>2019-04-03T14:20:14Z</time>
      </trkpt>
      <trkpt lat="46.54542" lon="5.7022">
        <ele>469</ele>
        <time>2019-04-03T14:21:14Z</time>
      </trkpt>
      <trkpt lat="46.5453" lon="5.70218">
        <ele>469</ele>
        <time>2019-04-03T14:22:14Z</time>
      </trkpt>
      <trkpt lat="46.54516" lon="5.70215">
        <ele>468</ele>
        <time>2019-04-03T14:23:14Z</time>
      </trkpt>
      <trkpt lat="46.54504" lon="5.70209">
        <ele>468</ele>
        <time>2019-04-03T14:24:14Z</time>
      </trkpt>
      <trkpt lat="46.54499" lon="5.70204">
        <ele>468</ele>
        <time>2019-04-03T14:25:14Z</time>
      </trkpt>
      <trkpt lat="46.54493" lon="5.70196">
        <ele>468</ele>
        <time>2019-04-03T14:26:14Z</time>
      </trkpt>
      <trkpt lat="46.54488" lon="5.70179">
        <ele>467</ele>
        <time>2019-04-03T14:27:14Z</time>
      </trkpt>
      <trkpt lat="46.54484" lon="5.70161">
        <ele>467</ele>
        <time>2019-04-03T14:28:14Z</time>
      </trkpt>
      <trkpt lat="46.5447" lon="5.70064">
        <ele>471</ele>
        <time>2019-04-03T14:29:14Z</time>
      </trkpt>
      <trkpt lat="46.54465" lon="5.70025">
        <ele>475</ele>
        <time>2019-04-03T14:30:14Z</time>
      </trkpt>
      <trkpt lat="46.54463" lon="5.70011">
        <ele>476</ele>
        <time>2019-04-03T14:31:14Z</time>
      </trkpt>
      <trkpt lat="46.54464" lon="5.7">
        <ele>477</ele>
        <time>2019-04-03T14:32:14Z</time>
      </trkpt>
      <trkpt lat="46.54466" lon="5.69987">
        <ele>481</ele>
        <time>2019-04-03T14:33:14Z</time>
      </trkpt>
      <trkpt lat="46.54471" lon="5.69975">
        <ele>484</ele>
        <time>2019-04-03T14:34:14Z</time>
      </trkpt>
      <trkpt lat="46.54479" lon="5.69962">
        <ele>487</ele>
        <time>2019-04-03T14:35:14Z</time>
      </trkpt>
      <trkpt lat="46.54487" lon="5.69953">
        <ele>489</ele>
        <time>2019-04-03T14:36:14Z</time>
      </trkpt>
      <trkpt lat="46.5457" lon="5.69888">
        <ele>497</ele>
        <time>2019-04-03T14:37:14Z</time>
      </trkpt>
      <trkpt lat="46.54585" lon="5.69879">
        <ele>497</ele>
        <time>2019-04-03T14:38:14Z</time>
      </trkpt>
      <trkpt lat="46.54617" lon="5.69852">
        <ele>498</ele>
        <time>2019-04-03T14:39:14Z</time>
      </trkpt>
      <trkpt lat="46.54622" lon="5.69846">
        <ele>498</ele>
        <time>2019-04-03T14:40:14Z</time>
      </trkpt>
      <trkpt lat="46.54628" lon="5.6984">
        <ele>499</ele>
        <time>2019-04-03T14:41:14Z</time>
      </trkpt>
      <trkpt lat="46.54652" lon="5.69807">
        <ele>502</ele>
        <time>2019-04-03T14:42:14Z</time>
      </trkpt>
      <trkpt lat="46.54658" lon="5.698">
        <ele>502</ele>
        <time>2019-04-03T14:43:14Z</time>
      </trkpt>
      <trkpt lat="46.54678" lon="5.69782">
        <ele>504</ele>
        <time>2019-04-03T14:44:14Z</time>
      </trkpt>
      <trkpt lat="46.54685" lon="5.69775">
        <ele>505</ele>
        <time>2019-04-03T14:45:14Z</time>
      </trkpt>
      <trkpt lat="46.54696" lon="5.69762">
        <ele>506</ele>
        <time>2019-04-03T14:46:14Z</time>
      </trkpt>
      <trkpt lat="46.54701" lon="5.69756">
        <ele>507</ele>
        <time>2019-04-03T14:47:14Z</time>
      </trkpt>
      <trkpt lat="46.54711" lon="5.69739">
        <ele>507</ele>
        <time>2019-04-03T14:48:14Z</time>
      </trkpt>
      <trkpt lat="46.54717" lon="5.69727">
        <ele>508</ele>
        <time>2019-04-03T14:49:14Z</time>
      </trkpt>
      <trkpt lat="46.54721" lon="5.69714">
        <ele>508</ele>
        <time>2019-04-03T14:50:14Z</time>
      </trkpt>
      <trkpt lat="46.54722" lon="5.69692">
        <ele>509</ele>
        <time>2019-04-03T14:51:14Z</time>
      </trkpt>
      <trkpt lat="46.54722" lon="5.69674">
        <ele>511</ele>
        <time>2019-04-03T14:52:14Z</time>
      </trkpt>
      <trkpt lat="46.54721" lon="5.69663">
        <ele>511</ele>
        <time>2019-04-03T14:53:14Z</time>
      </trkpt>
      <trkpt lat="46.5472" lon="5.69653">
        <ele>511</ele>
        <time>2019-04-03T14:54:14Z</time>
      </trkpt>
      <trkpt lat="46.54719" lon="5.69641">
        <ele>512</ele>
        <time>2019-04-03T14:55:14Z</time>
      </trkpt>
      <trkpt lat="46.54714" lon="5.69611">
        <ele>512</ele>
        <time>2019-04-03T14:56:14Z</time>
      </trkpt>
      <trkpt lat="46.54708" lon="5.69586">
        <ele>514</ele>
        <time>2019-04-03T14:57:14Z</time>
      </trkpt>
      <trkpt lat="46.54701" lon="5.69558">
        <ele>515</ele>
        <time>2019-04-03T14:58:14Z</time>
      </trkpt>
      <trkpt lat="46.54697" lon="5.69551">
        <ele>515</ele>
        <time>2019-04-03T14:59:14Z</time>
      </trkpt>
      <trkpt lat="46.54694" lon="5.69547">
        <ele>516</ele>
        <time>2019-04-03T15:00:14Z</time>
      </trkpt>
      <trkpt lat="46.54691" lon="5.69544">
        <ele>516</ele>
        <time>2019-04-03T15:01:14Z</time>
      </trkpt>
      <trkpt lat="46.54675" lon="5.69533">
        <ele>518</ele>
        <time>2019-04-03T15:02:14Z</time>
      </trkpt>
      <trkpt lat="46.54672" lon="5.69529">
        <ele>518</ele>
        <time>2019-04-03T15:03:14Z</time>
      </trkpt>
      <trkpt lat="46.54669" lon="5.69525">
        <ele>519</ele>
        <time>2019-04-03T15:04:14Z</time>
      </trkpt>
      <trkpt lat="46.54668" lon="5.69521">
        <ele>519</ele>
        <time>2019-04-03T15:05:14Z</time>
      </trkpt>
      <trkpt lat="46.54661" lon="5.69497">
        <ele>521</ele>
        <time>2019-04-03T15:06:14Z</time>
      </trkpt>
      <trkpt lat="46.5466" lon="5.69481">
        <ele>522</ele>
        <time>2019-04-03T15:07:14Z</time>
      </trkpt>
      <trkpt lat="46.54656" lon="5.69417">
        <ele>525</ele>
        <time>2019-04-03T15:08:14Z</time>
      </trkpt>
      <trkpt lat="46.54655" lon="5.69403">
        <ele>526</ele>
        <time>2019-04-03T15:09:14Z</time>
      </trkpt>
      <trkpt lat="46.54653" lon="5.69387">
        <ele>526</ele>
        <time>2019-04-03T15:10:14Z</time>
      </trkpt>
      <trkpt lat="46.5465" lon="5.69362">
        <ele>527</ele>
        <time>2019-04-03T15:11:14Z</time>
      </trkpt>
      <trkpt lat="46.54651" lon="5.69346">
        <ele>527</ele>
        <time>2019-04-03T15:12:14Z</time>
      </trkpt>
      <trkpt lat="46.54653" lon="5.69319">
        <ele>527</ele>
        <time>2019-04-03T15:13:14Z</time>
      </trkpt>
      <trkpt lat="46.54662" lon="5.69116">
        <ele>526</ele>
        <time>2019-04-03T15:14:14Z</time>
      </trkpt>
      <trkpt lat="46.54664" lon="5.69089">
        <ele>525</ele>
        <time>2019-04-03T15:15:14Z</time>
      </trkpt>
      <trkpt lat="46.54666" lon="5.69073">
        <ele>524</ele>
        <time>2019-04-03T15:16:14Z</time>
      </trkpt>
      <trkpt lat="46.54666" lon="5.69047">
        <ele>524</ele>
        <time>2019-04-03T15:17:14Z</time>
      </trkpt>
      <trkpt lat="46.54665" lon="5.6901">
        <ele>524</ele>
        <time>2019-04-03T15:18:14Z</time>
      </trkpt>
      <trkpt lat="46.54663" lon="5.68981">
        <ele>524</ele>
        <time>2019-04-03T15:19:14Z</time>
      </trkpt>
      <trkpt lat="46.54654" lon="5.68934">
        <ele>524</ele>
        <time>2019-04-03T15:20:14Z</time>
      </trkpt>
      <trkpt lat="46.54651" lon="5.68919">
        <ele>524</ele>
        <time>2019-04-03T15:21:14Z</time>
      </trkpt>
      <trkpt lat="46.54647" lon="5.68903">
        <ele>524</ele>
        <time>2019-04-03T15:22:14Z</time>
      </trkpt>
      <trkpt lat="46.54643" lon="5.68885">
        <ele>523</ele>
        <time>2019-04-03T15:23:14Z</time>
      </trkpt>
      <trkpt lat="46.54638" lon="5.68872">
        <ele>523</ele>
        <time>2019-04-03T15:24:14Z</time>
      </trkpt>
      <trkpt lat="46.54619" lon="5.68836">
        <ele>523</ele>
        <time>2019-04-03T15:25:14Z</time>
      </trkpt>
      <trkpt lat="46.54611" lon="5.68819">
        <ele>523</ele>
        <time>2019-04-03T15:26:14Z</time>
      </trkpt>
      <trkpt lat="46.54599" lon="5.68791">
        <ele>522</ele>
        <time>2019-04-03T15:27:14Z</time>
      </trkpt>
      <trkpt lat="46.54589" lon="5.68769">
        <ele>522</ele>
        <time>2019-04-03T15:28:14Z</time>
      </trkpt>
      <trkpt lat="46.54577" lon="5.68734">
        <ele>519</ele>
        <time>2019-04-03T15:29:14Z</time>
      </trkpt>
      <trkpt lat="46.54573" lon="5.68726">
        <ele>517</ele>
        <time>2019-04-03T15:30:14Z</time>
      </trkpt>
      <trkpt lat="46.54569" lon="5.6872">
        <ele>516</ele>
        <time>2019-04-03T15:31:14Z</time>
      </trkpt>
      <trkpt lat="46.54564" lon="5.68716">
        <ele>516</ele>
        <time>2019-04-03T15:32:14Z</time>
      </trkpt>
      <trkpt lat="46.54559" lon="5.68715">
        <ele>516</ele>
        <time>2019-04-03T15:33:14Z</time>
      </trkpt>
      <trkpt lat="46.54555" lon="5.68716">
        <ele>516</ele>
        <time>2019-04-03T15:34:14Z</time>
      </trkpt>
      <trkpt lat="46.54549" lon="5.68719">
        <ele>517</ele>
        <time>2019-04-03T15:35:14Z</time>
      </trkpt>
      <trkpt lat="46.54544" lon="5.68723">
        <ele>518</ele>
        <time>2019-04-03T15:36:14Z</time>
      </trkpt>
      <trkpt lat="46.54535" lon="5.6873">
        <ele>520</ele>
        <time>2019-04-03T15:37:14Z</time>
      </trkpt>
      <trkpt lat="46.54528" lon="5.68734">
        <ele>521</ele>
        <time>2019-04-03T15:38:14Z</time>
      </trkpt>
      <trkpt lat="46.54523" lon="5.68736">
        <ele>521</ele>
        <time>2019-04-03T15:39:14Z</time>
      </trkpt>
      <trkpt lat="46.54516" lon="5.68736">
        <ele>521</ele>
        <time>2019-04-03T15:40:14Z</time>
      </trkpt>
      <trkpt lat="46.5451" lon="5.68735">
        <ele>522</ele>
        <time>2019-04-03T15:41:14Z</time>
      </trkpt>
      <trkpt lat="46.54503" lon="5.68735">
        <ele>522</ele>
        <time>2019-04-03T15:42:14Z</time>
      </trkpt>
      <trkpt lat="46.54485" lon="5.68731">
        <ele>523</ele>
        <time>2019-04-03T15:43:14Z</time>
      </trkpt>
      <trkpt lat="46.54482" lon="5.68729">
        <ele>523</ele>
        <time>2019-04-03T15:44:14Z</time>
      </trkpt>
      <trkpt lat="46.54479" lon="5.68722">
        <ele>522</ele>
        <time>2019-04-03T15:45:14Z</time>
      </trkpt>
      <trkpt lat="46.54473" lon="5.68708">
        <ele>521</ele>
        <time>2019-04-03T15:46:14Z</time>
      </trkpt>
      <trkpt lat="46.54464" lon="5.68693">
        <ele>519</ele>
        <time>2019-04-03T15:47:14Z</time>
      </trkpt>
      <trkpt lat="46.54447" lon="5.68678">
        <ele>520</ele>
        <time>2019-04-03T15:48:14Z</time>
      </trkpt>
      <trkpt lat="46.54439" lon="5.68671">
        <ele>520</ele>
        <time>2019-04-03T15:49:14Z</time>
      </trkpt>
      <trkpt lat="46.54433" lon="5.68662">
        <ele>520</ele>
        <time>2019-04-03T15:50:14Z</time>
      </trkpt>
      <trkpt lat="46.5443" lon="5.68654">
        <ele>518</ele>
        <time>2019-04-03T15:51:14Z</time>
      </trkpt>
      <trkpt lat="46.54423" lon="5.68624">
        <ele>513</ele>
        <time>2019-04-03T15:52:14Z</time>
      </trkpt>
      <trkpt lat="46.54421" lon="5.68619">
        <ele>512</ele>
        <time>2019-04-03T15:53:14Z</time>
      </trkpt>
      <trkpt lat="46.54408" lon="5.68605">
        <ele>511</ele>
        <time>2019-04-03T15:54:14Z</time>
      </trkpt>
      <trkpt lat="46.54393" lon="5.68592">
        <ele>510</ele>
        <time>2019-04-03T15:55:14Z</time>
      </trkpt>
      <trkpt lat="46.54374" lon="5.68572">
        <ele>508</ele>
        <time>2019-04-03T15:56:14Z</time>
      </trkpt>
      <trkpt lat="46.54312" lon="5.685">
        <ele>501</ele>
        <time>2019-04-03T15:57:14Z</time>
      </trkpt>
      <trkpt lat="46.54302" lon="5.68492">
        <ele>500</ele>
        <time>2019-04-03T15:58:14Z</time>
      </trkpt>
      <trkpt lat="46.54286" lon="5.68482">
        <ele>500</ele>
        <time>2019-04-03T15:59:14Z</time>
      </trkpt>
      <trkpt lat="46.54253" lon="5.68466">
        <ele>502</ele>
        <time>2019-04-03T16:00:14Z</time>
      </trkpt>
      <trkpt lat="46.54239" lon="5.68457">
        <ele>502</ele>
        <time>2019-04-03T16:01:14Z</time>
      </trkpt>
      <trkpt lat="46.54224" lon="5.68441">
        <ele>500</ele>
        <time>2019-04-03T16:02:14Z</time>
      </trkpt>
      <trkpt lat="46.54213" lon="5.68423">
        <ele>496</ele>
        <time>2019-04-03T16:03:14Z</time>
      </trkpt>
      <trkpt lat="46.54202" lon="5.68402">
        <ele>492</ele>
        <time>2019-04-03T16:04:14Z</time>
      </trkpt>
      <trkpt lat="46.5419" lon="5.68386">
        <ele>489</ele>
        <time>2019-04-03T16:05:14Z</time>
      </trkpt>
      <trkpt lat="46.54186" lon="5.68381">
        <ele>489</ele>
        <time>2019-04-03T16:06:14Z</time>
      </trkpt>
      <trkpt lat="46.54181" lon="5.68377">
        <ele>489</ele>
        <time>2019-04-03T16:07:14Z</time>
      </trkpt>
      <trkpt lat="46.54175" lon="5.68374">
        <ele>489</ele>
        <time>2019-04-03T16:08:14Z</time>
      </trkpt>
      <trkpt lat="46.54166" lon="5.6837">
        <ele>490</ele>
        <time>2019-04-03T16:09:14Z</time>
      </trkpt>
      <trkpt lat="46.54108" lon="5.68335">
        <ele>488</ele>
        <time>2019-04-03T16:10:14Z</time>
      </trkpt>
      <trkpt lat="46.54095" lon="5.68326">
        <ele>488</ele>
        <time>2019-04-03T16:11:14Z</time>
      </trkpt>
      <trkpt lat="46.54082" lon="5.68315">
        <ele>488</ele>
        <time>2019-04-03T16:12:14Z</time>
      </trkpt>
      <trkpt lat="46.54074" lon="5.68297">
        <ele>484</ele>
        <time>2019-04-03T16:13:14Z</time>
      </trkpt>
      <trkpt lat="46.54068" lon="5.68289">
        <ele>483</ele>
        <time>2019-04-03T16:14:14Z</time>
      </trkpt>
      <trkpt lat="46.54061" lon="5.68287">
        <ele>483</ele>
        <time>2019-04-03T16:15:14Z</time>
      </trkpt>
      <trkpt lat="46.54048" lon="5.68288">
        <ele>483</ele>
        <time>2019-04-03T16:16:14Z</time>
      </trkpt>
      <trkpt lat="46.54036" lon="5.68291">
        <ele>483</ele>
        <time>2019-04-03T16:17:14Z</time>
      </trkpt>
      <trkpt lat="46.54026" lon="5.68291">
        <ele>483</ele>
        <time>2019-04-03T16:18:14Z</time>
      </trkpt>
      <trkpt lat="46.54011" lon="5.68287">
        <ele>483</ele>
        <time>2019-04-03T16:19:14Z</time>
      </trkpt>
      <trkpt lat="46.53998" lon="5.68283">
        <ele>482</ele>
        <time>2019-04-03T16:20:14Z</time>
      </trkpt>
      <trkpt lat="46.53988" lon="5.68282">
        <ele>482</ele>
        <time>2019-04-03T16:21:14Z</time>
      </trkpt>
      <trkpt lat="46.53947" lon="5.6828">
        <ele>481</ele>
        <time>2019-04-03T16:22:14Z</time>
      </trkpt>
      <trkpt lat="46.53935" lon="5.68277">
        <ele>480</ele>
        <time>2019-04-03T16:23:14Z</time>
      </trkpt>
      <trkpt lat="46.53919" lon="5.68272">
        <ele>479</ele>
        <time>2019-04-03T16:24:14Z</time>
      </trkpt>
      <trkpt lat="46.53904" lon="5.68267">
        <ele>478</ele>
        <time>2019-04-03T16:25:14Z</time>
      </trkpt>
      <trkpt lat="46.53884" lon="5.68255">
        <ele>476</ele>
        <time>2019-04-03T16:26:14Z</time>
      </trkpt>
      <trkpt lat="46.53856" lon="5.68235">
        <ele>474</ele>
        <time>2019-04-03T16:27:14Z</time>
      </trkpt>
      <trkpt lat="46.53838" lon="5.68221">
        <ele>473</ele>
        <time>2019-04-03T16:28:14Z</time>
      </trkpt>
      <trkpt lat="46.5383" lon="5.68213">
        <ele>473</ele>
        <time>2019-04-03T16:29:14Z</time>
      </trkpt>
      <trkpt lat="46.53821" lon="5.68201">
        <ele>471</ele>
        <time>2019-04-03T16:30:14Z</time>
      </trkpt>
      <trkpt lat="46.53816" lon="5.68192">
        <ele>470</ele>
        <time>2019-04-03T16:31:14Z</time>
      </trkpt>
      <trkpt lat="46.53812" lon="5.6818">
        <ele>468</ele>
        <time>2019-04-03T16:32:14Z</time>
      </trkpt>
      <trkpt lat="46.53803" lon="5.68171">
        <ele>467</ele>
        <time>2019-04-03T16:33:14Z</time>
      </trkpt>
      <trkpt lat="46.53795" lon="5.68164">
        <ele>466</ele>
        <time>2019-04-03T16:34:14Z</time>
      </trkpt>
      <trkpt lat="46.53772" lon="5.68149">
        <ele>463</ele>
        <time>2019-04-03T16:35:14Z</time>
      </trkpt>
      <trkpt lat="46.53745" lon="5.68132">
        <ele>459</ele>
        <time>2019-04-03T16:36:14Z</time>
      </trkpt>
      <trkpt lat="46.53719" lon="5.68115">
        <ele>456</ele>
        <time>2019-04-03T16:37:14Z</time>
      </trkpt>
      <trkpt lat="46.53704" lon="5.68108">
        <ele>454</ele>
        <time>2019-04-03T16:38:14Z</time>
      </trkpt>
      <trkpt lat="46.53686" lon="5.681">
        <ele>452</ele>
        <time>2019-04-03T16:39:14Z</time>
      </trkpt>
      <trkpt lat="46.5367" lon="5.68097">
        <ele>450</ele>
        <time>2019-04-03T16:40:14Z</time>
      </trkpt>
      <trkpt lat="46.53655" lon="5.68096">
        <ele>449</ele>
        <time>2019-04-03T16:41:14Z</time>
      </trkpt>
      <trkpt lat="46.53643" lon="5.68097">
        <ele>448</ele>
        <time>2019-04-03T16:42:14Z</time>
      </trkpt>
      <trkpt lat="46.53634" lon="5.681">
        <ele>448</ele>
        <time>2019-04-03T16:43:14Z</time>
      </trkpt>
      <trkpt lat="46.53628" lon="5.68104">
        <ele>448</ele>
        <time>2019-04-03T16:44:14Z</time>
      </trkpt>
      <trkpt lat="46.53619" lon="5.68117">
        <ele>449</ele>
        <time>2019-04-03T16:45:14Z</time>
      </trkpt>
      <trkpt lat="46.53609" lon="5.68129">
        <ele>451</ele>
        <time>2019-04-03T16:46:14Z</time>
      </trkpt>
      <trkpt lat="46.53584" lon="5.6815">
        <ele>452</ele>
        <time>2019-04-03T16:47:14Z</time>
      </trkpt>
      <trkpt lat="46.53573" lon="5.68157">
        <ele>452</ele>
        <time>2019-04-03T16:48:14Z</time>
      </trkpt>
      <trkpt lat="46.53528" lon="5.68178">
        <ele>454</ele>
        <time>2019-04-03T16:49:14Z</time>
      </trkpt>
      <trkpt lat="46.53436" lon="5.68215">
        <ele>450</ele>
        <time>2019-04-03T16:50:14Z</time>
      </trkpt>
      <trkpt lat="46.53423" lon="5.68221">
        <ele>450</ele>
        <time>2019-04-03T16:51:14Z</time>
      </trkpt>
      <trkpt lat="46.5339" lon="5.68239">
        <ele>449</ele>
        <time>2019-04-03T16:52:14Z</time>
      </trkpt>
      <trkpt lat="46.53309" lon="5.6829">
        <ele>454</ele>
        <time>2019-04-03T16:53:14Z</time>
      </trkpt>
      <trkpt lat="46.53267" lon="5.68314">
        <ele>455</ele>
        <time>2019-04-03T16:54:14Z</time>
      </trkpt>
      <trkpt lat="46.53244" lon="5.6833">
        <ele>455</ele>
        <time>2019-04-03T16:55:14Z</time>
      </trkpt>
      <trkpt lat="46.53225" lon="5.68345">
        <ele>454</ele>
        <time>2019-04-03T16:56:14Z</time>
      </trkpt>
      <trkpt lat="46.53209" lon="5.68361">
        <ele>454</ele>
        <time>2019-04-03T16:57:14Z</time>
      </trkpt>
      <trkpt lat="46.532" lon="5.6837">
        <ele>453</ele>
        <time>2019-04-03T16:58:14Z</time>
      </trkpt>
      <trkpt lat="46.53181" lon="5.68396">
        <ele>453</ele>
        <time>2019-04-03T16:59:14Z</time>
      </trkpt>
      <trkpt lat="46.53169" lon="5.68412">
        <ele>453</ele>
        <time>2019-04-03T17:00:14Z</time>
      </trkpt>
      <trkpt lat="46.53162" lon="5.68423">
        <ele>453</ele>
        <time>2019-04-03T17:01:14Z</time>
      </trkpt>
      <trkpt lat="46.53156" lon="5.68436">
        <ele>453</ele>
        <time>2019-04-03T17:02:14Z</time>
      </trkpt>
      <trkpt lat="46.53148" lon="5.68462">
        <ele>453</ele>
        <time>2019-04-03T17:03:14Z</time>
      </trkpt>
      <trkpt lat="46.53139" lon="5.68491">
        <ele>454</ele>
        <time>2019-04-03T17:04:14Z</time>
      </trkpt>
      <trkpt lat="46.53136" lon="5.68506">
        <ele>454</ele>
        <time>2019-04-03T17:05:14Z</time>
      </trkpt>
      <trkpt lat="46.53136" lon="5.68521">
        <ele>454</ele>
        <time>2019-04-03T17:06:14Z</time>
      </trkpt>
      <trkpt lat="46.53138" lon="5.68544">
        <ele>455</ele>
        <time>2019-04-03T17:07:14Z</time>
      </trkpt>
      <trkpt lat="46.53148" lon="5.68608">
        <ele>457</ele>
        <time>2019-04-03T17:08:14Z</time>
      </trkpt>
      <trkpt lat="46.53152" lon="5.68629">
        <ele>457</ele>
        <time>2019-04-03T17:09:14Z</time>
      </trkpt>
      <trkpt lat="46.53173" lon="5.68727">
        <ele>458</ele>
        <time>2019-04-03T17:10:14Z</time>
      </trkpt>
      <trkpt lat="46.53179" lon="5.68759">
        <ele>458</ele>
        <time>2019-04-03T17:11:14Z</time>
      </trkpt>
      <trkpt lat="46.53194" lon="5.68822">
        <ele>462</ele>
        <time>2019-04-03T17:12:14Z</time>
      </trkpt>
      <trkpt lat="46.5322" lon="5.68923">
        <ele>467</ele>
        <time>2019-04-03T17:13:14Z</time>
      </trkpt>
      <trkpt lat="46.53222" lon="5.68942">
        <ele>467</ele>
        <time>2019-04-03T17:14:14Z</time>
      </trkpt>
      <trkpt lat="46.53223" lon="5.6896">
        <ele>467</ele>
        <time>2019-04-03T17:15:14Z</time>
      </trkpt>
      <trkpt lat="46.53221" lon="5.68977">
        <ele>465</ele>
        <time>2019-04-03T17:16:14Z</time>
      </trkpt>
      <trkpt lat="46.53205" lon="5.69034">
        <ele>458</ele>
        <time>2019-04-03T17:17:14Z</time>
      </trkpt>
      <trkpt lat="46.53201" lon="5.6905">
        <ele>456</ele>
        <time>2019-04-03T17:18:14Z</time>
      </trkpt>
      <trkpt lat="46.53202" lon="5.69061">
        <ele>456</ele>
        <time>2019-04-03T17:19:14Z</time>
      </trkpt>
      <trkpt lat="46.53206" lon="5.69071">
        <ele>457</ele>
        <time>2019-04-03T17:20:14Z</time>
      </trkpt>
      <trkpt lat="46.53219" lon="5.69086">
        <ele>460</ele>
        <time>2019-04-03T17:21:14Z</time>
      </trkpt>
      <trkpt lat="46.53224" lon="5.69093">
        <ele>462</ele>
        <time>2019-04-03T17:22:14Z</time>
      </trkpt>
      <trkpt lat="46.53227" lon="5.69103">
        <ele>462</ele>
        <time>2019-04-03T17:23:14Z</time>
      </trkpt>
      <trkpt lat="46.53227" lon="5.69117">
        <ele>462</ele>
        <time>2019-04-03T17:24:14Z</time>
      </trkpt>
      <trkpt lat="46.53218" lon="5.6917">
        <ele>459</ele>
        <time>2019-04-03T17:25:14Z</time>
      </trkpt>
      <trkpt lat="46.53209" lon="5.69199">
        <ele>458</ele>
        <time>2019-04-03T17:26:14Z</time>
      </trkpt>
      <trkpt lat="46.53185" lon="5.69267">
        <ele>455</ele>
        <time>2019-04-03T17:27:14Z</time>
      </trkpt>
      <trkpt lat="46.53154" lon="5.69326">
        <ele>447</ele>
        <time>2019-04-03T17:28:14Z</time>
      </trkpt>
      <trkpt lat="46.53148" lon="5.69344">
        <ele>446</ele>
        <time>2019-04-03T17:29:14Z</time>
      </trkpt>
      <trkpt lat="46.53146" lon="5.69364">
        <ele>445</ele>
        <time>2019-04-03T17:30:14Z</time>
      </trkpt>
      <trkpt lat="46.53147" lon="5.69393">
        <ele>445</ele>
        <time>2019-04-03T17:31:14Z</time>
      </trkpt>
      <trkpt lat="46.5315" lon="5.69416">
        <ele>445</ele>
        <time>2019-04-03T17:32:14Z</time>
      </trkpt>
      <trkpt lat="46.53149" lon="5.69434">
        <ele>447</ele>
        <time>2019-04-03T17:33:14Z</time>
      </trkpt>
      <trkpt lat="46.53143" lon="5.69456">
        <ele>448</ele>
        <time>2019-04-03T17:34:14Z</time>
      </trkpt>
      <trkpt lat="46.53135" lon="5.6948">
        <ele>449</ele>
        <time>2019-04-03T17:35:14Z</time>
      </trkpt>
      <trkpt lat="46.53091" lon="5.6958">
        <ele>452</ele>
        <time>2019-04-03T17:36:14Z</time>
      </trkpt>
      <trkpt lat="46.53083" lon="5.696">
        <ele>453</ele>
        <time>2019-04-03T17:37:14Z</time>
      </trkpt>
      <trkpt lat="46.5307" lon="5.69618">
        <ele>453</ele>
        <time>2019-04-03T17:38:14Z</time>
      </trkpt>
      <trkpt lat="46.5305" lon="5.69644">
        <ele>453</ele>
        <time>2019-04-03T17:39:14Z</time>
      </trkpt>
      <trkpt lat="46.53037" lon="5.69657">
        <ele>452</ele>
        <time>2019-04-03T17:40:14Z</time>
      </trkpt>
      <trkpt lat="46.53024" lon="5.69681">
        <ele>453</ele>
        <time>2019-04-03T17:41:14Z</time>
      </trkpt>
      <trkpt lat="46.53013" lon="5.69718">
        <ele>456</ele>
        <time>2019-04-03T17:42:14Z</time>
      </trkpt>
      <trkpt lat="46.53005" lon="5.69745">
        <ele>458</ele>
        <time>2019-04-03T17:43:14Z</time>
      </trkpt>
      <trkpt lat="46.53002" lon="5.69761">
        <ele>460</ele>
        <time>2019-04-03T17:44:14Z</time>
      </trkpt>
      <trkpt lat="46.53001" lon="5.69799">
        <ele>467</ele>
        <time>2019-04-03T17:45:14Z</time>
      </trkpt>
      <trkpt lat="46.52999" lon="5.69809">
        <ele>469</ele>
        <time>2019-04-03T17:46:14Z</time>
      </trkpt>
      <trkpt lat="46.52995" lon="5.69814">
        <ele>469</ele>
        <time>2019-04-03T17:47:14Z</time>
      </trkpt>
      <trkpt lat="46.52982" lon="5.6982">
        <ele>469</ele>
        <time>2019-04-03T17:48:14Z</time>
      </trkpt>
      <trkpt lat="46.52967" lon="5.69831">
        <ele>469</ele>
        <time>2019-04-03T17:49:14Z</time>
      </trkpt>
      <trkpt lat="46.52953" lon="5.69848">
        <ele>470</ele>
        <time>2019-04-03T17:50:14Z</time>
      </trkpt>
      <trkpt lat="46.52943" lon="5.69868">
        <ele>473</ele>
        <time>2019-04-03T17:51:14Z</time>
      </trkpt>
      <trkpt lat="46.52934" lon="5.69886">
        <ele>476</ele>
        <time>2019-04-03T17:52:14Z</time>
      </trkpt>
      <trkpt lat="46.52929" lon="5.69891">
        <ele>476</ele>
        <time>2019-04-03T17:53:14Z</time>
      </trkpt>
      <trkpt lat="46.52924" lon="5.69893">
        <ele>476</ele>
        <time>2019-04-03T17:54:14Z</time>
      </trkpt>
      <trkpt lat="46.5291" lon="5.69889">
        <ele>473</ele>
        <time>2019-04-03T17:55:14Z</time>
      </trkpt>
      <trkpt lat="46.52906" lon="5.69888">
        <ele>472</ele>
        <time>2019-04-03T17:56:14Z</time>
      </trkpt>
      <trkpt lat="46.52904" lon="5.69888">
        <ele>471</ele>
        <time>2019-04-03T17:57:14Z</time>
      </trkpt>
      <trkpt lat="46.52902" lon="5.6989">
        <ele>471</ele>
        <time>2019-04-03T17:58:14Z</time>
      </trkpt>
      <trkpt lat="46.52899" lon="5.69898">
        <ele>473</ele>
        <time>2019-04-03T17:59:14Z</time>
      </trkpt>
      <trkpt lat="46.52898" lon="5.69903">
        <ele>474</ele>
        <time>2019-04-03T18:00:14Z</time>
      </trkpt>
      <trkpt lat="46.52902" lon="5.69911">
        <ele>476</ele>
        <time>2019-04-03T18:01:14Z</time>
      </trkpt>
      <trkpt lat="46.52906" lon="5.6992">
        <ele>478</ele>
        <time>2019-04-03T18:02:14Z</time>
      </trkpt>
      <trkpt lat="46.5291" lon="5.69938">
        <ele>482</ele>
        <time>2019-04-03T18:03:14Z</time>
      </trkpt>
      <trkpt lat="46.52913" lon="5.69952">
        <ele>485</ele>
        <time>2019-04-03T18:04:14Z</time>
      </trkpt>
      <trkpt lat="46.52911" lon="5.69962">
        <ele>486</ele>
        <time>2019-04-03T18:05:14Z</time>
      </trkpt>
      <trkpt lat="46.52908" lon="5.69971">
        <ele>487</ele>
        <time>2019-04-03T18:06:14Z</time>
      </trkpt>
      <trkpt lat="46.52904" lon="5.69977">
        <ele>487</ele>
        <time>2019-04-03T18:07:14Z</time>
      </trkpt>
      <trkpt lat="46.52901" lon="5.69981">
        <ele>487</ele>
        <time>2019-04-03T18:08:14Z</time>
      </trkpt>
      <trkpt lat="46.52896" lon="5.69984">
        <ele>487</ele>
        <time>2019-04-03T18:09:14Z</time>
      </trkpt>
      <trkpt lat="46.52888" lon="5.69987">
        <ele>486</ele>
        <time>2019-04-03T18:10:14Z</time>
      </trkpt>
      <trkpt lat="46.52881" lon="5.69988">
        <ele>485</ele>
        <time>2019-04-03T18:11:14Z</time>
      </trkpt>
      <trkpt lat="46.52877" lon="5.6999">
        <ele>485</ele>
        <time>2019-04-03T18:12:14Z</time>
      </trkpt>
      <trkpt lat="46.52873" lon="5.69992">
        <ele>484</ele>
        <time>2019-04-03T18:13:14Z</time>
      </trkpt>
      <trkpt lat="46.52869" lon="5.69997">
        <ele>484</ele>
        <time>2019-04-03T18:14:14Z</time>
      </trkpt>
      <trkpt lat="46.52866" lon="5.70004">
        <ele>485</ele>
        <time>2019-04-03T18:15:14Z</time>
      </trkpt>
      <trkpt lat="46.52865" lon="5.70011">
        <ele>485</ele>
        <time>2019-04-03T18:16:14Z</time>
      </trkpt>
      <trkpt lat="46.52864" lon="5.70015">
        <ele>485</ele>
        <time>2019-04-03T18:17:14Z</time>
      </trkpt>
      <trkpt lat="46.52865" lon="5.70019">
        <ele>485</ele>
        <time>2019-04-03T18:18:14Z</time>
      </trkpt>
      <trkpt lat="46.52871" lon="5.7003">
        <ele>487</ele>
        <time>2019-04-03T18:19:14Z</time>
      </trkpt>
      <trkpt lat="46.52876" lon="5.70035">
        <ele>488</ele>
        <time>2019-04-03T18:20:14Z</time>
      </trkpt>
      <trkpt lat="46.52896" lon="5.70036">
        <ele>491</ele>
        <time>2019-04-03T18:21:14Z</time>
      </trkpt>
      <trkpt lat="46.52901" lon="5.70036">
        <ele>492</ele>
        <time>2019-04-03T18:22:14Z</time>
      </trkpt>
      <trkpt lat="46.52907" lon="5.70036">
        <ele>493</ele>
        <time>2019-04-03T18:23:14Z</time>
      </trkpt>
      <trkpt lat="46.52926" lon="5.70033">
        <ele>496</ele>
        <time>2019-04-03T18:24:14Z</time>
      </trkpt>
      <trkpt lat="46.52929" lon="5.70031">
        <ele>496</ele>
        <time>2019-04-03T18:25:14Z</time>
      </trkpt>
      <trkpt lat="46.52931" lon="5.7003">
        <ele>497</ele>
        <time>2019-04-03T18:26:14Z</time>
      </trkpt>
      <trkpt lat="46.52955" lon="5.69996">
        <ele>498</ele>
        <time>2019-04-03T18:27:14Z</time>
      </trkpt>
      <trkpt lat="46.52959" lon="5.69994">
        <ele>498</ele>
        <time>2019-04-03T18:28:14Z</time>
      </trkpt>
      <trkpt lat="46.52963" lon="5.69995">
        <ele>499</ele>
        <time>2019-04-03T18:29:14Z</time>
      </trkpt>
      <trkpt lat="46.52965" lon="5.69998">
        <ele>500</ele>
        <time>2019-04-03T18:30:14Z</time>
      </trkpt>
      <trkpt lat="46.5297" lon="5.70004">
        <ele>501</ele>
        <time>2019-04-03T18:31:14Z</time>
      </trkpt>
      <trkpt lat="46.52975" lon="5.70014">
        <ele>503</ele>
        <time>2019-04-03T18:32:14Z</time>
      </trkpt>
      <trkpt lat="46.52977" lon="5.70022">
        <ele>504</ele>
        <time>2019-04-03T18:33:14Z</time>
      </trkpt>
      <trkpt lat="46.52978" lon="5.70031">
        <ele>504</ele>
        <time>2019-04-03T18:34:14Z</time>
      </trkpt>
      <trkpt lat="46.52978" lon="5.70039">
        <ele>505</ele>
        <time>2019-04-03T18:35:14Z</time>
      </trkpt>
      <trkpt lat="46.52977" lon="5.70066">
        <ele>507</ele>
        <time>2019-04-03T18:36:14Z</time>
      </trkpt>
      <trkpt lat="46.52976" lon="5.7008">
        <ele>508</ele>
        <time>2019-04-03T18:37:14Z</time>
      </trkpt>
      <trkpt lat="46.52978" lon="5.70095">
        <ele>509</ele>
        <time>2019-04-03T18:38:14Z</time>
      </trkpt>
      <trkpt lat="46.52981" lon="5.70106">
        <ele>510</ele>
        <time>2019-04-03T18:39:14Z</time>
      </trkpt>
      <trkpt lat="46.52983" lon="5.70115">
        <ele>511</ele>
        <time>2019-04-03T18:40:14Z</time>
      </trkpt>
      <trkpt lat="46.52984" lon="5.70125">
        <ele>511</ele>
        <time>2019-04-03T18:41:14Z</time>
      </trkpt>
      <trkpt lat="46.52986" lon="5.70135">
        <ele>512</ele>
        <time>2019-04-03T18:42:14Z</time>
      </trkpt>
      <trkpt lat="46.52986" lon="5.70149">
        <ele>512</ele>
        <time>2019-04-03T18:43:14Z</time>
      </trkpt>
      <trkpt lat="46.52986" lon="5.7016">
        <ele>513</ele>
        <time>2019-04-03T18:44:14Z</time>
      </trkpt>
      <trkpt lat="46.52985" lon="5.70171">
        <ele>513</ele>
        <time>2019-04-03T18:45:14Z</time>
      </trkpt>
      <trkpt lat="46.52984" lon="5.7018">
        <ele>513</ele>
        <time>2019-04-03T18:46:14Z</time>
      </trkpt>
      <trkpt lat="46.52976" lon="5.70224">
        <ele>514</ele>
        <time>2019-04-03T18:47:14Z</time>
      </trkpt>
      <trkpt lat="46.52973" lon="5.70238">
        <ele>514</ele>
        <time>2019-04-03T18:48:14Z</time>
      </trkpt>
      <trkpt lat="46.52971" lon="5.7026">
        <ele>515</ele>
        <time>2019-04-03T18:49:14Z</time>
      </trkpt>
      <trkpt lat="46.52967" lon="5.70322">
        <ele>517</ele>
        <time>2019-04-03T18:50:14Z</time>
      </trkpt>
      <trkpt lat="46.52966" lon="5.70343">
        <ele>518</ele>
        <time>2019-04-03T18:51:14Z</time>
      </trkpt>
      <trkpt lat="46.52963" lon="5.70361">
        <ele>519</ele>
        <time>2019-04-03T18:52:14Z</time>
      </trkpt>
      <trkpt lat="46.52955" lon="5.70385">
        <ele>519</ele>
        <time>2019-04-03T18:53:14Z</time>
      </trkpt>
      <trkpt lat="46.52951" lon="5.70397">
        <ele>519</ele>
        <time>2019-04-03T18:54:14Z</time>
      </trkpt>
      <trkpt lat="46.52947" lon="5.70417">
        <ele>519</ele>
        <time>2019-04-03T18:55:14Z</time>
      </trkpt>
      <trkpt lat="46.52943" lon="5.70434">
        <ele>520</ele>
        <time>2019-04-03T18:56:14Z</time>
      </trkpt>
      <trkpt lat="46.52931" lon="5.70468">
        <ele>521</ele>
        <time>2019-04-03T18:57:14Z</time>
      </trkpt>
      <trkpt lat="46.52927" lon="5.70482">
        <ele>522</ele>
        <time>2019-04-03T18:58:14Z</time>
      </trkpt>
      <trkpt lat="46.52922" lon="5.70498">
        <ele>523</ele>
        <time>2019-04-03T18:59:14Z</time>
      </trkpt>
      <trkpt lat="46.52918" lon="5.70515">
        <ele>523</ele>
        <time>2019-04-03T19:00:14Z</time>
      </trkpt>
      <trkpt lat="46.52915" lon="5.70528">
        <ele>523</ele>
        <time>2019-04-03T19:01:14Z</time>
      </trkpt>
      <trkpt lat="46.52914" lon="5.7054">
        <ele>523</ele>
        <time>2019-04-03T19:02:14Z</time>
      </trkpt>
      <trkpt lat="46.52915" lon="5.70548">
        <ele>523</ele>
        <time>2019-04-03T19:03:14Z</time>
      </trkpt>
      <trkpt lat="46.52918" lon="5.70555">
        <ele>524</ele>
        <time>2019-04-03T19:04:14Z</time>
      </trkpt>
      <trkpt lat="46.5292" lon="5.70559">
        <ele>525</ele>
        <time>2019-04-03T19:05:14Z</time>
      </trkpt>
      <trkpt lat="46.52926" lon="5.70566">
        <ele>526</ele>
        <time>2019-04-03T19:06:14Z</time>
      </trkpt>
      <trkpt lat="46.52941" lon="5.70579">
        <ele>528</ele>
        <time>2019-04-03T19:07:14Z</time>
      </trkpt>
      <trkpt lat="46.52949" lon="5.70584">
        <ele>529</ele>
        <time>2019-04-03T19:08:14Z</time>
      </trkpt>
      <trkpt lat="46.52967" lon="5.70588">
        <ele>532</ele>
        <time>2019-04-03T19:09:14Z</time>
      </trkpt>
      <trkpt lat="46.52978" lon="5.70588">
        <ele>533</ele>
        <time>2019-04-03T19:10:14Z</time>
      </trkpt>
      <trkpt lat="46.52994" lon="5.70586">
        <ele>535</ele>
        <time>2019-04-03T19:11:14Z</time>
      </trkpt>
      <trkpt lat="46.53004" lon="5.70585">
        <ele>536</ele>
        <time>2019-04-03T19:12:14Z</time>
      </trkpt>
      <trkpt lat="46.53012" lon="5.70586">
        <ele>535</ele>
        <time>2019-04-03T19:13:14Z</time>
      </trkpt>
      <trkpt lat="46.53024" lon="5.70589">
        <ele>535</ele>
        <time>2019-04-03T19:14:14Z</time>
      </trkpt>
      <trkpt lat="46.53058" lon="5.70605">
        <ele>534</ele>
        <time>2019-04-03T19:15:14Z</time>
      </trkpt>
      <trkpt lat="46.53088" lon="5.7062">
        <ele>533</ele>
        <time>2019-04-03T19:16:14Z</time>
      </trkpt>
      <trkpt lat="46.53101" lon="5.70627">
        <ele>532</ele>
        <time>2019-04-03T19:17:14Z</time>
      </trkpt>
      <trkpt lat="46.53127" lon="5.70642">
        <ele>530</ele>
        <time>2019-04-03T19:18:14Z</time>
      </trkpt>
      <trkpt lat="46.53145" lon="5.70655">
        <ele>528</ele>
        <time>2019-04-03T19:19:14Z</time>
      </trkpt>
      <trkpt lat="46.53156" lon="5.70665">
        <ele>527</ele>
        <time>2019-04-03T19:20:14Z</time>
      </trkpt>
      <trkpt lat="46.53179" lon="5.70689">
        <ele>528</ele>
        <time>2019-04-03T19:21:14Z</time>
      </trkpt>
      <trkpt lat="46.53184" lon="5.70696">
        <ele>528</ele>
        <time>2019-04-03T19:22:14Z</time>
      </trkpt>
      <trkpt lat="46.5321" lon="5.70712">
        <ele>527</ele>
        <time>2019-04-03T19:23:14Z</time>
      </trkpt>
      <trkpt lat="46.53225" lon="5.7072">
        <ele>526</ele>
        <time>2019-04-03T19:24:14Z</time>
      </trkpt>
      <trkpt lat="46.53232" lon="5.70727">
        <ele>525</ele>
        <time>2019-04-03T19:25:14Z</time>
      </trkpt>
      <trkpt lat="46.53239" lon="5.70736">
        <ele>525</ele>
        <time>2019-04-03T19:26:14Z</time>
      </trkpt>
      <trkpt lat="46.53248" lon="5.70745">
        <ele>525</ele>
        <time>2019-04-03T19:27:14Z</time>
      </trkpt>
      <trkpt lat="46.53251" lon="5.70754">
        <ele>525</ele>
        <time>2019-04-03T19:28:14Z</time>
      </trkpt>
      <trkpt lat="46.53253" lon="5.70765">
        <ele>526</ele>
        <time>2019-04-03T19:29:14Z</time>
      </trkpt>
      <trkpt lat="46.53255" lon="5.70784">
        <ele>526</ele>
        <time>2019-04-03T19:30:14Z</time>
      </trkpt>
      <trkpt lat="46.53256" lon="5.70829">
        <ele>529</ele>
        <time>2019-04-03T19:31:14Z</time>
      </trkpt>
      <trkpt lat="46.53257" lon="5.70849">
        <ele>529</ele>
        <time>2019-04-03T19:32:14Z</time>
      </trkpt>
      <trkpt lat="46.5326" lon="5.70877">
        <ele>530</ele>
        <time>2019-04-03T19:33:14Z</time>
      </trkpt>
      <trkpt lat="46.53261" lon="5.70901">
        <ele>531</ele>
        <time>2019-04-03T19:34:14Z</time>
      </trkpt>
      <trkpt lat="46.53261" lon="5.70914">
        <ele>532</ele>
        <time>2019-04-03T19:35:14Z</time>
      </trkpt>
      <trkpt lat="46.53256" lon="5.70965">
        <ele>535</ele>
        <time>2019-04-03T19:36:14Z</time>
      </trkpt>
      <trkpt lat="46.53256" lon="5.70995">
        <ele>536</ele>
        <time>2019-04-03T19:37:14Z</time>
      </trkpt>
      <trkpt lat="46.53259" lon="5.71034">
        <ele>537</ele>
        <time>2019-04-03T19:38:14Z</time>
      </trkpt>
      <trkpt lat="46.53263" lon="5.71066">
        <ele>538</ele>
        <time>2019-04-03T19:39:14Z</time>
      </trkpt>
      <trkpt lat="46.53265" lon="5.71087">
        <ele>539</ele>
        <time>2019-04-03T19:40:14Z</time>
      </trkpt>
      <trkpt lat="46.5327" lon="5.71121">
        <ele>538</ele>
        <time>2019-04-03T19:41:14Z</time>
      </trkpt>
      <trkpt lat="46.53271" lon="5.7113">
        <ele>537</ele>
        <time>2019-04-03T19:42:14Z</time>
      </trkpt>
      <trkpt lat="46.53269" lon="5.71136">
        <ele>538</ele>
        <time>2019-04-03T19:43:14Z</time>
      </trkpt>
      <trkpt lat="46.53261" lon="5.71154">
        <ele>538</ele>
        <time>2019-04-03T19:44:14Z</time>
      </trkpt>
      <trkpt lat="46.53257" lon="5.71164">
        <ele>538</ele>
        <time>2019-04-03T19:45:14Z</time>
      </trkpt>
      <trkpt lat="46.53251" lon="5.71182">
        <ele>539</ele>
        <time>2019-04-03T19:46:14Z</time>
      </trkpt>
      <trkpt lat="46.53247" lon="5.71195">
        <ele>539</ele>
        <time>2019-04-03T19:47:14Z</time>
      </trkpt>
      <trkpt lat="46.53245" lon="5.71217">
        <ele>538</ele>
        <time>2019-04-03T19:48:14Z</time>
      </trkpt>
      <trkpt lat="46.53244" lon="5.71238">
        <ele>538</ele>
        <time>2019-04-03T19:49:14Z</time>
      </trkpt>
      <trkpt lat="46.53245" lon="5.71249">
        <ele>538</ele>
        <time>2019-04-03T19:50:14Z</time>
      </trkpt>
      <trkpt lat="46.53246" lon="5.71263">
        <ele>538</ele>
        <time>2019-04-03T19:51:14Z</time>
      </trkpt>
      <trkpt lat="46.53209" lon="5.71291">
        <ele>538</ele>
        <time>2019-04-03T19:52:14Z</time>
      </trkpt>
      <trkpt lat="46.53196" lon="5.713">
        <ele>538</ele>
        <time>2019-04-03T19:53:14Z</time>
      </trkpt>
      <trkpt lat="46.53164" lon="5.71314">
        <ele>538</ele>
        <time>2019-04-03T19:54:14Z</time>
      </trkpt>
      <trkpt lat="46.53137" lon="5.71323">
        <ele>538</ele>
        <time>2019-04-03T19:55:14Z</time>
      </trkpt>
      <trkpt lat="46.53125" lon="5.71321">
        <ele>537</ele>
        <time>2019-04-03T19:56:14Z</time>
      </trkpt>
      <trkpt lat="46.53088" lon="5.71307">
        <ele>537</ele>
        <time>2019-04-03T19:57:14Z</time>
      </trkpt>
      <trkpt lat="46.53078" lon="5.71303">
        <ele>536</ele>
        <time>2019-04-03T19:58:14Z</time>
      </trkpt>
      <trkpt lat="46.5306" lon="5.7129">
        <ele>535</ele>
        <time>2019-04-03T19:59:14Z</time>
      </trkpt>
      <trkpt lat="46.53041" lon="5.7127">
        <ele>533</ele>
        <time>2019-04-03T20:00:14Z</time>
      </trkpt>
      <trkpt lat="46.53028" lon="5.71262">
        <ele>531</ele>
        <time>2019-04-03T20:01:14Z</time>
      </trkpt>
      <trkpt lat="46.53018" lon="5.71264">
        <ele>531</ele>
        <time>2019-04-03T20:02:14Z</time>
      </trkpt>
      <trkpt lat="46.5301" lon="5.71274">
        <ele>530</ele>
        <time>2019-04-03T20:03:14Z</time>
      </trkpt>
      <trkpt lat="46.53002" lon="5.71293">
        <ele>530</ele>
        <time>2019-04-03T20:04:14Z</time>
      </trkpt>
      <trkpt lat="46.52996" lon="5.71314">
        <ele>529</ele>
        <time>2019-04-03T20:05:14Z</time>
      </trkpt>
      <trkpt lat="46.52981" lon="5.71349">
        <ele>527</ele>
        <time>2019-04-03T20:06:14Z</time>
      </trkpt>
      <trkpt lat="46.52967" lon="5.71393">
        <ele>525</ele>
        <time>2019-04-03T20:07:14Z</time>
      </trkpt>
      <trkpt lat="46.5294" lon="5.71451">
        <ele>523</ele>
        <time>2019-04-03T20:08:14Z</time>
      </trkpt>
      <trkpt lat="46.52921" lon="5.71493">
        <ele>522</ele>
        <time>2019-04-03T20:09:14Z</time>
      </trkpt>
      <trkpt lat="46.52895" lon="5.71556">
        <ele>521</ele>
        <time>2019-04-03T20:10:14Z</time>
      </trkpt>
      <trkpt lat="46.52864" lon="5.71631">
        <ele>517</ele>
        <time>2019-04-03T20:11:14Z</time>
      </trkpt>
      <trkpt lat="46.52851" lon="5.71665">
        <ele>514</ele>
        <time>2019-04-03T20:12:14Z</time>
      </trkpt>
      <trkpt lat="46.52845" lon="5.71686">
        <ele>513</ele>
        <time>2019-04-03T20:13:14Z</time>
      </trkpt>
      <trkpt lat="46.5284" lon="5.71702">
        <ele>512</ele>
        <time>2019-04-03T20:14:14Z</time>
      </trkpt>
      <trkpt lat="46.52835" lon="5.71729">
        <ele>511</ele>
        <time>2019-04-03T20:15:14Z</time>
      </trkpt>
      <trkpt lat="46.5283" lon="5.71745">
        <ele>510</ele>
        <time>2019-04-03T20:16:14Z</time>
      </trkpt>
      <trkpt lat="46.52821" lon="5.71756">
        <ele>509</ele>
        <time>2019-04-03T20:17:14Z</time>
      </trkpt>
      <trkpt lat="46.52804" lon="5.7177">
        <ele>507</ele>
        <time>2019-04-03T20:18:14Z</time>
      </trkpt>
      <trkpt lat="46.52786" lon="5.71786">
        <ele>504</ele>
        <time>2019-04-03T20:19:14Z</time>
      </trkpt>
      <trkpt lat="46.52772" lon="5.71801">
        <ele>502</ele>
        <time>2019-04-03T20:20:14Z</time>
      </trkpt>
      <trkpt lat="46.5276" lon="5.71815">
        <ele>500</ele>
        <time>2019-04-03T20:21:14Z</time>
      </trkpt>
      <trkpt lat="46.52746" lon="5.71827">
        <ele>497</ele>
        <time>2019-04-03T20:22:14Z</time>
      </trkpt>
      <trkpt lat="46.52733" lon="5.71841">
        <ele>496</ele>
        <time>2019-04-03T20:23:14Z</time>
      </trkpt>
      <trkpt lat="46.52711" lon="5.71871">
        <ele>494</ele>
        <time>2019-04-03T20:24:14Z</time>
      </trkpt>
      <trkpt lat="46.52704" lon="5.71878">
        <ele>493</ele>
        <time>2019-04-03T20:25:14Z</time>
      </trkpt>
      <trkpt lat="46.52703" lon="5.71879">
        <ele>493</ele>
        <time>2019-04-03T20:26:14Z</time>
      </trkpt>
      <trkpt lat="46.52694" lon="5.71885">
        <ele>492</ele>
        <time>2019-04-03T20:27:14Z</time>
      </trkpt>
      <trkpt lat="46.52682" lon="5.71889">
        <ele>489</ele>
        <time>2019-04-03T20:28:14Z</time>
      </trkpt>
      <trkpt lat="46.52672" lon="5.71892">
        <ele>487</ele>
        <time>2019-04-03T20:29:14Z</time>
      </trkpt>
      <trkpt lat="46.52661" lon="5.71897">
        <ele>485</ele>
        <time>2019-04-03T20:30:14Z</time>
      </trkpt>
      <trkpt lat="46.52652" lon="5.71906">
        <ele>484</ele>
        <time>2019-04-03T20:31:14Z</time>
      </trkpt>
      <trkpt lat="46.52642" lon="5.7192">
        <ele>484</ele>
        <time>2019-04-03T20:32:14Z</time>
      </trkpt>
      <trkpt lat="46.52626" lon="5.71954">
        <ele>484</ele>
        <time>2019-04-03T20:33:14Z</time>
      </trkpt>
      <trkpt lat="46.5262" lon="5.71969">
        <ele>484</ele>
        <time>2019-04-03T20:34:14Z</time>
      </trkpt>
      <trkpt lat="46.52616" lon="5.71981">
        <ele>484</ele>
        <time>2019-04-03T20:35:14Z</time>
      </trkpt>
      <trkpt lat="46.52612" lon="5.71995">
        <ele>484</ele>
        <time>2019-04-03T20:36:14Z</time>
      </trkpt>
      <trkpt lat="46.5261" lon="5.72012">
        <ele>485</ele>
        <time>2019-04-03T20:37:14Z</time>
      </trkpt>
      <trkpt lat="46.52608" lon="5.72025">
        <ele>486</ele>
        <time>2019-04-03T20:38:14Z</time>
      </trkpt>
      <trkpt lat="46.52604" lon="5.72037">
        <ele>486</ele>
        <time>2019-04-03T20:39:14Z</time>
      </trkpt>
      <trkpt lat="46.52598" lon="5.72052">
        <ele>486</ele>
        <time>2019-04-03T20:40:14Z</time>
      </trkpt>
      <trkpt lat="46.52593" lon="5.72062">
        <ele>486</ele>
        <time>2019-04-03T20:41:14Z</time>
      </trkpt>
      <trkpt lat="46.52586" lon="5.72073">
        <ele>485</ele>
        <time>2019-04-03T20:42:14Z</time>
      </trkpt>
      <trkpt lat="46.52578" lon="5.72084">
        <ele>484</ele>
        <time>2019-04-03T20:43:14Z</time>
      </trkpt>
      <trkpt lat="46.52567" lon="5.72097">
        <ele>484</ele>
        <time>2019-04-03T20:44:14Z</time>
      </trkpt>
      <trkpt lat="46.52557" lon="5.7211">
        <ele>484</ele>
        <time>2019-04-03T20:45:14Z</time>
      </trkpt>
      <trkpt lat="46.52539" lon="5.72128">
        <ele>483</ele>
        <time>2019-04-03T20:46:14Z</time>
      </trkpt>
      <trkpt lat="46.52534" lon="5.72135">
        <ele>482</ele>
        <time>2019-04-03T20:47:14Z</time>
      </trkpt>
      <trkpt lat="46.5253" lon="5.72144">
        <ele>482</ele>
        <time>2019-04-03T20:48:14Z</time>
      </trkpt>
      <trkpt lat="46.52525" lon="5.72161">
        <ele>483</ele>
        <time>2019-04-03T20:49:14Z</time>
      </trkpt>
      <trkpt lat="46.52513" lon="5.7219">
        <ele>483</ele>
        <time>2019-04-03T20:50:14Z</time>
      </trkpt>
      <trkpt lat="46.52507" lon="5.72205">
        <ele>483</ele>
        <time>2019-04-03T20:51:14Z</time>
      </trkpt>
      <trkpt lat="46.52499" lon="5.72221">
        <ele>482</ele>
        <time>2019-04-03T20:52:14Z</time>
      </trkpt>
      <trkpt lat="46.52471" lon="5.72266">
        <ele>482</ele>
        <time>2019-04-03T20:53:14Z</time>
      </trkpt>
      <trkpt lat="46.52464" lon="5.72281">
        <ele>483</ele>
        <time>2019-04-03T20:54:14Z</time>
      </trkpt>
      <trkpt lat="46.52445" lon="5.72326">
        <ele>483</ele>
        <time>2019-04-03T20:55:14Z</time>
      </trkpt>
      <trkpt lat="46.52438" lon="5.72341">
        <ele>483</ele>
        <time>2019-04-03T20:56:14Z</time>
      </trkpt>
      <trkpt lat="46.52417" lon="5.72371">
        <ele>482</ele>
        <time>2019-04-03T20:57:14Z</time>
      </trkpt>
      <trkpt lat="46.52409" lon="5.72383">
        <ele>482</ele>
        <time>2019-04-03T20:58:14Z</time>
      </trkpt>
      <trkpt lat="46.52401" lon="5.72393">
        <ele>482</ele>
        <time>2019-04-03T20:59:14Z</time>
      </trkpt>
      <trkpt lat="46.52391" lon="5.72404">
        <ele>483</ele>
        <time>2019-04-03T21:00:14Z</time>
      </trkpt>
      <trkpt lat="46.52383" lon="5.72411">
        <ele>482</ele>
        <time>2019-04-03T21:01:14Z</time>
      </trkpt>
      <trkpt lat="46.52374" lon="5.72418">
        <ele>482</ele>
        <time>2019-04-03T21:02:14Z</time>
      </trkpt>
      <trkpt lat="46.52365" lon="5.72424">
        <ele>482</ele>
        <time>2019-04-03T21:03:14Z</time>
      </trkpt>
      <trkpt lat="46.52335" lon="5.72435">
        <ele>479</ele>
        <time>2019-04-03T21:04:14Z</time>
      </trkpt>
      <trkpt lat="46.52325" lon="5.7244">
        <ele>478</ele>
        <time>2019-04-03T21:05:14Z</time>
      </trkpt>
      <trkpt lat="46.52315" lon="5.72446">
        <ele>477</ele>
        <time>2019-04-03T21:06:14Z</time>
      </trkpt>
      <trkpt lat="46.52305" lon="5.72454">
        <ele>475</ele>
        <time>2019-04-03T21:07:14Z</time>
      </trkpt>
      <trkpt lat="46.52297" lon="5.72462">
        <ele>475</ele>
        <time>2019-04-03T21:08:14Z</time>
      </trkpt>
      <trkpt lat="46.52291" lon="5.72472">
        <ele>474</ele>
        <time>2019-04-03T21:09:14Z</time>
      </trkpt>
      <trkpt lat="46.52284" lon="5.72483">
        <ele>474</ele>
        <time>2019-04-03T21:10:14Z</time>
      </trkpt>
      <trkpt lat="46.52269" lon="5.72519">
        <ele>473</ele>
        <time>2019-04-03T21:11:14Z</time>
      </trkpt>
      <trkpt lat="46.52263" lon="5.7253">
        <ele>472</ele>
        <time>2019-04-03T21:12:14Z</time>
      </trkpt>
      <trkpt lat="46.52257" lon="5.72535">
        <ele>470</ele>
        <time>2019-04-03T21:13:14Z</time>
      </trkpt>
      <trkpt lat="46.52251" lon="5.72536">
        <ele>469</ele>
        <time>2019-04-03T21:14:14Z</time>
      </trkpt>
      <trkpt lat="46.52244" lon="5.72537">
        <ele>468</ele>
        <time>2019-04-03T21:15:14Z</time>
      </trkpt>
      <trkpt lat="46.52238" lon="5.72543">
        <ele>467</ele>
        <time>2019-04-03T21:16:14Z</time>
      </trkpt>
      <trkpt lat="46.5223" lon="5.72556">
        <ele>466</ele>
        <time>2019-04-03T21:17:14Z</time>
      </trkpt>
      <trkpt lat="46.52224" lon="5.72568">
        <ele>466</ele>
        <time>2019-04-03T21:18:14Z</time>
      </trkpt>
      <trkpt lat="46.52217" lon="5.72585">
        <ele>466</ele>
        <time>2019-04-03T21:19:14Z</time>
      </trkpt>
      <trkpt lat="46.5221" lon="5.72604">
        <ele>465</ele>
        <time>2019-04-03T21:20:14Z</time>
      </trkpt>
      <trkpt lat="46.52204" lon="5.72617">
        <ele>463</ele>
        <time>2019-04-03T21:21:14Z</time>
      </trkpt>
      <trkpt lat="46.52199" lon="5.72626">
        <ele>463</ele>
        <time>2019-04-03T21:22:14Z</time>
      </trkpt>
      <trkpt lat="46.52195" lon="5.72617">
        <ele>462</ele>
        <time>2019-04-03T21:23:14Z</time>
      </trkpt>
      <trkpt lat="46.5219" lon="5.72605">
        <ele>461</ele>
        <time>2019-04-03T21:24:14Z</time>
      </trkpt>
      <trkpt lat="46.52188" lon="5.72592">
        <ele>461</ele>
        <time>2019-04-03T21:25:14Z</time>
      </trkpt>
      <trkpt lat="46.52194" lon="5.7247">
        <ele>453</ele>
        <time>2019-04-03T21:26:14Z</time>
      </trkpt>
      <trkpt lat="46.52195" lon="5.7245">
        <ele>452</ele>
        <time>2019-04-03T21:27:14Z</time>
      </trkpt>
      <trkpt lat="46.52199" lon="5.72428">
        <ele>451</ele>
        <time>2019-04-03T21:28:14Z</time>
      </trkpt>
      <trkpt lat="46.52205" lon="5.72412">
        <ele>451</ele>
        <time>2019-04-03T21:29:14Z</time>
      </trkpt>
      <trkpt lat="46.52213" lon="5.72393">
        <ele>451</ele>
        <time>2019-04-03T21:30:14Z</time>
      </trkpt>
      <trkpt lat="46.52221" lon="5.72377">
        <ele>451</ele>
        <time>2019-04-03T21:31:14Z</time>
      </trkpt>
      <trkpt lat="46.52224" lon="5.72362">
        <ele>449</ele>
        <time>2019-04-03T21:32:14Z</time>
      </trkpt>
      <trkpt lat="46.52223" lon="5.72352">
        <ele>448</ele>
        <time>2019-04-03T21:33:14Z</time>
      </trkpt>
      <trkpt lat="46.52223" lon="5.72344">
        <ele>447</ele>
        <time>2019-04-03T21:34:14Z</time>
      </trkpt>
      <trkpt lat="46.52217" lon="5.72341">
        <ele>447</ele>
        <time>2019-04-03T21:35:14Z</time>
      </trkpt>
      <trkpt lat="46.52207" lon="5.72338">
        <ele>445</ele>
        <time>2019-04-03T21:36:14Z</time>
      </trkpt>
      <trkpt lat="46.52195" lon="5.72339">
        <ele>444</ele>
        <time>2019-04-03T21:37:14Z</time>
      </trkpt>
      <trkpt lat="46.52181" lon="5.72343">
        <ele>443</ele>
        <time>2019-04-03T21:38:14Z</time>
      </trkpt>
      <trkpt lat="46.52168" lon="5.72344">
        <ele>442</ele>
        <time>2019-04-03T21:39:14Z</time>
      </trkpt>
      <trkpt lat="46.52161" lon="5.72344">
        <ele>442</ele>
        <time>2019-04-03T21:40:14Z</time>
      </trkpt>
      <trkpt lat="46.52154" lon="5.72343">
        <ele>442</ele>
        <time>2019-04-03T21:41:14Z</time>
      </trkpt>
      <trkpt lat="46.52149" lon="5.7234">
        <ele>442</ele>
        <time>2019-04-03T21:42:14Z</time>
      </trkpt>
      <trkpt lat="46.52143" lon="5.72339">
        <ele>442</ele>
        <time>2019-04-03T21:43:14Z</time>
      </trkpt>
      <trkpt lat="46.52135" lon="5.72338">
        <ele>442</ele>
        <time>2019-04-03T21:44:14Z</time>
      </trkpt>
      <trkpt lat="46.52116" lon="5.72327">
        <ele>442</ele>
        <time>2019-04-03T21:45:14Z</time>
      </trkpt>
      <trkpt lat="46.5211" lon="5.72321">
        <ele>443</ele>
        <time>2019-04-03T21:46:14Z</time>
      </trkpt>
      <trkpt lat="46.52104" lon="5.72313">
        <ele>443</ele>
        <time>2019-04-03T21:47:14Z</time>
      </trkpt>
      <trkpt lat="46.52101" lon="5.72306">
        <ele>443</ele>
        <time>2019-04-03T21:48:14Z</time>
      </trkpt>
      <trkpt lat="46.52094" lon="5.72295">
        <ele>444</ele>
        <time>2019-04-03T21:49:14Z</time>
      </trkpt>
      <trkpt lat="46.5209" lon="5.72289">
        <ele>445</ele>
        <time>2019-04-03T21:50:14Z</time>
      </trkpt>
      <trkpt lat="46.52079" lon="5.72287">
        <ele>446</ele>
        <time>2019-04-03T21:51:14Z</time>
      </trkpt>
      <trkpt lat="46.5206" lon="5.72203">
        <ele>455</ele>
        <time>2019-04-03T21:52:14Z</time>
      </trkpt>
      <trkpt lat="46.5205" lon="5.72165">
        <ele>461</ele>
        <time>2019-04-03T21:53:14Z</time>
      </trkpt>
      <trkpt lat="46.52055" lon="5.72141">
        <ele>463</ele>
        <time>2019-04-03T21:54:14Z</time>
      </trkpt>
      <trkpt lat="46.52059" lon="5.72132">
        <ele>463</ele>
        <time>2019-04-03T21:55:14Z</time>
      </trkpt>
      <trkpt lat="46.52068" lon="5.72116">
        <ele>463</ele>
        <time>2019-04-03T21:56:14Z</time>
      </trkpt>
      <trkpt lat="46.52067" lon="5.72107">
        <ele>464</ele>
        <time>2019-04-03T21:57:14Z</time>
      </trkpt>
      <trkpt lat="46.52061" lon="5.72101">
        <ele>466</ele>
        <time>2019-04-03T21:58:14Z</time>
      </trkpt>
      <trkpt lat="46.52025" lon="5.72118">
        <ele>473</ele>
        <time>2019-04-03T21:59:14Z</time>
      </trkpt>
      <trkpt lat="46.52" lon="5.7214">
        <ele>475</ele>
        <time>2019-04-03T22:00:14Z</time>
      </trkpt>
      <trkpt lat="46.51984" lon="5.72147">
        <ele>478</ele>
        <time>2019-04-03T22:01:14Z</time>
      </trkpt>
      <trkpt lat="46.5197" lon="5.72153">
        <ele>480</ele>
        <time>2019-04-03T22:02:14Z</time>
      </trkpt>
      <trkpt lat="46.51945" lon="5.72154">
        <ele>485</ele>
        <time>2019-04-03T22:03:14Z</time>
      </trkpt>
      <trkpt lat="46.51929" lon="5.72153">
        <ele>489</ele>
        <time>2019-04-03T22:04:14Z</time>
      </trkpt>
      <trkpt lat="46.51906" lon="5.7218">
        <ele>489</ele>
        <time>2019-04-03T22:05:14Z</time>
      </trkpt>
      <trkpt lat="46.51891" lon="5.72196">
        <ele>489</ele>
        <time>2019-04-03T22:06:14Z</time>
      </trkpt>
      <trkpt lat="46.51768" lon="5.72212">
        <ele>500</ele>
        <time>2019-04-03T22:07:14Z</time>
      </trkpt>
      <trkpt lat="46.51706" lon="5.72211">
        <ele>507</ele>
        <time>2019-04-03T22:08:14Z</time>
      </trkpt>
      <trkpt lat="46.51667" lon="5.72228">
        <ele>506</ele>
        <time>2019-04-03T22:09:14Z</time>
      </trkpt>
      <trkpt lat="46.51645" lon="5.72231">
        <ele>508</ele>
        <time>2019-04-03T22:10:14Z</time>
      </trkpt>
      <trkpt lat="46.51626" lon="5.72229">
        <ele>511</ele>
        <time>2019-04-03T22:11:14Z</time>
      </trkpt>
      <trkpt lat="46.516" lon="5.72238">
        <ele>513</ele>
        <time>2019-04-03T22:12:14Z</time>
      </trkpt>
      <trkpt lat="46.51553" lon="5.72231">
        <ele>526</ele>
        <time>2019-04-03T22:13:14Z</time>
      </trkpt>
      <trkpt lat="46.51551" lon="5.72231">
        <ele>526</ele>
        <time>2019-04-03T22:14:14Z</time>
      </trkpt>
      <trkpt lat="46.51547" lon="5.72225">
        <ele>528</ele>
        <time>2019-04-03T22:15:14Z</time>
      </trkpt>
      <trkpt lat="46.51548" lon="5.72218">
        <ele>529</ele>
        <time>2019-04-03T22:16:14Z</time>
      </trkpt>
      <trkpt lat="46.51547" lon="5.72212">
        <ele>530</ele>
        <time>2019-04-03T22:17:14Z</time>
      </trkpt>
      <trkpt lat="46.51542" lon="5.722">
        <ele>532</ele>
        <time>2019-04-03T22:18:14Z</time>
      </trkpt>
      <trkpt lat="46.51541" lon="5.72194">
        <ele>533</ele>
        <time>2019-04-03T22:19:14Z</time>
      </trkpt>
      <trkpt lat="46.51542" lon="5.72187">
        <ele>534</ele>
        <time>2019-04-03T22:20:14Z</time>
      </trkpt>
      <trkpt lat="46.51546" lon="5.72177">
        <ele>534</ele>
        <time>2019-04-03T22:21:14Z</time>
      </trkpt>
      <trkpt lat="46.51549" lon="5.72168">
        <ele>535</ele>
        <time>2019-04-03T22:22:14Z</time>
      </trkpt>
      <trkpt lat="46.5155" lon="5.72162">
        <ele>535</ele>
        <time>2019-04-03T22:23:14Z</time>
      </trkpt>
      <trkpt lat="46.5155" lon="5.72156">
        <ele>535</ele>
        <time>2019-04-03T22:24:14Z</time>
      </trkpt>
      <trkpt lat="46.51548" lon="5.72151">
        <ele>536</ele>
        <time>2019-04-03T22:25:14Z</time>
      </trkpt>
      <trkpt lat="46.51545" lon="5.72146">
        <ele>537</ele>
        <time>2019-04-03T22:26:14Z</time>
      </trkpt>
      <trkpt lat="46.5153" lon="5.72133">
        <ele>539</ele>
        <time>2019-04-03T22:27:14Z</time>
      </trkpt>
      <trkpt lat="46.51519" lon="5.72122">
        <ele>541</ele>
        <time>2019-04-03T22:28:14Z</time>
      </trkpt>
      <trkpt lat="46.51509" lon="5.72108">
        <ele>542</ele>
        <time>2019-04-03T22:29:14Z</time>
      </trkpt>
      <trkpt lat="46.51503" lon="5.721">
        <ele>542</ele>
        <time>2019-04-03T22:30:14Z</time>
      </trkpt>
      <trkpt lat="46.51498" lon="5.72091">
        <ele>542</ele>
        <time>2019-04-03T22:31:14Z</time>
      </trkpt>
      <trkpt lat="46.5149" lon="5.72074">
        <ele>542</ele>
        <time>2019-04-03T22:32:14Z</time>
      </trkpt>
      <trkpt lat="46.51484" lon="5.72063">
        <ele>543</ele>
        <time>2019-04-03T22:33:14Z</time>
      </trkpt>
      <trkpt lat="46.51478" lon="5.72057">
        <ele>543</ele>
        <time>2019-04-03T22:34:14Z</time>
      </trkpt>
      <trkpt lat="46.51471" lon="5.72051">
        <ele>543</ele>
        <time>2019-04-03T22:35:14Z</time>
      </trkpt>
      <trkpt lat="46.51463" lon="5.72043">
        <ele>544</ele>
        <time>2019-04-03T22:36:14Z</time>
      </trkpt>
      <trkpt lat="46.51457" lon="5.72034">
        <ele>544</ele>
        <time>2019-04-03T22:37:14Z</time>
      </trkpt>
      <trkpt lat="46.51453" lon="5.72031">
        <ele>544</ele>
        <time>2019-04-03T22:38:14Z</time>
      </trkpt>
      <trkpt lat="46.5145" lon="5.72026">
        <ele>544</ele>
        <time>2019-04-03T22:39:14Z</time>
      </trkpt>
      <trkpt lat="46.51429" lon="5.71976">
        <ele>544</ele>
        <time>2019-04-03T22:40:14Z</time>
      </trkpt>
      <trkpt lat="46.51423" lon="5.71968">
        <ele>544</ele>
        <time>2019-04-03T22:41:14Z</time>
      </trkpt>
      <trkpt lat="46.51413" lon="5.71955">
        <ele>543</ele>
        <time>2019-04-03T22:42:14Z</time>
      </trkpt>
      <trkpt lat="46.514" lon="5.71948">
        <ele>542</ele>
        <time>2019-04-03T22:43:14Z</time>
      </trkpt>
      <trkpt lat="46.514" lon="5.71947">
        <ele>542</ele>
        <time>2019-04-03T22:44:14Z</time>
      </trkpt>
      <trkpt lat="46.51391" lon="5.71944">
        <ele>541</ele>
        <time>2019-04-03T22:45:14Z</time>
      </trkpt>
      <trkpt lat="46.51381" lon="5.71941">
        <ele>541</ele>
        <time>2019-04-03T22:46:14Z</time>
      </trkpt>
      <trkpt lat="46.51366" lon="5.71937">
        <ele>540</ele>
        <time>2019-04-03T22:47:14Z</time>
      </trkpt>
      <trkpt lat="46.51353" lon="5.71936">
        <ele>539</ele>
        <time>2019-04-03T22:48:14Z</time>
      </trkpt>
      <trkpt lat="46.51337" lon="5.71934">
        <ele>538</ele>
        <time>2019-04-03T22:49:14Z</time>
      </trkpt>
      <trkpt lat="46.51326" lon="5.7193">
        <ele>537</ele>
        <time>2019-04-03T22:50:14Z</time>
      </trkpt>
      <trkpt lat="46.51315" lon="5.71926">
        <ele>537</ele>
        <time>2019-04-03T22:51:14Z</time>
      </trkpt>
      <trkpt lat="46.51293" lon="5.71909">
        <ele>537</ele>
        <time>2019-04-03T22:52:14Z</time>
      </trkpt>
      <trkpt lat="46.51253" lon="5.71876">
        <ele>537</ele>
        <time>2019-04-03T22:53:14Z</time>
      </trkpt>
      <trkpt lat="46.5124" lon="5.71863">
        <ele>538</ele>
        <time>2019-04-03T22:54:14Z</time>
      </trkpt>
      <trkpt lat="46.51234" lon="5.71854">
        <ele>538</ele>
        <time>2019-04-03T22:55:14Z</time>
      </trkpt>
      <trkpt lat="46.51232" lon="5.71848">
        <ele>538</ele>
        <time>2019-04-03T22:56:14Z</time>
      </trkpt>
      <trkpt lat="46.51227" lon="5.71832">
        <ele>538</ele>
        <time>2019-04-03T22:57:14Z</time>
      </trkpt>
      <trkpt lat="46.51215" lon="5.71791">
        <ele>539</ele>
        <time>2019-04-03T22:58:14Z</time>
      </trkpt>
      <trkpt lat="46.51212" lon="5.7178">
        <ele>539</ele>
        <time>2019-04-03T22:59:14Z</time>
      </trkpt>
      <trkpt lat="46.51208" lon="5.71759">
        <ele>539</ele>
        <time>2019-04-03T23:00:14Z</time>
      </trkpt>
      <trkpt lat="46.51203" lon="5.71737">
        <ele>539</ele>
        <time>2019-04-03T23:01:14Z</time>
      </trkpt>
      <trkpt lat="46.51197" lon="5.71701">
        <ele>539</ele>
        <time>2019-04-03T23:02:14Z</time>
      </trkpt>
      <trkpt lat="46.51193" lon="5.71682">
        <ele>539</ele>
        <time>2019-04-03T23:03:14Z</time>
      </trkpt>
      <trkpt lat="46.51184" lon="5.71629">
        <ele>539</ele>
        <time>2019-04-03T23:04:14Z</time>
      </trkpt>
      <trkpt lat="46.51182" lon="5.71617">
        <ele>539</ele>
        <time>2019-04-03T23:05:14Z</time>
      </trkpt>
      <trkpt lat="46.51178" lon="5.71605">
        <ele>539</ele>
        <time>2019-04-03T23:06:14Z</time>
      </trkpt>
      <trkpt lat="46.51167" lon="5.71582">
        <ele>539</ele>
        <time>2019-04-03T23:07:14Z</time>
      </trkpt>
      <trkpt lat="46.51163" lon="5.71572">
        <ele>539</ele>
        <time>2019-04-03T23:08:14Z</time>
      </trkpt>
      <trkpt lat="46.5116" lon="5.71561">
        <ele>540</ele>
        <time>2019-04-03T23:09:14Z</time>
      </trkpt>
      <trkpt lat="46.51158" lon="5.71548">
        <ele>540</ele>
        <time>2019-04-03T23:10:14Z</time>
      </trkpt>
      <trkpt lat="46.51157" lon="5.71535">
        <ele>540</ele>
        <time>2019-04-03T23:11:14Z</time>
      </trkpt>
      <trkpt lat="46.51158" lon="5.71526">
        <ele>540</ele>
        <time>2019-04-03T23:12:14Z</time>
      </trkpt>
      <trkpt lat="46.51161" lon="5.71512">
        <ele>540</ele>
        <time>2019-04-03T23:13:14Z</time>
      </trkpt>
      <trkpt lat="46.51171" lon="5.7147">
        <ele>540</ele>
        <time>2019-04-03T23:14:14Z</time>
      </trkpt>
      <trkpt lat="46.51179" lon="5.71433">
        <ele>540</ele>
        <time>2019-04-03T23:15:14Z</time>
      </trkpt>
      <trkpt lat="46.51182" lon="5.71409">
        <ele>540</ele>
        <time>2019-04-03T23:16:14Z</time>
      </trkpt>
      <trkpt lat="46.51183" lon="5.714">
        <ele>540</ele>
        <time>2019-04-03T23:17:14Z</time>
      </trkpt>
      <trkpt lat="46.51185" lon="5.71379">
        <ele>540</ele>
        <time>2019-04-03T23:18:14Z</time>
      </trkpt>
      <trkpt lat="46.51186" lon="5.71357">
        <ele>540</ele>
        <time>2019-04-03T23:19:14Z</time>
      </trkpt>
      <trkpt lat="46.51185" lon="5.71316">
        <ele>540</ele>
        <time>2019-04-03T23:20:14Z</time>
      </trkpt>
      <trkpt lat="46.51186" lon="5.71304">
        <ele>540</ele>
        <time>2019-04-03T23:21:14Z</time>
      </trkpt>
      <trkpt lat="46.51189" lon="5.71291">
        <ele>540</ele>
        <time>2019-04-03T23:22:14Z</time>
      </trkpt>
      <trkpt lat="46.51195" lon="5.71268">
        <ele>540</ele>
        <time>2019-04-03T23:23:14Z</time>
      </trkpt>
      <trkpt lat="46.51202" lon="5.71227">
        <ele>540</ele>
        <time>2019-04-03T23:24:14Z</time>
      </trkpt>
      <trkpt lat="46.51203" lon="5.71213">
        <ele>540</ele>
        <time>2019-04-03T23:25:14Z</time>
      </trkpt>
      <trkpt lat="46.51202" lon="5.71197">
        <ele>540</ele>
        <time>2019-04-03T23:26:14Z</time>
      </trkpt>
      <trkpt lat="46.512" lon="5.71176">
        <ele>540</ele>
        <time>2019-04-03T23:27:14Z</time>
      </trkpt>
      <trkpt lat="46.51195" lon="5.71137">
        <ele>541</ele>
        <time>2019-04-03T23:28:14Z</time>
      </trkpt>
      <trkpt lat="46.51193" lon="5.71121">
        <ele>541</ele>
        <time>2019-04-03T23:29:14Z</time>
      </trkpt>
      <trkpt lat="46.5119" lon="5.71109">
        <ele>542</ele>
        <time>2019-04-03T23:30:14Z</time>
      </trkpt>
      <trkpt lat="46.51186" lon="5.71096">
        <ele>542</ele>
        <time>2019-04-03T23:31:14Z</time>
      </trkpt>
      <trkpt lat="46.51172" lon="5.71066">
        <ele>543</ele>
        <time>2019-04-03T23:32:14Z</time>
      </trkpt>
      <trkpt lat="46.51167" lon="5.71058">
        <ele>543</ele>
        <time>2019-04-03T23:33:14Z</time>
      </trkpt>
      <trkpt lat="46.51167" lon="5.71037">
        <ele>543</ele>
        <time>2019-04-03T23:34:14Z</time>
      </trkpt>
      <trkpt lat="46.51168" lon="5.71022">
        <ele>543</ele>
        <time>2019-04-03T23:35:14Z</time>
      </trkpt>
      <trkpt lat="46.51169" lon="5.71013">
        <ele>542</ele>
        <time>2019-04-03T23:36:14Z</time>
      </trkpt>
      <trkpt lat="46.51175" lon="5.70997">
        <ele>542</ele>
        <time>2019-04-03T23:37:14Z</time>
      </trkpt>
      <trkpt lat="46.51197" lon="5.7095">
        <ele>541</ele>
        <time>2019-04-03T23:38:14Z</time>
      </trkpt>
      <trkpt lat="46.51206" lon="5.70931">
        <ele>541</ele>
        <time>2019-04-03T23:39:14Z</time>
      </trkpt>
      <trkpt lat="46.51214" lon="5.70913">
        <ele>541</ele>
        <time>2019-04-03T23:40:14Z</time>
      </trkpt>
      <trkpt lat="46.51219" lon="5.70899">
        <ele>540</ele>
        <time>2019-04-03T23:41:14Z</time>
      </trkpt>
      <trkpt lat="46.51222" lon="5.70889">
        <ele>540</ele>
        <time>2019-04-03T23:42:14Z</time>
      </trkpt>
      <trkpt lat="46.51226" lon="5.70876">
        <ele>539</ele>
        <time>2019-04-03T23:43:14Z</time>
      </trkpt>
      <trkpt lat="46.51228" lon="5.70858">
        <ele>538</ele>
        <time>2019-04-03T23:44:14Z</time>
      </trkpt>
      <trkpt lat="46.51228" lon="5.70842">
        <ele>537</ele>
        <time>2019-04-03T23:45:14Z</time>
      </trkpt>
      <trkpt lat="46.51225" lon="5.70831">
        <ele>537</ele>
        <time>2019-04-03T23:46:14Z</time>
      </trkpt>
      <trkpt lat="46.51221" lon="5.70825">
        <ele>537</ele>
        <time>2019-04-03T23:47:14Z</time>
      </trkpt>
      <trkpt lat="46.51213" lon="5.70815">
        <ele>537</ele>
        <time>2019-04-03T23:48:14Z</time>
      </trkpt>
      <trkpt lat="46.5118" lon="5.70793">
        <ele>536</ele>
        <time>2019-04-03T23:49:14Z</time>
      </trkpt>
      <trkpt lat="46.51157" lon="5.70777">
        <ele>536</ele>
        <time>2019-04-03T23:50:14Z</time>
      </trkpt>
      <trkpt lat="46.51145" lon="5.70765">
        <ele>535</ele>
        <time>2019-04-03T23:51:14Z</time>
      </trkpt>
      <trkpt lat="46.51135" lon="5.70749">
        <ele>535</ele>
        <time>2019-04-03T23:52:14Z</time>
      </trkpt>
      <trkpt lat="46.51123" lon="5.7073">
        <ele>535</ele>
        <time>2019-04-03T23:53:14Z</time>
      </trkpt>
      <trkpt lat="46.51115" lon="5.70712">
        <ele>534</ele>
        <time>2019-04-03T23:54:14Z</time>
      </trkpt>
      <trkpt lat="46.51114" lon="5.70698">
        <ele>534</ele>
        <time>2019-04-03T23:55:14Z</time>
      </trkpt>
      <trkpt lat="46.51118" lon="5.70681">
        <ele>533</ele>
        <time>2019-04-03T23:56:14Z</time>
      </trkpt>
      <trkpt lat="46.51116" lon="5.70648">
        <ele>533</ele>
        <time>2019-04-03T23:57:14Z</time>
      </trkpt>
      <trkpt lat="46.51112" lon="5.70636">
        <ele>533</ele>
        <time>2019-04-03T23:58:14Z</time>
      </trkpt>
      <trkpt lat="46.51056" lon="5.70531">
        <ele>535</ele>
        <time>2019-04-03T23:59:14Z</time>
      </trkpt>
      <trkpt lat="46.51048" lon="5.70518">
        <ele>535</ele>
        <time>2019-04-04T00:00:14Z</time>
      </trkpt>
      <trkpt lat="46.51039" lon="5.70495">
        <ele>535</ele>
        <time>2019-04-04T00:01:14Z</time>
      </trkpt>
      <trkpt lat="46.51034" lon="5.70478">
        <ele>535</ele>
        <time>2019-04-04T00:02:14Z</time>
      </trkpt>
      <trkpt lat="46.51026" lon="5.70459">
        <ele>535</ele>
        <time>2019-04-04T00:03:14Z</time>
      </trkpt>
      <trkpt lat="46.51022" lon="5.70452">
        <ele>535</ele>
        <time>2019-04-04T00:04:14Z</time>
      </trkpt>
      <trkpt lat="46.51017" lon="5.70446">
        <ele>534</ele>
        <time>2019-04-04T00:05:14Z</time>
      </trkpt>
      <trkpt lat="46.51007" lon="5.70437">
        <ele>534</ele>
        <time>2019-04-04T00:06:14Z</time>
      </trkpt>
      <trkpt lat="46.51" lon="5.70434">
        <ele>534</ele>
        <time>2019-04-04T00:07:14Z</time>
      </trkpt>
      <trkpt lat="46.50985" lon="5.70422">
        <ele>534</ele>
        <time>2019-04-04T00:08:14Z</time>
      </trkpt>
      <trkpt lat="46.50954" lon="5.70384">
        <ele>534</ele>
        <time>2019-04-04T00:09:14Z</time>
      </trkpt>
      <trkpt lat="46.50947" lon="5.70374">
        <ele>534</ele>
        <time>2019-04-04T00:10:14Z</time>
      </trkpt>
      <trkpt lat="46.50794" lon="5.70189">
        <ele>531</ele>
        <time>2019-04-04T00:11:14Z</time>
      </trkpt>
      <trkpt lat="46.50759" lon="5.70148">
        <ele>531</ele>
        <time>2019-04-04T00:12:14Z</time>
      </trkpt>
      <trkpt lat="46.507" lon="5.70073">
        <ele>531</ele>
        <time>2019-04-04T00:13:14Z</time>
      </trkpt>
      <trkpt lat="46.50665" lon="5.70029">
        <ele>531</ele>
        <time>2019-04-04T00:14:14Z</time>
      </trkpt>
      <trkpt lat="46.50623" lon="5.69986">
        <ele>531</ele>
        <time>2019-04-04T00:15:14Z</time>
      </trkpt>
      <trkpt lat="46.50617" lon="5.69978">
        <ele>531</ele>
        <time>2019-04-04T00:16:14Z</time>
      </trkpt>
      <trkpt lat="46.50612" lon="5.6997">
        <ele>531</ele>
        <time>2019-04-04T00:17:14Z</time>
      </trkpt>
      <trkpt lat="46.50609" lon="5.69961">
        <ele>531</ele>
        <time>2019-04-04T00:18:14Z</time>
      </trkpt>
      <trkpt lat="46.50608" lon="5.69951">
        <ele>531</ele>
        <time>2019-04-04T00:19:14Z</time>
      </trkpt>
      <trkpt lat="46.50606" lon="5.69937">
        <ele>532</ele>
        <time>2019-04-04T00:20:14Z</time>
      </trkpt>
      <trkpt lat="46.50603" lon="5.69925">
        <ele>532</ele>
        <time>2019-04-04T00:21:14Z</time>
      </trkpt>
      <trkpt lat="46.50598" lon="5.69916">
        <ele>532</ele>
        <time>2019-04-04T00:22:14Z</time>
      </trkpt>
      <trkpt lat="46.50591" lon="5.69907">
        <ele>532</ele>
        <time>2019-04-04T00:23:14Z</time>
      </trkpt>
      <trkpt lat="46.50582" lon="5.699">
        <ele>532</ele>
        <time>2019-04-04T00:24:14Z</time>
      </trkpt>
      <trkpt lat="46.5057" lon="5.6989">
        <ele>532</ele>
        <time>2019-04-04T00:25:14Z</time>
      </trkpt>
      <trkpt lat="46.50546" lon="5.69864">
        <ele>532</ele>
        <time>2019-04-04T00:26:14Z</time>
      </trkpt>
      <trkpt lat="46.50537" lon="5.69855">
        <ele>532</ele>
        <time>2019-04-04T00:27:14Z</time>
      </trkpt>
      <trkpt lat="46.50526" lon="5.69838">
        <ele>532</ele>
        <time>2019-04-04T00:28:14Z</time>
      </trkpt>
      <trkpt lat="46.50515" lon="5.69823">
        <ele>532</ele>
        <time>2019-04-04T00:29:14Z</time>
      </trkpt>
      <trkpt lat="46.50495" lon="5.69798">
        <ele>532</ele>
        <time>2019-04-04T00:30:14Z</time>
      </trkpt>
      <trkpt lat="46.50485" lon="5.69785">
        <ele>533</ele>
        <time>2019-04-04T00:31:14Z</time>
      </trkpt>
      <trkpt lat="46.50478" lon="5.6977">
        <ele>533</ele>
        <time>2019-04-04T00:32:14Z</time>
      </trkpt>
      <trkpt lat="46.50471" lon="5.69753">
        <ele>533</ele>
        <time>2019-04-04T00:33:14Z</time>
      </trkpt>
      <trkpt lat="46.50457" lon="5.69727">
        <ele>534</ele>
        <time>2019-04-04T00:34:14Z</time>
      </trkpt>
      <trkpt lat="46.5045" lon="5.69714">
        <ele>535</ele>
        <time>2019-04-04T00:35:14Z</time>
      </trkpt>
      <trkpt lat="46.50442" lon="5.69695">
        <ele>535</ele>
        <time>2019-04-04T00:36:14Z</time>
      </trkpt>
      <trkpt lat="46.50436" lon="5.69681">
        <ele>535</ele>
        <time>2019-04-04T00:37:14Z</time>
      </trkpt>
      <trkpt lat="46.5043" lon="5.69672">
        <ele>536</ele>
        <time>2019-04-04T00:38:14Z</time>
      </trkpt>
      <trkpt lat="46.50424" lon="5.69664">
        <ele>536</ele>
        <time>2019-04-04T00:39:14Z</time>
      </trkpt>
      <trkpt lat="46.50416" lon="5.69656">
        <ele>536</ele>
        <time>2019-04-04T00:40:14Z</time>
      </trkpt>
      <trkpt lat="46.50408" lon="5.69649">
        <ele>535</ele>
        <time>2019-04-04T00:41:14Z</time>
      </trkpt>
      <trkpt lat="46.50381" lon="5.69634">
        <ele>533</ele>
        <time>2019-04-04T00:42:14Z</time>
      </trkpt>
      <trkpt lat="46.50356" lon="5.69617">
        <ele>531</ele>
        <time>2019-04-04T00:43:14Z</time>
      </trkpt>
      <trkpt lat="46.50296" lon="5.6958">
        <ele>526</ele>
        <time>2019-04-04T00:44:14Z</time>
      </trkpt>
      <trkpt lat="46.50281" lon="5.69572">
        <ele>525</ele>
        <time>2019-04-04T00:45:14Z</time>
      </trkpt>
      <trkpt lat="46.50224" lon="5.69546">
        <ele>523</ele>
        <time>2019-04-04T00:46:14Z</time>
      </trkpt>
      <trkpt lat="46.50206" lon="5.69537">
        <ele>523</ele>
        <time>2019-04-04T00:47:14Z</time>
      </trkpt>
      <trkpt lat="46.50195" lon="5.69534">
        <ele>523</ele>
        <time>2019-04-04T00:48:14Z</time>
      </trkpt>
      <trkpt lat="46.5018" lon="5.69531">
        <ele>523</ele>
        <time>2019-04-04T00:49:14Z</time>
      </trkpt>
      <trkpt lat="46.50166" lon="5.69525">
        <ele>524</ele>
        <time>2019-04-04T00:50:14Z</time>
      </trkpt>
      <trkpt lat="46.50147" lon="5.69516">
        <ele>524</ele>
        <time>2019-04-04T00:51:14Z</time>
      </trkpt>
      <trkpt lat="46.50155" lon="5.69507">
        <ele>524</ele>
        <time>2019-04-04T00:52:14Z</time>
      </trkpt>
      <trkpt lat="46.50166" lon="5.69492">
        <ele>523</ele>
        <time>2019-04-04T00:53:14Z</time>
      </trkpt>
      <trkpt lat="46.5017" lon="5.69485">
        <ele>523</ele>
        <time>2019-04-04T00:54:14Z</time>
      </trkpt>
      <trkpt lat="46.50171" lon="5.69477">
        <ele>523</ele>
        <time>2019-04-04T00:55:14Z</time>
      </trkpt>
      <trkpt lat="46.50178" lon="5.69467">
        <ele>523</ele>
        <time>2019-04-04T00:56:14Z</time>
      </trkpt>
      <trkpt lat="46.50182" lon="5.69458">
        <ele>523</ele>
        <time>2019-04-04T00:57:14Z</time>
      </trkpt>
      <trkpt lat="46.50184" lon="5.69447">
        <ele>523</ele>
        <time>2019-04-04T00:58:14Z</time>
      </trkpt>
      <trkpt lat="46.50177" lon="5.69403">
        <ele>524</ele>
        <time>2019-04-04T00:59:14Z</time>
      </trkpt>
      <trkpt lat="46.50175" lon="5.69378">
        <ele>526</ele>
        <time>2019-04-04T01:00:14Z</time>
      </trkpt>
      <trkpt lat="46.50176" lon="5.6937">
        <ele>526</ele>
        <time>2019-04-04T01:01:14Z</time>
      </trkpt>
      <trkpt lat="46.5018" lon="5.69366">
        <ele>525</ele>
        <time>2019-04-04T01:02:14Z</time>
      </trkpt>
      <trkpt lat="46.50186" lon="5.69365">
        <ele>524</ele>
        <time>2019-04-04T01:03:14Z</time>
      </trkpt>
      <trkpt lat="46.50205" lon="5.69369">
        <ele>521</ele>
        <time>2019-04-04T01:04:14Z</time>
      </trkpt>
      <trkpt lat="46.50218" lon="5.69368">
        <ele>519</ele>
        <time>2019-04-04T01:05:14Z</time>
      </trkpt>
      <trkpt lat="46.50223" lon="5.69366">
        <ele>518</ele>
        <time>2019-04-04T01:06:14Z</time>
      </trkpt>
      <trkpt lat="46.50225" lon="5.69361">
        <ele>518</ele>
        <time>2019-04-04T01:07:14Z</time>
      </trkpt>
      <trkpt lat="46.50224" lon="5.69349">
        <ele>518</ele>
        <time>2019-04-04T01:08:14Z</time>
      </trkpt>
      <trkpt lat="46.50225" lon="5.69338">
        <ele>518</ele>
        <time>2019-04-04T01:09:14Z</time>
      </trkpt>
      <trkpt lat="46.50229" lon="5.69332">
        <ele>517</ele>
        <time>2019-04-04T01:10:14Z</time>
      </trkpt>
      <trkpt lat="46.50235" lon="5.6933">
        <ele>516</ele>
        <time>2019-04-04T01:11:14Z</time>
      </trkpt>
      <trkpt lat="46.50247" lon="5.69329">
        <ele>513</ele>
        <time>2019-04-04T01:12:14Z</time>
      </trkpt>
      <trkpt lat="46.50251" lon="5.69327">
        <ele>512</ele>
        <time>2019-04-04T01:13:14Z</time>
      </trkpt>
      <trkpt lat="46.50251" lon="5.69323">
        <ele>512</ele>
        <time>2019-04-04T01:14:14Z</time>
      </trkpt>
      <trkpt lat="46.50249" lon="5.69316">
        <ele>512</ele>
        <time>2019-04-04T01:15:14Z</time>
      </trkpt>
      <trkpt lat="46.50236" lon="5.69303">
        <ele>513</ele>
        <time>2019-04-04T01:16:14Z</time>
      </trkpt>
      <trkpt lat="46.50199" lon="5.69269">
        <ele>519</ele>
        <time>2019-04-04T01:17:14Z</time>
      </trkpt>
      <trkpt lat="46.50173" lon="5.69236">
        <ele>522</ele>
        <time>2019-04-04T01:18:14Z</time>
      </trkpt>
      <trkpt lat="46.50162" lon="5.69219">
        <ele>521</ele>
        <time>2019-04-04T01:19:14Z</time>
      </trkpt>
      <trkpt lat="46.50152" lon="5.69201">
        <ele>518</ele>
        <time>2019-04-04T01:20:14Z</time>
      </trkpt>
      <trkpt lat="46.50126" lon="5.69174">
        <ele>518</ele>
        <time>2019-04-04T01:21:14Z</time>
      </trkpt>
      <trkpt lat="46.50102" lon="5.6914">
        <ele>518</ele>
        <time>2019-04-04T01:22:14Z</time>
      </trkpt>
      <trkpt lat="46.50082" lon="5.69097">
        <ele>519</ele>
        <time>2019-04-04T01:23:14Z</time>
      </trkpt>
      <trkpt lat="46.50063" lon="5.69037">
        <ele>514</ele>
        <time>2019-04-04T01:24:14Z</time>
      </trkpt>
      <trkpt lat="46.50053" lon="5.68994">
        <ele>511</ele>
        <time>2019-04-04T01:25:14Z</time>
      </trkpt>
      <trkpt lat="46.50048" lon="5.68986">
        <ele>510</ele>
        <time>2019-04-04T01:26:14Z</time>
      </trkpt>
      <trkpt lat="46.50043" lon="5.68979">
        <ele>511</ele>
        <time>2019-04-04T01:27:14Z</time>
      </trkpt>
      <trkpt lat="46.50011" lon="5.68959">
        <ele>517</ele>
        <time>2019-04-04T01:28:14Z</time>
      </trkpt>
      <trkpt lat="46.49996" lon="5.68946">
        <ele>520</ele>
        <time>2019-04-04T01:29:14Z</time>
      </trkpt>
      <trkpt lat="46.49986" lon="5.68933">
        <ele>520</ele>
        <time>2019-04-04T01:30:14Z</time>
      </trkpt>
      <trkpt lat="46.49982" lon="5.6892">
        <ele>520</ele>
        <time>2019-04-04T01:31:14Z</time>
      </trkpt>
      <trkpt lat="46.49981" lon="5.68907">
        <ele>520</ele>
        <time>2019-04-04T01:32:14Z</time>
      </trkpt>
      <trkpt lat="46.49985" lon="5.68889">
        <ele>521</ele>
        <time>2019-04-04T01:33:14Z</time>
      </trkpt>
      <trkpt lat="46.49995" lon="5.68866">
        <ele>521</ele>
        <time>2019-04-04T01:34:14Z</time>
      </trkpt>
      <trkpt lat="46.50008" lon="5.68842">
        <ele>518</ele>
        <time>2019-04-04T01:35:14Z</time>
      </trkpt>
      <trkpt lat="46.50014" lon="5.68819">
        <ele>514</ele>
        <time>2019-04-04T01:36:14Z</time>
      </trkpt>
      <trkpt lat="46.50015" lon="5.688">
        <ele>513</ele>
        <time>2019-04-04T01:37:14Z</time>
      </trkpt>
      <trkpt lat="46.5001" lon="5.68765">
        <ele>512</ele>
        <time>2019-04-04T01:38:14Z</time>
      </trkpt>
      <trkpt lat="46.49999" lon="5.68735">
        <ele>511</ele>
        <time>2019-04-04T01:39:14Z</time>
      </trkpt>
      <trkpt lat="46.49987" lon="5.68722">
        <ele>509</ele>
        <time>2019-04-04T01:40:14Z</time>
      </trkpt>
      <trkpt lat="46.49971" lon="5.68719">
        <ele>510</ele>
        <time>2019-04-04T01:41:14Z</time>
      </trkpt>
      <trkpt lat="46.49949" lon="5.68718">
        <ele>512</ele>
        <time>2019-04-04T01:42:14Z</time>
      </trkpt>
      <trkpt lat="46.49936" lon="5.68711">
        <ele>513</ele>
        <time>2019-04-04T01:43:14Z</time>
      </trkpt>
      <trkpt lat="46.4992" lon="5.6869">
        <ele>513</ele>
        <time>2019-04-04T01:44:14Z</time>
      </trkpt>
      <trkpt lat="46.4991" lon="5.68661">
        <ele>511</ele>
        <time>2019-04-04T01:45:14Z</time>
      </trkpt>
      <trkpt lat="46.49907" lon="5.68645">
        <ele>510</ele>
        <time>2019-04-04T01:46:14Z</time>
      </trkpt>
      <trkpt lat="46.49902" lon="5.68644">
        <ele>511</ele>
        <time>2019-04-04T01:47:14Z</time>
      </trkpt>
      <trkpt lat="46.49893" lon="5.68659">
        <ele>514</ele>
        <time>2019-04-04T01:48:14Z</time>
      </trkpt>
      <trkpt lat="46.49834" lon="5.68727">
        <ele>524</ele>
        <time>2019-04-04T01:49:14Z</time>
      </trkpt>
      <trkpt lat="46.49765" lon="5.688">
        <ele>527</ele>
        <time>2019-04-04T01:50:14Z</time>
      </trkpt>
      <trkpt lat="46.49733" lon="5.68832">
        <ele>527</ele>
        <time>2019-04-04T01:51:14Z</time>
      </trkpt>
      <trkpt lat="46.49726" lon="5.68843">
        <ele>527</ele>
        <time>2019-04-04T01:52:14Z</time>
      </trkpt>
      <trkpt lat="46.49722" lon="5.68855">
        <ele>527</ele>
        <time>2019-04-04T01:53:14Z</time>
      </trkpt>
      <trkpt lat="46.4972" lon="5.68872">
        <ele>527</ele>
        <time>2019-04-04T01:54:14Z</time>
      </trkpt>
      <trkpt lat="46.49715" lon="5.68886">
        <ele>527</ele>
        <time>2019-04-04T01:55:14Z</time>
      </trkpt>
      <trkpt lat="46.49709" lon="5.68892">
        <ele>527</ele>
        <time>2019-04-04T01:56:14Z</time>
      </trkpt>
      <trkpt lat="46.49701" lon="5.68898">
        <ele>527</ele>
        <time>2019-04-04T01:57:14Z</time>
      </trkpt>
      <trkpt lat="46.49688" lon="5.68897">
        <ele>528</ele>
        <time>2019-04-04T01:58:14Z</time>
      </trkpt>
      <trkpt lat="46.49667" lon="5.68899">
        <ele>529</ele>
        <time>2019-04-04T01:59:14Z</time>
      </trkpt>
      <trkpt lat="46.49662" lon="5.68903">
        <ele>528</ele>
        <time>2019-04-04T02:00:14Z</time>
      </trkpt>
      <trkpt lat="46.49649" lon="5.68925">
        <ele>528</ele>
        <time>2019-04-04T02:01:14Z</time>
      </trkpt>
      <trkpt lat="46.49646" lon="5.68926">
        <ele>527</ele>
        <time>2019-04-04T02:02:14Z</time>
      </trkpt>
      <trkpt lat="46.49642" lon="5.68923">
        <ele>528</ele>
        <time>2019-04-04T02:03:14Z</time>
      </trkpt>
      <trkpt lat="46.49637" lon="5.68913">
        <ele>528</ele>
        <time>2019-04-04T02:04:14Z</time>
      </trkpt>
      <trkpt lat="46.49631" lon="5.68911">
        <ele>528</ele>
        <time>2019-04-04T02:05:14Z</time>
      </trkpt>
      <trkpt lat="46.49625" lon="5.68906">
        <ele>528</ele>
        <time>2019-04-04T02:06:14Z</time>
      </trkpt>
      <trkpt lat="46.49621" lon="5.68897">
        <ele>528</ele>
        <time>2019-04-04T02:07:14Z</time>
      </trkpt>
      <trkpt lat="46.49612" lon="5.68894">
        <ele>528</ele>
        <time>2019-04-04T02:08:14Z</time>
      </trkpt>
      <trkpt lat="46.49586" lon="5.68892">
        <ele>527</ele>
        <time>2019-04-04T02:09:14Z</time>
      </trkpt>
      <trkpt lat="46.49567" lon="5.68891">
        <ele>527</ele>
        <time>2019-04-04T02:10:14Z</time>
      </trkpt>
      <trkpt lat="46.49549" lon="5.68898">
        <ele>527</ele>
        <time>2019-04-04T02:11:14Z</time>
      </trkpt>
      <trkpt lat="46.49544" lon="5.68899">
        <ele>526</ele>
        <time>2019-04-04T02:12:14Z</time>
      </trkpt>
      <trkpt lat="46.49539" lon="5.68902">
        <ele>526</ele>
        <time>2019-04-04T02:13:14Z</time>
      </trkpt>
      <trkpt lat="46.49534" lon="5.68908">
        <ele>526</ele>
        <time>2019-04-04T02:14:14Z</time>
      </trkpt>
      <trkpt lat="46.49517" lon="5.68933">
        <ele>526</ele>
        <time>2019-04-04T02:15:14Z</time>
      </trkpt>
      <trkpt lat="46.49509" lon="5.68945">
        <ele>526</ele>
        <time>2019-04-04T02:16:14Z</time>
      </trkpt>
      <trkpt lat="46.49499" lon="5.68957">
        <ele>526</ele>
        <time>2019-04-04T02:17:14Z</time>
      </trkpt>
      <trkpt lat="46.49494" lon="5.68961">
        <ele>526</ele>
        <time>2019-04-04T02:18:14Z</time>
      </trkpt>
      <trkpt lat="46.49488" lon="5.68963">
        <ele>526</ele>
        <time>2019-04-04T02:19:14Z</time>
      </trkpt>
      <trkpt lat="46.49482" lon="5.68963">
        <ele>526</ele>
        <time>2019-04-04T02:20:14Z</time>
      </trkpt>
      <trkpt lat="46.49473" lon="5.68962">
        <ele>526</ele>
        <time>2019-04-04T02:21:14Z</time>
      </trkpt>
      <trkpt lat="46.49467" lon="5.68964">
        <ele>526</ele>
        <time>2019-04-04T02:22:14Z</time>
      </trkpt>
      <trkpt lat="46.49452" lon="5.68972">
        <ele>527</ele>
        <time>2019-04-04T02:23:14Z</time>
      </trkpt>
      <trkpt lat="46.49443" lon="5.68978">
        <ele>527</ele>
        <time>2019-04-04T02:24:14Z</time>
      </trkpt>
      <trkpt lat="46.49437" lon="5.68983">
        <ele>527</ele>
        <time>2019-04-04T02:25:14Z</time>
      </trkpt>
      <trkpt lat="46.49431" lon="5.68991">
        <ele>527</ele>
        <time>2019-04-04T02:26:14Z</time>
      </trkpt>
      <trkpt lat="46.49411" lon="5.6902">
        <ele>526</ele>
        <time>2019-04-04T02:27:14Z</time>
      </trkpt>
      <trkpt lat="46.49405" lon="5.69028">
        <ele>526</ele>
        <time>2019-04-04T02:28:14Z</time>
      </trkpt>
      <trkpt lat="46.49394" lon="5.69038">
        <ele>526</ele>
        <time>2019-04-04T02:29:14Z</time>
      </trkpt>
      <trkpt lat="46.49386" lon="5.69046">
        <ele>526</ele>
        <time>2019-04-04T02:30:14Z</time>
      </trkpt>
      <trkpt lat="46.49375" lon="5.69053">
        <ele>526</ele>
        <time>2019-04-04T02:31:14Z</time>
      </trkpt>
      <trkpt lat="46.49367" lon="5.69057">
        <ele>526</ele>
        <time>2019-04-04T02:32:14Z</time>
      </trkpt>
      <trkpt lat="46.49358" lon="5.69065">
        <ele>526</ele>
        <time>2019-04-04T02:33:14Z</time>
      </trkpt>
      <trkpt lat="46.49348" lon="5.6907">
        <ele>526</ele>
        <time>2019-04-04T02:34:14Z</time>
      </trkpt>
      <trkpt lat="46.49339" lon="5.69073">
        <ele>526</ele>
        <time>2019-04-04T02:35:14Z</time>
      </trkpt>
      <trkpt lat="46.49331" lon="5.69075">
        <ele>526</ele>
        <time>2019-04-04T02:36:14Z</time>
      </trkpt>
      <trkpt lat="46.4932" lon="5.69074">
        <ele>526</ele>
        <time>2019-04-04T02:37:14Z</time>
      </trkpt>
      <trkpt lat="46.49294" lon="5.6908">
        <ele>525</ele>
        <time>2019-04-04T02:38:14Z</time>
      </trkpt>
      <trkpt lat="46.49288" lon="5.69081">
        <ele>525</ele>
        <time>2019-04-04T02:39:14Z</time>
      </trkpt>
      <trkpt lat="46.49281" lon="5.69085">
        <ele>525</ele>
        <time>2019-04-04T02:40:14Z</time>
      </trkpt>
      <trkpt lat="46.49274" lon="5.69089">
        <ele>525</ele>
        <time>2019-04-04T02:41:14Z</time>
      </trkpt>
      <trkpt lat="46.4925" lon="5.69114">
        <ele>526</ele>
        <time>2019-04-04T02:42:14Z</time>
      </trkpt>
      <trkpt lat="46.49244" lon="5.69118">
        <ele>526</ele>
        <time>2019-04-04T02:43:14Z</time>
      </trkpt>
      <trkpt lat="46.49239" lon="5.6912">
        <ele>526</ele>
        <time>2019-04-04T02:44:14Z</time>
      </trkpt>
      <trkpt lat="46.49232" lon="5.69123">
        <ele>526</ele>
        <time>2019-04-04T02:45:14Z</time>
      </trkpt>
      <trkpt lat="46.49224" lon="5.69128">
        <ele>526</ele>
        <time>2019-04-04T02:46:14Z</time>
      </trkpt>
      <trkpt lat="46.49213" lon="5.69132">
        <ele>526</ele>
        <time>2019-04-04T02:47:14Z</time>
      </trkpt>
      <trkpt lat="46.49205" lon="5.69135">
        <ele>526</ele>
        <time>2019-04-04T02:48:14Z</time>
      </trkpt>
      <trkpt lat="46.49199" lon="5.69143">
        <ele>526</ele>
        <time>2019-04-04T02:49:14Z</time>
      </trkpt>
      <trkpt lat="46.49193" lon="5.69154">
        <ele>527</ele>
        <time>2019-04-04T02:50:14Z</time>
      </trkpt>
      <trkpt lat="46.49185" lon="5.69165">
        <ele>527</ele>
        <time>2019-04-04T02:51:14Z</time>
      </trkpt>
      <trkpt lat="46.49175" lon="5.69186">
        <ele>527</ele>
        <time>2019-04-04T02:52:14Z</time>
      </trkpt>
      <trkpt lat="46.49169" lon="5.69192">
        <ele>527</ele>
        <time>2019-04-04T02:53:14Z</time>
      </trkpt>
      <trkpt lat="46.49164" lon="5.69195">
        <ele>527</ele>
        <time>2019-04-04T02:54:14Z</time>
      </trkpt>
      <trkpt lat="46.49145" lon="5.69199">
        <ele>527</ele>
        <time>2019-04-04T02:55:14Z</time>
      </trkpt>
      <trkpt lat="46.49135" lon="5.69202">
        <ele>528</ele>
        <time>2019-04-04T02:56:14Z</time>
      </trkpt>
      <trkpt lat="46.4913" lon="5.69204">
        <ele>528</ele>
        <time>2019-04-04T02:57:14Z</time>
      </trkpt>
      <trkpt lat="46.49107" lon="5.6922">
        <ele>528</ele>
        <time>2019-04-04T02:58:14Z</time>
      </trkpt>
      <trkpt lat="46.49098" lon="5.69226">
        <ele>528</ele>
        <time>2019-04-04T02:59:14Z</time>
      </trkpt>
      <trkpt lat="46.49092" lon="5.69227">
        <ele>528</ele>
        <time>2019-04-04T03:00:14Z</time>
      </trkpt>
      <trkpt lat="46.49086" lon="5.69226">
        <ele>528</ele>
        <time>2019-04-04T03:01:14Z</time>
      </trkpt>
      <trkpt lat="46.49075" lon="5.69223">
        <ele>528</ele>
        <time>2019-04-04T03:02:14Z</time>
      </trkpt>
      <trkpt lat="46.49065" lon="5.69218">
        <ele>528</ele>
        <time>2019-04-04T03:03:14Z</time>
      </trkpt>
      <trkpt lat="46.49056" lon="5.69214">
        <ele>528</ele>
        <time>2019-04-04T03:04:14Z</time>
      </trkpt>
      <trkpt lat="46.49046" lon="5.69208">
        <ele>528</ele>
        <time>2019-04-04T03:05:14Z</time>
      </trkpt>
      <trkpt lat="46.49012" lon="5.69192">
        <ele>528</ele>
        <time>2019-04-04T03:06:14Z</time>
      </trkpt>
      <trkpt lat="46.49004" lon="5.6919">
        <ele>528</ele>
        <time>2019-04-04T03:07:14Z</time>
      </trkpt>
      <trkpt lat="46.48996" lon="5.6919">
        <ele>528</ele>
        <time>2019-04-04T03:08:14Z</time>
      </trkpt>
      <trkpt lat="46.4899" lon="5.69192">
        <ele>528</ele>
        <time>2019-04-04T03:09:14Z</time>
      </trkpt>
      <trkpt lat="46.48972" lon="5.69203">
        <ele>528</ele>
        <time>2019-04-04T03:10:14Z</time>
      </trkpt>
      <trkpt lat="46.48962" lon="5.69206">
        <ele>529</ele>
        <time>2019-04-04T03:11:14Z</time>
      </trkpt>
      <trkpt lat="46.48956" lon="5.69213">
        <ele>529</ele>
        <time>2019-04-04T03:12:14Z</time>
      </trkpt>
      <trkpt lat="46.48944" lon="5.69231">
        <ele>530</ele>
        <time>2019-04-04T03:13:14Z</time>
      </trkpt>
      <trkpt lat="46.48933" lon="5.69243">
        <ele>530</ele>
        <time>2019-04-04T03:14:14Z</time>
      </trkpt>
      <trkpt lat="46.48877" lon="5.69251">
        <ele>532</ele>
        <time>2019-04-04T03:15:14Z</time>
      </trkpt>
      <trkpt lat="46.48838" lon="5.69253">
        <ele>532</ele>
        <time>2019-04-04T03:16:14Z</time>
      </trkpt>
      <trkpt lat="46.4878" lon="5.6925">
        <ele>528</ele>
        <time>2019-04-04T03:17:14Z</time>
      </trkpt>
      <trkpt lat="46.48758" lon="5.6925">
        <ele>527</ele>
        <time>2019-04-04T03:18:14Z</time>
      </trkpt>
      <trkpt lat="46.48744" lon="5.69257">
        <ele>526</ele>
        <time>2019-04-04T03:19:14Z</time>
      </trkpt>
      <trkpt lat="46.48726" lon="5.6926">
        <ele>526</ele>
        <time>2019-04-04T03:20:14Z</time>
      </trkpt>
      <trkpt lat="46.48707" lon="5.69255">
        <ele>524</ele>
        <time>2019-04-04T03:21:14Z</time>
      </trkpt>
      <trkpt lat="46.48688" lon="5.6925">
        <ele>522</ele>
        <time>2019-04-04T03:22:14Z</time>
      </trkpt>
      <trkpt lat="46.48652" lon="5.69247">
        <ele>518</ele>
        <time>2019-04-04T03:23:14Z</time>
      </trkpt>
      <trkpt lat="46.4862" lon="5.69239">
        <ele>513</ele>
        <time>2019-04-04T03:24:14Z</time>
      </trkpt>
      <trkpt lat="46.48585" lon="5.69232">
        <ele>507</ele>
        <time>2019-04-04T03:25:14Z</time>
      </trkpt>
      <trkpt lat="46.48574" lon="5.69231">
        <ele>506</ele>
        <time>2019-04-04T03:26:14Z</time>
      </trkpt>
      <trkpt lat="46.48567" lon="5.6923">
        <ele>506</ele>
        <time>2019-04-04T03:27:14Z</time>
      </trkpt>
      <trkpt lat="46.48561" lon="5.69231">
        <ele>505</ele>
        <time>2019-04-04T03:28:14Z</time>
      </trkpt>
      <trkpt lat="46.48551" lon="5.69235">
        <ele>505</ele>
        <time>2019-04-04T03:29:14Z</time>
      </trkpt>
      <trkpt lat="46.48532" lon="5.69246">
        <ele>504</ele>
        <time>2019-04-04T03:30:14Z</time>
      </trkpt>
      <trkpt lat="46.48523" lon="5.6925">
        <ele>504</ele>
        <time>2019-04-04T03:31:14Z</time>
      </trkpt>
      <trkpt lat="46.48516" lon="5.69249">
        <ele>503</ele>
        <time>2019-04-04T03:32:14Z</time>
      </trkpt>
      <trkpt lat="46.48508" lon="5.69249">
        <ele>503</ele>
        <time>2019-04-04T03:33:14Z</time>
      </trkpt>
      <trkpt lat="46.48501" lon="5.69248">
        <ele>502</ele>
        <time>2019-04-04T03:34:14Z</time>
      </trkpt>
      <trkpt lat="46.48494" lon="5.69248">
        <ele>502</ele>
        <time>2019-04-04T03:35:14Z</time>
      </trkpt>
      <trkpt lat="46.48488" lon="5.69252">
        <ele>502</ele>
        <time>2019-04-04T03:36:14Z</time>
      </trkpt>
      <trkpt lat="46.4848" lon="5.69258">
        <ele>503</ele>
        <time>2019-04-04T03:37:14Z</time>
      </trkpt>
      <trkpt lat="46.48451" lon="5.69298">
        <ele>507</ele>
        <time>2019-04-04T03:38:14Z</time>
      </trkpt>
      <trkpt lat="46.48444" lon="5.69303">
        <ele>507</ele>
        <time>2019-04-04T03:39:14Z</time>
      </trkpt>
      <trkpt lat="46.48437" lon="5.69304">
        <ele>507</ele>
        <time>2019-04-04T03:40:14Z</time>
      </trkpt>
      <trkpt lat="46.48418" lon="5.69303">
        <ele>507</ele>
        <time>2019-04-04T03:41:14Z</time>
      </trkpt>
      <trkpt lat="46.48409" lon="5.69305">
        <ele>507</ele>
        <time>2019-04-04T03:42:14Z</time>
      </trkpt>
      <trkpt lat="46.48401" lon="5.6931">
        <ele>507</ele>
        <time>2019-04-04T03:43:14Z</time>
      </trkpt>
      <trkpt lat="46.48391" lon="5.69316">
        <ele>508</ele>
        <time>2019-04-04T03:44:14Z</time>
      </trkpt>
      <trkpt lat="46.48379" lon="5.69326">
        <ele>508</ele>
        <time>2019-04-04T03:45:14Z</time>
      </trkpt>
      <trkpt lat="46.48364" lon="5.69336">
        <ele>509</ele>
        <time>2019-04-04T03:46:14Z</time>
      </trkpt>
      <trkpt lat="46.48358" lon="5.69339">
        <ele>509</ele>
        <time>2019-04-04T03:47:14Z</time>
      </trkpt>
      <trkpt lat="46.48353" lon="5.69339">
        <ele>509</ele>
        <time>2019-04-04T03:48:14Z</time>
      </trkpt>
      <trkpt lat="46.48345" lon="5.69324">
        <ele>508</ele>
        <time>2019-04-04T03:49:14Z</time>
      </trkpt>
      <trkpt lat="46.48328" lon="5.69269">
        <ele>505</ele>
        <time>2019-04-04T03:50:14Z</time>
      </trkpt>
      <trkpt lat="46.48321" lon="5.69245">
        <ele>504</ele>
        <time>2019-04-04T03:51:14Z</time>
      </trkpt>
      <trkpt lat="46.48309" lon="5.69231">
        <ele>504</ele>
        <time>2019-04-04T03:52:14Z</time>
      </trkpt>
      <trkpt lat="46.48297" lon="5.69185">
        <ele>503</ele>
        <time>2019-04-04T03:53:14Z</time>
      </trkpt>
      <trkpt lat="46.48295" lon="5.69132">
        <ele>501</ele>
        <time>2019-04-04T03:54:14Z</time>
      </trkpt>
      <trkpt lat="46.48273" lon="5.69092">
        <ele>500</ele>
        <time>2019-04-04T03:55:14Z</time>
      </trkpt>
      <trkpt lat="46.48255" lon="5.69095">
        <ele>501</ele>
        <time>2019-04-04T03:56:14Z</time>
      </trkpt>
      <trkpt lat="46.4824" lon="5.69095">
        <ele>502</ele>
        <time>2019-04-04T03:57:14Z</time>
      </trkpt>
      <trkpt lat="46.48218" lon="5.6908">
        <ele>501</ele>
        <time>2019-04-04T03:58:14Z</time>
      </trkpt>
      <trkpt lat="46.48212" lon="5.69056">
        <ele>502</ele>
        <time>2019-04-04T03:59:14Z</time>
      </trkpt>
      <trkpt lat="46.48195" lon="5.69055">
        <ele>502</ele>
        <time>2019-04-04T04:00:14Z</time>
      </trkpt>
      <trkpt lat="46.48155" lon="5.69031">
        <ele>504</ele>
        <time>2019-04-04T04:01:14Z</time>
      </trkpt>
      <trkpt lat="46.48063" lon="5.69081">
        <ele>512</ele>
        <time>2019-04-04T04:02:14Z</time>
      </trkpt>
      <trkpt lat="46.48002" lon="5.6907">
        <ele>523</ele>
        <time>2019-04-04T04:03:14Z</time>
      </trkpt>
      <trkpt lat="46.47976" lon="5.69023">
        <ele>526</ele>
        <time>2019-04-04T04:04:14Z</time>
      </trkpt>
      <trkpt lat="46.4797" lon="5.68948">
        <ele>525</ele>
        <time>2019-04-04T04:05:14Z</time>
      </trkpt>
      <trkpt lat="46.4796" lon="5.68898">
        <ele>523</ele>
        <time>2019-04-04T04:06:14Z</time>
      </trkpt>
      <trkpt lat="46.47946" lon="5.68881">
        <ele>522</ele>
        <time>2019-04-04T04:07:14Z</time>
      </trkpt>
      <trkpt lat="46.47919" lon="5.68865">
        <ele>521</ele>
        <time>2019-04-04T04:08:14Z</time>
      </trkpt>
      <trkpt lat="46.47887" lon="5.68884">
        <ele>522</ele>
        <time>2019-04-04T04:09:14Z</time>
      </trkpt>
      <trkpt lat="46.47867" lon="5.68894">
        <ele>523</ele>
        <time>2019-04-04T04:10:14Z</time>
      </trkpt>
      <trkpt lat="46.47847" lon="5.68875">
        <ele>522</ele>
        <time>2019-04-04T04:11:14Z</time>
      </trkpt>
      <trkpt lat="46.47832" lon="5.68873">
        <ele>523</ele>
        <time>2019-04-04T04:12:14Z</time>
      </trkpt>
      <trkpt lat="46.47825" lon="5.68855">
        <ele>522</ele>
        <time>2019-04-04T04:13:14Z</time>
      </trkpt>
      <trkpt lat="46.47834" lon="5.68824">
        <ele>522</ele>
        <time>2019-04-04T04:14:14Z</time>
      </trkpt>
      <trkpt lat="46.4785" lon="5.68796">
        <ele>522</ele>
        <time>2019-04-04T04:15:14Z</time>
      </trkpt>
      <trkpt lat="46.47859" lon="5.68783">
        <ele>523</ele>
        <time>2019-04-04T04:16:14Z</time>
      </trkpt>
      <trkpt lat="46.47863" lon="5.6878">
        <ele>523</ele>
        <time>2019-04-04T04:17:14Z</time>
      </trkpt>
      <trkpt lat="46.47867" lon="5.68778">
        <ele>523</ele>
        <time>2019-04-04T04:18:14Z</time>
      </trkpt>
      <trkpt lat="46.47873" lon="5.68778">
        <ele>522</ele>
        <time>2019-04-04T04:19:14Z</time>
      </trkpt>
      <trkpt lat="46.4787" lon="5.68766">
        <ele>523</ele>
        <time>2019-04-04T04:20:14Z</time>
      </trkpt>
      <trkpt lat="46.47866" lon="5.68759">
        <ele>523</ele>
        <time>2019-04-04T04:21:14Z</time>
      </trkpt>
      <trkpt lat="46.47859" lon="5.68753">
        <ele>523</ele>
        <time>2019-04-04T04:22:14Z</time>
      </trkpt>
      <trkpt lat="46.47851" lon="5.68746">
        <ele>524</ele>
        <time>2019-04-04T04:23:14Z</time>
      </trkpt>
      <trkpt lat="46.47843" lon="5.68739">
        <ele>524</ele>
        <time>2019-04-04T04:24:14Z</time>
      </trkpt>
      <trkpt lat="46.47838" lon="5.6873">
        <ele>525</ele>
        <time>2019-04-04T04:25:14Z</time>
      </trkpt>
      <trkpt lat="46.47833" lon="5.68714">
        <ele>526</ele>
        <time>2019-04-04T04:26:14Z</time>
      </trkpt>
      <trkpt lat="46.47829" lon="5.68702">
        <ele>527</ele>
        <time>2019-04-04T04:27:14Z</time>
      </trkpt>
      <trkpt lat="46.47825" lon="5.68694">
        <ele>527</ele>
        <time>2019-04-04T04:28:14Z</time>
      </trkpt>
      <trkpt lat="46.4782" lon="5.68689">
        <ele>528</ele>
        <time>2019-04-04T04:29:14Z</time>
      </trkpt>
      <trkpt lat="46.47831" lon="5.68681">
        <ele>528</ele>
        <time>2019-04-04T04:30:14Z</time>
      </trkpt>
      <trkpt lat="46.47837" lon="5.68677">
        <ele>528</ele>
        <time>2019-04-04T04:31:14Z</time>
      </trkpt>
      <trkpt lat="46.47839" lon="5.6867">
        <ele>529</ele>
        <time>2019-04-04T04:32:14Z</time>
      </trkpt>
      <trkpt lat="46.4784" lon="5.68664">
        <ele>529</ele>
        <time>2019-04-04T04:33:14Z</time>
      </trkpt>
      <trkpt lat="46.47837" lon="5.68658">
        <ele>529</ele>
        <time>2019-04-04T04:34:14Z</time>
      </trkpt>
      <trkpt lat="46.47831" lon="5.68649">
        <ele>530</ele>
        <time>2019-04-04T04:35:14Z</time>
      </trkpt>
      <trkpt lat="46.47822" lon="5.68633">
        <ele>531</ele>
        <time>2019-04-04T04:36:14Z</time>
      </trkpt>
      <trkpt lat="46.47805" lon="5.68602">
        <ele>532</ele>
        <time>2019-04-04T04:37:14Z</time>
      </trkpt>
      <trkpt lat="46.478" lon="5.6859">
        <ele>533</ele>
        <time>2019-04-04T04:38:14Z</time>
      </trkpt>
      <trkpt lat="46.47798" lon="5.68577">
        <ele>533</ele>
        <time>2019-04-04T04:39:14Z</time>
      </trkpt>
      <trkpt lat="46.47796" lon="5.68556">
        <ele>533</ele>
        <time>2019-04-04T04:40:14Z</time>
      </trkpt>
      <trkpt lat="46.47787" lon="5.68507">
        <ele>532</ele>
        <time>2019-04-04T04:41:14Z</time>
      </trkpt>
      <trkpt lat="46.47785" lon="5.68492">
        <ele>532</ele>
        <time>2019-04-04T04:42:14Z</time>
      </trkpt>
      <trkpt lat="46.47781" lon="5.68477">
        <ele>532</ele>
        <time>2019-04-04T04:43:14Z</time>
      </trkpt>
      <trkpt lat="46.47779" lon="5.68466">
        <ele>532</ele>
        <time>2019-04-04T04:44:14Z</time>
      </trkpt>
      <trkpt lat="46.47775" lon="5.68453">
        <ele>532</ele>
        <time>2019-04-04T04:45:14Z</time>
      </trkpt>
      <trkpt lat="46.47772" lon="5.68446">
        <ele>532</ele>
        <time>2019-04-04T04:46:14Z</time>
      </trkpt>
      <trkpt lat="46.47768" lon="5.68437">
        <ele>532</ele>
        <time>2019-04-04T04:47:14Z</time>
      </trkpt>
      <trkpt lat="46.47765" lon="5.68427">
        <ele>532</ele>
        <time>2019-04-04T04:48:14Z</time>
      </trkpt>
      <trkpt lat="46.47762" lon="5.68412">
        <ele>532</ele>
        <time>2019-04-04T04:49:14Z</time>
      </trkpt>
      <trkpt lat="46.47737" lon="5.6836">
        <ele>533</ele>
        <time>2019-04-04T04:50:14Z</time>
      </trkpt>
      <trkpt lat="46.47728" lon="5.68336">
        <ele>533</ele>
        <time>2019-04-04T04:51:14Z</time>
      </trkpt>
      <trkpt lat="46.47717" lon="5.68267">
        <ele>536</ele>
        <time>2019-04-04T04:52:14Z</time>
      </trkpt>
      <trkpt lat="46.47711" lon="5.68236">
        <ele>536</ele>
        <time>2019-04-04T04:53:14Z</time>
      </trkpt>
      <trkpt lat="46.47709" lon="5.68217">
        <ele>536</ele>
        <time>2019-04-04T04:54:14Z</time>
      </trkpt>
      <trkpt lat="46.4771" lon="5.68203">
        <ele>536</ele>
        <time>2019-04-04T04:55:14Z</time>
      </trkpt>
      <trkpt lat="46.47712" lon="5.68196">
        <ele>536</ele>
        <time>2019-04-04T04:56:14Z</time>
      </trkpt>
      <trkpt lat="46.47717" lon="5.68191">
        <ele>536</ele>
        <time>2019-04-04T04:57:14Z</time>
      </trkpt>
      <trkpt lat="46.47722" lon="5.68186">
        <ele>536</ele>
        <time>2019-04-04T04:58:14Z</time>
      </trkpt>
      <trkpt lat="46.47726" lon="5.68178">
        <ele>536</ele>
        <time>2019-04-04T04:59:14Z</time>
      </trkpt>
      <trkpt lat="46.47728" lon="5.68166">
        <ele>536</ele>
        <time>2019-04-04T05:00:14Z</time>
      </trkpt>
      <trkpt lat="46.4773" lon="5.68149">
        <ele>534</ele>
        <time>2019-04-04T05:01:14Z</time>
      </trkpt>
      <trkpt lat="46.47732" lon="5.68122">
        <ele>531</ele>
        <time>2019-04-04T05:02:14Z</time>
      </trkpt>
      <trkpt lat="46.47732" lon="5.68088">
        <ele>527</ele>
        <time>2019-04-04T05:03:14Z</time>
      </trkpt>
      <trkpt lat="46.4773" lon="5.68077">
        <ele>524</ele>
        <time>2019-04-04T05:04:14Z</time>
      </trkpt>
      <trkpt lat="46.47726" lon="5.6807">
        <ele>521</ele>
        <time>2019-04-04T05:05:14Z</time>
      </trkpt>
      <trkpt lat="46.4772" lon="5.68063">
        <ele>519</ele>
        <time>2019-04-04T05:06:14Z</time>
      </trkpt>
      <trkpt lat="46.47714" lon="5.6806">
        <ele>518</ele>
        <time>2019-04-04T05:07:14Z</time>
      </trkpt>
      <trkpt lat="46.47704" lon="5.68061">
        <ele>519</ele>
        <time>2019-04-04T05:08:14Z</time>
      </trkpt>
      <trkpt lat="46.47688" lon="5.68068">
        <ele>522</ele>
        <time>2019-04-04T05:09:14Z</time>
      </trkpt>
      <trkpt lat="46.47677" lon="5.68072">
        <ele>525</ele>
        <time>2019-04-04T05:10:14Z</time>
      </trkpt>
      <trkpt lat="46.4764" lon="5.68074">
        <ele>526</ele>
        <time>2019-04-04T05:11:14Z</time>
      </trkpt>
      <trkpt lat="46.47582" lon="5.68077">
        <ele>527</ele>
        <time>2019-04-04T05:12:14Z</time>
      </trkpt>
      <trkpt lat="46.47528" lon="5.68071">
        <ele>530</ele>
        <time>2019-04-04T05:13:14Z</time>
      </trkpt>
      <trkpt lat="46.47509" lon="5.68065">
        <ele>531</ele>
        <time>2019-04-04T05:14:14Z</time>
      </trkpt>
      <trkpt lat="46.47493" lon="5.68057">
        <ele>530</ele>
        <time>2019-04-04T05:15:14Z</time>
      </trkpt>
      <trkpt lat="46.47481" lon="5.68048">
        <ele>529</ele>
        <time>2019-04-04T05:16:14Z</time>
      </trkpt>
      <trkpt lat="46.47474" lon="5.68038">
        <ele>527</ele>
        <time>2019-04-04T05:17:14Z</time>
      </trkpt>
      <trkpt lat="46.47467" lon="5.68026">
        <ele>526</ele>
        <time>2019-04-04T05:18:14Z</time>
      </trkpt>
      <trkpt lat="46.47457" lon="5.68">
        <ele>523</ele>
        <time>2019-04-04T05:19:14Z</time>
      </trkpt>
      <trkpt lat="46.47448" lon="5.67982">
        <ele>519</ele>
        <time>2019-04-04T05:20:14Z</time>
      </trkpt>
      <trkpt lat="46.47436" lon="5.67963">
        <ele>516</ele>
        <time>2019-04-04T05:21:14Z</time>
      </trkpt>
      <trkpt lat="46.47424" lon="5.67946">
        <ele>515</ele>
        <time>2019-04-04T05:22:14Z</time>
      </trkpt>
      <trkpt lat="46.4741" lon="5.6793">
        <ele>514</ele>
        <time>2019-04-04T05:23:14Z</time>
      </trkpt>
      <trkpt lat="46.47383" lon="5.67909">
        <ele>512</ele>
        <time>2019-04-04T05:24:14Z</time>
      </trkpt>
      <trkpt lat="46.47364" lon="5.67896">
        <ele>511</ele>
        <time>2019-04-04T05:25:14Z</time>
      </trkpt>
      <trkpt lat="46.47346" lon="5.67888">
        <ele>510</ele>
        <time>2019-04-04T05:26:14Z</time>
      </trkpt>
      <trkpt lat="46.47323" lon="5.67884">
        <ele>508</ele>
        <time>2019-04-04T05:27:14Z</time>
      </trkpt>
      <trkpt lat="46.473" lon="5.67883">
        <ele>505</ele>
        <time>2019-04-04T05:28:14Z</time>
      </trkpt>
      <trkpt lat="46.47273" lon="5.6789">
        <ele>504</ele>
        <time>2019-04-04T05:29:14Z</time>
      </trkpt>
      <trkpt lat="46.47261" lon="5.67891">
        <ele>503</ele>
        <time>2019-04-04T05:30:14Z</time>
      </trkpt>
      <trkpt lat="46.47255" lon="5.67887">
        <ele>501</ele>
        <time>2019-04-04T05:31:14Z</time>
      </trkpt>
      <trkpt lat="46.4725" lon="5.67884">
        <ele>500</ele>
        <time>2019-04-04T05:32:14Z</time>
      </trkpt>
      <trkpt lat="46.47202" lon="5.67908">
        <ele>497</ele>
        <time>2019-04-04T05:33:14Z</time>
      </trkpt>
      <trkpt lat="46.47148" lon="5.67941">
        <ele>496</ele>
        <time>2019-04-04T05:34:14Z</time>
      </trkpt>
      <trkpt lat="46.47104" lon="5.67975">
        <ele>497</ele>
        <time>2019-04-04T05:35:14Z</time>
      </trkpt>
      <trkpt lat="46.47063" lon="5.67999">
        <ele>496</ele>
        <time>2019-04-04T05:36:14Z</time>
      </trkpt>
      <trkpt lat="46.47011" lon="5.68026">
        <ele>494</ele>
        <time>2019-04-04T05:37:14Z</time>
      </trkpt>
      <trkpt lat="46.46948" lon="5.68054">
        <ele>492</ele>
        <time>2019-04-04T05:38:14Z</time>
      </trkpt>
      <trkpt lat="46.46881" lon="5.68077">
        <ele>486</ele>
        <time>2019-04-04T05:39:14Z</time>
      </trkpt>
      <trkpt lat="46.46839" lon="5.68097">
        <ele>483</ele>
        <time>2019-04-04T05:40:14Z</time>
      </trkpt>
      <trkpt lat="46.4682" lon="5.68111">
        <ele>482</ele>
        <time>2019-04-04T05:41:14Z</time>
      </trkpt>
      <trkpt lat="46.46778" lon="5.68149">
        <ele>484</ele>
        <time>2019-04-04T05:42:14Z</time>
      </trkpt>
      <trkpt lat="46.46753" lon="5.68168">
        <ele>484</ele>
        <time>2019-04-04T05:43:14Z</time>
      </trkpt>
      <trkpt lat="46.4669" lon="5.68204">
        <ele>484</ele>
        <time>2019-04-04T05:44:14Z</time>
      </trkpt>
      <trkpt lat="46.46623" lon="5.68241">
        <ele>483</ele>
        <time>2019-04-04T05:45:14Z</time>
      </trkpt>
      <trkpt lat="46.46589" lon="5.6826">
        <ele>484</ele>
        <time>2019-04-04T05:46:14Z</time>
      </trkpt>
      <trkpt lat="46.46561" lon="5.68268">
        <ele>481</ele>
        <time>2019-04-04T05:47:14Z</time>
      </trkpt>
      <trkpt lat="46.46525" lon="5.68272">
        <ele>476</ele>
        <time>2019-04-04T05:48:14Z</time>
      </trkpt>
      <trkpt lat="46.46504" lon="5.68281">
        <ele>475</ele>
        <time>2019-04-04T05:49:14Z</time>
      </trkpt>
      <trkpt lat="46.46489" lon="5.68296">
        <ele>476</ele>
        <time>2019-04-04T05:50:14Z</time>
      </trkpt>
      <trkpt lat="46.46437" lon="5.68365">
        <ele>481</ele>
        <time>2019-04-04T05:51:14Z</time>
      </trkpt>
      <trkpt lat="46.4641" lon="5.68393">
        <ele>479</ele>
        <time>2019-04-04T05:52:14Z</time>
      </trkpt>
      <trkpt lat="46.46398" lon="5.68409">
        <ele>477</ele>
        <time>2019-04-04T05:53:14Z</time>
      </trkpt>
      <trkpt lat="46.46393" lon="5.68422">
        <ele>476</ele>
        <time>2019-04-04T05:54:14Z</time>
      </trkpt>
      <trkpt lat="46.46394" lon="5.68457">
        <ele>473</ele>
        <time>2019-04-04T05:55:14Z</time>
      </trkpt>
      <trkpt lat="46.46432" lon="5.68497">
        <ele>481</ele>
        <time>2019-04-04T05:56:14Z</time>
      </trkpt>
      <trkpt lat="46.4646" lon="5.68516">
        <ele>486</ele>
        <time>2019-04-04T05:57:14Z</time>
      </trkpt>
      <trkpt lat="46.4647" lon="5.68553">
        <ele>486</ele>
        <time>2019-04-04T05:58:14Z</time>
      </trkpt>
      <trkpt lat="46.46465" lon="5.68599">
        <ele>481</ele>
        <time>2019-04-04T05:59:14Z</time>
      </trkpt>
      <trkpt lat="46.46387" lon="5.68647">
        <ele>461</ele>
        <time>2019-04-04T06:00:14Z</time>
      </trkpt>
      <trkpt lat="46.46361" lon="5.68657">
        <ele>457</ele>
        <time>2019-04-04T06:01:14Z</time>
      </trkpt>
      <trkpt lat="46.46332" lon="5.68656">
        <ele>453</ele>
        <time>2019-04-04T06:02:14Z</time>
      </trkpt>
      <trkpt lat="46.46307" lon="5.68648">
        <ele>449</ele>
        <time>2019-04-04T06:03:14Z</time>
      </trkpt>
      <trkpt lat="46.46286" lon="5.68634">
        <ele>445</ele>
        <time>2019-04-04T06:04:14Z</time>
      </trkpt>
      <trkpt lat="46.46266" lon="5.68633">
        <ele>442</ele>
        <time>2019-04-04T06:05:14Z</time>
      </trkpt>
      <trkpt lat="46.46241" lon="5.68649">
        <ele>441</ele>
        <time>2019-04-04T06:06:14Z</time>
      </trkpt>
      <trkpt lat="46.4623" lon="5.68679">
        <ele>441</ele>
        <time>2019-04-04T06:07:14Z</time>
      </trkpt>
      <trkpt lat="46.46206" lon="5.68712">
        <ele>439</ele>
        <time>2019-04-04T06:08:14Z</time>
      </trkpt>
      <trkpt lat="46.46191" lon="5.68717">
        <ele>437</ele>
        <time>2019-04-04T06:09:14Z</time>
      </trkpt>
      <trkpt lat="46.46184" lon="5.6874">
        <ele>437</ele>
        <time>2019-04-04T06:10:14Z</time>
      </trkpt>
      <trkpt lat="46.46163" lon="5.68767">
        <ele>435</ele>
        <time>2019-04-04T06:11:14Z</time>
      </trkpt>
      <trkpt lat="46.46148" lon="5.68804">
        <ele>433</ele>
        <time>2019-04-04T06:12:14Z</time>
      </trkpt>
      <trkpt lat="46.46159" lon="5.68813">
        <ele>433</ele>
        <time>2019-04-04T06:13:14Z</time>
      </trkpt>
      <trkpt lat="46.46206" lon="5.68802">
        <ele>437</ele>
        <time>2019-04-04T06:14:14Z</time>
      </trkpt>
      <trkpt lat="46.46229" lon="5.68801">
        <ele>438</ele>
        <time>2019-04-04T06:15:14Z</time>
      </trkpt>
      <trkpt lat="46.46239" lon="5.68824">
        <ele>437</ele>
        <time>2019-04-04T06:16:14Z</time>
      </trkpt>
      <trkpt lat="46.46294" lon="5.68808">
        <ele>438</ele>
        <time>2019-04-04T06:17:14Z</time>
      </trkpt>
      <trkpt lat="46.46324" lon="5.688">
        <ele>438</ele>
        <time>2019-04-04T06:18:14Z</time>
      </trkpt>
      <trkpt lat="46.46344" lon="5.68795">
        <ele>439</ele>
        <time>2019-04-04T06:19:14Z</time>
      </trkpt>
      <trkpt lat="46.46359" lon="5.68794">
        <ele>439</ele>
        <time>2019-04-04T06:20:14Z</time>
      </trkpt>
      <trkpt lat="46.46375" lon="5.68796">
        <ele>440</ele>
        <time>2019-04-04T06:21:14Z</time>
      </trkpt>
      <trkpt lat="46.46384" lon="5.68798">
        <ele>440</ele>
        <time>2019-04-04T06:22:14Z</time>
      </trkpt>
      <trkpt lat="46.46429" lon="5.68812">
        <ele>441</ele>
        <time>2019-04-04T06:23:14Z</time>
      </trkpt>
      <trkpt lat="46.46443" lon="5.68816">
        <ele>443</ele>
        <time>2019-04-04T06:24:14Z</time>
      </trkpt>
      <trkpt lat="46.46532" lon="5.68866">
        <ele>452</ele>
        <time>2019-04-04T06:25:14Z</time>
      </trkpt>
      <trkpt lat="46.46548" lon="5.68878">
        <ele>454</ele>
        <time>2019-04-04T06:26:14Z</time>
      </trkpt>
      <trkpt lat="46.46558" lon="5.6889">
        <ele>455</ele>
        <time>2019-04-04T06:27:14Z</time>
      </trkpt>
      <trkpt lat="46.46572" lon="5.6892">
        <ele>454</ele>
        <time>2019-04-04T06:28:14Z</time>
      </trkpt>
      <trkpt lat="46.4658" lon="5.68938">
        <ele>456</ele>
        <time>2019-04-04T06:29:14Z</time>
      </trkpt>
      <trkpt lat="46.46546" lon="5.68977">
        <ele>446</ele>
        <time>2019-04-04T06:30:14Z</time>
      </trkpt>
      <trkpt lat="46.46542" lon="5.69002">
        <ele>444</ele>
        <time>2019-04-04T06:31:14Z</time>
      </trkpt>
      <trkpt lat="46.46548" lon="5.69029">
        <ele>445</ele>
        <time>2019-04-04T06:32:14Z</time>
      </trkpt>
      <trkpt lat="46.46533" lon="5.69045">
        <ele>441</ele>
        <time>2019-04-04T06:33:14Z</time>
      </trkpt>
      <trkpt lat="46.46514" lon="5.69018">
        <ele>437</ele>
        <time>2019-04-04T06:34:14Z</time>
      </trkpt>
      <trkpt lat="46.46497" lon="5.69022">
        <ele>433</ele>
        <time>2019-04-04T06:35:14Z</time>
      </trkpt>
      <trkpt lat="46.46481" lon="5.69049">
        <ele>432</ele>
        <time>2019-04-04T06:36:14Z</time>
      </trkpt>
      <trkpt lat="46.46489" lon="5.69093">
        <ele>433</ele>
        <time>2019-04-04T06:37:14Z</time>
      </trkpt>
      <trkpt lat="46.46539" lon="5.69138">
        <ele>439</ele>
        <time>2019-04-04T06:38:14Z</time>
      </trkpt>
      <trkpt lat="46.46573" lon="5.69173">
        <ele>442</ele>
        <time>2019-04-04T06:39:14Z</time>
      </trkpt>
      <trkpt lat="46.46582" lon="5.69198">
        <ele>442</ele>
        <time>2019-04-04T06:40:14Z</time>
      </trkpt>
      <trkpt lat="46.46575" lon="5.69238">
        <ele>439</ele>
        <time>2019-04-04T06:41:14Z</time>
      </trkpt>
      <trkpt lat="46.46547" lon="5.69263">
        <ele>438</ele>
        <time>2019-04-04T06:42:14Z</time>
      </trkpt>
      <trkpt lat="46.46491" lon="5.6927">
        <ele>435</ele>
        <time>2019-04-04T06:43:14Z</time>
      </trkpt>
      <trkpt lat="46.46471" lon="5.69272">
        <ele>434</ele>
        <time>2019-04-04T06:44:14Z</time>
      </trkpt>
      <trkpt lat="46.46457" lon="5.69276">
        <ele>433</ele>
        <time>2019-04-04T06:45:14Z</time>
      </trkpt>
      <trkpt lat="46.46449" lon="5.69284">
        <ele>433</ele>
        <time>2019-04-04T06:46:14Z</time>
      </trkpt>
      <trkpt lat="46.46447" lon="5.69291">
        <ele>434</ele>
        <time>2019-04-04T06:47:14Z</time>
      </trkpt>
      <trkpt lat="46.46448" lon="5.69302">
        <ele>434</ele>
        <time>2019-04-04T06:48:14Z</time>
      </trkpt>
      <trkpt lat="46.46451" lon="5.69316">
        <ele>436</ele>
        <time>2019-04-04T06:49:14Z</time>
      </trkpt>
      <trkpt lat="46.46457" lon="5.69329">
        <ele>437</ele>
        <time>2019-04-04T06:50:14Z</time>
      </trkpt>
      <trkpt lat="46.46472" lon="5.69363">
        <ele>441</ele>
        <time>2019-04-04T06:51:14Z</time>
      </trkpt>
      <trkpt lat="46.4648" lon="5.69379">
        <ele>443</ele>
        <time>2019-04-04T06:52:14Z</time>
      </trkpt>
      <trkpt lat="46.4649" lon="5.69399">
        <ele>446</ele>
        <time>2019-04-04T06:53:14Z</time>
      </trkpt>
      <trkpt lat="46.46495" lon="5.6941">
        <ele>447</ele>
        <time>2019-04-04T06:54:14Z</time>
      </trkpt>
      <trkpt lat="46.46498" lon="5.69422">
        <ele>448</ele>
        <time>2019-04-04T06:55:14Z</time>
      </trkpt>
      <trkpt lat="46.46499" lon="5.69452">
        <ele>452</ele>
        <time>2019-04-04T06:56:14Z</time>
      </trkpt>
      <trkpt lat="46.46498" lon="5.69472">
        <ele>454</ele>
        <time>2019-04-04T06:57:14Z</time>
      </trkpt>
      <trkpt lat="46.46499" lon="5.69477">
        <ele>454</ele>
        <time>2019-04-04T06:58:14Z</time>
      </trkpt>
      <trkpt lat="46.46495" lon="5.69525">
        <ele>460</ele>
        <time>2019-04-04T06:59:14Z</time>
      </trkpt>
      <trkpt lat="46.46511" lon="5.69566">
        <ele>468</ele>
        <time>2019-04-04T07:00:14Z</time>
      </trkpt>
      <trkpt lat="46.46513" lon="5.69597">
        <ele>473</ele>
        <time>2019-04-04T07:01:14Z</time>
      </trkpt>
      <trkpt lat="46.46497" lon="5.69685">
        <ele>484</ele>
        <time>2019-04-04T07:02:14Z</time>
      </trkpt>
      <trkpt lat="46.46498" lon="5.69789">
        <ele>501</ele>
        <time>2019-04-04T07:03:14Z</time>
      </trkpt>
      <trkpt lat="46.46476" lon="5.69827">
        <ele>499</ele>
        <time>2019-04-04T07:04:14Z</time>
      </trkpt>
      <trkpt lat="46.46452" lon="5.69865">
        <ele>496</ele>
        <time>2019-04-04T07:05:14Z</time>
      </trkpt>
      <trkpt lat="46.4644" lon="5.69915">
        <ele>500</ele>
        <time>2019-04-04T07:06:14Z</time>
      </trkpt>
      <trkpt lat="46.46432" lon="5.70027">
        <ele>510</ele>
        <time>2019-04-04T07:07:14Z</time>
      </trkpt>
      <trkpt lat="46.46435" lon="5.70077">
        <ele>516</ele>
        <time>2019-04-04T07:08:14Z</time>
      </trkpt>
      <trkpt lat="46.46428" lon="5.70098">
        <ele>516</ele>
        <time>2019-04-04T07:09:14Z</time>
      </trkpt>
      <trkpt lat="46.46395" lon="5.70136">
        <ele>517</ele>
        <time>2019-04-04T07:10:14Z</time>
      </trkpt>
      <trkpt lat="46.46384" lon="5.70188">
        <ele>523</ele>
        <time>2019-04-04T07:11:14Z</time>
      </trkpt>
      <trkpt lat="46.46382" lon="5.70251">
        <ele>532</ele>
        <time>2019-04-04T07:12:14Z</time>
      </trkpt>
      <trkpt lat="46.464" lon="5.70249">
        <ele>533</ele>
        <time>2019-04-04T07:13:14Z</time>
      </trkpt>
      <trkpt lat="46.46421" lon="5.70247">
        <ele>534</ele>
        <time>2019-04-04T07:14:14Z</time>
      </trkpt>
      <trkpt lat="46.46434" lon="5.70242">
        <ele>533</ele>
        <time>2019-04-04T07:15:14Z</time>
      </trkpt>
      <trkpt lat="46.46447" lon="5.70236">
        <ele>532</ele>
        <time>2019-04-04T07:16:14Z</time>
      </trkpt>
      <trkpt lat="46.46453" lon="5.7023">
        <ele>532</ele>
        <time>2019-04-04T07:17:14Z</time>
      </trkpt>
      <trkpt lat="46.46463" lon="5.70231">
        <ele>532</ele>
        <time>2019-04-04T07:18:14Z</time>
      </trkpt>
      <trkpt lat="46.46472" lon="5.70232">
        <ele>532</ele>
        <time>2019-04-04T07:19:14Z</time>
      </trkpt>
      <trkpt lat="46.4648" lon="5.70232">
        <ele>533</ele>
        <time>2019-04-04T07:20:14Z</time>
      </trkpt>
      <trkpt lat="46.46491" lon="5.70235">
        <ele>533</ele>
        <time>2019-04-04T07:21:14Z</time>
      </trkpt>
      <trkpt lat="46.46499" lon="5.70244">
        <ele>534</ele>
        <time>2019-04-04T07:22:14Z</time>
      </trkpt>
      <trkpt lat="46.46507" lon="5.70254">
        <ele>535</ele>
        <time>2019-04-04T07:23:14Z</time>
      </trkpt>
      <trkpt lat="46.46513" lon="5.70276">
        <ele>537</ele>
        <time>2019-04-04T07:24:14Z</time>
      </trkpt>
      <trkpt lat="46.46513" lon="5.7029">
        <ele>538</ele>
        <time>2019-04-04T07:25:14Z</time>
      </trkpt>
      <trkpt lat="46.46511" lon="5.70304">
        <ele>540</ele>
        <time>2019-04-04T07:26:14Z</time>
      </trkpt>
      <trkpt lat="46.46515" lon="5.70346">
        <ele>543</ele>
        <time>2019-04-04T07:27:14Z</time>
      </trkpt>
      <trkpt lat="46.46524" lon="5.70362">
        <ele>544</ele>
        <time>2019-04-04T07:28:14Z</time>
      </trkpt>
      <trkpt lat="46.4653" lon="5.70374">
        <ele>545</ele>
        <time>2019-04-04T07:29:14Z</time>
      </trkpt>
      <trkpt lat="46.46538" lon="5.70381">
        <ele>546</ele>
        <time>2019-04-04T07:30:14Z</time>
      </trkpt>
      <trkpt lat="46.46544" lon="5.70381">
        <ele>546</ele>
        <time>2019-04-04T07:31:14Z</time>
      </trkpt>
      <trkpt lat="46.46551" lon="5.70378">
        <ele>546</ele>
        <time>2019-04-04T07:32:14Z</time>
      </trkpt>
      <trkpt lat="46.46569" lon="5.70369">
        <ele>546</ele>
        <time>2019-04-04T07:33:14Z</time>
      </trkpt>
      <trkpt lat="46.46574" lon="5.70371">
        <ele>546</ele>
        <time>2019-04-04T07:34:14Z</time>
      </trkpt>
      <trkpt lat="46.46579" lon="5.70374">
        <ele>546</ele>
        <time>2019-04-04T07:35:14Z</time>
      </trkpt>
      <trkpt lat="46.46572" lon="5.70391">
        <ele>547</ele>
        <time>2019-04-04T07:36:14Z</time>
      </trkpt>
      <trkpt lat="46.46566" lon="5.70404">
        <ele>548</ele>
        <time>2019-04-04T07:37:14Z</time>
      </trkpt>
      <trkpt lat="46.46553" lon="5.70444">
        <ele>550</ele>
        <time>2019-04-04T07:38:14Z</time>
      </trkpt>
      <trkpt lat="46.46552" lon="5.7045">
        <ele>550</ele>
        <time>2019-04-04T07:39:14Z</time>
      </trkpt>
      <trkpt lat="46.46551" lon="5.70454">
        <ele>551</ele>
        <time>2019-04-04T07:40:14Z</time>
      </trkpt>
      <trkpt lat="46.46549" lon="5.70479">
        <ele>552</ele>
        <time>2019-04-04T07:41:14Z</time>
      </trkpt>
      <trkpt lat="46.46548" lon="5.70545">
        <ele>556</ele>
        <time>2019-04-04T07:42:14Z</time>
      </trkpt>
      <trkpt lat="46.46546" lon="5.70578">
        <ele>558</ele>
        <time>2019-04-04T07:43:14Z</time>
      </trkpt>
      <trkpt lat="46.46544" lon="5.70604">
        <ele>560</ele>
        <time>2019-04-04T07:44:14Z</time>
      </trkpt>
      <trkpt lat="46.46543" lon="5.70618">
        <ele>561</ele>
        <time>2019-04-04T07:45:14Z</time>
      </trkpt>
      <trkpt lat="46.4654" lon="5.70641">
        <ele>562</ele>
        <time>2019-04-04T07:46:14Z</time>
      </trkpt>
      <trkpt lat="46.4654" lon="5.70644">
        <ele>563</ele>
        <time>2019-04-04T07:47:14Z</time>
      </trkpt>
      <trkpt lat="46.46533" lon="5.70642">
        <ele>562</ele>
        <time>2019-04-04T07:48:14Z</time>
      </trkpt>
      <trkpt lat="46.46518" lon="5.70655">
        <ele>563</ele>
        <time>2019-04-04T07:49:14Z</time>
      </trkpt>
      <trkpt lat="46.46508" lon="5.70671">
        <ele>565</ele>
        <time>2019-04-04T07:50:14Z</time>
      </trkpt>
      <trkpt lat="46.46496" lon="5.70687">
        <ele>566</ele>
        <time>2019-04-04T07:51:14Z</time>
      </trkpt>
      <trkpt lat="46.46489" lon="5.70695">
        <ele>566</ele>
        <time>2019-04-04T07:52:14Z</time>
      </trkpt>
      <trkpt lat="46.46426" lon="5.70752">
        <ele>568</ele>
        <time>2019-04-04T07:53:14Z</time>
      </trkpt>
      <trkpt lat="46.46383" lon="5.70792">
        <ele>570</ele>
        <time>2019-04-04T07:54:14Z</time>
      </trkpt>
      <trkpt lat="46.46368" lon="5.70803">
        <ele>570</ele>
        <time>2019-04-04T07:55:14Z</time>
      </trkpt>
      <trkpt lat="46.46346" lon="5.70824">
        <ele>570</ele>
        <time>2019-04-04T07:56:14Z</time>
      </trkpt>
      <trkpt lat="46.46335" lon="5.70833">
        <ele>570</ele>
        <time>2019-04-04T07:57:14Z</time>
      </trkpt>
      <trkpt lat="46.46326" lon="5.7084">
        <ele>571</ele>
        <time>2019-04-04T07:58:14Z</time>
      </trkpt>
      <trkpt lat="46.46298" lon="5.70866">
        <ele>573</ele>
        <time>2019-04-04T07:59:14Z</time>
      </trkpt>
      <trkpt lat="46.46255" lon="5.70903">
        <ele>573</ele>
        <time>2019-04-04T08:00:14Z</time>
      </trkpt>
      <trkpt lat="46.46207" lon="5.70946">
        <ele>575</ele>
        <time>2019-04-04T08:01:14Z</time>
      </trkpt>
      <trkpt lat="46.46174" lon="5.70977">
        <ele>576</ele>
        <time>2019-04-04T08:02:14Z</time>
      </trkpt>
      <trkpt lat="46.46138" lon="5.71005">
        <ele>575</ele>
        <time>2019-04-04T08:03:14Z</time>
      </trkpt>
      <trkpt lat="46.4612" lon="5.7102">
        <ele>576</ele>
        <time>2019-04-04T08:04:14Z</time>
      </trkpt>
      <trkpt lat="46.46063" lon="5.71073">
        <ele>580</ele>
        <time>2019-04-04T08:05:14Z</time>
      </trkpt>
      <trkpt lat="46.46045" lon="5.71089">
        <ele>579</ele>
        <time>2019-04-04T08:06:14Z</time>
      </trkpt>
      <trkpt lat="46.45992" lon="5.71142">
        <ele>581</ele>
        <time>2019-04-04T08:07:14Z</time>
      </trkpt>
      <trkpt lat="46.4597" lon="5.71163">
        <ele>583</ele>
        <time>2019-04-04T08:08:14Z</time>
      </trkpt>
      <trkpt lat="46.4591" lon="5.71216">
        <ele>585</ele>
        <time>2019-04-04T08:09:14Z</time>
      </trkpt>
      <trkpt lat="46.4589" lon="5.71233">
        <ele>586</ele>
        <time>2019-04-04T08:10:14Z</time>
      </trkpt>
      <trkpt lat="46.45863" lon="5.71257">
        <ele>587</ele>
        <time>2019-04-04T08:11:14Z</time>
      </trkpt>
      <trkpt lat="46.45843" lon="5.71275">
        <ele>587</ele>
        <time>2019-04-04T08:12:14Z</time>
      </trkpt>
      <trkpt lat="46.45807" lon="5.71309">
        <ele>588</ele>
        <time>2019-04-04T08:13:14Z</time>
      </trkpt>
      <trkpt lat="46.45773" lon="5.71339">
        <ele>588</ele>
        <time>2019-04-04T08:14:14Z</time>
      </trkpt>
      <trkpt lat="46.45756" lon="5.71356">
        <ele>587</ele>
        <time>2019-04-04T08:15:14Z</time>
      </trkpt>
      <trkpt lat="46.45742" lon="5.71365">
        <ele>588</ele>
        <time>2019-04-04T08:16:14Z</time>
      </trkpt>
      <trkpt lat="46.45721" lon="5.71372">
        <ele>589</ele>
        <time>2019-04-04T08:17:14Z</time>
      </trkpt>
      <trkpt lat="46.45715" lon="5.71385">
        <ele>590</ele>
        <time>2019-04-04T08:18:14Z</time>
      </trkpt>
      <trkpt lat="46.45708" lon="5.71405">
        <ele>590</ele>
        <time>2019-04-04T08:19:14Z</time>
      </trkpt>
      <trkpt lat="46.45703" lon="5.71403">
        <ele>590</ele>
        <time>2019-04-04T08:20:14Z</time>
      </trkpt>
      <trkpt lat="46.45697" lon="5.71401">
        <ele>591</ele>
        <time>2019-04-04T08:21:14Z</time>
      </trkpt>
      <trkpt lat="46.4569" lon="5.71402">
        <ele>591</ele>
        <time>2019-04-04T08:22:14Z</time>
      </trkpt>
      <trkpt lat="46.45686" lon="5.71406">
        <ele>591</ele>
        <time>2019-04-04T08:23:14Z</time>
      </trkpt>
      <trkpt lat="46.45681" lon="5.71411">
        <ele>591</ele>
        <time>2019-04-04T08:24:14Z</time>
      </trkpt>
      <trkpt lat="46.45673" lon="5.71421">
        <ele>592</ele>
        <time>2019-04-04T08:25:14Z</time>
      </trkpt>
      <trkpt lat="46.45654" lon="5.71449">
        <ele>592</ele>
        <time>2019-04-04T08:26:14Z</time>
      </trkpt>
      <trkpt lat="46.45646" lon="5.71461">
        <ele>592</ele>
        <time>2019-04-04T08:27:14Z</time>
      </trkpt>
      <trkpt lat="46.45642" lon="5.71465">
        <ele>592</ele>
        <time>2019-04-04T08:28:14Z</time>
      </trkpt>
      <trkpt lat="46.45635" lon="5.71469">
        <ele>592</ele>
        <time>2019-04-04T08:29:14Z</time>
      </trkpt>
      <trkpt lat="46.45628" lon="5.71469">
        <ele>593</ele>
        <time>2019-04-04T08:30:14Z</time>
      </trkpt>
      <trkpt lat="46.45622" lon="5.71464">
        <ele>593</ele>
        <time>2019-04-04T08:31:14Z</time>
      </trkpt>
      <trkpt lat="46.45617" lon="5.71455">
        <ele>593</ele>
        <time>2019-04-04T08:32:14Z</time>
      </trkpt>
      <trkpt lat="46.45616" lon="5.7145">
        <ele>594</ele>
        <time>2019-04-04T08:33:14Z</time>
      </trkpt>
      <trkpt lat="46.45604" lon="5.71445">
        <ele>594</ele>
        <time>2019-04-04T08:34:14Z</time>
      </trkpt>
      <trkpt lat="46.45594" lon="5.71438">
        <ele>595</ele>
        <time>2019-04-04T08:35:14Z</time>
      </trkpt>
      <trkpt lat="46.45589" lon="5.7143">
        <ele>595</ele>
        <time>2019-04-04T08:36:14Z</time>
      </trkpt>
      <trkpt lat="46.4558" lon="5.71428">
        <ele>596</ele>
        <time>2019-04-04T08:37:14Z</time>
      </trkpt>
      <trkpt lat="46.45569" lon="5.71422">
        <ele>597</ele>
        <time>2019-04-04T08:38:14Z</time>
      </trkpt>
      <trkpt lat="46.45559" lon="5.71421">
        <ele>597</ele>
        <time>2019-04-04T08:39:14Z</time>
      </trkpt>
      <trkpt lat="46.45542" lon="5.7142">
        <ele>599</ele>
        <time>2019-04-04T08:40:14Z</time>
      </trkpt>
      <trkpt lat="46.45537" lon="5.71415">
        <ele>599</ele>
        <time>2019-04-04T08:41:14Z</time>
      </trkpt>
      <trkpt lat="46.45528" lon="5.71388">
        <ele>600</ele>
        <time>2019-04-04T08:42:14Z</time>
      </trkpt>
      <trkpt lat="46.45521" lon="5.71376">
        <ele>600</ele>
        <time>2019-04-04T08:43:14Z</time>
      </trkpt>
      <trkpt lat="46.45519" lon="5.71352">
        <ele>600</ele>
        <time>2019-04-04T08:44:14Z</time>
      </trkpt>
      <trkpt lat="46.45515" lon="5.71332">
        <ele>600</ele>
        <time>2019-04-04T08:45:14Z</time>
      </trkpt>
      <trkpt lat="46.45509" lon="5.71316">
        <ele>599</ele>
        <time>2019-04-04T08:46:14Z</time>
      </trkpt>
      <trkpt lat="46.45497" lon="5.71297">
        <ele>598</ele>
        <time>2019-04-04T08:47:14Z</time>
      </trkpt>
      <trkpt lat="46.45484" lon="5.71284">
        <ele>598</ele>
        <time>2019-04-04T08:48:14Z</time>
      </trkpt>
      <trkpt lat="46.45445" lon="5.7125">
        <ele>601</ele>
        <time>2019-04-04T08:49:14Z</time>
      </trkpt>
      <trkpt lat="46.45429" lon="5.71235">
        <ele>601</ele>
        <time>2019-04-04T08:50:14Z</time>
      </trkpt>
      <trkpt lat="46.45415" lon="5.71218">
        <ele>601</ele>
        <time>2019-04-04T08:51:14Z</time>
      </trkpt>
      <trkpt lat="46.45406" lon="5.71203">
        <ele>601</ele>
        <time>2019-04-04T08:52:14Z</time>
      </trkpt>
      <trkpt lat="46.45397" lon="5.71185">
        <ele>600</ele>
        <time>2019-04-04T08:53:14Z</time>
      </trkpt>
      <trkpt lat="46.45381" lon="5.71159">
        <ele>600</ele>
        <time>2019-04-04T08:54:14Z</time>
      </trkpt>
      <trkpt lat="46.45369" lon="5.71145">
        <ele>600</ele>
        <time>2019-04-04T08:55:14Z</time>
      </trkpt>
      <trkpt lat="46.45357" lon="5.71135">
        <ele>600</ele>
        <time>2019-04-04T08:56:14Z</time>
      </trkpt>
      <trkpt lat="46.45344" lon="5.71129">
        <ele>601</ele>
        <time>2019-04-04T08:57:14Z</time>
      </trkpt>
      <trkpt lat="46.45332" lon="5.71127">
        <ele>602</ele>
        <time>2019-04-04T08:58:14Z</time>
      </trkpt>
      <trkpt lat="46.45315" lon="5.7113">
        <ele>602</ele>
        <time>2019-04-04T08:59:14Z</time>
      </trkpt>
      <trkpt lat="46.45294" lon="5.71136">
        <ele>603</ele>
        <time>2019-04-04T09:00:14Z</time>
      </trkpt>
      <trkpt lat="46.45215" lon="5.71165">
        <ele>605</ele>
        <time>2019-04-04T09:01:14Z</time>
      </trkpt>
      <trkpt lat="46.45183" lon="5.71179">
        <ele>606</ele>
        <time>2019-04-04T09:02:14Z</time>
      </trkpt>
      <trkpt lat="46.45172" lon="5.71145">
        <ele>606</ele>
        <time>2019-04-04T09:03:14Z</time>
      </trkpt>
      <trkpt lat="46.45187" lon="5.71125">
        <ele>606</ele>
        <time>2019-04-04T09:04:14Z</time>
      </trkpt>
      <trkpt lat="46.45187" lon="5.71112">
        <ele>606</ele>
        <time>2019-04-04T09:05:14Z</time>
      </trkpt>
      <trkpt lat="46.45169" lon="5.71109">
        <ele>607</ele>
        <time>2019-04-04T09:06:14Z</time>
      </trkpt>
      <trkpt lat="46.45179" lon="5.71087">
        <ele>607</ele>
        <time>2019-04-04T09:07:14Z</time>
      </trkpt>
      <trkpt lat="46.45184" lon="5.71071">
        <ele>606</ele>
        <time>2019-04-04T09:08:14Z</time>
      </trkpt>
      <trkpt lat="46.45167" lon="5.7107">
        <ele>608</ele>
        <time>2019-04-04T09:09:14Z</time>
      </trkpt>
      <trkpt lat="46.4517" lon="5.71064">
        <ele>607</ele>
        <time>2019-04-04T09:10:14Z</time>
      </trkpt>
      <trkpt lat="46.45169" lon="5.71043">
        <ele>607</ele>
        <time>2019-04-04T09:11:14Z</time>
      </trkpt>
      <trkpt lat="46.45136" lon="5.7101">
        <ele>607</ele>
        <time>2019-04-04T09:12:14Z</time>
      </trkpt>
      <trkpt lat="46.45092" lon="5.70978">
        <ele>608</ele>
        <time>2019-04-04T09:13:14Z</time>
      </trkpt>
      <trkpt lat="46.45042" lon="5.70961">
        <ele>607</ele>
        <time>2019-04-04T09:14:14Z</time>
      </trkpt>
      <trkpt lat="46.44962" lon="5.70949">
        <ele>604</ele>
        <time>2019-04-04T09:15:14Z</time>
      </trkpt>
      <trkpt lat="46.4488" lon="5.70926">
        <ele>602</ele>
        <time>2019-04-04T09:16:14Z</time>
      </trkpt>
      <trkpt lat="46.44858" lon="5.70931">
        <ele>603</ele>
        <time>2019-04-04T09:17:14Z</time>
      </trkpt>
      <trkpt lat="46.44789" lon="5.70917">
        <ele>604</ele>
        <time>2019-04-04T09:18:14Z</time>
      </trkpt>
      <trkpt lat="46.44693" lon="5.70928">
        <ele>608</ele>
        <time>2019-04-04T09:19:14Z</time>
      </trkpt>
      <trkpt lat="46.44684" lon="5.70934">
        <ele>609</ele>
        <time>2019-04-04T09:20:14Z</time>
      </trkpt>
      <trkpt lat="46.44677" lon="5.70921">
        <ele>609</ele>
        <time>2019-04-04T09:21:14Z</time>
      </trkpt>
      <trkpt lat="46.44671" lon="5.70906">
        <ele>609</ele>
        <time>2019-04-04T09:22:14Z</time>
      </trkpt>
      <trkpt lat="46.44664" lon="5.70885">
        <ele>608</ele>
        <time>2019-04-04T09:23:14Z</time>
      </trkpt>
      <trkpt lat="46.44656" lon="5.70867">
        <ele>608</ele>
        <time>2019-04-04T09:24:14Z</time>
      </trkpt>
      <trkpt lat="46.4465" lon="5.70857">
        <ele>608</ele>
        <time>2019-04-04T09:25:14Z</time>
      </trkpt>
      <trkpt lat="46.44639" lon="5.70847">
        <ele>608</ele>
        <time>2019-04-04T09:26:14Z</time>
      </trkpt>
      <trkpt lat="46.44627" lon="5.7084">
        <ele>608</ele>
        <time>2019-04-04T09:27:14Z</time>
      </trkpt>
      <trkpt lat="46.44617" lon="5.70839">
        <ele>608</ele>
        <time>2019-04-04T09:28:14Z</time>
      </trkpt>
      <trkpt lat="46.44605" lon="5.70839">
        <ele>608</ele>
        <time>2019-04-04T09:29:14Z</time>
      </trkpt>
      <trkpt lat="46.4459" lon="5.70845">
        <ele>608</ele>
        <time>2019-04-04T09:30:14Z</time>
      </trkpt>
      <trkpt lat="46.44569" lon="5.70861">
        <ele>607</ele>
        <time>2019-04-04T09:31:14Z</time>
      </trkpt>
      <trkpt lat="46.44557" lon="5.70872">
        <ele>606</ele>
        <time>2019-04-04T09:32:14Z</time>
      </trkpt>
      <trkpt lat="46.44549" lon="5.70893">
        <ele>606</ele>
        <time>2019-04-04T09:33:14Z</time>
      </trkpt>
      <trkpt lat="46.44543" lon="5.70918">
        <ele>606</ele>
        <time>2019-04-04T09:34:14Z</time>
      </trkpt>
      <trkpt lat="46.44541" lon="5.70928">
        <ele>606</ele>
        <time>2019-04-04T09:35:14Z</time>
      </trkpt>
      <trkpt lat="46.44542" lon="5.70939">
        <ele>607</ele>
        <time>2019-04-04T09:36:14Z</time>
      </trkpt>
      <trkpt lat="46.44546" lon="5.70954">
        <ele>609</ele>
        <time>2019-04-04T09:37:14Z</time>
      </trkpt>
      <trkpt lat="46.44553" lon="5.70967">
        <ele>611</ele>
        <time>2019-04-04T09:38:14Z</time>
      </trkpt>
      <trkpt lat="46.44538" lon="5.70962">
        <ele>609</ele>
        <time>2019-04-04T09:39:14Z</time>
      </trkpt>
      <trkpt lat="46.44523" lon="5.7096">
        <ele>608</ele>
        <time>2019-04-04T09:40:14Z</time>
      </trkpt>
      <trkpt lat="46.44517" lon="5.70965">
        <ele>608</ele>
        <time>2019-04-04T09:41:14Z</time>
      </trkpt>
      <trkpt lat="46.44504" lon="5.70972">
        <ele>607</ele>
        <time>2019-04-04T09:42:14Z</time>
      </trkpt>
      <trkpt lat="46.44493" lon="5.70973">
        <ele>607</ele>
        <time>2019-04-04T09:43:14Z</time>
      </trkpt>
      <trkpt lat="46.44477" lon="5.70971">
        <ele>605</ele>
        <time>2019-04-04T09:44:14Z</time>
      </trkpt>
      <trkpt lat="46.44465" lon="5.70972">
        <ele>605</ele>
        <time>2019-04-04T09:45:14Z</time>
      </trkpt>
      <trkpt lat="46.44452" lon="5.70974">
        <ele>604</ele>
        <time>2019-04-04T09:46:14Z</time>
      </trkpt>
      <trkpt lat="46.44436" lon="5.70978">
        <ele>603</ele>
        <time>2019-04-04T09:47:14Z</time>
      </trkpt>
      <trkpt lat="46.44421" lon="5.70985">
        <ele>603</ele>
        <time>2019-04-04T09:48:14Z</time>
      </trkpt>
      <trkpt lat="46.44411" lon="5.7099">
        <ele>603</ele>
        <time>2019-04-04T09:49:14Z</time>
      </trkpt>
      <trkpt lat="46.44399" lon="5.70997">
        <ele>604</ele>
        <time>2019-04-04T09:50:14Z</time>
      </trkpt>
      <trkpt lat="46.44372" lon="5.71008">
        <ele>605</ele>
        <time>2019-04-04T09:51:14Z</time>
      </trkpt>
      <trkpt lat="46.44307" lon="5.7101">
        <ele>605</ele>
        <time>2019-04-04T09:52:14Z</time>
      </trkpt>
      <trkpt lat="46.44281" lon="5.71008">
        <ele>605</ele>
        <time>2019-04-04T09:53:14Z</time>
      </trkpt>
      <trkpt lat="46.44259" lon="5.71004">
        <ele>606</ele>
        <time>2019-04-04T09:54:14Z</time>
      </trkpt>
      <trkpt lat="46.44219" lon="5.70997">
        <ele>606</ele>
        <time>2019-04-04T09:55:14Z</time>
      </trkpt>
      <trkpt lat="46.44219" lon="5.70988">
        <ele>606</ele>
        <time>2019-04-04T09:56:14Z</time>
      </trkpt>
      <trkpt lat="46.44217" lon="5.70974">
        <ele>606</ele>
        <time>2019-04-04T09:57:14Z</time>
      </trkpt>
      <trkpt lat="46.44216" lon="5.70959">
        <ele>606</ele>
        <time>2019-04-04T09:58:14Z</time>
      </trkpt>
      <trkpt lat="46.44213" lon="5.70946">
        <ele>606</ele>
        <time>2019-04-04T09:59:14Z</time>
      </trkpt>
      <trkpt lat="46.44209" lon="5.70937">
        <ele>606</ele>
        <time>2019-04-04T10:00:14Z</time>
      </trkpt>
      <trkpt lat="46.44205" lon="5.70924">
        <ele>606</ele>
        <time>2019-04-04T10:01:14Z</time>
      </trkpt>
      <trkpt lat="46.442" lon="5.70889">
        <ele>606</ele>
        <time>2019-04-04T10:02:14Z</time>
      </trkpt>
      <trkpt lat="46.44196" lon="5.70849">
        <ele>604</ele>
        <time>2019-04-04T10:03:14Z</time>
      </trkpt>
      <trkpt lat="46.44193" lon="5.7084">
        <ele>604</ele>
        <time>2019-04-04T10:04:14Z</time>
      </trkpt>
      <trkpt lat="46.44189" lon="5.708">
        <ele>603</ele>
        <time>2019-04-04T10:05:14Z</time>
      </trkpt>
      <trkpt lat="46.44172" lon="5.70774">
        <ele>603</ele>
        <time>2019-04-04T10:06:14Z</time>
      </trkpt>
      <trkpt lat="46.44156" lon="5.7074">
        <ele>602</ele>
        <time>2019-04-04T10:07:14Z</time>
      </trkpt>
      <trkpt lat="46.44149" lon="5.70701">
        <ele>599</ele>
        <time>2019-04-04T10:08:14Z</time>
      </trkpt>
      <trkpt lat="46.44145" lon="5.70678">
        <ele>597</ele>
        <time>2019-04-04T10:09:14Z</time>
      </trkpt>
      <trkpt lat="46.44112" lon="5.70667">
        <ele>591</ele>
        <time>2019-04-04T10:10:14Z</time>
      </trkpt>
      <trkpt lat="46.44078" lon="5.70674">
        <ele>586</ele>
        <time>2019-04-04T10:11:14Z</time>
      </trkpt>
      <trkpt lat="46.44049" lon="5.70684">
        <ele>579</ele>
        <time>2019-04-04T10:12:14Z</time>
      </trkpt>
      <trkpt lat="46.44037" lon="5.70691">
        <ele>578</ele>
        <time>2019-04-04T10:13:14Z</time>
      </trkpt>
      <trkpt lat="46.44014" lon="5.70703">
        <ele>578</ele>
        <time>2019-04-04T10:14:14Z</time>
      </trkpt>
      <trkpt lat="46.44" lon="5.70718">
        <ele>582</ele>
        <time>2019-04-04T10:15:14Z</time>
      </trkpt>
      <trkpt lat="46.43977" lon="5.70734">
        <ele>582</ele>
        <time>2019-04-04T10:16:14Z</time>
      </trkpt>
      <trkpt lat="46.43958" lon="5.70742">
        <ele>580</ele>
        <time>2019-04-04T10:17:14Z</time>
      </trkpt>
      <trkpt lat="46.4392" lon="5.70747">
        <ele>571</ele>
        <time>2019-04-04T10:18:14Z</time>
      </trkpt>
      <trkpt lat="46.43861" lon="5.70779">
        <ele>586</ele>
        <time>2019-04-04T10:19:14Z</time>
      </trkpt>
      <trkpt lat="46.43859" lon="5.70779">
        <ele>586</ele>
        <time>2019-04-04T10:20:14Z</time>
      </trkpt>
      <trkpt lat="46.43807" lon="5.70763">
        <ele>587</ele>
        <time>2019-04-04T10:21:14Z</time>
      </trkpt>
      <trkpt lat="46.4375" lon="5.70708">
        <ele>591</ele>
        <time>2019-04-04T10:22:14Z</time>
      </trkpt>
      <trkpt lat="46.43722" lon="5.70681">
        <ele>591</ele>
        <time>2019-04-04T10:23:14Z</time>
      </trkpt>
      <trkpt lat="46.43684" lon="5.70575">
        <ele>575</ele>
        <time>2019-04-04T10:24:14Z</time>
      </trkpt>
      <trkpt lat="46.43634" lon="5.70488">
        <ele>573</ele>
        <time>2019-04-04T10:25:14Z</time>
      </trkpt>
      <trkpt lat="46.43577" lon="5.7042">
        <ele>579</ele>
        <time>2019-04-04T10:26:14Z</time>
      </trkpt>
      <trkpt lat="46.43531" lon="5.70343">
        <ele>576</ele>
        <time>2019-04-04T10:27:14Z</time>
      </trkpt>
      <trkpt lat="46.43465" lon="5.70289">
        <ele>581</ele>
        <time>2019-04-04T10:28:14Z</time>
      </trkpt>
      <trkpt lat="46.43391" lon="5.70266">
        <ele>582</ele>
        <time>2019-04-04T10:29:14Z</time>
      </trkpt>
      <trkpt lat="46.43334" lon="5.70269">
        <ele>582</ele>
        <time>2019-04-04T10:30:14Z</time>
      </trkpt>
      <trkpt lat="46.43272" lon="5.7031">
        <ele>582</ele>
        <time>2019-04-04T10:31:14Z</time>
      </trkpt>
      <trkpt lat="46.43202" lon="5.70381">
        <ele>584</ele>
        <time>2019-04-04T10:32:14Z</time>
      </trkpt>
      <trkpt lat="46.43178" lon="5.70398">
        <ele>584</ele>
        <time>2019-04-04T10:33:14Z</time>
      </trkpt>
      <trkpt lat="46.43153" lon="5.70411">
        <ele>584</ele>
        <time>2019-04-04T10:34:14Z</time>
      </trkpt>
      <trkpt lat="46.43131" lon="5.70415">
        <ele>585</ele>
        <time>2019-04-04T10:35:14Z</time>
      </trkpt>
      <trkpt lat="46.43106" lon="5.70413">
        <ele>585</ele>
        <time>2019-04-04T10:36:14Z</time>
      </trkpt>
      <trkpt lat="46.43083" lon="5.70408">
        <ele>584</ele>
        <time>2019-04-04T10:37:14Z</time>
      </trkpt>
      <trkpt lat="46.43062" lon="5.70386">
        <ele>583</ele>
        <time>2019-04-04T10:38:14Z</time>
      </trkpt>
      <trkpt lat="46.43036" lon="5.70367">
        <ele>581</ele>
        <time>2019-04-04T10:39:14Z</time>
      </trkpt>
      <trkpt lat="46.43013" lon="5.70363">
        <ele>581</ele>
        <time>2019-04-04T10:40:14Z</time>
      </trkpt>
      <trkpt lat="46.42993" lon="5.70368">
        <ele>581</ele>
        <time>2019-04-04T10:41:14Z</time>
      </trkpt>
      <trkpt lat="46.42968" lon="5.70331">
        <ele>575</ele>
        <time>2019-04-04T10:42:14Z</time>
      </trkpt>
      <trkpt lat="46.42862" lon="5.7033">
        <ele>571</ele>
        <time>2019-04-04T10:43:14Z</time>
      </trkpt>
      <trkpt lat="46.42829" lon="5.70252">
        <ele>570</ele>
        <time>2019-04-04T10:44:14Z</time>
      </trkpt>
      <trkpt lat="46.42838" lon="5.70207">
        <ele>568</ele>
        <time>2019-04-04T10:45:14Z</time>
      </trkpt>
      <trkpt lat="46.42849" lon="5.70161">
        <ele>566</ele>
        <time>2019-04-04T10:46:14Z</time>
      </trkpt>
      <trkpt lat="46.42846" lon="5.70148">
        <ele>564</ele>
        <time>2019-04-04T10:47:14Z</time>
      </trkpt>
      <trkpt lat="46.42844" lon="5.70142">
        <ele>564</ele>
        <time>2019-04-04T10:48:14Z</time>
      </trkpt>
      <trkpt lat="46.42841" lon="5.70139">
        <ele>564</ele>
        <time>2019-04-04T10:49:14Z</time>
      </trkpt>
      <trkpt lat="46.42838" lon="5.70137">
        <ele>563</ele>
        <time>2019-04-04T10:50:14Z</time>
      </trkpt>
      <trkpt lat="46.42831" lon="5.70136">
        <ele>563</ele>
        <time>2019-04-04T10:51:14Z</time>
      </trkpt>
      <trkpt lat="46.42809" lon="5.70132">
        <ele>564</ele>
        <time>2019-04-04T10:52:14Z</time>
      </trkpt>
      <trkpt lat="46.42786" lon="5.70132">
        <ele>566</ele>
        <time>2019-04-04T10:53:14Z</time>
      </trkpt>
      <trkpt lat="46.42778" lon="5.70131">
        <ele>566</ele>
        <time>2019-04-04T10:54:14Z</time>
      </trkpt>
      <trkpt lat="46.4277" lon="5.70127">
        <ele>566</ele>
        <time>2019-04-04T10:55:14Z</time>
      </trkpt>
      <trkpt lat="46.4276" lon="5.70117">
        <ele>566</ele>
        <time>2019-04-04T10:56:14Z</time>
      </trkpt>
      <trkpt lat="46.42757" lon="5.70115">
        <ele>566</ele>
        <time>2019-04-04T10:57:14Z</time>
      </trkpt>
      <trkpt lat="46.42752" lon="5.70114">
        <ele>566</ele>
        <time>2019-04-04T10:58:14Z</time>
      </trkpt>
      <trkpt lat="46.42734" lon="5.70117">
        <ele>567</ele>
        <time>2019-04-04T10:59:14Z</time>
      </trkpt>
      <trkpt lat="46.42715" lon="5.70122">
        <ele>568</ele>
        <time>2019-04-04T11:00:14Z</time>
      </trkpt>
      <trkpt lat="46.42699" lon="5.70123">
        <ele>569</ele>
        <time>2019-04-04T11:01:14Z</time>
      </trkpt>
      <trkpt lat="46.42694" lon="5.70123">
        <ele>569</ele>
        <time>2019-04-04T11:02:14Z</time>
      </trkpt>
      <trkpt lat="46.42691" lon="5.7012">
        <ele>568</ele>
        <time>2019-04-04T11:03:14Z</time>
      </trkpt>
      <trkpt lat="46.42689" lon="5.70116">
        <ele>568</ele>
        <time>2019-04-04T11:04:14Z</time>
      </trkpt>
      <trkpt lat="46.42689" lon="5.70093">
        <ele>566</ele>
        <time>2019-04-04T11:05:14Z</time>
      </trkpt>
      <trkpt lat="46.42688" lon="5.70084">
        <ele>565</ele>
        <time>2019-04-04T11:06:14Z</time>
      </trkpt>
      <trkpt lat="46.42682" lon="5.70069">
        <ele>565</ele>
        <time>2019-04-04T11:07:14Z</time>
      </trkpt>
      <trkpt lat="46.42679" lon="5.70055">
        <ele>565</ele>
        <time>2019-04-04T11:08:14Z</time>
      </trkpt>
      <trkpt lat="46.42677" lon="5.70006">
        <ele>564</ele>
        <time>2019-04-04T11:09:14Z</time>
      </trkpt>
      <trkpt lat="46.42676" lon="5.69994">
        <ele>564</ele>
        <time>2019-04-04T11:10:14Z</time>
      </trkpt>
      <trkpt lat="46.4267" lon="5.69971">
        <ele>566</ele>
        <time>2019-04-04T11:11:14Z</time>
      </trkpt>
      <trkpt lat="46.42668" lon="5.69953">
        <ele>567</ele>
        <time>2019-04-04T11:12:14Z</time>
      </trkpt>
      <trkpt lat="46.42668" lon="5.69937">
        <ele>568</ele>
        <time>2019-04-04T11:13:14Z</time>
      </trkpt>
      <trkpt lat="46.42671" lon="5.69921">
        <ele>568</ele>
        <time>2019-04-04T11:14:14Z</time>
      </trkpt>
      <trkpt lat="46.42676" lon="5.69903">
        <ele>569</ele>
        <time>2019-04-04T11:15:14Z</time>
      </trkpt>
      <trkpt lat="46.42677" lon="5.69888">
        <ele>570</ele>
        <time>2019-04-04T11:16:14Z</time>
      </trkpt>
      <trkpt lat="46.42676" lon="5.69877">
        <ele>571</ele>
        <time>2019-04-04T11:17:14Z</time>
      </trkpt>
      <trkpt lat="46.42674" lon="5.69868">
        <ele>571</ele>
        <time>2019-04-04T11:18:14Z</time>
      </trkpt>
      <trkpt lat="46.42669" lon="5.6986">
        <ele>572</ele>
        <time>2019-04-04T11:19:14Z</time>
      </trkpt>
      <trkpt lat="46.42664" lon="5.69853">
        <ele>572</ele>
        <time>2019-04-04T11:20:14Z</time>
      </trkpt>
      <trkpt lat="46.42634" lon="5.69828">
        <ele>572</ele>
        <time>2019-04-04T11:21:14Z</time>
      </trkpt>
      <trkpt lat="46.42621" lon="5.69816">
        <ele>571</ele>
        <time>2019-04-04T11:22:14Z</time>
      </trkpt>
      <trkpt lat="46.42636" lon="5.69754">
        <ele>569</ele>
        <time>2019-04-04T11:23:14Z</time>
      </trkpt>
      <trkpt lat="46.42641" lon="5.69733">
        <ele>570</ele>
        <time>2019-04-04T11:24:14Z</time>
      </trkpt>
      <trkpt lat="46.42625" lon="5.69698">
        <ele>566</ele>
        <time>2019-04-04T11:25:14Z</time>
      </trkpt>
      <trkpt lat="46.42626" lon="5.69673">
        <ele>566</ele>
        <time>2019-04-04T11:26:14Z</time>
      </trkpt>
      <trkpt lat="46.42656" lon="5.69622">
        <ele>566</ele>
        <time>2019-04-04T11:27:14Z</time>
      </trkpt>
      <trkpt lat="46.42666" lon="5.69604">
        <ele>564</ele>
        <time>2019-04-04T11:28:14Z</time>
      </trkpt>
      <trkpt lat="46.42662" lon="5.69584">
        <ele>562</ele>
        <time>2019-04-04T11:29:14Z</time>
      </trkpt>
      <trkpt lat="46.42647" lon="5.69576">
        <ele>563</ele>
        <time>2019-04-04T11:30:14Z</time>
      </trkpt>
      <trkpt lat="46.42621" lon="5.69551">
        <ele>566</ele>
        <time>2019-04-04T11:31:14Z</time>
      </trkpt>
      <trkpt lat="46.42627" lon="5.69534">
        <ele>567</ele>
        <time>2019-04-04T11:32:14Z</time>
      </trkpt>
      <trkpt lat="46.42635" lon="5.69518">
        <ele>567</ele>
        <time>2019-04-04T11:33:14Z</time>
      </trkpt>
      <trkpt lat="46.42647" lon="5.69502">
        <ele>565</ele>
        <time>2019-04-04T11:34:14Z</time>
      </trkpt>
      <trkpt lat="46.42672" lon="5.69476">
        <ele>565</ele>
        <time>2019-04-04T11:35:14Z</time>
      </trkpt>
      <trkpt lat="46.42706" lon="5.69423">
        <ele>567</ele>
        <time>2019-04-04T11:36:14Z</time>
      </trkpt>
      <trkpt lat="46.42704" lon="5.69413">
        <ele>568</ele>
        <time>2019-04-04T11:37:14Z</time>
      </trkpt>
      <trkpt lat="46.42703" lon="5.69402">
        <ele>570</ele>
        <time>2019-04-04T11:38:14Z</time>
      </trkpt>
      <trkpt lat="46.42706" lon="5.69394">
        <ele>571</ele>
        <time>2019-04-04T11:39:14Z</time>
      </trkpt>
      <trkpt lat="46.42718" lon="5.69377">
        <ele>572</ele>
        <time>2019-04-04T11:40:14Z</time>
      </trkpt>
      <trkpt lat="46.42755" lon="5.69341">
        <ele>572</ele>
        <time>2019-04-04T11:41:14Z</time>
      </trkpt>
      <trkpt lat="46.42765" lon="5.69329">
        <ele>572</ele>
        <time>2019-04-04T11:42:14Z</time>
      </trkpt>
      <trkpt lat="46.42768" lon="5.69316">
        <ele>574</ele>
        <time>2019-04-04T11:43:14Z</time>
      </trkpt>
      <trkpt lat="46.42765" lon="5.69309">
        <ele>575</ele>
        <time>2019-04-04T11:44:14Z</time>
      </trkpt>
      <trkpt lat="46.42755" lon="5.69303">
        <ele>577</ele>
        <time>2019-04-04T11:45:14Z</time>
      </trkpt>
      <trkpt lat="46.42729" lon="5.69299">
        <ele>581</ele>
        <time>2019-04-04T11:46:14Z</time>
      </trkpt>
      <trkpt lat="46.42723" lon="5.69293">
        <ele>582</ele>
        <time>2019-04-04T11:47:14Z</time>
      </trkpt>
      <trkpt lat="46.42719" lon="5.69285">
        <ele>583</ele>
        <time>2019-04-04T11:48:14Z</time>
      </trkpt>
      <trkpt lat="46.42724" lon="5.69231">
        <ele>588</ele>
        <time>2019-04-04T11:49:14Z</time>
      </trkpt>
      <trkpt lat="46.42727" lon="5.6919">
        <ele>591</ele>
        <time>2019-04-04T11:50:14Z</time>
      </trkpt>
      <trkpt lat="46.42724" lon="5.69121">
        <ele>596</ele>
        <time>2019-04-04T11:51:14Z</time>
      </trkpt>
      <trkpt lat="46.42725" lon="5.69108">
        <ele>597</ele>
        <time>2019-04-04T11:52:14Z</time>
      </trkpt>
      <trkpt lat="46.42728" lon="5.691">
        <ele>597</ele>
        <time>2019-04-04T11:53:14Z</time>
      </trkpt>
      <trkpt lat="46.42743" lon="5.69067">
        <ele>596</ele>
        <time>2019-04-04T11:54:14Z</time>
      </trkpt>
      <trkpt lat="46.4275" lon="5.69032">
        <ele>594</ele>
        <time>2019-04-04T11:55:14Z</time>
      </trkpt>
      <trkpt lat="46.42752" lon="5.68999">
        <ele>594</ele>
        <time>2019-04-04T11:56:14Z</time>
      </trkpt>
      <trkpt lat="46.42748" lon="5.68964">
        <ele>593</ele>
        <time>2019-04-04T11:57:14Z</time>
      </trkpt>
      <trkpt lat="46.42742" lon="5.68938">
        <ele>592</ele>
        <time>2019-04-04T11:58:14Z</time>
      </trkpt>
      <trkpt lat="46.42731" lon="5.68916">
        <ele>591</ele>
        <time>2019-04-04T11:59:14Z</time>
      </trkpt>
      <trkpt lat="46.42715" lon="5.6889">
        <ele>590</ele>
        <time>2019-04-04T12:00:14Z</time>
      </trkpt>
      <trkpt lat="46.42704" lon="5.68883">
        <ele>590</ele>
        <time>2019-04-04T12:01:14Z</time>
      </trkpt>
      <trkpt lat="46.42693" lon="5.68881">
        <ele>590</ele>
        <time>2019-04-04T12:02:14Z</time>
      </trkpt>
      <trkpt lat="46.42671" lon="5.68883">
        <ele>591</ele>
        <time>2019-04-04T12:03:14Z</time>
      </trkpt>
      <trkpt lat="46.42663" lon="5.6888">
        <ele>590</ele>
        <time>2019-04-04T12:04:14Z</time>
      </trkpt>
      <trkpt lat="46.42648" lon="5.68869">
        <ele>588</ele>
        <time>2019-04-04T12:05:14Z</time>
      </trkpt>
      <trkpt lat="46.42636" lon="5.68866">
        <ele>586</ele>
        <time>2019-04-04T12:06:14Z</time>
      </trkpt>
      <trkpt lat="46.42614" lon="5.6887">
        <ele>586</ele>
        <time>2019-04-04T12:07:14Z</time>
      </trkpt>
      <trkpt lat="46.42578" lon="5.6889">
        <ele>590</ele>
        <time>2019-04-04T12:08:14Z</time>
      </trkpt>
      <trkpt lat="46.42539" lon="5.68918">
        <ele>597</ele>
        <time>2019-04-04T12:09:14Z</time>
      </trkpt>
      <trkpt lat="46.42519" lon="5.68925">
        <ele>597</ele>
        <time>2019-04-04T12:10:14Z</time>
      </trkpt>
      <trkpt lat="46.42506" lon="5.68923">
        <ele>597</ele>
        <time>2019-04-04T12:11:14Z</time>
      </trkpt>
      <trkpt lat="46.42489" lon="5.68916">
        <ele>596</ele>
        <time>2019-04-04T12:12:14Z</time>
      </trkpt>
      <trkpt lat="46.42474" lon="5.68909">
        <ele>595</ele>
        <time>2019-04-04T12:13:14Z</time>
      </trkpt>
      <trkpt lat="46.42464" lon="5.6891">
        <ele>595</ele>
        <time>2019-04-04T12:14:14Z</time>
      </trkpt>
      <trkpt lat="46.42447" lon="5.68915">
        <ele>597</ele>
        <time>2019-04-04T12:15:14Z</time>
      </trkpt>
      <trkpt lat="46.42432" lon="5.68924">
        <ele>599</ele>
        <time>2019-04-04T12:16:14Z</time>
      </trkpt>
      <trkpt lat="46.42409" lon="5.68943">
        <ele>603</ele>
        <time>2019-04-04T12:17:14Z</time>
      </trkpt>
      <trkpt lat="46.42373" lon="5.68981">
        <ele>611</ele>
        <time>2019-04-04T12:18:14Z</time>
      </trkpt>
      <trkpt lat="46.42356" lon="5.6901">
        <ele>616</ele>
        <time>2019-04-04T12:19:14Z</time>
      </trkpt>
      <trkpt lat="46.42342" lon="5.69031">
        <ele>618</ele>
        <time>2019-04-04T12:20:14Z</time>
      </trkpt>
      <trkpt lat="46.42328" lon="5.69044">
        <ele>620</ele>
        <time>2019-04-04T12:21:14Z</time>
      </trkpt>
      <trkpt lat="46.42315" lon="5.69051">
        <ele>621</ele>
        <time>2019-04-04T12:22:14Z</time>
      </trkpt>
      <trkpt lat="46.42291" lon="5.69055">
        <ele>623</ele>
        <time>2019-04-04T12:23:14Z</time>
      </trkpt>
      <trkpt lat="46.42271" lon="5.69064">
        <ele>624</ele>
        <time>2019-04-04T12:24:14Z</time>
      </trkpt>
      <trkpt lat="46.4225" lon="5.69079">
        <ele>627</ele>
        <time>2019-04-04T12:25:14Z</time>
      </trkpt>
      <trkpt lat="46.42227" lon="5.69085">
        <ele>627</ele>
        <time>2019-04-04T12:26:14Z</time>
      </trkpt>
      <trkpt lat="46.42213" lon="5.69087">
        <ele>628</ele>
        <time>2019-04-04T12:27:14Z</time>
      </trkpt>
      <trkpt lat="46.42162" lon="5.69086">
        <ele>628</ele>
        <time>2019-04-04T12:28:14Z</time>
      </trkpt>
      <trkpt lat="46.42128" lon="5.69085">
        <ele>629</ele>
        <time>2019-04-04T12:29:14Z</time>
      </trkpt>
      <trkpt lat="46.4211" lon="5.69089">
        <ele>629</ele>
        <time>2019-04-04T12:30:14Z</time>
      </trkpt>
      <trkpt lat="46.42088" lon="5.69102">
        <ele>629</ele>
        <time>2019-04-04T12:31:14Z</time>
      </trkpt>
      <trkpt lat="46.42073" lon="5.69115">
        <ele>628</ele>
        <time>2019-04-04T12:32:14Z</time>
      </trkpt>
      <trkpt lat="46.42062" lon="5.69132">
        <ele>627</ele>
        <time>2019-04-04T12:33:14Z</time>
      </trkpt>
      <trkpt lat="46.42061" lon="5.69141">
        <ele>627</ele>
        <time>2019-04-04T12:34:14Z</time>
      </trkpt>
      <trkpt lat="46.42062" lon="5.69163">
        <ele>626</ele>
        <time>2019-04-04T12:35:14Z</time>
      </trkpt>
      <trkpt lat="46.42065" lon="5.6918">
        <ele>626</ele>
        <time>2019-04-04T12:36:14Z</time>
      </trkpt>
      <trkpt lat="46.42072" lon="5.69203">
        <ele>625</ele>
        <time>2019-04-04T12:37:14Z</time>
      </trkpt>
      <trkpt lat="46.42073" lon="5.69218">
        <ele>625</ele>
        <time>2019-04-04T12:38:14Z</time>
      </trkpt>
      <trkpt lat="46.42074" lon="5.69238">
        <ele>624</ele>
        <time>2019-04-04T12:39:14Z</time>
      </trkpt>
      <trkpt lat="46.42063" lon="5.69237">
        <ele>624</ele>
        <time>2019-04-04T12:40:14Z</time>
      </trkpt>
      <trkpt lat="46.42052" lon="5.69239">
        <ele>624</ele>
        <time>2019-04-04T12:41:14Z</time>
      </trkpt>
      <trkpt lat="46.42026" lon="5.69243">
        <ele>623</ele>
        <time>2019-04-04T12:42:14Z</time>
      </trkpt>
      <trkpt lat="46.41984" lon="5.69254">
        <ele>624</ele>
        <time>2019-04-04T12:43:14Z</time>
      </trkpt>
      <trkpt lat="46.41968" lon="5.69257">
        <ele>626</ele>
        <time>2019-04-04T12:44:14Z</time>
      </trkpt>
      <trkpt lat="46.41949" lon="5.69259">
        <ele>627</ele>
        <time>2019-04-04T12:45:14Z</time>
      </trkpt>
      <trkpt lat="46.41935" lon="5.69261">
        <ele>628</ele>
        <time>2019-04-04T12:46:14Z</time>
      </trkpt>
      <trkpt lat="46.41917" lon="5.69262">
        <ele>629</ele>
        <time>2019-04-04T12:47:14Z</time>
      </trkpt>
      <trkpt lat="46.419" lon="5.69261">
        <ele>630</ele>
        <time>2019-04-04T12:48:14Z</time>
      </trkpt>
      <trkpt lat="46.41886" lon="5.69262">
        <ele>630</ele>
        <time>2019-04-04T12:49:14Z</time>
      </trkpt>
      <trkpt lat="46.41877" lon="5.6926">
        <ele>630</ele>
        <time>2019-04-04T12:50:14Z</time>
      </trkpt>
      <trkpt lat="46.41848" lon="5.69257">
        <ele>631</ele>
        <time>2019-04-04T12:51:14Z</time>
      </trkpt>
      <trkpt lat="46.41834" lon="5.69253">
        <ele>632</ele>
        <time>2019-04-04T12:52:14Z</time>
      </trkpt>
      <trkpt lat="46.41805" lon="5.69251">
        <ele>633</ele>
        <time>2019-04-04T12:53:14Z</time>
      </trkpt>
      <trkpt lat="46.41791" lon="5.6925">
        <ele>634</ele>
        <time>2019-04-04T12:54:14Z</time>
      </trkpt>
      <trkpt lat="46.41776" lon="5.69245">
        <ele>635</ele>
        <time>2019-04-04T12:55:14Z</time>
      </trkpt>
      <trkpt lat="46.41764" lon="5.6924">
        <ele>635</ele>
        <time>2019-04-04T12:56:14Z</time>
      </trkpt>
      <trkpt lat="46.41758" lon="5.69239">
        <ele>636</ele>
        <time>2019-04-04T12:57:14Z</time>
      </trkpt>
      <trkpt lat="46.41751" lon="5.69237">
        <ele>636</ele>
        <time>2019-04-04T12:58:14Z</time>
      </trkpt>
      <trkpt lat="46.41714" lon="5.69237">
        <ele>636</ele>
        <time>2019-04-04T12:59:14Z</time>
      </trkpt>
      <trkpt lat="46.41703" lon="5.69236">
        <ele>636</ele>
        <time>2019-04-04T13:00:14Z</time>
      </trkpt>
      <trkpt lat="46.41686" lon="5.69233">
        <ele>636</ele>
        <time>2019-04-04T13:01:14Z</time>
      </trkpt>
      <trkpt lat="46.41665" lon="5.69227">
        <ele>636</ele>
        <time>2019-04-04T13:02:14Z</time>
      </trkpt>
      <trkpt lat="46.4165" lon="5.69226">
        <ele>637</ele>
        <time>2019-04-04T13:03:14Z</time>
      </trkpt>
      <trkpt lat="46.41633" lon="5.69227">
        <ele>637</ele>
        <time>2019-04-04T13:04:14Z</time>
      </trkpt>
      <trkpt lat="46.4161" lon="5.6923">
        <ele>638</ele>
        <time>2019-04-04T13:05:14Z</time>
      </trkpt>
      <trkpt lat="46.41596" lon="5.69232">
        <ele>639</ele>
        <time>2019-04-04T13:06:14Z</time>
      </trkpt>
      <trkpt lat="46.41571" lon="5.69231">
        <ele>640</ele>
        <time>2019-04-04T13:07:14Z</time>
      </trkpt>
      <trkpt lat="46.41558" lon="5.69231">
        <ele>641</ele>
        <time>2019-04-04T13:08:14Z</time>
      </trkpt>
      <trkpt lat="46.41547" lon="5.69232">
        <ele>641</ele>
        <time>2019-04-04T13:09:14Z</time>
      </trkpt>
      <trkpt lat="46.41501" lon="5.69246">
        <ele>643</ele>
        <time>2019-04-04T13:10:14Z</time>
      </trkpt>
      <trkpt lat="46.41492" lon="5.69248">
        <ele>643</ele>
        <time>2019-04-04T13:11:14Z</time>
      </trkpt>
      <trkpt lat="46.41481" lon="5.69248">
        <ele>643</ele>
        <time>2019-04-04T13:12:14Z</time>
      </trkpt>
      <trkpt lat="46.41472" lon="5.69247">
        <ele>644</ele>
        <time>2019-04-04T13:13:14Z</time>
      </trkpt>
      <trkpt lat="46.41463" lon="5.69242">
        <ele>644</ele>
        <time>2019-04-04T13:14:14Z</time>
      </trkpt>
      <trkpt lat="46.41453" lon="5.69234">
        <ele>643</ele>
        <time>2019-04-04T13:15:14Z</time>
      </trkpt>
      <trkpt lat="46.41446" lon="5.69226">
        <ele>643</ele>
        <time>2019-04-04T13:16:14Z</time>
      </trkpt>
      <trkpt lat="46.41423" lon="5.69209">
        <ele>643</ele>
        <time>2019-04-04T13:17:14Z</time>
      </trkpt>
      <trkpt lat="46.41413" lon="5.69201">
        <ele>642</ele>
        <time>2019-04-04T13:18:14Z</time>
      </trkpt>
      <trkpt lat="46.41406" lon="5.69194">
        <ele>642</ele>
        <time>2019-04-04T13:19:14Z</time>
      </trkpt>
      <trkpt lat="46.41402" lon="5.69185">
        <ele>642</ele>
        <time>2019-04-04T13:20:14Z</time>
      </trkpt>
      <trkpt lat="46.41399" lon="5.6917">
        <ele>642</ele>
        <time>2019-04-04T13:21:14Z</time>
      </trkpt>
      <trkpt lat="46.41396" lon="5.69154">
        <ele>642</ele>
        <time>2019-04-04T13:22:14Z</time>
      </trkpt>
      <trkpt lat="46.41386" lon="5.69128">
        <ele>642</ele>
        <time>2019-04-04T13:23:14Z</time>
      </trkpt>
      <trkpt lat="46.41379" lon="5.6911">
        <ele>642</ele>
        <time>2019-04-04T13:24:14Z</time>
      </trkpt>
      <trkpt lat="46.41377" lon="5.69098">
        <ele>643</ele>
        <time>2019-04-04T13:25:14Z</time>
      </trkpt>
      <trkpt lat="46.4138" lon="5.69085">
        <ele>642</ele>
        <time>2019-04-04T13:26:14Z</time>
      </trkpt>
      <trkpt lat="46.4138" lon="5.69072">
        <ele>642</ele>
        <time>2019-04-04T13:27:14Z</time>
      </trkpt>
      <trkpt lat="46.41379" lon="5.69061">
        <ele>642</ele>
        <time>2019-04-04T13:28:14Z</time>
      </trkpt>
      <trkpt lat="46.41376" lon="5.69054">
        <ele>642</ele>
        <time>2019-04-04T13:29:14Z</time>
      </trkpt>
      <trkpt lat="46.41369" lon="5.69046">
        <ele>643</ele>
        <time>2019-04-04T13:30:14Z</time>
      </trkpt>
      <trkpt lat="46.41364" lon="5.69044">
        <ele>643</ele>
        <time>2019-04-04T13:31:14Z</time>
      </trkpt>
      <trkpt lat="46.41356" lon="5.69044">
        <ele>644</ele>
        <time>2019-04-04T13:32:14Z</time>
      </trkpt>
      <trkpt lat="46.41348" lon="5.69045">
        <ele>645</ele>
        <time>2019-04-04T13:33:14Z</time>
      </trkpt>
      <trkpt lat="46.4134" lon="5.6904">
        <ele>645</ele>
        <time>2019-04-04T13:34:14Z</time>
      </trkpt>
      <trkpt lat="46.41337" lon="5.69031">
        <ele>646</ele>
        <time>2019-04-04T13:35:14Z</time>
      </trkpt>
      <trkpt lat="46.41337" lon="5.69019">
        <ele>646</ele>
        <time>2019-04-04T13:36:14Z</time>
      </trkpt>
      <trkpt lat="46.41339" lon="5.69013">
        <ele>645</ele>
        <time>2019-04-04T13:37:14Z</time>
      </trkpt>
      <trkpt lat="46.41341" lon="5.69">
        <ele>645</ele>
        <time>2019-04-04T13:38:14Z</time>
      </trkpt>
      <trkpt lat="46.41342" lon="5.68972">
        <ele>645</ele>
        <time>2019-04-04T13:39:14Z</time>
      </trkpt>
      <trkpt lat="46.41339" lon="5.6896">
        <ele>645</ele>
        <time>2019-04-04T13:40:14Z</time>
      </trkpt>
      <trkpt lat="46.41335" lon="5.68949">
        <ele>645</ele>
        <time>2019-04-04T13:41:14Z</time>
      </trkpt>
      <trkpt lat="46.4133" lon="5.68938">
        <ele>645</ele>
        <time>2019-04-04T13:42:14Z</time>
      </trkpt>
      <trkpt lat="46.4132" lon="5.6892">
        <ele>644</ele>
        <time>2019-04-04T13:43:14Z</time>
      </trkpt>
      <trkpt lat="46.41315" lon="5.6891">
        <ele>645</ele>
        <time>2019-04-04T13:44:14Z</time>
      </trkpt>
      <trkpt lat="46.4131" lon="5.68899">
        <ele>645</ele>
        <time>2019-04-04T13:45:14Z</time>
      </trkpt>
      <trkpt lat="46.41304" lon="5.68873">
        <ele>645</ele>
        <time>2019-04-04T13:46:14Z</time>
      </trkpt>
      <trkpt lat="46.41301" lon="5.68862">
        <ele>645</ele>
        <time>2019-04-04T13:47:14Z</time>
      </trkpt>
      <trkpt lat="46.41295" lon="5.68856">
        <ele>645</ele>
        <time>2019-04-04T13:48:14Z</time>
      </trkpt>
      <trkpt lat="46.41289" lon="5.68854">
        <ele>645</ele>
        <time>2019-04-04T13:49:14Z</time>
      </trkpt>
      <trkpt lat="46.41284" lon="5.68854">
        <ele>645</ele>
        <time>2019-04-04T13:50:14Z</time>
      </trkpt>
      <trkpt lat="46.41279" lon="5.68859">
        <ele>646</ele>
        <time>2019-04-04T13:51:14Z</time>
      </trkpt>
      <trkpt lat="46.41271" lon="5.68864">
        <ele>646</ele>
        <time>2019-04-04T13:52:14Z</time>
      </trkpt>
      <trkpt lat="46.41263" lon="5.68867">
        <ele>646</ele>
        <time>2019-04-04T13:53:14Z</time>
      </trkpt>
      <trkpt lat="46.41255" lon="5.68866">
        <ele>646</ele>
        <time>2019-04-04T13:54:14Z</time>
      </trkpt>
      <trkpt lat="46.41249" lon="5.68862">
        <ele>646</ele>
        <time>2019-04-04T13:55:14Z</time>
      </trkpt>
      <trkpt lat="46.4124" lon="5.68846">
        <ele>646</ele>
        <time>2019-04-04T13:56:14Z</time>
      </trkpt>
      <trkpt lat="46.41236" lon="5.68837">
        <ele>646</ele>
        <time>2019-04-04T13:57:14Z</time>
      </trkpt>
      <trkpt lat="46.41231" lon="5.68829">
        <ele>646</ele>
        <time>2019-04-04T13:58:14Z</time>
      </trkpt>
      <trkpt lat="46.41225" lon="5.68825">
        <ele>647</ele>
        <time>2019-04-04T13:59:14Z</time>
      </trkpt>
      <trkpt lat="46.41217" lon="5.68822">
        <ele>647</ele>
        <time>2019-04-04T14:00:14Z</time>
      </trkpt>
      <trkpt lat="46.4121" lon="5.68824">
        <ele>647</ele>
        <time>2019-04-04T14:01:14Z</time>
      </trkpt>
      <trkpt lat="46.41203" lon="5.68827">
        <ele>647</ele>
        <time>2019-04-04T14:02:14Z</time>
      </trkpt>
      <trkpt lat="46.41155" lon="5.68866">
        <ele>649</ele>
        <time>2019-04-04T14:03:14Z</time>
      </trkpt>
      <trkpt lat="46.41139" lon="5.6888">
        <ele>649</ele>
        <time>2019-04-04T14:04:14Z</time>
      </trkpt>
      <trkpt lat="46.41132" lon="5.6889">
        <ele>649</ele>
        <time>2019-04-04T14:05:14Z</time>
      </trkpt>
      <trkpt lat="46.41116" lon="5.68908">
        <ele>650</ele>
        <time>2019-04-04T14:06:14Z</time>
      </trkpt>
      <trkpt lat="46.411" lon="5.68926">
        <ele>650</ele>
        <time>2019-04-04T14:07:14Z</time>
      </trkpt>
      <trkpt lat="46.41067" lon="5.68968">
        <ele>653</ele>
        <time>2019-04-04T14:08:14Z</time>
      </trkpt>
      <trkpt lat="46.41059" lon="5.68976">
        <ele>653</ele>
        <time>2019-04-04T14:09:14Z</time>
      </trkpt>
      <trkpt lat="46.41041" lon="5.68991">
        <ele>653</ele>
        <time>2019-04-04T14:10:14Z</time>
      </trkpt>
      <trkpt lat="46.41035" lon="5.68996">
        <ele>653</ele>
        <time>2019-04-04T14:11:14Z</time>
      </trkpt>
      <trkpt lat="46.41022" lon="5.69004">
        <ele>653</ele>
        <time>2019-04-04T14:12:14Z</time>
      </trkpt>
      <trkpt lat="46.40996" lon="5.69023">
        <ele>655</ele>
        <time>2019-04-04T14:13:14Z</time>
      </trkpt>
      <trkpt lat="46.40989" lon="5.69026">
        <ele>655</ele>
        <time>2019-04-04T14:14:14Z</time>
      </trkpt>
      <trkpt lat="46.40981" lon="5.69027">
        <ele>655</ele>
        <time>2019-04-04T14:15:14Z</time>
      </trkpt>
      <trkpt lat="46.40969" lon="5.69026">
        <ele>655</ele>
        <time>2019-04-04T14:16:14Z</time>
      </trkpt>
      <trkpt lat="46.40961" lon="5.69023">
        <ele>655</ele>
        <time>2019-04-04T14:17:14Z</time>
      </trkpt>
      <trkpt lat="46.40951" lon="5.69019">
        <ele>654</ele>
        <time>2019-04-04T14:18:14Z</time>
      </trkpt>
      <trkpt lat="46.40944" lon="5.69014">
        <ele>654</ele>
        <time>2019-04-04T14:19:14Z</time>
      </trkpt>
      <trkpt lat="46.40938" lon="5.6901">
        <ele>653</ele>
        <time>2019-04-04T14:20:14Z</time>
      </trkpt>
      <trkpt lat="46.4093" lon="5.69002">
        <ele>652</ele>
        <time>2019-04-04T14:21:14Z</time>
      </trkpt>
      <trkpt lat="46.40904" lon="5.68955">
        <ele>649</ele>
        <time>2019-04-04T14:22:14Z</time>
      </trkpt>
      <trkpt lat="46.40902" lon="5.68948">
        <ele>648</ele>
        <time>2019-04-04T14:23:14Z</time>
      </trkpt>
      <trkpt lat="46.40904" lon="5.68935">
        <ele>646</ele>
        <time>2019-04-04T14:24:14Z</time>
      </trkpt>
      <trkpt lat="46.4091" lon="5.68925">
        <ele>645</ele>
        <time>2019-04-04T14:25:14Z</time>
      </trkpt>
      <trkpt lat="46.40916" lon="5.68921">
        <ele>644</ele>
        <time>2019-04-04T14:26:14Z</time>
      </trkpt>
      <trkpt lat="46.40928" lon="5.68911">
        <ele>644</ele>
        <time>2019-04-04T14:27:14Z</time>
      </trkpt>
      <trkpt lat="46.40931" lon="5.689">
        <ele>643</ele>
        <time>2019-04-04T14:28:14Z</time>
      </trkpt>
      <trkpt lat="46.40929" lon="5.6889">
        <ele>642</ele>
        <time>2019-04-04T14:29:14Z</time>
      </trkpt>
      <trkpt lat="46.4092" lon="5.68882">
        <ele>641</ele>
        <time>2019-04-04T14:30:14Z</time>
      </trkpt>
      <trkpt lat="46.40903" lon="5.68868">
        <ele>640</ele>
        <time>2019-04-04T14:31:14Z</time>
      </trkpt>
      <trkpt lat="46.40894" lon="5.68842">
        <ele>639</ele>
        <time>2019-04-04T14:32:14Z</time>
      </trkpt>
      <trkpt lat="46.4089" lon="5.68831">
        <ele>638</ele>
        <time>2019-04-04T14:33:14Z</time>
      </trkpt>
      <trkpt lat="46.40879" lon="5.68817">
        <ele>638</ele>
        <time>2019-04-04T14:34:14Z</time>
      </trkpt>
      <trkpt lat="46.4087" lon="5.68809">
        <ele>638</ele>
        <time>2019-04-04T14:35:14Z</time>
      </trkpt>
      <trkpt lat="46.40859" lon="5.68803">
        <ele>638</ele>
        <time>2019-04-04T14:36:14Z</time>
      </trkpt>
      <trkpt lat="46.40871" lon="5.68792">
        <ele>637</ele>
        <time>2019-04-04T14:37:14Z</time>
      </trkpt>
      <trkpt lat="46.40893" lon="5.6876">
        <ele>634</ele>
        <time>2019-04-04T14:38:14Z</time>
      </trkpt>
      <trkpt lat="46.409" lon="5.68748">
        <ele>634</ele>
        <time>2019-04-04T14:39:14Z</time>
      </trkpt>
      <trkpt lat="46.40927" lon="5.68699">
        <ele>631</ele>
        <time>2019-04-04T14:40:14Z</time>
      </trkpt>
      <trkpt lat="46.40942" lon="5.68665">
        <ele>630</ele>
        <time>2019-04-04T14:41:14Z</time>
      </trkpt>
      <trkpt lat="46.40944" lon="5.68657">
        <ele>630</ele>
        <time>2019-04-04T14:42:14Z</time>
      </trkpt>
      <trkpt lat="46.40946" lon="5.68642">
        <ele>629</ele>
        <time>2019-04-04T14:43:14Z</time>
      </trkpt>
      <trkpt lat="46.40945" lon="5.68636">
        <ele>629</ele>
        <time>2019-04-04T14:44:14Z</time>
      </trkpt>
      <trkpt lat="46.40943" lon="5.6863">
        <ele>629</ele>
        <time>2019-04-04T14:45:14Z</time>
      </trkpt>
      <trkpt lat="46.40927" lon="5.68608">
        <ele>630</ele>
        <time>2019-04-04T14:46:14Z</time>
      </trkpt>
      <trkpt lat="46.40925" lon="5.68601">
        <ele>630</ele>
        <time>2019-04-04T14:47:14Z</time>
      </trkpt>
      <trkpt lat="46.40918" lon="5.6856">
        <ele>629</ele>
        <time>2019-04-04T14:48:14Z</time>
      </trkpt>
      <trkpt lat="46.40912" lon="5.6852">
        <ele>628</ele>
        <time>2019-04-04T14:49:14Z</time>
      </trkpt>
      <trkpt lat="46.40907" lon="5.68503">
        <ele>628</ele>
        <time>2019-04-04T14:50:14Z</time>
      </trkpt>
      <trkpt lat="46.40896" lon="5.68483">
        <ele>626</ele>
        <time>2019-04-04T14:51:14Z</time>
      </trkpt>
      <trkpt lat="46.40872" lon="5.68462">
        <ele>623</ele>
        <time>2019-04-04T14:52:14Z</time>
      </trkpt>
      <trkpt lat="46.40853" lon="5.68451">
        <ele>621</ele>
        <time>2019-04-04T14:53:14Z</time>
      </trkpt>
      <trkpt lat="46.40827" lon="5.68444">
        <ele>619</ele>
        <time>2019-04-04T14:54:14Z</time>
      </trkpt>
      <trkpt lat="46.40785" lon="5.6844">
        <ele>613</ele>
        <time>2019-04-04T14:55:14Z</time>
      </trkpt>
      <trkpt lat="46.4074" lon="5.68437">
        <ele>607</ele>
        <time>2019-04-04T14:56:14Z</time>
      </trkpt>
      <trkpt lat="46.40721" lon="5.68441">
        <ele>606</ele>
        <time>2019-04-04T14:57:14Z</time>
      </trkpt>
      <trkpt lat="46.40705" lon="5.68451">
        <ele>606</ele>
        <time>2019-04-04T14:58:14Z</time>
      </trkpt>
      <trkpt lat="46.40696" lon="5.68456">
        <ele>607</ele>
        <time>2019-04-04T14:59:14Z</time>
      </trkpt>
      <trkpt lat="46.40689" lon="5.68458">
        <ele>606</ele>
        <time>2019-04-04T15:00:14Z</time>
      </trkpt>
      <trkpt lat="46.40682" lon="5.68458">
        <ele>606</ele>
        <time>2019-04-04T15:01:14Z</time>
      </trkpt>
      <trkpt lat="46.40676" lon="5.68457">
        <ele>605</ele>
        <time>2019-04-04T15:02:14Z</time>
      </trkpt>
      <trkpt lat="46.40671" lon="5.68454">
        <ele>604</ele>
        <time>2019-04-04T15:03:14Z</time>
      </trkpt>
      <trkpt lat="46.40658" lon="5.68438">
        <ele>601</ele>
        <time>2019-04-04T15:04:14Z</time>
      </trkpt>
      <trkpt lat="46.40633" lon="5.6841">
        <ele>597</ele>
        <time>2019-04-04T15:05:14Z</time>
      </trkpt>
      <trkpt lat="46.40621" lon="5.68394">
        <ele>595</ele>
        <time>2019-04-04T15:06:14Z</time>
      </trkpt>
      <trkpt lat="46.40599" lon="5.68379">
        <ele>593</ele>
        <time>2019-04-04T15:07:14Z</time>
      </trkpt>
      <trkpt lat="46.40563" lon="5.68358">
        <ele>589</ele>
        <time>2019-04-04T15:08:14Z</time>
      </trkpt>
      <trkpt lat="46.4053" lon="5.68332">
        <ele>583</ele>
        <time>2019-04-04T15:09:14Z</time>
      </trkpt>
      <trkpt lat="46.40517" lon="5.6833">
        <ele>582</ele>
        <time>2019-04-04T15:10:14Z</time>
      </trkpt>
      <trkpt lat="46.40507" lon="5.68329">
        <ele>582</ele>
        <time>2019-04-04T15:11:14Z</time>
      </trkpt>
      <trkpt lat="46.40494" lon="5.68335">
        <ele>582</ele>
        <time>2019-04-04T15:12:14Z</time>
      </trkpt>
      <trkpt lat="46.40469" lon="5.68343">
        <ele>582</ele>
        <time>2019-04-04T15:13:14Z</time>
      </trkpt>
      <trkpt lat="46.40431" lon="5.68353">
        <ele>582</ele>
        <time>2019-04-04T15:14:14Z</time>
      </trkpt>
      <trkpt lat="46.40416" lon="5.68357">
        <ele>581</ele>
        <time>2019-04-04T15:15:14Z</time>
      </trkpt>
      <trkpt lat="46.40429" lon="5.68334">
        <ele>578</ele>
        <time>2019-04-04T15:16:14Z</time>
      </trkpt>
      <trkpt lat="46.40444" lon="5.6831">
        <ele>576</ele>
        <time>2019-04-04T15:17:14Z</time>
      </trkpt>
      <trkpt lat="46.40451" lon="5.68295">
        <ele>574</ele>
        <time>2019-04-04T15:18:14Z</time>
      </trkpt>
      <trkpt lat="46.40459" lon="5.68281">
        <ele>573</ele>
        <time>2019-04-04T15:19:14Z</time>
      </trkpt>
      <trkpt lat="46.40465" lon="5.68269">
        <ele>572</ele>
        <time>2019-04-04T15:20:14Z</time>
      </trkpt>
      <trkpt lat="46.40472" lon="5.68261">
        <ele>571</ele>
        <time>2019-04-04T15:21:14Z</time>
      </trkpt>
      <trkpt lat="46.40486" lon="5.68248">
        <ele>569</ele>
        <time>2019-04-04T15:22:14Z</time>
      </trkpt>
      <trkpt lat="46.40518" lon="5.6821">
        <ele>565</ele>
        <time>2019-04-04T15:23:14Z</time>
      </trkpt>
      <trkpt lat="46.40519" lon="5.68203">
        <ele>564</ele>
        <time>2019-04-04T15:24:14Z</time>
      </trkpt>
      <trkpt lat="46.40512" lon="5.68175">
        <ele>559</ele>
        <time>2019-04-04T15:25:14Z</time>
      </trkpt>
      <trkpt lat="46.40499" lon="5.68171">
        <ele>559</ele>
        <time>2019-04-04T15:26:14Z</time>
      </trkpt>
      <trkpt lat="46.40492" lon="5.68173">
        <ele>559</ele>
        <time>2019-04-04T15:27:14Z</time>
      </trkpt>
      <trkpt lat="46.40477" lon="5.6819">
        <ele>562</ele>
        <time>2019-04-04T15:28:14Z</time>
      </trkpt>
      <trkpt lat="46.40471" lon="5.68194">
        <ele>562</ele>
        <time>2019-04-04T15:29:14Z</time>
      </trkpt>
      <trkpt lat="46.40473" lon="5.68182">
        <ele>561</ele>
        <time>2019-04-04T15:30:14Z</time>
      </trkpt>
      <trkpt lat="46.40476" lon="5.68171">
        <ele>559</ele>
        <time>2019-04-04T15:31:14Z</time>
      </trkpt>
      <trkpt lat="46.4049" lon="5.68141">
        <ele>555</ele>
        <time>2019-04-04T15:32:14Z</time>
      </trkpt>
      <trkpt lat="46.40494" lon="5.68127">
        <ele>553</ele>
        <time>2019-04-04T15:33:14Z</time>
      </trkpt>
      <trkpt lat="46.40495" lon="5.6811">
        <ele>551</ele>
        <time>2019-04-04T15:34:14Z</time>
      </trkpt>
      <trkpt lat="46.40492" lon="5.68085">
        <ele>548</ele>
        <time>2019-04-04T15:35:14Z</time>
      </trkpt>
      <trkpt lat="46.40491" lon="5.6808">
        <ele>547</ele>
        <time>2019-04-04T15:36:14Z</time>
      </trkpt>
      <trkpt lat="46.40491" lon="5.68073">
        <ele>546</ele>
        <time>2019-04-04T15:37:14Z</time>
      </trkpt>
      <trkpt lat="46.40496" lon="5.68053">
        <ele>543</ele>
        <time>2019-04-04T15:38:14Z</time>
      </trkpt>
      <trkpt lat="46.40497" lon="5.68046">
        <ele>541</ele>
        <time>2019-04-04T15:39:14Z</time>
      </trkpt>
      <trkpt lat="46.40496" lon="5.68038">
        <ele>540</ele>
        <time>2019-04-04T15:40:14Z</time>
      </trkpt>
      <trkpt lat="46.40493" lon="5.68032">
        <ele>540</ele>
        <time>2019-04-04T15:41:14Z</time>
      </trkpt>
      <trkpt lat="46.4049" lon="5.68029">
        <ele>540</ele>
        <time>2019-04-04T15:42:14Z</time>
      </trkpt>
      <trkpt lat="46.40486" lon="5.68029">
        <ele>540</ele>
        <time>2019-04-04T15:43:14Z</time>
      </trkpt>
      <trkpt lat="46.4048" lon="5.68032">
        <ele>541</ele>
        <time>2019-04-04T15:44:14Z</time>
      </trkpt>
      <trkpt lat="46.40474" lon="5.68038">
        <ele>543</ele>
        <time>2019-04-04T15:45:14Z</time>
      </trkpt>
      <trkpt lat="46.40464" lon="5.68047">
        <ele>545</ele>
        <time>2019-04-04T15:46:14Z</time>
      </trkpt>
      <trkpt lat="46.4046" lon="5.68047">
        <ele>545</ele>
        <time>2019-04-04T15:47:14Z</time>
      </trkpt>
      <trkpt lat="46.40458" lon="5.68045">
        <ele>545</ele>
        <time>2019-04-04T15:48:14Z</time>
      </trkpt>
      <trkpt lat="46.40457" lon="5.6804">
        <ele>544</ele>
        <time>2019-04-04T15:49:14Z</time>
      </trkpt>
      <trkpt lat="46.40458" lon="5.68026">
        <ele>543</ele>
        <time>2019-04-04T15:50:14Z</time>
      </trkpt>
      <trkpt lat="46.40461" lon="5.68011">
        <ele>540</ele>
        <time>2019-04-04T15:51:14Z</time>
      </trkpt>
      <trkpt lat="46.40466" lon="5.67994">
        <ele>538</ele>
        <time>2019-04-04T15:52:14Z</time>
      </trkpt>
      <trkpt lat="46.4048" lon="5.67956">
        <ele>531</ele>
        <time>2019-04-04T15:53:14Z</time>
      </trkpt>
      <trkpt lat="46.40485" lon="5.6794">
        <ele>528</ele>
        <time>2019-04-04T15:54:14Z</time>
      </trkpt>
      <trkpt lat="46.40487" lon="5.67925">
        <ele>526</ele>
        <time>2019-04-04T15:55:14Z</time>
      </trkpt>
      <trkpt lat="46.40486" lon="5.67908">
        <ele>524</ele>
        <time>2019-04-04T15:56:14Z</time>
      </trkpt>
      <trkpt lat="46.40484" lon="5.67889">
        <ele>522</ele>
        <time>2019-04-04T15:57:14Z</time>
      </trkpt>
      <trkpt lat="46.40479" lon="5.67864">
        <ele>519</ele>
        <time>2019-04-04T15:58:14Z</time>
      </trkpt>
      <trkpt lat="46.40473" lon="5.67851">
        <ele>518</ele>
        <time>2019-04-04T15:59:14Z</time>
      </trkpt>
      <trkpt lat="46.40466" lon="5.67838">
        <ele>516</ele>
        <time>2019-04-04T16:00:14Z</time>
      </trkpt>
      <trkpt lat="46.4046" lon="5.67828">
        <ele>514</ele>
        <time>2019-04-04T16:01:14Z</time>
      </trkpt>
      <trkpt lat="46.40453" lon="5.67819">
        <ele>512</ele>
        <time>2019-04-04T16:02:14Z</time>
      </trkpt>
      <trkpt lat="46.40439" lon="5.67807">
        <ele>509</ele>
        <time>2019-04-04T16:03:14Z</time>
      </trkpt>
      <trkpt lat="46.40419" lon="5.67798">
        <ele>507</ele>
        <time>2019-04-04T16:04:14Z</time>
      </trkpt>
      <trkpt lat="46.40413" lon="5.67796">
        <ele>507</ele>
        <time>2019-04-04T16:05:14Z</time>
      </trkpt>
      <trkpt lat="46.40387" lon="5.67781">
        <ele>505</ele>
        <time>2019-04-04T16:06:14Z</time>
      </trkpt>
      <trkpt lat="46.40381" lon="5.67775">
        <ele>504</ele>
        <time>2019-04-04T16:07:14Z</time>
      </trkpt>
      <trkpt lat="46.40374" lon="5.67763">
        <ele>501</ele>
        <time>2019-04-04T16:08:14Z</time>
      </trkpt>
      <trkpt lat="46.40384" lon="5.67735">
        <ele>494</ele>
        <time>2019-04-04T16:09:14Z</time>
      </trkpt>
      <trkpt lat="46.4039" lon="5.67725">
        <ele>492</ele>
        <time>2019-04-04T16:10:14Z</time>
      </trkpt>
      <trkpt lat="46.40374" lon="5.67714">
        <ele>490</ele>
        <time>2019-04-04T16:11:14Z</time>
      </trkpt>
      <trkpt lat="46.40359" lon="5.67707">
        <ele>489</ele>
        <time>2019-04-04T16:12:14Z</time>
      </trkpt>
      <trkpt lat="46.40345" lon="5.67701">
        <ele>489</ele>
        <time>2019-04-04T16:13:14Z</time>
      </trkpt>
      <trkpt lat="46.40324" lon="5.67693">
        <ele>488</ele>
        <time>2019-04-04T16:14:14Z</time>
      </trkpt>
      <trkpt lat="46.40304" lon="5.67688">
        <ele>488</ele>
        <time>2019-04-04T16:15:14Z</time>
      </trkpt>
      <trkpt lat="46.40223" lon="5.67657">
        <ele>487</ele>
        <time>2019-04-04T16:16:14Z</time>
      </trkpt>
      <trkpt lat="46.40205" lon="5.67651">
        <ele>488</ele>
        <time>2019-04-04T16:17:14Z</time>
      </trkpt>
      <trkpt lat="46.4019" lon="5.67644">
        <ele>488</ele>
        <time>2019-04-04T16:18:14Z</time>
      </trkpt>
      <trkpt lat="46.40175" lon="5.67635">
        <ele>487</ele>
        <time>2019-04-04T16:19:14Z</time>
      </trkpt>
      <trkpt lat="46.40142" lon="5.67624">
        <ele>488</ele>
        <time>2019-04-04T16:20:14Z</time>
      </trkpt>
      <trkpt lat="46.40128" lon="5.67619">
        <ele>488</ele>
        <time>2019-04-04T16:21:14Z</time>
      </trkpt>
      <trkpt lat="46.40118" lon="5.67617">
        <ele>489</ele>
        <time>2019-04-04T16:22:14Z</time>
      </trkpt>
      <trkpt lat="46.40107" lon="5.67611">
        <ele>488</ele>
        <time>2019-04-04T16:23:14Z</time>
      </trkpt>
      <trkpt lat="46.40097" lon="5.67605">
        <ele>486</ele>
        <time>2019-04-04T16:24:14Z</time>
      </trkpt>
      <trkpt lat="46.40075" lon="5.67585">
        <ele>481</ele>
        <time>2019-04-04T16:25:14Z</time>
      </trkpt>
      <trkpt lat="46.40055" lon="5.67565">
        <ele>479</ele>
        <time>2019-04-04T16:26:14Z</time>
      </trkpt>
      <trkpt lat="46.40036" lon="5.6754">
        <ele>475</ele>
        <time>2019-04-04T16:27:14Z</time>
      </trkpt>
      <trkpt lat="46.40029" lon="5.67532">
        <ele>474</ele>
        <time>2019-04-04T16:28:14Z</time>
      </trkpt>
      <trkpt lat="46.4001" lon="5.67518">
        <ele>472</ele>
        <time>2019-04-04T16:29:14Z</time>
      </trkpt>
      <trkpt lat="46.39993" lon="5.67508">
        <ele>472</ele>
        <time>2019-04-04T16:30:14Z</time>
      </trkpt>
      <trkpt lat="46.39969" lon="5.6749">
        <ele>474</ele>
        <time>2019-04-04T16:31:14Z</time>
      </trkpt>
      <trkpt lat="46.39955" lon="5.6748">
        <ele>475</ele>
        <time>2019-04-04T16:32:14Z</time>
      </trkpt>
      <trkpt lat="46.39905" lon="5.67437">
        <ele>478</ele>
        <time>2019-04-04T16:33:14Z</time>
      </trkpt>
      <trkpt lat="46.39893" lon="5.67429">
        <ele>480</ele>
        <time>2019-04-04T16:34:14Z</time>
      </trkpt>
      <trkpt lat="46.39884" lon="5.6742">
        <ele>481</ele>
        <time>2019-04-04T16:35:14Z</time>
      </trkpt>
      <trkpt lat="46.39873" lon="5.67409">
        <ele>482</ele>
        <time>2019-04-04T16:36:14Z</time>
      </trkpt>
      <trkpt lat="46.39861" lon="5.67388">
        <ele>482</ele>
        <time>2019-04-04T16:37:14Z</time>
      </trkpt>
      <trkpt lat="46.39855" lon="5.67373">
        <ele>481</ele>
        <time>2019-04-04T16:38:14Z</time>
      </trkpt>
      <trkpt lat="46.39845" lon="5.67351">
        <ele>479</ele>
        <time>2019-04-04T16:39:14Z</time>
      </trkpt>
      <trkpt lat="46.39838" lon="5.6733">
        <ele>477</ele>
        <time>2019-04-04T16:40:14Z</time>
      </trkpt>
      <trkpt lat="46.39832" lon="5.67311">
        <ele>476</ele>
        <time>2019-04-04T16:41:14Z</time>
      </trkpt>
      <trkpt lat="46.39824" lon="5.67288">
        <ele>476</ele>
        <time>2019-04-04T16:42:14Z</time>
      </trkpt>
      <trkpt lat="46.39815" lon="5.67265">
        <ele>476</ele>
        <time>2019-04-04T16:43:14Z</time>
      </trkpt>
      <trkpt lat="46.39808" lon="5.67243">
        <ele>476</ele>
        <time>2019-04-04T16:44:14Z</time>
      </trkpt>
      <trkpt lat="46.39803" lon="5.67224">
        <ele>474</ele>
        <time>2019-04-04T16:45:14Z</time>
      </trkpt>
      <trkpt lat="46.39794" lon="5.672">
        <ele>473</ele>
        <time>2019-04-04T16:46:14Z</time>
      </trkpt>
      <trkpt lat="46.39783" lon="5.67173">
        <ele>471</ele>
        <time>2019-04-04T16:47:14Z</time>
      </trkpt>
      <trkpt lat="46.39769" lon="5.67145">
        <ele>472</ele>
        <time>2019-04-04T16:48:14Z</time>
      </trkpt>
      <trkpt lat="46.39764" lon="5.67131">
        <ele>471</ele>
        <time>2019-04-04T16:49:14Z</time>
      </trkpt>
      <trkpt lat="46.39756" lon="5.6711">
        <ele>469</ele>
        <time>2019-04-04T16:50:14Z</time>
      </trkpt>
      <trkpt lat="46.39746" lon="5.6709">
        <ele>468</ele>
        <time>2019-04-04T16:51:14Z</time>
      </trkpt>
      <trkpt lat="46.39737" lon="5.67071">
        <ele>469</ele>
        <time>2019-04-04T16:52:14Z</time>
      </trkpt>
      <trkpt lat="46.39726" lon="5.67051">
        <ele>471</ele>
        <time>2019-04-04T16:53:14Z</time>
      </trkpt>
      <trkpt lat="46.39716" lon="5.67033">
        <ele>472</ele>
        <time>2019-04-04T16:54:14Z</time>
      </trkpt>
      <trkpt lat="46.39702" lon="5.66993">
        <ele>468</ele>
        <time>2019-04-04T16:55:14Z</time>
      </trkpt>
      <trkpt lat="46.39691" lon="5.66957">
        <ele>464</ele>
        <time>2019-04-04T16:56:14Z</time>
      </trkpt>
      <trkpt lat="46.39675" lon="5.66921">
        <ele>460</ele>
        <time>2019-04-04T16:57:14Z</time>
      </trkpt>
      <trkpt lat="46.39667" lon="5.66904">
        <ele>459</ele>
        <time>2019-04-04T16:58:14Z</time>
      </trkpt>
      <trkpt lat="46.39659" lon="5.66875">
        <ele>456</ele>
        <time>2019-04-04T16:59:14Z</time>
      </trkpt>
      <trkpt lat="46.39652" lon="5.66852">
        <ele>453</ele>
        <time>2019-04-04T17:00:14Z</time>
      </trkpt>
      <trkpt lat="46.39647" lon="5.66838">
        <ele>451</ele>
        <time>2019-04-04T17:01:14Z</time>
      </trkpt>
      <trkpt lat="46.3964" lon="5.66824">
        <ele>451</ele>
        <time>2019-04-04T17:02:14Z</time>
      </trkpt>
      <trkpt lat="46.39631" lon="5.66812">
        <ele>451</ele>
        <time>2019-04-04T17:03:14Z</time>
      </trkpt>
      <trkpt lat="46.39618" lon="5.66796">
        <ele>451</ele>
        <time>2019-04-04T17:04:14Z</time>
      </trkpt>
      <trkpt lat="46.39608" lon="5.66781">
        <ele>450</ele>
        <time>2019-04-04T17:05:14Z</time>
      </trkpt>
      <trkpt lat="46.39602" lon="5.66768">
        <ele>448</ele>
        <time>2019-04-04T17:06:14Z</time>
      </trkpt>
      <trkpt lat="46.39594" lon="5.66757">
        <ele>447</ele>
        <time>2019-04-04T17:07:14Z</time>
      </trkpt>
      <trkpt lat="46.39586" lon="5.66746">
        <ele>445</ele>
        <time>2019-04-04T17:08:14Z</time>
      </trkpt>
      <trkpt lat="46.39571" lon="5.66731">
        <ele>446</ele>
        <time>2019-04-04T17:09:14Z</time>
      </trkpt>
      <trkpt lat="46.39556" lon="5.66714">
        <ele>447</ele>
        <time>2019-04-04T17:10:14Z</time>
      </trkpt>
      <trkpt lat="46.39542" lon="5.66697">
        <ele>448</ele>
        <time>2019-04-04T17:11:14Z</time>
      </trkpt>
      <trkpt lat="46.39528" lon="5.6668">
        <ele>448</ele>
        <time>2019-04-04T17:12:14Z</time>
      </trkpt>
      <trkpt lat="46.39506" lon="5.66649">
        <ele>447</ele>
        <time>2019-04-04T17:13:14Z</time>
      </trkpt>
      <trkpt lat="46.39496" lon="5.66636">
        <ele>447</ele>
        <time>2019-04-04T17:14:14Z</time>
      </trkpt>
      <trkpt lat="46.39484" lon="5.66622">
        <ele>447</ele>
        <time>2019-04-04T17:15:14Z</time>
      </trkpt>
      <trkpt lat="46.39472" lon="5.66606">
        <ele>446</ele>
        <time>2019-04-04T17:16:14Z</time>
      </trkpt>
      <trkpt lat="46.39464" lon="5.66592">
        <ele>444</ele>
        <time>2019-04-04T17:17:14Z</time>
      </trkpt>
      <trkpt lat="46.3946" lon="5.66584">
        <ele>443</ele>
        <time>2019-04-04T17:18:14Z</time>
      </trkpt>
      <trkpt lat="46.39457" lon="5.66574">
        <ele>441</ele>
        <time>2019-04-04T17:19:14Z</time>
      </trkpt>
      <trkpt lat="46.39453" lon="5.6656">
        <ele>437</ele>
        <time>2019-04-04T17:20:14Z</time>
      </trkpt>
      <trkpt lat="46.39438" lon="5.66536">
        <ele>434</ele>
        <time>2019-04-04T17:21:14Z</time>
      </trkpt>
      <trkpt lat="46.39429" lon="5.66525">
        <ele>433</ele>
        <time>2019-04-04T17:22:14Z</time>
      </trkpt>
      <trkpt lat="46.39417" lon="5.66513">
        <ele>434</ele>
        <time>2019-04-04T17:23:14Z</time>
      </trkpt>
      <trkpt lat="46.39402" lon="5.66499">
        <ele>433</ele>
        <time>2019-04-04T17:24:14Z</time>
      </trkpt>
      <trkpt lat="46.39373" lon="5.66475">
        <ele>431</ele>
        <time>2019-04-04T17:25:14Z</time>
      </trkpt>
      <trkpt lat="46.39358" lon="5.66462">
        <ele>430</ele>
        <time>2019-04-04T17:26:14Z</time>
      </trkpt>
      <trkpt lat="46.39323" lon="5.66423">
        <ele>426</ele>
        <time>2019-04-04T17:27:14Z</time>
      </trkpt>
      <trkpt lat="46.39308" lon="5.66406">
        <ele>423</ele>
        <time>2019-04-04T17:28:14Z</time>
      </trkpt>
      <trkpt lat="46.39294" lon="5.66393">
        <ele>421</ele>
        <time>2019-04-04T17:29:14Z</time>
      </trkpt>
      <trkpt lat="46.39279" lon="5.6638">
        <ele>420</ele>
        <time>2019-04-04T17:30:14Z</time>
      </trkpt>
      <trkpt lat="46.39269" lon="5.66375">
        <ele>420</ele>
        <time>2019-04-04T17:31:14Z</time>
      </trkpt>
      <trkpt lat="46.39253" lon="5.66368">
        <ele>420</ele>
        <time>2019-04-04T17:32:14Z</time>
      </trkpt>
      <trkpt lat="46.39224" lon="5.66355">
        <ele>416</ele>
        <time>2019-04-04T17:33:14Z</time>
      </trkpt>
      <trkpt lat="46.39214" lon="5.66352">
        <ele>415</ele>
        <time>2019-04-04T17:34:14Z</time>
      </trkpt>
      <trkpt lat="46.39201" lon="5.6635">
        <ele>414</ele>
        <time>2019-04-04T17:35:14Z</time>
      </trkpt>
      <trkpt lat="46.39191" lon="5.6635">
        <ele>414</ele>
        <time>2019-04-04T17:36:14Z</time>
      </trkpt>
      <trkpt lat="46.39178" lon="5.6635">
        <ele>414</ele>
        <time>2019-04-04T17:37:14Z</time>
      </trkpt>
      <trkpt lat="46.39166" lon="5.66352">
        <ele>414</ele>
        <time>2019-04-04T17:38:14Z</time>
      </trkpt>
      <trkpt lat="46.3915" lon="5.66354">
        <ele>414</ele>
        <time>2019-04-04T17:39:14Z</time>
      </trkpt>
      <trkpt lat="46.39135" lon="5.66355">
        <ele>414</ele>
        <time>2019-04-04T17:40:14Z</time>
      </trkpt>
      <trkpt lat="46.39107" lon="5.66354">
        <ele>413</ele>
        <time>2019-04-04T17:41:14Z</time>
      </trkpt>
      <trkpt lat="46.39088" lon="5.66352">
        <ele>411</ele>
        <time>2019-04-04T17:42:14Z</time>
      </trkpt>
      <trkpt lat="46.39075" lon="5.66353">
        <ele>411</ele>
        <time>2019-04-04T17:43:14Z</time>
      </trkpt>
      <trkpt lat="46.39065" lon="5.66357">
        <ele>412</ele>
        <time>2019-04-04T17:44:14Z</time>
      </trkpt>
      <trkpt lat="46.39057" lon="5.66362">
        <ele>414</ele>
        <time>2019-04-04T17:45:14Z</time>
      </trkpt>
      <trkpt lat="46.39052" lon="5.66364">
        <ele>415</ele>
        <time>2019-04-04T17:46:14Z</time>
      </trkpt>
      <trkpt lat="46.39045" lon="5.66363">
        <ele>414</ele>
        <time>2019-04-04T17:47:14Z</time>
      </trkpt>
      <trkpt lat="46.39043" lon="5.66358">
        <ele>412</ele>
        <time>2019-04-04T17:48:14Z</time>
      </trkpt>
      <trkpt lat="46.3903" lon="5.66352">
        <ele>410</ele>
        <time>2019-04-04T17:49:14Z</time>
      </trkpt>
      <trkpt lat="46.39014" lon="5.66348">
        <ele>408</ele>
        <time>2019-04-04T17:50:14Z</time>
      </trkpt>
      <trkpt lat="46.38976" lon="5.66336">
        <ele>403</ele>
        <time>2019-04-04T17:51:14Z</time>
      </trkpt>
      <trkpt lat="46.38967" lon="5.66336">
        <ele>403</ele>
        <time>2019-04-04T17:52:14Z</time>
      </trkpt>
      <trkpt lat="46.38953" lon="5.66338">
        <ele>403</ele>
        <time>2019-04-04T17:53:14Z</time>
      </trkpt>
      <trkpt lat="46.38937" lon="5.66344">
        <ele>403</ele>
        <time>2019-04-04T17:54:14Z</time>
      </trkpt>
      <trkpt lat="46.3892" lon="5.66351">
        <ele>404</ele>
        <time>2019-04-04T17:55:14Z</time>
      </trkpt>
      <trkpt lat="46.38909" lon="5.6636">
        <ele>405</ele>
        <time>2019-04-04T17:56:14Z</time>
      </trkpt>
      <trkpt lat="46.38897" lon="5.66373">
        <ele>406</ele>
        <time>2019-04-04T17:57:14Z</time>
      </trkpt>
      <trkpt lat="46.38882" lon="5.66383">
        <ele>406</ele>
        <time>2019-04-04T17:58:14Z</time>
      </trkpt>
      <trkpt lat="46.38866" lon="5.66391">
        <ele>405</ele>
        <time>2019-04-04T17:59:14Z</time>
      </trkpt>
      <trkpt lat="46.38851" lon="5.66397">
        <ele>404</ele>
        <time>2019-04-04T18:00:14Z</time>
      </trkpt>
      <trkpt lat="46.38845" lon="5.66394">
        <ele>402</ele>
        <time>2019-04-04T18:01:14Z</time>
      </trkpt>
      <trkpt lat="46.38838" lon="5.6639">
        <ele>400</ele>
        <time>2019-04-04T18:02:14Z</time>
      </trkpt>
      <trkpt lat="46.38834" lon="5.66385">
        <ele>399</ele>
        <time>2019-04-04T18:03:14Z</time>
      </trkpt>
      <trkpt lat="46.38832" lon="5.66383">
        <ele>398</ele>
        <time>2019-04-04T18:04:14Z</time>
      </trkpt>
      <trkpt lat="46.38828" lon="5.66382">
        <ele>398</ele>
        <time>2019-04-04T18:05:14Z</time>
      </trkpt>
      <trkpt lat="46.38821" lon="5.66382">
        <ele>397</ele>
        <time>2019-04-04T18:06:14Z</time>
      </trkpt>
      <trkpt lat="46.38807" lon="5.66384">
        <ele>396</ele>
        <time>2019-04-04T18:07:14Z</time>
      </trkpt>
      <trkpt lat="46.388" lon="5.66385">
        <ele>396</ele>
        <time>2019-04-04T18:08:14Z</time>
      </trkpt>
      <trkpt lat="46.38791" lon="5.66384">
        <ele>395</ele>
        <time>2019-04-04T18:09:14Z</time>
      </trkpt>
      <trkpt lat="46.38764" lon="5.66381">
        <ele>393</ele>
        <time>2019-04-04T18:10:14Z</time>
      </trkpt>
      <trkpt lat="46.38796" lon="5.66346">
        <ele>390</ele>
        <time>2019-04-04T18:11:14Z</time>
      </trkpt>
      <trkpt lat="46.38807" lon="5.66315">
        <ele>386</ele>
        <time>2019-04-04T18:12:14Z</time>
      </trkpt>
      <trkpt lat="46.3877" lon="5.66314">
        <ele>384</ele>
        <time>2019-04-04T18:13:14Z</time>
      </trkpt>
      <trkpt lat="46.38718" lon="5.66325">
        <ele>381</ele>
        <time>2019-04-04T18:14:14Z</time>
      </trkpt>
      <trkpt lat="46.38681" lon="5.66349">
        <ele>380</ele>
        <time>2019-04-04T18:15:14Z</time>
      </trkpt>
      <trkpt lat="46.38645" lon="5.66352">
        <ele>378</ele>
        <time>2019-04-04T18:16:14Z</time>
      </trkpt>
      <trkpt lat="46.38601" lon="5.6633">
        <ele>373</ele>
        <time>2019-04-04T18:17:14Z</time>
      </trkpt>
      <trkpt lat="46.38578" lon="5.66312">
        <ele>372</ele>
        <time>2019-04-04T18:18:14Z</time>
      </trkpt>
      <trkpt lat="46.38556" lon="5.66298">
        <ele>370</ele>
        <time>2019-04-04T18:19:14Z</time>
      </trkpt>
      <trkpt lat="46.38559" lon="5.66287">
        <ele>370</ele>
        <time>2019-04-04T18:20:14Z</time>
      </trkpt>
      <trkpt lat="46.3856" lon="5.66277">
        <ele>369</ele>
        <time>2019-04-04T18:21:14Z</time>
      </trkpt>
      <trkpt lat="46.38561" lon="5.66273">
        <ele>369</ele>
        <time>2019-04-04T18:22:14Z</time>
      </trkpt>
      <trkpt lat="46.3858" lon="5.6626">
        <ele>369</ele>
        <time>2019-04-04T18:23:14Z</time>
      </trkpt>
      <trkpt lat="46.38586" lon="5.66257">
        <ele>368</ele>
        <time>2019-04-04T18:24:14Z</time>
      </trkpt>
      <trkpt lat="46.38589" lon="5.66243">
        <ele>368</ele>
        <time>2019-04-04T18:25:14Z</time>
      </trkpt>
      <trkpt lat="46.3861" lon="5.66201">
        <ele>366</ele>
        <time>2019-04-04T18:26:14Z</time>
      </trkpt>
      <trkpt lat="46.38616" lon="5.66187">
        <ele>365</ele>
        <time>2019-04-04T18:27:14Z</time>
      </trkpt>
      <trkpt lat="46.3862" lon="5.66169">
        <ele>364</ele>
        <time>2019-04-04T18:28:14Z</time>
      </trkpt>
      <trkpt lat="46.38625" lon="5.6613">
        <ele>364</ele>
        <time>2019-04-04T18:29:14Z</time>
      </trkpt>
      <trkpt lat="46.3863" lon="5.66102">
        <ele>364</ele>
        <time>2019-04-04T18:30:14Z</time>
      </trkpt>
      <trkpt lat="46.38634" lon="5.66088">
        <ele>364</ele>
        <time>2019-04-04T18:31:14Z</time>
      </trkpt>
      <trkpt lat="46.38635" lon="5.66075">
        <ele>363</ele>
        <time>2019-04-04T18:32:14Z</time>
      </trkpt>
      <trkpt lat="46.38637" lon="5.66053">
        <ele>363</ele>
        <time>2019-04-04T18:33:14Z</time>
      </trkpt>
      <trkpt lat="46.38642" lon="5.66021">
        <ele>362</ele>
        <time>2019-04-04T18:34:14Z</time>
      </trkpt>
      <trkpt lat="46.3865" lon="5.6597">
        <ele>361</ele>
        <time>2019-04-04T18:35:14Z</time>
      </trkpt>
      <trkpt lat="46.38654" lon="5.65928">
        <ele>361</ele>
        <time>2019-04-04T18:36:14Z</time>
      </trkpt>
      <trkpt lat="46.38659" lon="5.65893">
        <ele>361</ele>
        <time>2019-04-04T18:37:14Z</time>
      </trkpt>
      <trkpt lat="46.38663" lon="5.65877">
        <ele>361</ele>
        <time>2019-04-04T18:38:14Z</time>
      </trkpt>
      <trkpt lat="46.38667" lon="5.65866">
        <ele>361</ele>
        <time>2019-04-04T18:39:14Z</time>
      </trkpt>
      <trkpt lat="46.38619" lon="5.65808">
        <ele>360</ele>
        <time>2019-04-04T18:40:14Z</time>
      </trkpt>
      <trkpt lat="46.38608" lon="5.65789">
        <ele>360</ele>
        <time>2019-04-04T18:41:14Z</time>
      </trkpt>
      <trkpt lat="46.38603" lon="5.65776">
        <ele>360</ele>
        <time>2019-04-04T18:42:14Z</time>
      </trkpt>
      <trkpt lat="46.38601" lon="5.65769">
        <ele>360</ele>
        <time>2019-04-04T18:43:14Z</time>
      </trkpt>
      <trkpt lat="46.38599" lon="5.65757">
        <ele>360</ele>
        <time>2019-04-04T18:44:14Z</time>
      </trkpt>
      <trkpt lat="46.38597" lon="5.65727">
        <ele>360</ele>
        <time>2019-04-04T18:45:14Z</time>
      </trkpt>
      <trkpt lat="46.38597" lon="5.65719">
        <ele>360</ele>
        <time>2019-04-04T18:46:14Z</time>
      </trkpt>
      <trkpt lat="46.38614" lon="5.6564">
        <ele>360</ele>
        <time>2019-04-04T18:47:14Z</time>
      </trkpt>
      <trkpt lat="46.38614" lon="5.65629">
        <ele>360</ele>
        <time>2019-04-04T18:48:14Z</time>
      </trkpt>
      <trkpt lat="46.38613" lon="5.6562">
        <ele>360</ele>
        <time>2019-04-04T18:49:14Z</time>
      </trkpt>
      <trkpt lat="46.38595" lon="5.65553">
        <ele>359</ele>
        <time>2019-04-04T18:50:14Z</time>
      </trkpt>
      <trkpt lat="46.38589" lon="5.65527">
        <ele>358</ele>
        <time>2019-04-04T18:51:14Z</time>
      </trkpt>
      <trkpt lat="46.38587" lon="5.65509">
        <ele>358</ele>
        <time>2019-04-04T18:52:14Z</time>
      </trkpt>
      <trkpt lat="46.38586" lon="5.65494">
        <ele>358</ele>
        <time>2019-04-04T18:53:14Z</time>
      </trkpt>
      <trkpt lat="46.38581" lon="5.65487">
        <ele>358</ele>
        <time>2019-04-04T18:54:14Z</time>
      </trkpt>
      <trkpt lat="46.38579" lon="5.65476">
        <ele>358</ele>
        <time>2019-04-04T18:55:14Z</time>
      </trkpt>
      <trkpt lat="46.38581" lon="5.65452">
        <ele>358</ele>
        <time>2019-04-04T18:56:14Z</time>
      </trkpt>
      <trkpt lat="46.38581" lon="5.65435">
        <ele>358</ele>
        <time>2019-04-04T18:57:14Z</time>
      </trkpt>
      <trkpt lat="46.38574" lon="5.65401">
        <ele>357</ele>
        <time>2019-04-04T18:58:14Z</time>
      </trkpt>
      <trkpt lat="46.38574" lon="5.65393">
        <ele>357</ele>
        <time>2019-04-04T18:59:14Z</time>
      </trkpt>
      <trkpt lat="46.38578" lon="5.65353">
        <ele>355</ele>
        <time>2019-04-04T19:00:14Z</time>
      </trkpt>
      <trkpt lat="46.38579" lon="5.65333">
        <ele>354</ele>
        <time>2019-04-04T19:01:14Z</time>
      </trkpt>
      <trkpt lat="46.38582" lon="5.65312">
        <ele>352</ele>
        <time>2019-04-04T19:02:14Z</time>
      </trkpt>
      <trkpt lat="46.38585" lon="5.65295">
        <ele>350</ele>
        <time>2019-04-04T19:03:14Z</time>
      </trkpt>
      <trkpt lat="46.38588" lon="5.65284">
        <ele>349</ele>
        <time>2019-04-04T19:04:14Z</time>
      </trkpt>
      <trkpt lat="46.38595" lon="5.65271">
        <ele>348</ele>
        <time>2019-04-04T19:05:14Z</time>
      </trkpt>
      <trkpt lat="46.38603" lon="5.65258">
        <ele>348</ele>
        <time>2019-04-04T19:06:14Z</time>
      </trkpt>
      <trkpt lat="46.38608" lon="5.65255">
        <ele>348</ele>
        <time>2019-04-04T19:07:14Z</time>
      </trkpt>
      <trkpt lat="46.38613" lon="5.65245">
        <ele>347</ele>
        <time>2019-04-04T19:08:14Z</time>
      </trkpt>
      <trkpt lat="46.38617" lon="5.65239">
        <ele>347</ele>
        <time>2019-04-04T19:09:14Z</time>
      </trkpt>
      <trkpt lat="46.3862" lon="5.65231">
        <ele>346</ele>
        <time>2019-04-04T19:10:14Z</time>
      </trkpt>
      <trkpt lat="46.38625" lon="5.65208">
        <ele>344</ele>
        <time>2019-04-04T19:11:14Z</time>
      </trkpt>
      <trkpt lat="46.38629" lon="5.65204">
        <ele>343</ele>
        <time>2019-04-04T19:12:14Z</time>
      </trkpt>
      <trkpt lat="46.38638" lon="5.65202">
        <ele>343</ele>
        <time>2019-04-04T19:13:14Z</time>
      </trkpt>
      <trkpt lat="46.38648" lon="5.65197">
        <ele>343</ele>
        <time>2019-04-04T19:14:14Z</time>
      </trkpt>
      <trkpt lat="46.38662" lon="5.65197">
        <ele>343</ele>
        <time>2019-04-04T19:15:14Z</time>
      </trkpt>
      <trkpt lat="46.38671" lon="5.65197">
        <ele>343</ele>
        <time>2019-04-04T19:16:14Z</time>
      </trkpt>
      <trkpt lat="46.38681" lon="5.65198">
        <ele>343</ele>
        <time>2019-04-04T19:17:14Z</time>
      </trkpt>
      <trkpt lat="46.3869" lon="5.652">
        <ele>344</ele>
        <time>2019-04-04T19:18:14Z</time>
      </trkpt>
      <trkpt lat="46.38706" lon="5.65197">
        <ele>344</ele>
        <time>2019-04-04T19:19:14Z</time>
      </trkpt>
      <trkpt lat="46.38742" lon="5.652">
        <ele>344</ele>
        <time>2019-04-04T19:20:14Z</time>
      </trkpt>
      <trkpt lat="46.38761" lon="5.65205">
        <ele>344</ele>
        <time>2019-04-04T19:21:14Z</time>
      </trkpt>
      <trkpt lat="46.38777" lon="5.65212">
        <ele>344</ele>
        <time>2019-04-04T19:22:14Z</time>
      </trkpt>
      <trkpt lat="46.38794" lon="5.65223">
        <ele>343</ele>
        <time>2019-04-04T19:23:14Z</time>
      </trkpt>
      <trkpt lat="46.38824" lon="5.65258">
        <ele>343</ele>
        <time>2019-04-04T19:24:14Z</time>
      </trkpt>
      <trkpt lat="46.38852" lon="5.65291">
        <ele>343</ele>
        <time>2019-04-04T19:25:14Z</time>
      </trkpt>
      <trkpt lat="46.38876" lon="5.65325">
        <ele>342</ele>
        <time>2019-04-04T19:26:14Z</time>
      </trkpt>
      <trkpt lat="46.38898" lon="5.6536">
        <ele>341</ele>
        <time>2019-04-04T19:27:14Z</time>
      </trkpt>
      <trkpt lat="46.38903" lon="5.65352">
        <ele>340</ele>
        <time>2019-04-04T19:28:14Z</time>
      </trkpt>
      <trkpt lat="46.38952" lon="5.65293">
        <ele>342</ele>
        <time>2019-04-04T19:29:14Z</time>
      </trkpt>
      <trkpt lat="46.38955" lon="5.65289">
        <ele>342</ele>
        <time>2019-04-04T19:30:14Z</time>
      </trkpt>
      <trkpt lat="46.38959" lon="5.65283">
        <ele>342</ele>
        <time>2019-04-04T19:31:14Z</time>
      </trkpt>
      <trkpt lat="46.38961" lon="5.65273">
        <ele>343</ele>
        <time>2019-04-04T19:32:14Z</time>
      </trkpt>
      <trkpt lat="46.38962" lon="5.65261">
        <ele>343</ele>
        <time>2019-04-04T19:33:14Z</time>
      </trkpt>
      <trkpt lat="46.38958" lon="5.65245">
        <ele>343</ele>
        <time>2019-04-04T19:34:14Z</time>
      </trkpt>
      <trkpt lat="46.38952" lon="5.65231">
        <ele>343</ele>
        <time>2019-04-04T19:35:14Z</time>
      </trkpt>
      <trkpt lat="46.38942" lon="5.65216">
        <ele>342</ele>
        <time>2019-04-04T19:36:14Z</time>
      </trkpt>
      <trkpt lat="46.38932" lon="5.652">
        <ele>342</ele>
        <time>2019-04-04T19:37:14Z</time>
      </trkpt>
      <trkpt lat="46.38923" lon="5.65184">
        <ele>341</ele>
        <time>2019-04-04T19:38:14Z</time>
      </trkpt>
      <trkpt lat="46.38912" lon="5.65166">
        <ele>341</ele>
        <time>2019-04-04T19:39:14Z</time>
      </trkpt>
      <trkpt lat="46.38902" lon="5.65145">
        <ele>342</ele>
        <time>2019-04-04T19:40:14Z</time>
      </trkpt>
      <trkpt lat="46.38893" lon="5.65123">
        <ele>343</ele>
        <time>2019-04-04T19:41:14Z</time>
      </trkpt>
      <trkpt lat="46.38895" lon="5.65116">
        <ele>343</ele>
        <time>2019-04-04T19:42:14Z</time>
      </trkpt>
      <trkpt lat="46.38897" lon="5.65104">
        <ele>344</ele>
        <time>2019-04-04T19:43:14Z</time>
      </trkpt>
      <trkpt lat="46.38896" lon="5.65069">
        <ele>347</ele>
        <time>2019-04-04T19:44:14Z</time>
      </trkpt>
      <trkpt lat="46.38893" lon="5.6505">
        <ele>349</ele>
        <time>2019-04-04T19:45:14Z</time>
      </trkpt>
      <trkpt lat="46.38887" lon="5.65036">
        <ele>350</ele>
        <time>2019-04-04T19:46:14Z</time>
      </trkpt>
      <trkpt lat="46.38874" lon="5.6501">
        <ele>351</ele>
        <time>2019-04-04T19:47:14Z</time>
      </trkpt>
      <trkpt lat="46.38869" lon="5.65003">
        <ele>352</ele>
        <time>2019-04-04T19:48:14Z</time>
      </trkpt>
      <trkpt lat="46.38869" lon="5.64995">
        <ele>352</ele>
        <time>2019-04-04T19:49:14Z</time>
      </trkpt>
      <trkpt lat="46.38881" lon="5.64979">
        <ele>354</ele>
        <time>2019-04-04T19:50:14Z</time>
      </trkpt>
      <trkpt lat="46.38894" lon="5.64995">
        <ele>354</ele>
        <time>2019-04-04T19:51:14Z</time>
      </trkpt>
      <trkpt lat="46.38904" lon="5.65006">
        <ele>354</ele>
        <time>2019-04-04T19:52:14Z</time>
      </trkpt>
      <trkpt lat="46.38918" lon="5.65019">
        <ele>354</ele>
        <time>2019-04-04T19:53:14Z</time>
      </trkpt>
      <trkpt lat="46.38932" lon="5.65031">
        <ele>355</ele>
        <time>2019-04-04T19:54:14Z</time>
      </trkpt>
      <trkpt lat="46.38942" lon="5.65038">
        <ele>355</ele>
        <time>2019-04-04T19:55:14Z</time>
      </trkpt>
      <trkpt lat="46.38948" lon="5.65043">
        <ele>355</ele>
        <time>2019-04-04T19:56:14Z</time>
      </trkpt>
      <trkpt lat="46.38994" lon="5.65071">
        <ele>358</ele>
        <time>2019-04-04T19:57:14Z</time>
      </trkpt>
      <trkpt lat="46.38999" lon="5.65078">
        <ele>357</ele>
        <time>2019-04-04T19:58:14Z</time>
      </trkpt>
      <trkpt lat="46.39003" lon="5.65085">
        <ele>357</ele>
        <time>2019-04-04T19:59:14Z</time>
      </trkpt>
      <trkpt lat="46.39003" lon="5.65092">
        <ele>356</ele>
        <time>2019-04-04T20:00:14Z</time>
      </trkpt>
      <trkpt lat="46.39001" lon="5.65103">
        <ele>356</ele>
        <time>2019-04-04T20:01:14Z</time>
      </trkpt>
      <trkpt lat="46.38998" lon="5.65111">
        <ele>355</ele>
        <time>2019-04-04T20:02:14Z</time>
      </trkpt>
      <trkpt lat="46.38992" lon="5.65121">
        <ele>353</ele>
        <time>2019-04-04T20:03:14Z</time>
      </trkpt>
      <trkpt lat="46.38986" lon="5.65129">
        <ele>352</ele>
        <time>2019-04-04T20:04:14Z</time>
      </trkpt>
      <trkpt lat="46.38983" lon="5.65138">
        <ele>351</ele>
        <time>2019-04-04T20:05:14Z</time>
      </trkpt>
      <trkpt lat="46.38982" lon="5.65149">
        <ele>350</ele>
        <time>2019-04-04T20:06:14Z</time>
      </trkpt>
      <trkpt lat="46.38985" lon="5.65161">
        <ele>350</ele>
        <time>2019-04-04T20:07:14Z</time>
      </trkpt>
      <trkpt lat="46.38989" lon="5.65171">
        <ele>349</ele>
        <time>2019-04-04T20:08:14Z</time>
      </trkpt>
      <trkpt lat="46.38995" lon="5.6518">
        <ele>350</ele>
        <time>2019-04-04T20:09:14Z</time>
      </trkpt>
      <trkpt lat="46.39" lon="5.65186">
        <ele>350</ele>
        <time>2019-04-04T20:10:14Z</time>
      </trkpt>
      <trkpt lat="46.39009" lon="5.65192">
        <ele>350</ele>
        <time>2019-04-04T20:11:14Z</time>
      </trkpt>
      <trkpt lat="46.39028" lon="5.65199">
        <ele>350</ele>
        <time>2019-04-04T20:12:14Z</time>
      </trkpt>
      <trkpt lat="46.3906" lon="5.65207">
        <ele>349</ele>
        <time>2019-04-04T20:13:14Z</time>
      </trkpt>
      <trkpt lat="46.39088" lon="5.65214">
        <ele>350</ele>
        <time>2019-04-04T20:14:14Z</time>
      </trkpt>
      <trkpt lat="46.39101" lon="5.65219">
        <ele>350</ele>
        <time>2019-04-04T20:15:14Z</time>
      </trkpt>
      <trkpt lat="46.39108" lon="5.65224">
        <ele>350</ele>
        <time>2019-04-04T20:16:14Z</time>
      </trkpt>
      <trkpt lat="46.39112" lon="5.65229">
        <ele>350</ele>
        <time>2019-04-04T20:17:14Z</time>
      </trkpt>
      <trkpt lat="46.39121" lon="5.65248">
        <ele>350</ele>
        <time>2019-04-04T20:18:14Z</time>
      </trkpt>
      <trkpt lat="46.39136" lon="5.65278">
        <ele>352</ele>
        <time>2019-04-04T20:19:14Z</time>
      </trkpt>
      <trkpt lat="46.39153" lon="5.65311">
        <ele>352</ele>
        <time>2019-04-04T20:20:14Z</time>
      </trkpt>
      <trkpt lat="46.3917" lon="5.65344">
        <ele>353</ele>
        <time>2019-04-04T20:21:14Z</time>
      </trkpt>
      <trkpt lat="46.39188" lon="5.6538">
        <ele>354</ele>
        <time>2019-04-04T20:22:14Z</time>
      </trkpt>
      <trkpt lat="46.392" lon="5.65408">
        <ele>355</ele>
        <time>2019-04-04T20:23:14Z</time>
      </trkpt>
      <trkpt lat="46.39208" lon="5.65433">
        <ele>355</ele>
        <time>2019-04-04T20:24:14Z</time>
      </trkpt>
      <trkpt lat="46.39218" lon="5.65468">
        <ele>355</ele>
        <time>2019-04-04T20:25:14Z</time>
      </trkpt>
      <trkpt lat="46.39226" lon="5.65502">
        <ele>355</ele>
        <time>2019-04-04T20:26:14Z</time>
      </trkpt>
      <trkpt lat="46.39235" lon="5.65537">
        <ele>354</ele>
        <time>2019-04-04T20:27:14Z</time>
      </trkpt>
      <trkpt lat="46.39243" lon="5.6557">
        <ele>354</ele>
        <time>2019-04-04T20:28:14Z</time>
      </trkpt>
      <trkpt lat="46.39247" lon="5.65586">
        <ele>354</ele>
        <time>2019-04-04T20:29:14Z</time>
      </trkpt>
      <trkpt lat="46.39249" lon="5.656">
        <ele>354</ele>
        <time>2019-04-04T20:30:14Z</time>
      </trkpt>
      <trkpt lat="46.39249" lon="5.65613">
        <ele>355</ele>
        <time>2019-04-04T20:31:14Z</time>
      </trkpt>
      <trkpt lat="46.39248" lon="5.65627">
        <ele>355</ele>
        <time>2019-04-04T20:32:14Z</time>
      </trkpt>
      <trkpt lat="46.39246" lon="5.6564">
        <ele>355</ele>
        <time>2019-04-04T20:33:14Z</time>
      </trkpt>
      <trkpt lat="46.39242" lon="5.65653">
        <ele>355</ele>
        <time>2019-04-04T20:34:14Z</time>
      </trkpt>
      <trkpt lat="46.39234" lon="5.65672">
        <ele>355</ele>
        <time>2019-04-04T20:35:14Z</time>
      </trkpt>
      <trkpt lat="46.3923" lon="5.65682">
        <ele>355</ele>
        <time>2019-04-04T20:36:14Z</time>
      </trkpt>
      <trkpt lat="46.39225" lon="5.65707">
        <ele>356</ele>
        <time>2019-04-04T20:37:14Z</time>
      </trkpt>
      <trkpt lat="46.39221" lon="5.65727">
        <ele>356</ele>
        <time>2019-04-04T20:38:14Z</time>
      </trkpt>
      <trkpt lat="46.39222" lon="5.65736">
        <ele>357</ele>
        <time>2019-04-04T20:39:14Z</time>
      </trkpt>
      <trkpt lat="46.39225" lon="5.65742">
        <ele>357</ele>
        <time>2019-04-04T20:40:14Z</time>
      </trkpt>
      <trkpt lat="46.3923" lon="5.65748">
        <ele>358</ele>
        <time>2019-04-04T20:41:14Z</time>
      </trkpt>
      <trkpt lat="46.39237" lon="5.6575">
        <ele>358</ele>
        <time>2019-04-04T20:42:14Z</time>
      </trkpt>
      <trkpt lat="46.39242" lon="5.65751">
        <ele>359</ele>
        <time>2019-04-04T20:43:14Z</time>
      </trkpt>
      <trkpt lat="46.3925" lon="5.65752">
        <ele>359</ele>
        <time>2019-04-04T20:44:14Z</time>
      </trkpt>
      <trkpt lat="46.39258" lon="5.65756">
        <ele>360</ele>
        <time>2019-04-04T20:45:14Z</time>
      </trkpt>
      <trkpt lat="46.39264" lon="5.65763">
        <ele>360</ele>
        <time>2019-04-04T20:46:14Z</time>
      </trkpt>
      <trkpt lat="46.39282" lon="5.65796">
        <ele>361</ele>
        <time>2019-04-04T20:47:14Z</time>
      </trkpt>
      <trkpt lat="46.39309" lon="5.65842">
        <ele>361</ele>
        <time>2019-04-04T20:48:14Z</time>
      </trkpt>
      <trkpt lat="46.39317" lon="5.65855">
        <ele>361</ele>
        <time>2019-04-04T20:49:14Z</time>
      </trkpt>
      <trkpt lat="46.39342" lon="5.65893">
        <ele>362</ele>
        <time>2019-04-04T20:50:14Z</time>
      </trkpt>
      <trkpt lat="46.39354" lon="5.65905">
        <ele>363</ele>
        <time>2019-04-04T20:51:14Z</time>
      </trkpt>
      <trkpt lat="46.39364" lon="5.65913">
        <ele>364</ele>
        <time>2019-04-04T20:52:14Z</time>
      </trkpt>
      <trkpt lat="46.39372" lon="5.65915">
        <ele>365</ele>
        <time>2019-04-04T20:53:14Z</time>
      </trkpt>
      <trkpt lat="46.39378" lon="5.65915">
        <ele>365</ele>
        <time>2019-04-04T20:54:14Z</time>
      </trkpt>
      <trkpt lat="46.39388" lon="5.65912">
        <ele>366</ele>
        <time>2019-04-04T20:55:14Z</time>
      </trkpt>
      <trkpt lat="46.39397" lon="5.65907">
        <ele>367</ele>
        <time>2019-04-04T20:56:14Z</time>
      </trkpt>
      <trkpt lat="46.39405" lon="5.65901">
        <ele>368</ele>
        <time>2019-04-04T20:57:14Z</time>
      </trkpt>
      <trkpt lat="46.39407" lon="5.65884">
        <ele>369</ele>
        <time>2019-04-04T20:58:14Z</time>
      </trkpt>
      <trkpt lat="46.39409" lon="5.65861">
        <ele>370</ele>
        <time>2019-04-04T20:59:14Z</time>
      </trkpt>
      <trkpt lat="46.39411" lon="5.65837">
        <ele>371</ele>
        <time>2019-04-04T21:00:14Z</time>
      </trkpt>
      <trkpt lat="46.3942" lon="5.65743">
        <ele>372</ele>
        <time>2019-04-04T21:01:14Z</time>
      </trkpt>
      <trkpt lat="46.39423" lon="5.65719">
        <ele>372</ele>
        <time>2019-04-04T21:02:14Z</time>
      </trkpt>
      <trkpt lat="46.39425" lon="5.6569">
        <ele>372</ele>
        <time>2019-04-04T21:03:14Z</time>
      </trkpt>
      <trkpt lat="46.39428" lon="5.6566">
        <ele>372</ele>
        <time>2019-04-04T21:04:14Z</time>
      </trkpt>
      <trkpt lat="46.3943" lon="5.65605">
        <ele>370</ele>
        <time>2019-04-04T21:05:14Z</time>
      </trkpt>
      <trkpt lat="46.39431" lon="5.65585">
        <ele>370</ele>
        <time>2019-04-04T21:06:14Z</time>
      </trkpt>
      <trkpt lat="46.39432" lon="5.65562">
        <ele>370</ele>
        <time>2019-04-04T21:07:14Z</time>
      </trkpt>
      <trkpt lat="46.39431" lon="5.65516">
        <ele>370</ele>
        <time>2019-04-04T21:08:14Z</time>
      </trkpt>
      <trkpt lat="46.39425" lon="5.65407">
        <ele>370</ele>
        <time>2019-04-04T21:09:14Z</time>
      </trkpt>
      <trkpt lat="46.39423" lon="5.65376">
        <ele>370</ele>
        <time>2019-04-04T21:10:14Z</time>
      </trkpt>
      <trkpt lat="46.39408" lon="5.65178">
        <ele>373</ele>
        <time>2019-04-04T21:11:14Z</time>
      </trkpt>
      <trkpt lat="46.39406" lon="5.65157">
        <ele>374</ele>
        <time>2019-04-04T21:12:14Z</time>
      </trkpt>
      <trkpt lat="46.39399" lon="5.65101">
        <ele>376</ele>
        <time>2019-04-04T21:13:14Z</time>
      </trkpt>
      <trkpt lat="46.39391" lon="5.6506">
        <ele>377</ele>
        <time>2019-04-04T21:14:14Z</time>
      </trkpt>
      <trkpt lat="46.39416" lon="5.65113">
        <ele>379</ele>
        <time>2019-04-04T21:15:14Z</time>
      </trkpt>
      <trkpt lat="46.39431" lon="5.65145">
        <ele>383</ele>
        <time>2019-04-04T21:16:14Z</time>
      </trkpt>
      <trkpt lat="46.39438" lon="5.65162">
        <ele>385</ele>
        <time>2019-04-04T21:17:14Z</time>
      </trkpt>
      <trkpt lat="46.39444" lon="5.65181">
        <ele>387</ele>
        <time>2019-04-04T21:18:14Z</time>
      </trkpt>
      <trkpt lat="46.3945" lon="5.65202">
        <ele>388</ele>
        <time>2019-04-04T21:19:14Z</time>
      </trkpt>
      <trkpt lat="46.39455" lon="5.65224">
        <ele>389</ele>
        <time>2019-04-04T21:20:14Z</time>
      </trkpt>
      <trkpt lat="46.3946" lon="5.65253">
        <ele>389</ele>
        <time>2019-04-04T21:21:14Z</time>
      </trkpt>
      <trkpt lat="46.39468" lon="5.65314">
        <ele>392</ele>
        <time>2019-04-04T21:22:14Z</time>
      </trkpt>
      <trkpt lat="46.39472" lon="5.65342">
        <ele>394</ele>
        <time>2019-04-04T21:23:14Z</time>
      </trkpt>
      <trkpt lat="46.39491" lon="5.65513">
        <ele>398</ele>
        <time>2019-04-04T21:24:14Z</time>
      </trkpt>
      <trkpt lat="46.39495" lon="5.65547">
        <ele>400</ele>
        <time>2019-04-04T21:25:14Z</time>
      </trkpt>
      <trkpt lat="46.39496" lon="5.65566">
        <ele>400</ele>
        <time>2019-04-04T21:26:14Z</time>
      </trkpt>
      <trkpt lat="46.39497" lon="5.65591">
        <ele>401</ele>
        <time>2019-04-04T21:27:14Z</time>
      </trkpt>
      <trkpt lat="46.39496" lon="5.65619">
        <ele>401</ele>
        <time>2019-04-04T21:28:14Z</time>
      </trkpt>
      <trkpt lat="46.39492" lon="5.6567">
        <ele>400</ele>
        <time>2019-04-04T21:29:14Z</time>
      </trkpt>
      <trkpt lat="46.39491" lon="5.65689">
        <ele>400</ele>
        <time>2019-04-04T21:30:14Z</time>
      </trkpt>
      <trkpt lat="46.39494" lon="5.65709">
        <ele>401</ele>
        <time>2019-04-04T21:31:14Z</time>
      </trkpt>
      <trkpt lat="46.39498" lon="5.65732">
        <ele>402</ele>
        <time>2019-04-04T21:32:14Z</time>
      </trkpt>
      <trkpt lat="46.39526" lon="5.65851">
        <ele>408</ele>
        <time>2019-04-04T21:33:14Z</time>
      </trkpt>
      <trkpt lat="46.39532" lon="5.65868">
        <ele>409</ele>
        <time>2019-04-04T21:34:14Z</time>
      </trkpt>
      <trkpt lat="46.39538" lon="5.65883">
        <ele>410</ele>
        <time>2019-04-04T21:35:14Z</time>
      </trkpt>
      <trkpt lat="46.39546" lon="5.65899">
        <ele>411</ele>
        <time>2019-04-04T21:36:14Z</time>
      </trkpt>
      <trkpt lat="46.39558" lon="5.65918">
        <ele>413</ele>
        <time>2019-04-04T21:37:14Z</time>
      </trkpt>
      <trkpt lat="46.39571" lon="5.65938">
        <ele>414</ele>
        <time>2019-04-04T21:38:14Z</time>
      </trkpt>
      <trkpt lat="46.39582" lon="5.65956">
        <ele>415</ele>
        <time>2019-04-04T21:39:14Z</time>
      </trkpt>
      <trkpt lat="46.39597" lon="5.65976">
        <ele>416</ele>
        <time>2019-04-04T21:40:14Z</time>
      </trkpt>
      <trkpt lat="46.39611" lon="5.65997">
        <ele>418</ele>
        <time>2019-04-04T21:41:14Z</time>
      </trkpt>
      <trkpt lat="46.39625" lon="5.66017">
        <ele>420</ele>
        <time>2019-04-04T21:42:14Z</time>
      </trkpt>
      <trkpt lat="46.39652" lon="5.66057">
        <ele>423</ele>
        <time>2019-04-04T21:43:14Z</time>
      </trkpt>
      <trkpt lat="46.39661" lon="5.66077">
        <ele>422</ele>
        <time>2019-04-04T21:44:14Z</time>
      </trkpt>
      <trkpt lat="46.39667" lon="5.66096">
        <ele>423</ele>
        <time>2019-04-04T21:45:14Z</time>
      </trkpt>
      <trkpt lat="46.39669" lon="5.66117">
        <ele>424</ele>
        <time>2019-04-04T21:46:14Z</time>
      </trkpt>
      <trkpt lat="46.39669" lon="5.66162">
        <ele>423</ele>
        <time>2019-04-04T21:47:14Z</time>
      </trkpt>
      <trkpt lat="46.39671" lon="5.66181">
        <ele>421</ele>
        <time>2019-04-04T21:48:14Z</time>
      </trkpt>
      <trkpt lat="46.39675" lon="5.66198">
        <ele>420</ele>
        <time>2019-04-04T21:49:14Z</time>
      </trkpt>
      <trkpt lat="46.39683" lon="5.66213">
        <ele>422</ele>
        <time>2019-04-04T21:50:14Z</time>
      </trkpt>
      <trkpt lat="46.39693" lon="5.66227">
        <ele>425</ele>
        <time>2019-04-04T21:51:14Z</time>
      </trkpt>
      <trkpt lat="46.39703" lon="5.66237">
        <ele>429</ele>
        <time>2019-04-04T21:52:14Z</time>
      </trkpt>
      <trkpt lat="46.39717" lon="5.66247">
        <ele>435</ele>
        <time>2019-04-04T21:53:14Z</time>
      </trkpt>
      <trkpt lat="46.39727" lon="5.66256">
        <ele>438</ele>
        <time>2019-04-04T21:54:14Z</time>
      </trkpt>
      <trkpt lat="46.3974" lon="5.66269">
        <ele>440</ele>
        <time>2019-04-04T21:55:14Z</time>
      </trkpt>
      <trkpt lat="46.39786" lon="5.66319">
        <ele>442</ele>
        <time>2019-04-04T21:56:14Z</time>
      </trkpt>
      <trkpt lat="46.39803" lon="5.66336">
        <ele>443</ele>
        <time>2019-04-04T21:57:14Z</time>
      </trkpt>
      <trkpt lat="46.39838" lon="5.66375">
        <ele>447</ele>
        <time>2019-04-04T21:58:14Z</time>
      </trkpt>
      <trkpt lat="46.39853" lon="5.66393">
        <ele>448</ele>
        <time>2019-04-04T21:59:14Z</time>
      </trkpt>
      <trkpt lat="46.39895" lon="5.66452">
        <ele>452</ele>
        <time>2019-04-04T22:00:14Z</time>
      </trkpt>
      <trkpt lat="46.39906" lon="5.66469">
        <ele>451</ele>
        <time>2019-04-04T22:01:14Z</time>
      </trkpt>
      <trkpt lat="46.39948" lon="5.66538">
        <ele>453</ele>
        <time>2019-04-04T22:02:14Z</time>
      </trkpt>
      <trkpt lat="46.3996" lon="5.66557">
        <ele>454</ele>
        <time>2019-04-04T22:03:14Z</time>
      </trkpt>
      <trkpt lat="46.39971" lon="5.66572">
        <ele>455</ele>
        <time>2019-04-04T22:04:14Z</time>
      </trkpt>
      <trkpt lat="46.39983" lon="5.66587">
        <ele>456</ele>
        <time>2019-04-04T22:05:14Z</time>
      </trkpt>
      <trkpt lat="46.39997" lon="5.66599">
        <ele>458</ele>
        <time>2019-04-04T22:06:14Z</time>
      </trkpt>
      <trkpt lat="46.40013" lon="5.66613">
        <ele>461</ele>
        <time>2019-04-04T22:07:14Z</time>
      </trkpt>
      <trkpt lat="46.40026" lon="5.66625">
        <ele>463</ele>
        <time>2019-04-04T22:08:14Z</time>
      </trkpt>
      <trkpt lat="46.40042" lon="5.66642">
        <ele>465</ele>
        <time>2019-04-04T22:09:14Z</time>
      </trkpt>
      <trkpt lat="46.40259" lon="5.66873">
        <ele>473</ele>
        <time>2019-04-04T22:10:14Z</time>
      </trkpt>
      <trkpt lat="46.4027" lon="5.66883">
        <ele>473</ele>
        <time>2019-04-04T22:11:14Z</time>
      </trkpt>
      <trkpt lat="46.40283" lon="5.66891">
        <ele>474</ele>
        <time>2019-04-04T22:12:14Z</time>
      </trkpt>
      <trkpt lat="46.40297" lon="5.66894">
        <ele>476</ele>
        <time>2019-04-04T22:13:14Z</time>
      </trkpt>
      <trkpt lat="46.40309" lon="5.66889">
        <ele>479</ele>
        <time>2019-04-04T22:14:14Z</time>
      </trkpt>
      <trkpt lat="46.40342" lon="5.66912">
        <ele>481</ele>
        <time>2019-04-04T22:15:14Z</time>
      </trkpt>
      <trkpt lat="46.40366" lon="5.6692">
        <ele>481</ele>
        <time>2019-04-04T22:16:14Z</time>
      </trkpt>
      <trkpt lat="46.40402" lon="5.66927">
        <ele>481</ele>
        <time>2019-04-04T22:17:14Z</time>
      </trkpt>
      <trkpt lat="46.4043" lon="5.66924">
        <ele>483</ele>
        <time>2019-04-04T22:18:14Z</time>
      </trkpt>
      <trkpt lat="46.40456" lon="5.66916">
        <ele>485</ele>
        <time>2019-04-04T22:19:14Z</time>
      </trkpt>
      <trkpt lat="46.40473" lon="5.66903">
        <ele>487</ele>
        <time>2019-04-04T22:20:14Z</time>
      </trkpt>
      <trkpt lat="46.4049" lon="5.66883">
        <ele>490</ele>
        <time>2019-04-04T22:21:14Z</time>
      </trkpt>
      <trkpt lat="46.40501" lon="5.66877">
        <ele>491</ele>
        <time>2019-04-04T22:22:14Z</time>
      </trkpt>
      <trkpt lat="46.40523" lon="5.66875">
        <ele>492</ele>
        <time>2019-04-04T22:23:14Z</time>
      </trkpt>
      <trkpt lat="46.40562" lon="5.66877">
        <ele>493</ele>
        <time>2019-04-04T22:24:14Z</time>
      </trkpt>
      <trkpt lat="46.40648" lon="5.66872">
        <ele>499</ele>
        <time>2019-04-04T22:25:14Z</time>
      </trkpt>
      <trkpt lat="46.40662" lon="5.66867">
        <ele>500</ele>
        <time>2019-04-04T22:26:14Z</time>
      </trkpt>
      <trkpt lat="46.40678" lon="5.66856">
        <ele>504</ele>
        <time>2019-04-04T22:27:14Z</time>
      </trkpt>
      <trkpt lat="46.40719" lon="5.66827">
        <ele>510</ele>
        <time>2019-04-04T22:28:14Z</time>
      </trkpt>
      <trkpt lat="46.40723" lon="5.66838">
        <ele>509</ele>
        <time>2019-04-04T22:29:14Z</time>
      </trkpt>
      <trkpt lat="46.40769" lon="5.66838">
        <ele>509</ele>
        <time>2019-04-04T22:30:14Z</time>
      </trkpt>
      <trkpt lat="46.40823" lon="5.66831">
        <ele>509</ele>
        <time>2019-04-04T22:31:14Z</time>
      </trkpt>
      <trkpt lat="46.40873" lon="5.6686">
        <ele>508</ele>
        <time>2019-04-04T22:32:14Z</time>
      </trkpt>
      <trkpt lat="46.40884" lon="5.66877">
        <ele>508</ele>
        <time>2019-04-04T22:33:14Z</time>
      </trkpt>
      <trkpt lat="46.4089" lon="5.66909">
        <ele>508</ele>
        <time>2019-04-04T22:34:14Z</time>
      </trkpt>
      <trkpt lat="46.40908" lon="5.66925">
        <ele>507</ele>
        <time>2019-04-04T22:35:14Z</time>
      </trkpt>
      <trkpt lat="46.40907" lon="5.66957">
        <ele>504</ele>
        <time>2019-04-04T22:36:14Z</time>
      </trkpt>
      <trkpt lat="46.4091" lon="5.66981">
        <ele>503</ele>
        <time>2019-04-04T22:37:14Z</time>
      </trkpt>
      <trkpt lat="46.40922" lon="5.67011">
        <ele>499</ele>
        <time>2019-04-04T22:38:14Z</time>
      </trkpt>
      <trkpt lat="46.40936" lon="5.67025">
        <ele>494</ele>
        <time>2019-04-04T22:39:14Z</time>
      </trkpt>
      <trkpt lat="46.40943" lon="5.67048">
        <ele>489</ele>
        <time>2019-04-04T22:40:14Z</time>
      </trkpt>
      <trkpt lat="46.40964" lon="5.67079">
        <ele>484</ele>
        <time>2019-04-04T22:41:14Z</time>
      </trkpt>
      <trkpt lat="46.40969" lon="5.67104">
        <ele>479</ele>
        <time>2019-04-04T22:42:14Z</time>
      </trkpt>
      <trkpt lat="46.40981" lon="5.67122">
        <ele>477</ele>
        <time>2019-04-04T22:43:14Z</time>
      </trkpt>
      <trkpt lat="46.40985" lon="5.67145">
        <ele>473</ele>
        <time>2019-04-04T22:44:14Z</time>
      </trkpt>
      <trkpt lat="46.40985" lon="5.6717">
        <ele>467</ele>
        <time>2019-04-04T22:45:14Z</time>
      </trkpt>
      <trkpt lat="46.40997" lon="5.67186">
        <ele>464</ele>
        <time>2019-04-04T22:46:14Z</time>
      </trkpt>
      <trkpt lat="46.41008" lon="5.67193">
        <ele>461</ele>
        <time>2019-04-04T22:47:14Z</time>
      </trkpt>
      <trkpt lat="46.4102" lon="5.6721">
        <ele>453</ele>
        <time>2019-04-04T22:48:14Z</time>
      </trkpt>
      <trkpt lat="46.41036" lon="5.67196">
        <ele>454</ele>
        <time>2019-04-04T22:49:14Z</time>
      </trkpt>
      <trkpt lat="46.41044" lon="5.67167">
        <ele>459</ele>
        <time>2019-04-04T22:50:14Z</time>
      </trkpt>
      <trkpt lat="46.41041" lon="5.67134">
        <ele>463</ele>
        <time>2019-04-04T22:51:14Z</time>
      </trkpt>
      <trkpt lat="46.41035" lon="5.67068">
        <ele>471</ele>
        <time>2019-04-04T22:52:14Z</time>
      </trkpt>
      <trkpt lat="46.41028" lon="5.67011">
        <ele>476</ele>
        <time>2019-04-04T22:53:14Z</time>
      </trkpt>
      <trkpt lat="46.41023" lon="5.66922">
        <ele>478</ele>
        <time>2019-04-04T22:54:14Z</time>
      </trkpt>
      <trkpt lat="46.41024" lon="5.66847">
        <ele>475</ele>
        <time>2019-04-04T22:55:14Z</time>
      </trkpt>
      <trkpt lat="46.41029" lon="5.66663">
        <ele>462</ele>
        <time>2019-04-04T22:56:14Z</time>
      </trkpt>
      <trkpt lat="46.41031" lon="5.66596">
        <ele>460</ele>
        <time>2019-04-04T22:57:14Z</time>
      </trkpt>
      <trkpt lat="46.41035" lon="5.66537">
        <ele>461</ele>
        <time>2019-04-04T22:58:14Z</time>
      </trkpt>
      <trkpt lat="46.41048" lon="5.66477">
        <ele>461</ele>
        <time>2019-04-04T22:59:14Z</time>
      </trkpt>
      <trkpt lat="46.41064" lon="5.66407">
        <ele>464</ele>
        <time>2019-04-04T23:00:14Z</time>
      </trkpt>
      <trkpt lat="46.41063" lon="5.66369">
        <ele>472</ele>
        <time>2019-04-04T23:01:14Z</time>
      </trkpt>
      <trkpt lat="46.4107" lon="5.66311">
        <ele>479</ele>
        <time>2019-04-04T23:02:14Z</time>
      </trkpt>
      <trkpt lat="46.41069" lon="5.66257">
        <ele>482</ele>
        <time>2019-04-04T23:03:14Z</time>
      </trkpt>
      <trkpt lat="46.41065" lon="5.66214">
        <ele>485</ele>
        <time>2019-04-04T23:04:14Z</time>
      </trkpt>
      <trkpt lat="46.41073" lon="5.66198">
        <ele>485</ele>
        <time>2019-04-04T23:05:14Z</time>
      </trkpt>
      <trkpt lat="46.41075" lon="5.66185">
        <ele>485</ele>
        <time>2019-04-04T23:06:14Z</time>
      </trkpt>
      <trkpt lat="46.41074" lon="5.66169">
        <ele>486</ele>
        <time>2019-04-04T23:07:14Z</time>
      </trkpt>
      <trkpt lat="46.4107" lon="5.66155">
        <ele>487</ele>
        <time>2019-04-04T23:08:14Z</time>
      </trkpt>
      <trkpt lat="46.41047" lon="5.66124">
        <ele>490</ele>
        <time>2019-04-04T23:09:14Z</time>
      </trkpt>
      <trkpt lat="46.41032" lon="5.66094">
        <ele>492</ele>
        <time>2019-04-04T23:10:14Z</time>
      </trkpt>
      <trkpt lat="46.41024" lon="5.66054">
        <ele>493</ele>
        <time>2019-04-04T23:11:14Z</time>
      </trkpt>
      <trkpt lat="46.41022" lon="5.66025">
        <ele>493</ele>
        <time>2019-04-04T23:12:14Z</time>
      </trkpt>
      <trkpt lat="46.41023" lon="5.66005">
        <ele>494</ele>
        <time>2019-04-04T23:13:14Z</time>
      </trkpt>
      <trkpt lat="46.4103" lon="5.65985">
        <ele>493</ele>
        <time>2019-04-04T23:14:14Z</time>
      </trkpt>
      <trkpt lat="46.41049" lon="5.65948">
        <ele>492</ele>
        <time>2019-04-04T23:15:14Z</time>
      </trkpt>
      <trkpt lat="46.41069" lon="5.65908">
        <ele>492</ele>
        <time>2019-04-04T23:16:14Z</time>
      </trkpt>
      <trkpt lat="46.41093" lon="5.65853">
        <ele>494</ele>
        <time>2019-04-04T23:17:14Z</time>
      </trkpt>
      <trkpt lat="46.41127" lon="5.65805">
        <ele>495</ele>
        <time>2019-04-04T23:18:14Z</time>
      </trkpt>
      <trkpt lat="46.4117" lon="5.65737">
        <ele>497</ele>
        <time>2019-04-04T23:19:14Z</time>
      </trkpt>
      <trkpt lat="46.41193" lon="5.65716">
        <ele>497</ele>
        <time>2019-04-04T23:20:14Z</time>
      </trkpt>
      <trkpt lat="46.41202" lon="5.65702">
        <ele>497</ele>
        <time>2019-04-04T23:21:14Z</time>
      </trkpt>
      <trkpt lat="46.41211" lon="5.6567">
        <ele>500</ele>
        <time>2019-04-04T23:22:14Z</time>
      </trkpt>
      <trkpt lat="46.41224" lon="5.65644">
        <ele>502</ele>
        <time>2019-04-04T23:23:14Z</time>
      </trkpt>
      <trkpt lat="46.41245" lon="5.65615">
        <ele>504</ele>
        <time>2019-04-04T23:24:14Z</time>
      </trkpt>
      <trkpt lat="46.41283" lon="5.65577">
        <ele>502</ele>
        <time>2019-04-04T23:25:14Z</time>
      </trkpt>
      <trkpt lat="46.41348" lon="5.65516">
        <ele>501</ele>
        <time>2019-04-04T23:26:14Z</time>
      </trkpt>
      <trkpt lat="46.41363" lon="5.65493">
        <ele>500</ele>
        <time>2019-04-04T23:27:14Z</time>
      </trkpt>
      <trkpt lat="46.41375" lon="5.65468">
        <ele>502</ele>
        <time>2019-04-04T23:28:14Z</time>
      </trkpt>
      <trkpt lat="46.41393" lon="5.65431">
        <ele>507</ele>
        <time>2019-04-04T23:29:14Z</time>
      </trkpt>
      <trkpt lat="46.41413" lon="5.65399">
        <ele>512</ele>
        <time>2019-04-04T23:30:14Z</time>
      </trkpt>
      <trkpt lat="46.41452" lon="5.65351">
        <ele>512</ele>
        <time>2019-04-04T23:31:14Z</time>
      </trkpt>
      <trkpt lat="46.41463" lon="5.65332">
        <ele>515</ele>
        <time>2019-04-04T23:32:14Z</time>
      </trkpt>
      <trkpt lat="46.41487" lon="5.65288">
        <ele>518</ele>
        <time>2019-04-04T23:33:14Z</time>
      </trkpt>
      <trkpt lat="46.41513" lon="5.65236">
        <ele>523</ele>
        <time>2019-04-04T23:34:14Z</time>
      </trkpt>
      <trkpt lat="46.41536" lon="5.65181">
        <ele>526</ele>
        <time>2019-04-04T23:35:14Z</time>
      </trkpt>
      <trkpt lat="46.41546" lon="5.65155">
        <ele>527</ele>
        <time>2019-04-04T23:36:14Z</time>
      </trkpt>
      <trkpt lat="46.41549" lon="5.65139">
        <ele>527</ele>
        <time>2019-04-04T23:37:14Z</time>
      </trkpt>
      <trkpt lat="46.4155" lon="5.65123">
        <ele>528</ele>
        <time>2019-04-04T23:38:14Z</time>
      </trkpt>
      <trkpt lat="46.41549" lon="5.65099">
        <ele>529</ele>
        <time>2019-04-04T23:39:14Z</time>
      </trkpt>
      <trkpt lat="46.41541" lon="5.65061">
        <ele>531</ele>
        <time>2019-04-04T23:40:14Z</time>
      </trkpt>
      <trkpt lat="46.41549" lon="5.65068">
        <ele>531</ele>
        <time>2019-04-04T23:41:14Z</time>
      </trkpt>
      <trkpt lat="46.41557" lon="5.65073">
        <ele>530</ele>
        <time>2019-04-04T23:42:14Z</time>
      </trkpt>
      <trkpt lat="46.41591" lon="5.65087">
        <ele>528</ele>
        <time>2019-04-04T23:43:14Z</time>
      </trkpt>
      <trkpt lat="46.41618" lon="5.65098">
        <ele>527</ele>
        <time>2019-04-04T23:44:14Z</time>
      </trkpt>
      <trkpt lat="46.41626" lon="5.65101">
        <ele>527</ele>
        <time>2019-04-04T23:45:14Z</time>
      </trkpt>
      <trkpt lat="46.41648" lon="5.65105">
        <ele>527</ele>
        <time>2019-04-04T23:46:14Z</time>
      </trkpt>
      <trkpt lat="46.4166" lon="5.65107">
        <ele>527</ele>
        <time>2019-04-04T23:47:14Z</time>
      </trkpt>
      <trkpt lat="46.41671" lon="5.65113">
        <ele>527</ele>
        <time>2019-04-04T23:48:14Z</time>
      </trkpt>
      <trkpt lat="46.41681" lon="5.65118">
        <ele>527</ele>
        <time>2019-04-04T23:49:14Z</time>
      </trkpt>
      <trkpt lat="46.41691" lon="5.65122">
        <ele>527</ele>
        <time>2019-04-04T23:50:14Z</time>
      </trkpt>
      <trkpt lat="46.41703" lon="5.65126">
        <ele>527</ele>
        <time>2019-04-04T23:51:14Z</time>
      </trkpt>
      <trkpt lat="46.41717" lon="5.6513">
        <ele>528</ele>
        <time>2019-04-04T23:52:14Z</time>
      </trkpt>
      <trkpt lat="46.41729" lon="5.65133">
        <ele>528</ele>
        <time>2019-04-04T23:53:14Z</time>
      </trkpt>
      <trkpt lat="46.41741" lon="5.65135">
        <ele>528</ele>
        <time>2019-04-04T23:54:14Z</time>
      </trkpt>
      <trkpt lat="46.41751" lon="5.65139">
        <ele>528</ele>
        <time>2019-04-04T23:55:14Z</time>
      </trkpt>
      <trkpt lat="46.41761" lon="5.65144">
        <ele>527</ele>
        <time>2019-04-04T23:56:14Z</time>
      </trkpt>
      <trkpt lat="46.41772" lon="5.65152">
        <ele>527</ele>
        <time>2019-04-04T23:57:14Z</time>
      </trkpt>
      <trkpt lat="46.41792" lon="5.65168">
        <ele>525</ele>
        <time>2019-04-04T23:58:14Z</time>
      </trkpt>
      <trkpt lat="46.41802" lon="5.65173">
        <ele>525</ele>
        <time>2019-04-04T23:59:14Z</time>
      </trkpt>
      <trkpt lat="46.41814" lon="5.65179">
        <ele>524</ele>
        <time>2019-04-05T00:00:14Z</time>
      </trkpt>
      <trkpt lat="46.41821" lon="5.65181">
        <ele>524</ele>
        <time>2019-04-05T00:01:14Z</time>
      </trkpt>
      <trkpt lat="46.41829" lon="5.65181">
        <ele>524</ele>
        <time>2019-04-05T00:02:14Z</time>
      </trkpt>
      <trkpt lat="46.41839" lon="5.6518">
        <ele>524</ele>
        <time>2019-04-05T00:03:14Z</time>
      </trkpt>
      <trkpt lat="46.41849" lon="5.65183">
        <ele>524</ele>
        <time>2019-04-05T00:04:14Z</time>
      </trkpt>
      <trkpt lat="46.41871" lon="5.65193">
        <ele>522</ele>
        <time>2019-04-05T00:05:14Z</time>
      </trkpt>
      <trkpt lat="46.41883" lon="5.65198">
        <ele>521</ele>
        <time>2019-04-05T00:06:14Z</time>
      </trkpt>
      <trkpt lat="46.41938" lon="5.65215">
        <ele>518</ele>
        <time>2019-04-05T00:07:14Z</time>
      </trkpt>
      <trkpt lat="46.41952" lon="5.6522">
        <ele>517</ele>
        <time>2019-04-05T00:08:14Z</time>
      </trkpt>
      <trkpt lat="46.41959" lon="5.65226">
        <ele>516</ele>
        <time>2019-04-05T00:09:14Z</time>
      </trkpt>
      <trkpt lat="46.4197" lon="5.65238">
        <ele>513</ele>
        <time>2019-04-05T00:10:14Z</time>
      </trkpt>
      <trkpt lat="46.41981" lon="5.65247">
        <ele>511</ele>
        <time>2019-04-05T00:11:14Z</time>
      </trkpt>
      <trkpt lat="46.4199" lon="5.65252">
        <ele>510</ele>
        <time>2019-04-05T00:12:14Z</time>
      </trkpt>
      <trkpt lat="46.41997" lon="5.65255">
        <ele>510</ele>
        <time>2019-04-05T00:13:14Z</time>
      </trkpt>
      <trkpt lat="46.42006" lon="5.65256">
        <ele>510</ele>
        <time>2019-04-05T00:14:14Z</time>
      </trkpt>
      <trkpt lat="46.42028" lon="5.65258">
        <ele>511</ele>
        <time>2019-04-05T00:15:14Z</time>
      </trkpt>
      <trkpt lat="46.42073" lon="5.65267">
        <ele>512</ele>
        <time>2019-04-05T00:16:14Z</time>
      </trkpt>
      <trkpt lat="46.42079" lon="5.65268">
        <ele>512</ele>
        <time>2019-04-05T00:17:14Z</time>
      </trkpt>
      <trkpt lat="46.42095" lon="5.65282">
        <ele>511</ele>
        <time>2019-04-05T00:18:14Z</time>
      </trkpt>
      <trkpt lat="46.42106" lon="5.65291">
        <ele>511</ele>
        <time>2019-04-05T00:19:14Z</time>
      </trkpt>
      <trkpt lat="46.42119" lon="5.65299">
        <ele>511</ele>
        <time>2019-04-05T00:20:14Z</time>
      </trkpt>
      <trkpt lat="46.42134" lon="5.65308">
        <ele>511</ele>
        <time>2019-04-05T00:21:14Z</time>
      </trkpt>
      <trkpt lat="46.42174" lon="5.65328">
        <ele>513</ele>
        <time>2019-04-05T00:22:14Z</time>
      </trkpt>
      <trkpt lat="46.42182" lon="5.65331">
        <ele>513</ele>
        <time>2019-04-05T00:23:14Z</time>
      </trkpt>
      <trkpt lat="46.42193" lon="5.65338">
        <ele>514</ele>
        <time>2019-04-05T00:24:14Z</time>
      </trkpt>
      <trkpt lat="46.42206" lon="5.65347">
        <ele>515</ele>
        <time>2019-04-05T00:25:14Z</time>
      </trkpt>
      <trkpt lat="46.42216" lon="5.65351">
        <ele>516</ele>
        <time>2019-04-05T00:26:14Z</time>
      </trkpt>
      <trkpt lat="46.42226" lon="5.65352">
        <ele>517</ele>
        <time>2019-04-05T00:27:14Z</time>
      </trkpt>
      <trkpt lat="46.42236" lon="5.65352">
        <ele>518</ele>
        <time>2019-04-05T00:28:14Z</time>
      </trkpt>
      <trkpt lat="46.42249" lon="5.65351">
        <ele>520</ele>
        <time>2019-04-05T00:29:14Z</time>
      </trkpt>
      <trkpt lat="46.42261" lon="5.65351">
        <ele>521</ele>
        <time>2019-04-05T00:30:14Z</time>
      </trkpt>
      <trkpt lat="46.42272" lon="5.6535">
        <ele>522</ele>
        <time>2019-04-05T00:31:14Z</time>
      </trkpt>
      <trkpt lat="46.4228" lon="5.65351">
        <ele>522</ele>
        <time>2019-04-05T00:32:14Z</time>
      </trkpt>
      <trkpt lat="46.4229" lon="5.65353">
        <ele>523</ele>
        <time>2019-04-05T00:33:14Z</time>
      </trkpt>
      <trkpt lat="46.42319" lon="5.65362">
        <ele>523</ele>
        <time>2019-04-05T00:34:14Z</time>
      </trkpt>
      <trkpt lat="46.42334" lon="5.65365">
        <ele>524</ele>
        <time>2019-04-05T00:35:14Z</time>
      </trkpt>
      <trkpt lat="46.42368" lon="5.6538">
        <ele>523</ele>
        <time>2019-04-05T00:36:14Z</time>
      </trkpt>
      <trkpt lat="46.42389" lon="5.65385">
        <ele>524</ele>
        <time>2019-04-05T00:37:14Z</time>
      </trkpt>
      <trkpt lat="46.424" lon="5.65388">
        <ele>524</ele>
        <time>2019-04-05T00:38:14Z</time>
      </trkpt>
      <trkpt lat="46.42411" lon="5.65393">
        <ele>524</ele>
        <time>2019-04-05T00:39:14Z</time>
      </trkpt>
      <trkpt lat="46.42428" lon="5.654">
        <ele>524</ele>
        <time>2019-04-05T00:40:14Z</time>
      </trkpt>
      <trkpt lat="46.42481" lon="5.65417">
        <ele>526</ele>
        <time>2019-04-05T00:41:14Z</time>
      </trkpt>
      <trkpt lat="46.42501" lon="5.65426">
        <ele>527</ele>
        <time>2019-04-05T00:42:14Z</time>
      </trkpt>
      <trkpt lat="46.42513" lon="5.65429">
        <ele>527</ele>
        <time>2019-04-05T00:43:14Z</time>
      </trkpt>
      <trkpt lat="46.42522" lon="5.65431">
        <ele>527</ele>
        <time>2019-04-05T00:44:14Z</time>
      </trkpt>
      <trkpt lat="46.42532" lon="5.65438">
        <ele>527</ele>
        <time>2019-04-05T00:45:14Z</time>
      </trkpt>
      <trkpt lat="46.42539" lon="5.65444">
        <ele>527</ele>
        <time>2019-04-05T00:46:14Z</time>
      </trkpt>
      <trkpt lat="46.42615" lon="5.65476">
        <ele>527</ele>
        <time>2019-04-05T00:47:14Z</time>
      </trkpt>
      <trkpt lat="46.42625" lon="5.6548">
        <ele>527</ele>
        <time>2019-04-05T00:48:14Z</time>
      </trkpt>
      <trkpt lat="46.42642" lon="5.655">
        <ele>524</ele>
        <time>2019-04-05T00:49:14Z</time>
      </trkpt>
      <trkpt lat="46.42651" lon="5.65509">
        <ele>523</ele>
        <time>2019-04-05T00:50:14Z</time>
      </trkpt>
      <trkpt lat="46.42657" lon="5.65513">
        <ele>522</ele>
        <time>2019-04-05T00:51:14Z</time>
      </trkpt>
      <trkpt lat="46.42662" lon="5.65519">
        <ele>521</ele>
        <time>2019-04-05T00:52:14Z</time>
      </trkpt>
      <trkpt lat="46.4267" lon="5.65538">
        <ele>519</ele>
        <time>2019-04-05T00:53:14Z</time>
      </trkpt>
      <trkpt lat="46.42677" lon="5.65554">
        <ele>517</ele>
        <time>2019-04-05T00:54:14Z</time>
      </trkpt>
      <trkpt lat="46.4269" lon="5.65575">
        <ele>514</ele>
        <time>2019-04-05T00:55:14Z</time>
      </trkpt>
      <trkpt lat="46.42713" lon="5.65592">
        <ele>512</ele>
        <time>2019-04-05T00:56:14Z</time>
      </trkpt>
      <trkpt lat="46.42727" lon="5.65598">
        <ele>512</ele>
        <time>2019-04-05T00:57:14Z</time>
      </trkpt>
      <trkpt lat="46.42736" lon="5.65601">
        <ele>511</ele>
        <time>2019-04-05T00:58:14Z</time>
      </trkpt>
      <trkpt lat="46.42744" lon="5.65603">
        <ele>511</ele>
        <time>2019-04-05T00:59:14Z</time>
      </trkpt>
      <trkpt lat="46.42755" lon="5.65605">
        <ele>511</ele>
        <time>2019-04-05T01:00:14Z</time>
      </trkpt>
      <trkpt lat="46.4277" lon="5.65613">
        <ele>510</ele>
        <time>2019-04-05T01:01:14Z</time>
      </trkpt>
      <trkpt lat="46.42785" lon="5.65624">
        <ele>508</ele>
        <time>2019-04-05T01:02:14Z</time>
      </trkpt>
      <trkpt lat="46.42796" lon="5.65629">
        <ele>507</ele>
        <time>2019-04-05T01:03:14Z</time>
      </trkpt>
      <trkpt lat="46.42809" lon="5.6563">
        <ele>507</ele>
        <time>2019-04-05T01:04:14Z</time>
      </trkpt>
      <trkpt lat="46.42822" lon="5.65633">
        <ele>507</ele>
        <time>2019-04-05T01:05:14Z</time>
      </trkpt>
      <trkpt lat="46.42833" lon="5.65639">
        <ele>506</ele>
        <time>2019-04-05T01:06:14Z</time>
      </trkpt>
      <trkpt lat="46.42846" lon="5.65647">
        <ele>506</ele>
        <time>2019-04-05T01:07:14Z</time>
      </trkpt>
      <trkpt lat="46.4286" lon="5.65657">
        <ele>505</ele>
        <time>2019-04-05T01:08:14Z</time>
      </trkpt>
      <trkpt lat="46.42869" lon="5.6566">
        <ele>506</ele>
        <time>2019-04-05T01:09:14Z</time>
      </trkpt>
      <trkpt lat="46.42904" lon="5.6565">
        <ele>510</ele>
        <time>2019-04-05T01:10:14Z</time>
      </trkpt>
      <trkpt lat="46.42923" lon="5.65644">
        <ele>511</ele>
        <time>2019-04-05T01:11:14Z</time>
      </trkpt>
      <trkpt lat="46.42941" lon="5.65642">
        <ele>512</ele>
        <time>2019-04-05T01:12:14Z</time>
      </trkpt>
      <trkpt lat="46.42956" lon="5.65642">
        <ele>513</ele>
        <time>2019-04-05T01:13:14Z</time>
      </trkpt>
      <trkpt lat="46.42974" lon="5.65647">
        <ele>513</ele>
        <time>2019-04-05T01:14:14Z</time>
      </trkpt>
      <trkpt lat="46.42985" lon="5.6565">
        <ele>513</ele>
        <time>2019-04-05T01:15:14Z</time>
      </trkpt>
      <trkpt lat="46.43041" lon="5.65676">
        <ele>511</ele>
        <time>2019-04-05T01:16:14Z</time>
      </trkpt>
      <trkpt lat="46.43053" lon="5.6568">
        <ele>511</ele>
        <time>2019-04-05T01:17:14Z</time>
      </trkpt>
      <trkpt lat="46.43061" lon="5.65679">
        <ele>511</ele>
        <time>2019-04-05T01:18:14Z</time>
      </trkpt>
      <trkpt lat="46.43083" lon="5.65677">
        <ele>513</ele>
        <time>2019-04-05T01:19:14Z</time>
      </trkpt>
      <trkpt lat="46.43134" lon="5.65674">
        <ele>514</ele>
        <time>2019-04-05T01:20:14Z</time>
      </trkpt>
      <trkpt lat="46.43163" lon="5.65676">
        <ele>515</ele>
        <time>2019-04-05T01:21:14Z</time>
      </trkpt>
      <trkpt lat="46.43189" lon="5.65681">
        <ele>516</ele>
        <time>2019-04-05T01:22:14Z</time>
      </trkpt>
      <trkpt lat="46.43202" lon="5.65685">
        <ele>516</ele>
        <time>2019-04-05T01:23:14Z</time>
      </trkpt>
      <trkpt lat="46.43217" lon="5.65692">
        <ele>516</ele>
        <time>2019-04-05T01:24:14Z</time>
      </trkpt>
      <trkpt lat="46.43247" lon="5.65714">
        <ele>516</ele>
        <time>2019-04-05T01:25:14Z</time>
      </trkpt>
      <trkpt lat="46.43274" lon="5.65729">
        <ele>517</ele>
        <time>2019-04-05T01:26:14Z</time>
      </trkpt>
      <trkpt lat="46.43301" lon="5.65743">
        <ele>517</ele>
        <time>2019-04-05T01:27:14Z</time>
      </trkpt>
      <trkpt lat="46.43317" lon="5.65746">
        <ele>518</ele>
        <time>2019-04-05T01:28:14Z</time>
      </trkpt>
      <trkpt lat="46.43328" lon="5.65748">
        <ele>518</ele>
        <time>2019-04-05T01:29:14Z</time>
      </trkpt>
      <trkpt lat="46.43366" lon="5.6576">
        <ele>518</ele>
        <time>2019-04-05T01:30:14Z</time>
      </trkpt>
      <trkpt lat="46.43387" lon="5.65765">
        <ele>518</ele>
        <time>2019-04-05T01:31:14Z</time>
      </trkpt>
      <trkpt lat="46.43419" lon="5.65775">
        <ele>518</ele>
        <time>2019-04-05T01:32:14Z</time>
      </trkpt>
      <trkpt lat="46.43434" lon="5.65781">
        <ele>518</ele>
        <time>2019-04-05T01:33:14Z</time>
      </trkpt>
      <trkpt lat="46.43466" lon="5.65787">
        <ele>520</ele>
        <time>2019-04-05T01:34:14Z</time>
      </trkpt>
      <trkpt lat="46.43472" lon="5.65788">
        <ele>520</ele>
        <time>2019-04-05T01:35:14Z</time>
      </trkpt>
      <trkpt lat="46.43501" lon="5.65798">
        <ele>521</ele>
        <time>2019-04-05T01:36:14Z</time>
      </trkpt>
      <trkpt lat="46.43513" lon="5.65802">
        <ele>521</ele>
        <time>2019-04-05T01:37:14Z</time>
      </trkpt>
      <trkpt lat="46.43567" lon="5.65814">
        <ele>522</ele>
        <time>2019-04-05T01:38:14Z</time>
      </trkpt>
      <trkpt lat="46.43581" lon="5.65818">
        <ele>522</ele>
        <time>2019-04-05T01:39:14Z</time>
      </trkpt>
      <trkpt lat="46.43593" lon="5.65823">
        <ele>522</ele>
        <time>2019-04-05T01:40:14Z</time>
      </trkpt>
      <trkpt lat="46.43603" lon="5.65827">
        <ele>522</ele>
        <time>2019-04-05T01:41:14Z</time>
      </trkpt>
      <trkpt lat="46.43617" lon="5.65835">
        <ele>521</ele>
        <time>2019-04-05T01:42:14Z</time>
      </trkpt>
      <trkpt lat="46.43637" lon="5.65845">
        <ele>522</ele>
        <time>2019-04-05T01:43:14Z</time>
      </trkpt>
      <trkpt lat="46.43643" lon="5.65848">
        <ele>522</ele>
        <time>2019-04-05T01:44:14Z</time>
      </trkpt>
      <trkpt lat="46.43662" lon="5.6585">
        <ele>523</ele>
        <time>2019-04-05T01:45:14Z</time>
      </trkpt>
      <trkpt lat="46.43673" lon="5.65852">
        <ele>524</ele>
        <time>2019-04-05T01:46:14Z</time>
      </trkpt>
      <trkpt lat="46.43696" lon="5.65863">
        <ele>527</ele>
        <time>2019-04-05T01:47:14Z</time>
      </trkpt>
      <trkpt lat="46.43707" lon="5.65868">
        <ele>528</ele>
        <time>2019-04-05T01:48:14Z</time>
      </trkpt>
      <trkpt lat="46.43723" lon="5.65876">
        <ele>529</ele>
        <time>2019-04-05T01:49:14Z</time>
      </trkpt>
      <trkpt lat="46.43731" lon="5.65882">
        <ele>529</ele>
        <time>2019-04-05T01:50:14Z</time>
      </trkpt>
      <trkpt lat="46.43739" lon="5.65886">
        <ele>530</ele>
        <time>2019-04-05T01:51:14Z</time>
      </trkpt>
      <trkpt lat="46.43756" lon="5.65889">
        <ele>531</ele>
        <time>2019-04-05T01:52:14Z</time>
      </trkpt>
      <trkpt lat="46.43768" lon="5.6589">
        <ele>533</ele>
        <time>2019-04-05T01:53:14Z</time>
      </trkpt>
      <trkpt lat="46.43781" lon="5.65892">
        <ele>534</ele>
        <time>2019-04-05T01:54:14Z</time>
      </trkpt>
      <trkpt lat="46.43794" lon="5.65895">
        <ele>535</ele>
        <time>2019-04-05T01:55:14Z</time>
      </trkpt>
      <trkpt lat="46.43805" lon="5.65896">
        <ele>536</ele>
        <time>2019-04-05T01:56:14Z</time>
      </trkpt>
      <trkpt lat="46.43822" lon="5.65898">
        <ele>537</ele>
        <time>2019-04-05T01:57:14Z</time>
      </trkpt>
      <trkpt lat="46.4383" lon="5.65899">
        <ele>538</ele>
        <time>2019-04-05T01:58:14Z</time>
      </trkpt>
      <trkpt lat="46.43837" lon="5.65901">
        <ele>538</ele>
        <time>2019-04-05T01:59:14Z</time>
      </trkpt>
      <trkpt lat="46.43848" lon="5.65907">
        <ele>538</ele>
        <time>2019-04-05T02:00:14Z</time>
      </trkpt>
      <trkpt lat="46.4386" lon="5.65915">
        <ele>537</ele>
        <time>2019-04-05T02:01:14Z</time>
      </trkpt>
      <trkpt lat="46.43871" lon="5.65925">
        <ele>537</ele>
        <time>2019-04-05T02:02:14Z</time>
      </trkpt>
      <trkpt lat="46.43879" lon="5.65931">
        <ele>537</ele>
        <time>2019-04-05T02:03:14Z</time>
      </trkpt>
      <trkpt lat="46.43885" lon="5.65934">
        <ele>537</ele>
        <time>2019-04-05T02:04:14Z</time>
      </trkpt>
      <trkpt lat="46.43905" lon="5.65932">
        <ele>537</ele>
        <time>2019-04-05T02:05:14Z</time>
      </trkpt>
      <trkpt lat="46.43913" lon="5.65932">
        <ele>537</ele>
        <time>2019-04-05T02:06:14Z</time>
      </trkpt>
      <trkpt lat="46.4392" lon="5.65934">
        <ele>537</ele>
        <time>2019-04-05T02:07:14Z</time>
      </trkpt>
      <trkpt lat="46.43927" lon="5.65936">
        <ele>538</ele>
        <time>2019-04-05T02:08:14Z</time>
      </trkpt>
      <trkpt lat="46.43935" lon="5.65939">
        <ele>538</ele>
        <time>2019-04-05T02:09:14Z</time>
      </trkpt>
      <trkpt lat="46.43942" lon="5.65943">
        <ele>538</ele>
        <time>2019-04-05T02:10:14Z</time>
      </trkpt>
      <trkpt lat="46.43953" lon="5.65947">
        <ele>538</ele>
        <time>2019-04-05T02:11:14Z</time>
      </trkpt>
      <trkpt lat="46.43947" lon="5.65956">
        <ele>537</ele>
        <time>2019-04-05T02:12:14Z</time>
      </trkpt>
      <trkpt lat="46.43943" lon="5.65964">
        <ele>537</ele>
        <time>2019-04-05T02:13:14Z</time>
      </trkpt>
      <trkpt lat="46.43938" lon="5.65978">
        <ele>536</ele>
        <time>2019-04-05T02:14:14Z</time>
      </trkpt>
      <trkpt lat="46.43936" lon="5.6599">
        <ele>535</ele>
        <time>2019-04-05T02:15:14Z</time>
      </trkpt>
      <trkpt lat="46.43937" lon="5.66002">
        <ele>535</ele>
        <time>2019-04-05T02:16:14Z</time>
      </trkpt>
      <trkpt lat="46.43937" lon="5.66018">
        <ele>534</ele>
        <time>2019-04-05T02:17:14Z</time>
      </trkpt>
      <trkpt lat="46.43941" lon="5.6605">
        <ele>532</ele>
        <time>2019-04-05T02:18:14Z</time>
      </trkpt>
      <trkpt lat="46.4394" lon="5.66058">
        <ele>532</ele>
        <time>2019-04-05T02:19:14Z</time>
      </trkpt>
      <trkpt lat="46.43936" lon="5.66065">
        <ele>531</ele>
        <time>2019-04-05T02:20:14Z</time>
      </trkpt>
      <trkpt lat="46.43929" lon="5.66069">
        <ele>531</ele>
        <time>2019-04-05T02:21:14Z</time>
      </trkpt>
      <trkpt lat="46.43912" lon="5.66072">
        <ele>531</ele>
        <time>2019-04-05T02:22:14Z</time>
      </trkpt>
      <trkpt lat="46.43905" lon="5.66075">
        <ele>531</ele>
        <time>2019-04-05T02:23:14Z</time>
      </trkpt>
      <trkpt lat="46.43899" lon="5.66079">
        <ele>531</ele>
        <time>2019-04-05T02:24:14Z</time>
      </trkpt>
      <trkpt lat="46.43892" lon="5.66086">
        <ele>531</ele>
        <time>2019-04-05T02:25:14Z</time>
      </trkpt>
      <trkpt lat="46.43886" lon="5.66094">
        <ele>530</ele>
        <time>2019-04-05T02:26:14Z</time>
      </trkpt>
      <trkpt lat="46.43881" lon="5.66101">
        <ele>530</ele>
        <time>2019-04-05T02:27:14Z</time>
      </trkpt>
      <trkpt lat="46.43875" lon="5.66107">
        <ele>530</ele>
        <time>2019-04-05T02:28:14Z</time>
      </trkpt>
      <trkpt lat="46.43868" lon="5.66114">
        <ele>530</ele>
        <time>2019-04-05T02:29:14Z</time>
      </trkpt>
      <trkpt lat="46.43862" lon="5.66128">
        <ele>529</ele>
        <time>2019-04-05T02:30:14Z</time>
      </trkpt>
      <trkpt lat="46.43857" lon="5.66143">
        <ele>529</ele>
        <time>2019-04-05T02:31:14Z</time>
      </trkpt>
      <trkpt lat="46.43857" lon="5.66158">
        <ele>528</ele>
        <time>2019-04-05T02:32:14Z</time>
      </trkpt>
      <trkpt lat="46.43861" lon="5.66172">
        <ele>527</ele>
        <time>2019-04-05T02:33:14Z</time>
      </trkpt>
      <trkpt lat="46.43867" lon="5.66183">
        <ele>526</ele>
        <time>2019-04-05T02:34:14Z</time>
      </trkpt>
      <trkpt lat="46.43873" lon="5.66197">
        <ele>525</ele>
        <time>2019-04-05T02:35:14Z</time>
      </trkpt>
      <trkpt lat="46.43878" lon="5.66209">
        <ele>525</ele>
        <time>2019-04-05T02:36:14Z</time>
      </trkpt>
      <trkpt lat="46.4388" lon="5.66251">
        <ele>523</ele>
        <time>2019-04-05T02:37:14Z</time>
      </trkpt>
      <trkpt lat="46.4388" lon="5.66263">
        <ele>523</ele>
        <time>2019-04-05T02:38:14Z</time>
      </trkpt>
      <trkpt lat="46.43903" lon="5.66298">
        <ele>522</ele>
        <time>2019-04-05T02:39:14Z</time>
      </trkpt>
      <trkpt lat="46.43915" lon="5.66316">
        <ele>521</ele>
        <time>2019-04-05T02:40:14Z</time>
      </trkpt>
      <trkpt lat="46.43921" lon="5.66322">
        <ele>521</ele>
        <time>2019-04-05T02:41:14Z</time>
      </trkpt>
      <trkpt lat="46.43939" lon="5.66337">
        <ele>521</ele>
        <time>2019-04-05T02:42:14Z</time>
      </trkpt>
      <trkpt lat="46.43951" lon="5.66346">
        <ele>521</ele>
        <time>2019-04-05T02:43:14Z</time>
      </trkpt>
      <trkpt lat="46.43962" lon="5.66355">
        <ele>522</ele>
        <time>2019-04-05T02:44:14Z</time>
      </trkpt>
      <trkpt lat="46.43969" lon="5.66365">
        <ele>522</ele>
        <time>2019-04-05T02:45:14Z</time>
      </trkpt>
      <trkpt lat="46.4398" lon="5.66382">
        <ele>522</ele>
        <time>2019-04-05T02:46:14Z</time>
      </trkpt>
      <trkpt lat="46.43981" lon="5.66394">
        <ele>523</ele>
        <time>2019-04-05T02:47:14Z</time>
      </trkpt>
      <trkpt lat="46.43976" lon="5.66405">
        <ele>523</ele>
        <time>2019-04-05T02:48:14Z</time>
      </trkpt>
      <trkpt lat="46.43971" lon="5.66417">
        <ele>523</ele>
        <time>2019-04-05T02:49:14Z</time>
      </trkpt>
      <trkpt lat="46.43964" lon="5.66436">
        <ele>524</ele>
        <time>2019-04-05T02:50:14Z</time>
      </trkpt>
      <trkpt lat="46.43965" lon="5.66446">
        <ele>524</ele>
        <time>2019-04-05T02:51:14Z</time>
      </trkpt>
      <trkpt lat="46.43968" lon="5.66451">
        <ele>524</ele>
        <time>2019-04-05T02:52:14Z</time>
      </trkpt>
      <trkpt lat="46.43972" lon="5.66456">
        <ele>523</ele>
        <time>2019-04-05T02:53:14Z</time>
      </trkpt>
      <trkpt lat="46.43976" lon="5.66459">
        <ele>523</ele>
        <time>2019-04-05T02:54:14Z</time>
      </trkpt>
      <trkpt lat="46.43983" lon="5.66466">
        <ele>523</ele>
        <time>2019-04-05T02:55:14Z</time>
      </trkpt>
      <trkpt lat="46.43992" lon="5.66471">
        <ele>523</ele>
        <time>2019-04-05T02:56:14Z</time>
      </trkpt>
      <trkpt lat="46.43996" lon="5.66477">
        <ele>523</ele>
        <time>2019-04-05T02:57:14Z</time>
      </trkpt>
      <trkpt lat="46.44001" lon="5.66488">
        <ele>523</ele>
        <time>2019-04-05T02:58:14Z</time>
      </trkpt>
      <trkpt lat="46.44004" lon="5.66501">
        <ele>523</ele>
        <time>2019-04-05T02:59:14Z</time>
      </trkpt>
      <trkpt lat="46.44009" lon="5.6652">
        <ele>524</ele>
        <time>2019-04-05T03:00:14Z</time>
      </trkpt>
      <trkpt lat="46.44014" lon="5.66569">
        <ele>524</ele>
        <time>2019-04-05T03:01:14Z</time>
      </trkpt>
      <trkpt lat="46.44017" lon="5.66587">
        <ele>525</ele>
        <time>2019-04-05T03:02:14Z</time>
      </trkpt>
      <trkpt lat="46.44022" lon="5.66597">
        <ele>526</ele>
        <time>2019-04-05T03:03:14Z</time>
      </trkpt>
      <trkpt lat="46.44033" lon="5.66602">
        <ele>527</ele>
        <time>2019-04-05T03:04:14Z</time>
      </trkpt>
      <trkpt lat="46.44043" lon="5.66598">
        <ele>527</ele>
        <time>2019-04-05T03:05:14Z</time>
      </trkpt>
      <trkpt lat="46.44056" lon="5.66598">
        <ele>527</ele>
        <time>2019-04-05T03:06:14Z</time>
      </trkpt>
      <trkpt lat="46.44063" lon="5.66604">
        <ele>528</ele>
        <time>2019-04-05T03:07:14Z</time>
      </trkpt>
      <trkpt lat="46.44065" lon="5.66617">
        <ele>529</ele>
        <time>2019-04-05T03:08:14Z</time>
      </trkpt>
      <trkpt lat="46.44059" lon="5.66633">
        <ele>529</ele>
        <time>2019-04-05T03:09:14Z</time>
      </trkpt>
      <trkpt lat="46.4405" lon="5.66664">
        <ele>531</ele>
        <time>2019-04-05T03:10:14Z</time>
      </trkpt>
      <trkpt lat="46.44024" lon="5.66713">
        <ele>535</ele>
        <time>2019-04-05T03:11:14Z</time>
      </trkpt>
      <trkpt lat="46.44001" lon="5.66751">
        <ele>538</ele>
        <time>2019-04-05T03:12:14Z</time>
      </trkpt>
      <trkpt lat="46.43988" lon="5.66785">
        <ele>542</ele>
        <time>2019-04-05T03:13:14Z</time>
      </trkpt>
      <trkpt lat="46.43944" lon="5.66837">
        <ele>549</ele>
        <time>2019-04-05T03:14:14Z</time>
      </trkpt>
      <trkpt lat="46.43917" lon="5.66871">
        <ele>553</ele>
        <time>2019-04-05T03:15:14Z</time>
      </trkpt>
      <trkpt lat="46.43872" lon="5.66929">
        <ele>561</ele>
        <time>2019-04-05T03:16:14Z</time>
      </trkpt>
      <trkpt lat="46.43844" lon="5.66961">
        <ele>563</ele>
        <time>2019-04-05T03:17:14Z</time>
      </trkpt>
      <trkpt lat="46.43787" lon="5.67013">
        <ele>568</ele>
        <time>2019-04-05T03:18:14Z</time>
      </trkpt>
      <trkpt lat="46.43758" lon="5.67042">
        <ele>568</ele>
        <time>2019-04-05T03:19:14Z</time>
      </trkpt>
      <trkpt lat="46.43732" lon="5.67074">
        <ele>568</ele>
        <time>2019-04-05T03:20:14Z</time>
      </trkpt>
      <trkpt lat="46.43703" lon="5.67111">
        <ele>569</ele>
        <time>2019-04-05T03:21:14Z</time>
      </trkpt>
      <trkpt lat="46.437" lon="5.67125">
        <ele>568</ele>
        <time>2019-04-05T03:22:14Z</time>
      </trkpt>
      <trkpt lat="46.43702" lon="5.6714">
        <ele>567</ele>
        <time>2019-04-05T03:23:14Z</time>
      </trkpt>
      <trkpt lat="46.43704" lon="5.67169">
        <ele>567</ele>
        <time>2019-04-05T03:24:14Z</time>
      </trkpt>
      <trkpt lat="46.43705" lon="5.67187">
        <ele>570</ele>
        <time>2019-04-05T03:25:14Z</time>
      </trkpt>
      <trkpt lat="46.43709" lon="5.67196">
        <ele>571</ele>
        <time>2019-04-05T03:26:14Z</time>
      </trkpt>
      <trkpt lat="46.43714" lon="5.67202">
        <ele>572</ele>
        <time>2019-04-05T03:27:14Z</time>
      </trkpt>
      <trkpt lat="46.43728" lon="5.67207">
        <ele>573</ele>
        <time>2019-04-05T03:28:14Z</time>
      </trkpt>
      <trkpt lat="46.43763" lon="5.6721">
        <ele>574</ele>
        <time>2019-04-05T03:29:14Z</time>
      </trkpt>
      <trkpt lat="46.43844" lon="5.67217">
        <ele>580</ele>
        <time>2019-04-05T03:30:14Z</time>
      </trkpt>
      <trkpt lat="46.43875" lon="5.67223">
        <ele>583</ele>
        <time>2019-04-05T03:31:14Z</time>
      </trkpt>
      <trkpt lat="46.43892" lon="5.67232">
        <ele>586</ele>
        <time>2019-04-05T03:32:14Z</time>
      </trkpt>
      <trkpt lat="46.43904" lon="5.67224">
        <ele>586</ele>
        <time>2019-04-05T03:33:14Z</time>
      </trkpt>
      <trkpt lat="46.43915" lon="5.67218">
        <ele>586</ele>
        <time>2019-04-05T03:34:14Z</time>
      </trkpt>
      <trkpt lat="46.4394" lon="5.67208">
        <ele>585</ele>
        <time>2019-04-05T03:35:14Z</time>
      </trkpt>
      <trkpt lat="46.43954" lon="5.67204">
        <ele>585</ele>
        <time>2019-04-05T03:36:14Z</time>
      </trkpt>
      <trkpt lat="46.43968" lon="5.672">
        <ele>585</ele>
        <time>2019-04-05T03:37:14Z</time>
      </trkpt>
      <trkpt lat="46.43981" lon="5.67197">
        <ele>585</ele>
        <time>2019-04-05T03:38:14Z</time>
      </trkpt>
      <trkpt lat="46.44041" lon="5.67184">
        <ele>585</ele>
        <time>2019-04-05T03:39:14Z</time>
      </trkpt>
      <trkpt lat="46.44058" lon="5.67181">
        <ele>584</ele>
        <time>2019-04-05T03:40:14Z</time>
      </trkpt>
      <trkpt lat="46.44074" lon="5.67179">
        <ele>584</ele>
        <time>2019-04-05T03:41:14Z</time>
      </trkpt>
      <trkpt lat="46.44116" lon="5.67171">
        <ele>584</ele>
        <time>2019-04-05T03:42:14Z</time>
      </trkpt>
      <trkpt lat="46.44133" lon="5.67168">
        <ele>585</ele>
        <time>2019-04-05T03:43:14Z</time>
      </trkpt>
      <trkpt lat="46.44169" lon="5.6716">
        <ele>586</ele>
        <time>2019-04-05T03:44:14Z</time>
      </trkpt>
      <trkpt lat="46.44181" lon="5.67158">
        <ele>586</ele>
        <time>2019-04-05T03:45:14Z</time>
      </trkpt>
      <trkpt lat="46.4419" lon="5.67157">
        <ele>587</ele>
        <time>2019-04-05T03:46:14Z</time>
      </trkpt>
      <trkpt lat="46.442" lon="5.67159">
        <ele>588</ele>
        <time>2019-04-05T03:47:14Z</time>
      </trkpt>
      <trkpt lat="46.44208" lon="5.67163">
        <ele>589</ele>
        <time>2019-04-05T03:48:14Z</time>
      </trkpt>
      <trkpt lat="46.44217" lon="5.67165">
        <ele>590</ele>
        <time>2019-04-05T03:49:14Z</time>
      </trkpt>
      <trkpt lat="46.4424" lon="5.67163">
        <ele>592</ele>
        <time>2019-04-05T03:50:14Z</time>
      </trkpt>
      <trkpt lat="46.44252" lon="5.67162">
        <ele>593</ele>
        <time>2019-04-05T03:51:14Z</time>
      </trkpt>
      <trkpt lat="46.44262" lon="5.6716">
        <ele>594</ele>
        <time>2019-04-05T03:52:14Z</time>
      </trkpt>
      <trkpt lat="46.44272" lon="5.67152">
        <ele>594</ele>
        <time>2019-04-05T03:53:14Z</time>
      </trkpt>
      <trkpt lat="46.44269" lon="5.67165">
        <ele>595</ele>
        <time>2019-04-05T03:54:14Z</time>
      </trkpt>
      <trkpt lat="46.44269" lon="5.67177">
        <ele>597</ele>
        <time>2019-04-05T03:55:14Z</time>
      </trkpt>
      <trkpt lat="46.44267" lon="5.67184">
        <ele>598</ele>
        <time>2019-04-05T03:56:14Z</time>
      </trkpt>
      <trkpt lat="46.44244" lon="5.67255">
        <ele>606</ele>
        <time>2019-04-05T03:57:14Z</time>
      </trkpt>
      <trkpt lat="46.44242" lon="5.67262">
        <ele>607</ele>
        <time>2019-04-05T03:58:14Z</time>
      </trkpt>
      <trkpt lat="46.44252" lon="5.67264">
        <ele>608</ele>
        <time>2019-04-05T03:59:14Z</time>
      </trkpt>
      <trkpt lat="46.44261" lon="5.67266">
        <ele>609</ele>
        <time>2019-04-05T04:00:14Z</time>
      </trkpt>
      <trkpt lat="46.44267" lon="5.67268">
        <ele>610</ele>
        <time>2019-04-05T04:01:14Z</time>
      </trkpt>
      <trkpt lat="46.44274" lon="5.6727">
        <ele>610</ele>
        <time>2019-04-05T04:02:14Z</time>
      </trkpt>
      <trkpt lat="46.44279" lon="5.67276">
        <ele>611</ele>
        <time>2019-04-05T04:03:14Z</time>
      </trkpt>
      <trkpt lat="46.44283" lon="5.67284">
        <ele>612</ele>
        <time>2019-04-05T04:04:14Z</time>
      </trkpt>
      <trkpt lat="46.44289" lon="5.67289">
        <ele>613</ele>
        <time>2019-04-05T04:05:14Z</time>
      </trkpt>
      <trkpt lat="46.44297" lon="5.67299">
        <ele>614</ele>
        <time>2019-04-05T04:06:14Z</time>
      </trkpt>
      <trkpt lat="46.44303" lon="5.67309">
        <ele>614</ele>
        <time>2019-04-05T04:07:14Z</time>
      </trkpt>
      <trkpt lat="46.4431" lon="5.67321">
        <ele>615</ele>
        <time>2019-04-05T04:08:14Z</time>
      </trkpt>
      <trkpt lat="46.44316" lon="5.67336">
        <ele>615</ele>
        <time>2019-04-05T04:09:14Z</time>
      </trkpt>
      <trkpt lat="46.44318" lon="5.67349">
        <ele>616</ele>
        <time>2019-04-05T04:10:14Z</time>
      </trkpt>
      <trkpt lat="46.44321" lon="5.67358">
        <ele>616</ele>
        <time>2019-04-05T04:11:14Z</time>
      </trkpt>
      <trkpt lat="46.44328" lon="5.67366">
        <ele>615</ele>
        <time>2019-04-05T04:12:14Z</time>
      </trkpt>
      <trkpt lat="46.44345" lon="5.67383">
        <ele>614</ele>
        <time>2019-04-05T04:13:14Z</time>
      </trkpt>
      <trkpt lat="46.44354" lon="5.67393">
        <ele>613</ele>
        <time>2019-04-05T04:14:14Z</time>
      </trkpt>
      <trkpt lat="46.44365" lon="5.67404">
        <ele>612</ele>
        <time>2019-04-05T04:15:14Z</time>
      </trkpt>
      <trkpt lat="46.44377" lon="5.67413">
        <ele>611</ele>
        <time>2019-04-05T04:16:14Z</time>
      </trkpt>
      <trkpt lat="46.44385" lon="5.67421">
        <ele>610</ele>
        <time>2019-04-05T04:17:14Z</time>
      </trkpt>
      <trkpt lat="46.44389" lon="5.6743">
        <ele>610</ele>
        <time>2019-04-05T04:18:14Z</time>
      </trkpt>
      <trkpt lat="46.44394" lon="5.67443">
        <ele>609</ele>
        <time>2019-04-05T04:19:14Z</time>
      </trkpt>
      <trkpt lat="46.44399" lon="5.67455">
        <ele>609</ele>
        <time>2019-04-05T04:20:14Z</time>
      </trkpt>
      <trkpt lat="46.44413" lon="5.67496">
        <ele>607</ele>
        <time>2019-04-05T04:21:14Z</time>
      </trkpt>
      <trkpt lat="46.4442" lon="5.67506">
        <ele>606</ele>
        <time>2019-04-05T04:22:14Z</time>
      </trkpt>
      <trkpt lat="46.44428" lon="5.6749">
        <ele>607</ele>
        <time>2019-04-05T04:23:14Z</time>
      </trkpt>
      <trkpt lat="46.44434" lon="5.67474">
        <ele>607</ele>
        <time>2019-04-05T04:24:14Z</time>
      </trkpt>
      <trkpt lat="46.44441" lon="5.67459">
        <ele>607</ele>
        <time>2019-04-05T04:25:14Z</time>
      </trkpt>
      <trkpt lat="46.44467" lon="5.67408">
        <ele>608</ele>
        <time>2019-04-05T04:26:14Z</time>
      </trkpt>
      <trkpt lat="46.44475" lon="5.6739">
        <ele>608</ele>
        <time>2019-04-05T04:27:14Z</time>
      </trkpt>
      <trkpt lat="46.44486" lon="5.67373">
        <ele>607</ele>
        <time>2019-04-05T04:28:14Z</time>
      </trkpt>
      <trkpt lat="46.44498" lon="5.67357">
        <ele>606</ele>
        <time>2019-04-05T04:29:14Z</time>
      </trkpt>
      <trkpt lat="46.44511" lon="5.67341">
        <ele>606</ele>
        <time>2019-04-05T04:30:14Z</time>
      </trkpt>
      <trkpt lat="46.44525" lon="5.67325">
        <ele>607</ele>
        <time>2019-04-05T04:31:14Z</time>
      </trkpt>
      <trkpt lat="46.44535" lon="5.67311">
        <ele>607</ele>
        <time>2019-04-05T04:32:14Z</time>
      </trkpt>
      <trkpt lat="46.44555" lon="5.67283">
        <ele>607</ele>
        <time>2019-04-05T04:33:14Z</time>
      </trkpt>
      <trkpt lat="46.44563" lon="5.67272">
        <ele>606</ele>
        <time>2019-04-05T04:34:14Z</time>
      </trkpt>
      <trkpt lat="46.44567" lon="5.6726">
        <ele>605</ele>
        <time>2019-04-05T04:35:14Z</time>
      </trkpt>
      <trkpt lat="46.44569" lon="5.67246">
        <ele>604</ele>
        <time>2019-04-05T04:36:14Z</time>
      </trkpt>
      <trkpt lat="46.44573" lon="5.67226">
        <ele>603</ele>
        <time>2019-04-05T04:37:14Z</time>
      </trkpt>
      <trkpt lat="46.446" lon="5.67165">
        <ele>597</ele>
        <time>2019-04-05T04:38:14Z</time>
      </trkpt>
      <trkpt lat="46.44606" lon="5.67149">
        <ele>597</ele>
        <time>2019-04-05T04:39:14Z</time>
      </trkpt>
      <trkpt lat="46.44615" lon="5.67171">
        <ele>598</ele>
        <time>2019-04-05T04:40:14Z</time>
      </trkpt>
      <trkpt lat="46.44634" lon="5.67186">
        <ele>600</ele>
        <time>2019-04-05T04:41:14Z</time>
      </trkpt>
      <trkpt lat="46.44654" lon="5.67187">
        <ele>600</ele>
        <time>2019-04-05T04:42:14Z</time>
      </trkpt>
      <trkpt lat="46.44679" lon="5.67156">
        <ele>598</ele>
        <time>2019-04-05T04:43:14Z</time>
      </trkpt>
      <trkpt lat="46.447" lon="5.67143">
        <ele>598</ele>
        <time>2019-04-05T04:44:14Z</time>
      </trkpt>
      <trkpt lat="46.4473" lon="5.67126">
        <ele>598</ele>
        <time>2019-04-05T04:45:14Z</time>
      </trkpt>
      <trkpt lat="46.44772" lon="5.67124">
        <ele>599</ele>
        <time>2019-04-05T04:46:14Z</time>
      </trkpt>
      <trkpt lat="46.44845" lon="5.67106">
        <ele>597</ele>
        <time>2019-04-05T04:47:14Z</time>
      </trkpt>
      <trkpt lat="46.44862" lon="5.67107">
        <ele>596</ele>
        <time>2019-04-05T04:48:14Z</time>
      </trkpt>
      <trkpt lat="46.4491" lon="5.67137">
        <ele>598</ele>
        <time>2019-04-05T04:49:14Z</time>
      </trkpt>
      <trkpt lat="46.44946" lon="5.67127">
        <ele>597</ele>
        <time>2019-04-05T04:50:14Z</time>
      </trkpt>
      <trkpt lat="46.44976" lon="5.67129">
        <ele>599</ele>
        <time>2019-04-05T04:51:14Z</time>
      </trkpt>
      <trkpt lat="46.45012" lon="5.67135">
        <ele>601</ele>
        <time>2019-04-05T04:52:14Z</time>
      </trkpt>
      <trkpt lat="46.45033" lon="5.67124">
        <ele>601</ele>
        <time>2019-04-05T04:53:14Z</time>
      </trkpt>
      <trkpt lat="46.45046" lon="5.67087">
        <ele>600</ele>
        <time>2019-04-05T04:54:14Z</time>
      </trkpt>
      <trkpt lat="46.45064" lon="5.67046">
        <ele>598</ele>
        <time>2019-04-05T04:55:14Z</time>
      </trkpt>
      <trkpt lat="46.45079" lon="5.67013">
        <ele>597</ele>
        <time>2019-04-05T04:56:14Z</time>
      </trkpt>
      <trkpt lat="46.45089" lon="5.66996">
        <ele>596</ele>
        <time>2019-04-05T04:57:14Z</time>
      </trkpt>
      <trkpt lat="46.45105" lon="5.66971">
        <ele>596</ele>
        <time>2019-04-05T04:58:14Z</time>
      </trkpt>
      <trkpt lat="46.4512" lon="5.6693">
        <ele>594</ele>
        <time>2019-04-05T04:59:14Z</time>
      </trkpt>
      <trkpt lat="46.45128" lon="5.66909">
        <ele>594</ele>
        <time>2019-04-05T05:00:14Z</time>
      </trkpt>
      <trkpt lat="46.45139" lon="5.66885">
        <ele>594</ele>
        <time>2019-04-05T05:01:14Z</time>
      </trkpt>
      <trkpt lat="46.45146" lon="5.66867">
        <ele>594</ele>
        <time>2019-04-05T05:02:14Z</time>
      </trkpt>
      <trkpt lat="46.45157" lon="5.66848">
        <ele>594</ele>
        <time>2019-04-05T05:03:14Z</time>
      </trkpt>
      <trkpt lat="46.45171" lon="5.66834">
        <ele>593</ele>
        <time>2019-04-05T05:04:14Z</time>
      </trkpt>
      <trkpt lat="46.45182" lon="5.66822">
        <ele>594</ele>
        <time>2019-04-05T05:05:14Z</time>
      </trkpt>
      <trkpt lat="46.45193" lon="5.66806">
        <ele>595</ele>
        <time>2019-04-05T05:06:14Z</time>
      </trkpt>
      <trkpt lat="46.45205" lon="5.66792">
        <ele>595</ele>
        <time>2019-04-05T05:07:14Z</time>
      </trkpt>
      <trkpt lat="46.4522" lon="5.6678">
        <ele>595</ele>
        <time>2019-04-05T05:08:14Z</time>
      </trkpt>
      <trkpt lat="46.45238" lon="5.66768">
        <ele>594</ele>
        <time>2019-04-05T05:09:14Z</time>
      </trkpt>
      <trkpt lat="46.45264" lon="5.66774">
        <ele>595</ele>
        <time>2019-04-05T05:10:14Z</time>
      </trkpt>
      <trkpt lat="46.45284" lon="5.66783">
        <ele>598</ele>
        <time>2019-04-05T05:11:14Z</time>
      </trkpt>
      <trkpt lat="46.45306" lon="5.66814">
        <ele>603</ele>
        <time>2019-04-05T05:12:14Z</time>
      </trkpt>
      <trkpt lat="46.45327" lon="5.66859">
        <ele>607</ele>
        <time>2019-04-05T05:13:14Z</time>
      </trkpt>
      <trkpt lat="46.45334" lon="5.66854">
        <ele>608</ele>
        <time>2019-04-05T05:14:14Z</time>
      </trkpt>
      <trkpt lat="46.45343" lon="5.66852">
        <ele>608</ele>
        <time>2019-04-05T05:15:14Z</time>
      </trkpt>
      <trkpt lat="46.45351" lon="5.66854">
        <ele>608</ele>
        <time>2019-04-05T05:16:14Z</time>
      </trkpt>
      <trkpt lat="46.45363" lon="5.66862">
        <ele>609</ele>
        <time>2019-04-05T05:17:14Z</time>
      </trkpt>
      <trkpt lat="46.45373" lon="5.66881">
        <ele>609</ele>
        <time>2019-04-05T05:18:14Z</time>
      </trkpt>
      <trkpt lat="46.45379" lon="5.66902">
        <ele>609</ele>
        <time>2019-04-05T05:19:14Z</time>
      </trkpt>
      <trkpt lat="46.45382" lon="5.66909">
        <ele>609</ele>
        <time>2019-04-05T05:20:14Z</time>
      </trkpt>
      <trkpt lat="46.45388" lon="5.6692">
        <ele>609</ele>
        <time>2019-04-05T05:21:14Z</time>
      </trkpt>
      <trkpt lat="46.45395" lon="5.66928">
        <ele>609</ele>
        <time>2019-04-05T05:22:14Z</time>
      </trkpt>
      <trkpt lat="46.45408" lon="5.66932">
        <ele>609</ele>
        <time>2019-04-05T05:23:14Z</time>
      </trkpt>
      <trkpt lat="46.45428" lon="5.66929">
        <ele>610</ele>
        <time>2019-04-05T05:24:14Z</time>
      </trkpt>
      <trkpt lat="46.45455" lon="5.66925">
        <ele>611</ele>
        <time>2019-04-05T05:25:14Z</time>
      </trkpt>
      <trkpt lat="46.45471" lon="5.6692">
        <ele>612</ele>
        <time>2019-04-05T05:26:14Z</time>
      </trkpt>
      <trkpt lat="46.4549" lon="5.66909">
        <ele>614</ele>
        <time>2019-04-05T05:27:14Z</time>
      </trkpt>
      <trkpt lat="46.45509" lon="5.66903">
        <ele>614</ele>
        <time>2019-04-05T05:28:14Z</time>
      </trkpt>
      <trkpt lat="46.45537" lon="5.66886">
        <ele>615</ele>
        <time>2019-04-05T05:29:14Z</time>
      </trkpt>
      <trkpt lat="46.45568" lon="5.66861">
        <ele>616</ele>
        <time>2019-04-05T05:30:14Z</time>
      </trkpt>
      <trkpt lat="46.45593" lon="5.66835">
        <ele>618</ele>
        <time>2019-04-05T05:31:14Z</time>
      </trkpt>
      <trkpt lat="46.45614" lon="5.66862">
        <ele>619</ele>
        <time>2019-04-05T05:32:14Z</time>
      </trkpt>
      <trkpt lat="46.45623" lon="5.66887">
        <ele>619</ele>
        <time>2019-04-05T05:33:14Z</time>
      </trkpt>
      <trkpt lat="46.45635" lon="5.66924">
        <ele>619</ele>
        <time>2019-04-05T05:34:14Z</time>
      </trkpt>
      <trkpt lat="46.45646" lon="5.66963">
        <ele>619</ele>
        <time>2019-04-05T05:35:14Z</time>
      </trkpt>
      <trkpt lat="46.45652" lon="5.6698">
        <ele>619</ele>
        <time>2019-04-05T05:36:14Z</time>
      </trkpt>
      <trkpt lat="46.45646" lon="5.6699">
        <ele>618</ele>
        <time>2019-04-05T05:37:14Z</time>
      </trkpt>
      <trkpt lat="46.45645" lon="5.67007">
        <ele>618</ele>
        <time>2019-04-05T05:38:14Z</time>
      </trkpt>
      <trkpt lat="46.45647" lon="5.67022">
        <ele>618</ele>
        <time>2019-04-05T05:39:14Z</time>
      </trkpt>
      <trkpt lat="46.45651" lon="5.67042">
        <ele>618</ele>
        <time>2019-04-05T05:40:14Z</time>
      </trkpt>
      <trkpt lat="46.45651" lon="5.67076">
        <ele>617</ele>
        <time>2019-04-05T05:41:14Z</time>
      </trkpt>
      <trkpt lat="46.45655" lon="5.67102">
        <ele>616</ele>
        <time>2019-04-05T05:42:14Z</time>
      </trkpt>
      <trkpt lat="46.45656" lon="5.67124">
        <ele>615</ele>
        <time>2019-04-05T05:43:14Z</time>
      </trkpt>
      <trkpt lat="46.45658" lon="5.67168">
        <ele>612</ele>
        <time>2019-04-05T05:44:14Z</time>
      </trkpt>
      <trkpt lat="46.45662" lon="5.67218">
        <ele>596</ele>
        <time>2019-04-05T05:45:14Z</time>
      </trkpt>
      <trkpt lat="46.45661" lon="5.67228">
        <ele>593</ele>
        <time>2019-04-05T05:46:14Z</time>
      </trkpt>
      <trkpt lat="46.45655" lon="5.6724">
        <ele>592</ele>
        <time>2019-04-05T05:47:14Z</time>
      </trkpt>
      <trkpt lat="46.45587" lon="5.67307">
        <ele>601</ele>
        <time>2019-04-05T05:48:14Z</time>
      </trkpt>
      <trkpt lat="46.45576" lon="5.67322">
        <ele>601</ele>
        <time>2019-04-05T05:49:14Z</time>
      </trkpt>
      <trkpt lat="46.45564" lon="5.67365">
        <ele>595</ele>
        <time>2019-04-05T05:50:14Z</time>
      </trkpt>
      <trkpt lat="46.45554" lon="5.67384">
        <ele>593</ele>
        <time>2019-04-05T05:51:14Z</time>
      </trkpt>
      <trkpt lat="46.45543" lon="5.67396">
        <ele>593</ele>
        <time>2019-04-05T05:52:14Z</time>
      </trkpt>
      <trkpt lat="46.45527" lon="5.67399">
        <ele>596</ele>
        <time>2019-04-05T05:53:14Z</time>
      </trkpt>
      <trkpt lat="46.45515" lon="5.67398">
        <ele>599</ele>
        <time>2019-04-05T05:54:14Z</time>
      </trkpt>
      <trkpt lat="46.45482" lon="5.67404">
        <ele>603</ele>
        <time>2019-04-05T05:55:14Z</time>
      </trkpt>
      <trkpt lat="46.45448" lon="5.67422">
        <ele>602</ele>
        <time>2019-04-05T05:56:14Z</time>
      </trkpt>
      <trkpt lat="46.45358" lon="5.67459">
        <ele>598</ele>
        <time>2019-04-05T05:57:14Z</time>
      </trkpt>
      <trkpt lat="46.45291" lon="5.67488">
        <ele>597</ele>
        <time>2019-04-05T05:58:14Z</time>
      </trkpt>
      <trkpt lat="46.45234" lon="5.67522">
        <ele>595</ele>
        <time>2019-04-05T05:59:14Z</time>
      </trkpt>
      <trkpt lat="46.45188" lon="5.67545">
        <ele>593</ele>
        <time>2019-04-05T06:00:14Z</time>
      </trkpt>
      <trkpt lat="46.45176" lon="5.6756">
        <ele>591</ele>
        <time>2019-04-05T06:01:14Z</time>
      </trkpt>
      <trkpt lat="46.4516" lon="5.67576">
        <ele>589</ele>
        <time>2019-04-05T06:02:14Z</time>
      </trkpt>
      <trkpt lat="46.45154" lon="5.67601">
        <ele>585</ele>
        <time>2019-04-05T06:03:14Z</time>
      </trkpt>
      <trkpt lat="46.45156" lon="5.6763">
        <ele>579</ele>
        <time>2019-04-05T06:04:14Z</time>
      </trkpt>
      <trkpt lat="46.45199" lon="5.67684">
        <ele>569</ele>
        <time>2019-04-05T06:05:14Z</time>
      </trkpt>
      <trkpt lat="46.45238" lon="5.67712">
        <ele>563</ele>
        <time>2019-04-05T06:06:14Z</time>
      </trkpt>
      <trkpt lat="46.45249" lon="5.67722">
        <ele>562</ele>
        <time>2019-04-05T06:07:14Z</time>
      </trkpt>
      <trkpt lat="46.45265" lon="5.67744">
        <ele>559</ele>
        <time>2019-04-05T06:08:14Z</time>
      </trkpt>
      <trkpt lat="46.45269" lon="5.67753">
        <ele>558</ele>
        <time>2019-04-05T06:09:14Z</time>
      </trkpt>
      <trkpt lat="46.4527" lon="5.67758">
        <ele>557</ele>
        <time>2019-04-05T06:10:14Z</time>
      </trkpt>
      <trkpt lat="46.4527" lon="5.67768">
        <ele>556</ele>
        <time>2019-04-05T06:11:14Z</time>
      </trkpt>
      <trkpt lat="46.45268" lon="5.67773">
        <ele>556</ele>
        <time>2019-04-05T06:12:14Z</time>
      </trkpt>
      <trkpt lat="46.45252" lon="5.67794">
        <ele>555</ele>
        <time>2019-04-05T06:13:14Z</time>
      </trkpt>
      <trkpt lat="46.45242" lon="5.67815">
        <ele>554</ele>
        <time>2019-04-05T06:14:14Z</time>
      </trkpt>
      <trkpt lat="46.45232" lon="5.67836">
        <ele>553</ele>
        <time>2019-04-05T06:15:14Z</time>
      </trkpt>
      <trkpt lat="46.45218" lon="5.67862">
        <ele>552</ele>
        <time>2019-04-05T06:16:14Z</time>
      </trkpt>
      <trkpt lat="46.45217" lon="5.67872">
        <ele>551</ele>
        <time>2019-04-05T06:17:14Z</time>
      </trkpt>
      <trkpt lat="46.45221" lon="5.67879">
        <ele>550</ele>
        <time>2019-04-05T06:18:14Z</time>
      </trkpt>
      <trkpt lat="46.45228" lon="5.67879">
        <ele>550</ele>
        <time>2019-04-05T06:19:14Z</time>
      </trkpt>
      <trkpt lat="46.45245" lon="5.67867">
        <ele>549</ele>
        <time>2019-04-05T06:20:14Z</time>
      </trkpt>
      <trkpt lat="46.45252" lon="5.67866">
        <ele>549</ele>
        <time>2019-04-05T06:21:14Z</time>
      </trkpt>
      <trkpt lat="46.45261" lon="5.67872">
        <ele>549</ele>
        <time>2019-04-05T06:22:14Z</time>
      </trkpt>
      <trkpt lat="46.45267" lon="5.67873">
        <ele>549</ele>
        <time>2019-04-05T06:23:14Z</time>
      </trkpt>
      <trkpt lat="46.45271" lon="5.67877">
        <ele>549</ele>
        <time>2019-04-05T06:24:14Z</time>
      </trkpt>
      <trkpt lat="46.45285" lon="5.67915">
        <ele>548</ele>
        <time>2019-04-05T06:25:14Z</time>
      </trkpt>
      <trkpt lat="46.45289" lon="5.67921">
        <ele>548</ele>
        <time>2019-04-05T06:26:14Z</time>
      </trkpt>
      <trkpt lat="46.45309" lon="5.67953">
        <ele>550</ele>
        <time>2019-04-05T06:27:14Z</time>
      </trkpt>
      <trkpt lat="46.45312" lon="5.67974">
        <ele>552</ele>
        <time>2019-04-05T06:28:14Z</time>
      </trkpt>
      <trkpt lat="46.45309" lon="5.67988">
        <ele>552</ele>
        <time>2019-04-05T06:29:14Z</time>
      </trkpt>
      <trkpt lat="46.45299" lon="5.68">
        <ele>552</ele>
        <time>2019-04-05T06:30:14Z</time>
      </trkpt>
      <trkpt lat="46.45273" lon="5.68021">
        <ele>552</ele>
        <time>2019-04-05T06:31:14Z</time>
      </trkpt>
      <trkpt lat="46.45267" lon="5.68029">
        <ele>552</ele>
        <time>2019-04-05T06:32:14Z</time>
      </trkpt>
      <trkpt lat="46.45265" lon="5.68043">
        <ele>552</ele>
        <time>2019-04-05T06:33:14Z</time>
      </trkpt>
      <trkpt lat="46.45264" lon="5.68057">
        <ele>553</ele>
        <time>2019-04-05T06:34:14Z</time>
      </trkpt>
      <trkpt lat="46.4526" lon="5.68071">
        <ele>554</ele>
        <time>2019-04-05T06:35:14Z</time>
      </trkpt>
      <trkpt lat="46.45248" lon="5.6809">
        <ele>554</ele>
        <time>2019-04-05T06:36:14Z</time>
      </trkpt>
      <trkpt lat="46.45238" lon="5.68113">
        <ele>553</ele>
        <time>2019-04-05T06:37:14Z</time>
      </trkpt>
      <trkpt lat="46.45229" lon="5.68136">
        <ele>552</ele>
        <time>2019-04-05T06:38:14Z</time>
      </trkpt>
      <trkpt lat="46.45207" lon="5.68159">
        <ele>551</ele>
        <time>2019-04-05T06:39:14Z</time>
      </trkpt>
      <trkpt lat="46.4517" lon="5.68203">
        <ele>548</ele>
        <time>2019-04-05T06:40:14Z</time>
      </trkpt>
      <trkpt lat="46.45161" lon="5.6822">
        <ele>547</ele>
        <time>2019-04-05T06:41:14Z</time>
      </trkpt>
      <trkpt lat="46.45156" lon="5.68233">
        <ele>546</ele>
        <time>2019-04-05T06:42:14Z</time>
      </trkpt>
      <trkpt lat="46.45152" lon="5.68238">
        <ele>546</ele>
        <time>2019-04-05T06:43:14Z</time>
      </trkpt>
      <trkpt lat="46.45155" lon="5.68277">
        <ele>544</ele>
        <time>2019-04-05T06:44:14Z</time>
      </trkpt>
      <trkpt lat="46.45194" lon="5.68288">
        <ele>543</ele>
        <time>2019-04-05T06:45:14Z</time>
      </trkpt>
      <trkpt lat="46.45228" lon="5.68302">
        <ele>541</ele>
        <time>2019-04-05T06:46:14Z</time>
      </trkpt>
      <trkpt lat="46.45269" lon="5.68305">
        <ele>541</ele>
        <time>2019-04-05T06:47:14Z</time>
      </trkpt>
      <trkpt lat="46.45299" lon="5.68292">
        <ele>542</ele>
        <time>2019-04-05T06:48:14Z</time>
      </trkpt>
      <trkpt lat="46.45323" lon="5.6831">
        <ele>539</ele>
        <time>2019-04-05T06:49:14Z</time>
      </trkpt>
      <trkpt lat="46.45338" lon="5.6833">
        <ele>533</ele>
        <time>2019-04-05T06:50:14Z</time>
      </trkpt>
      <trkpt lat="46.45334" lon="5.68427">
        <ele>529</ele>
        <time>2019-04-05T06:51:14Z</time>
      </trkpt>
      <trkpt lat="46.45327" lon="5.68455">
        <ele>530</ele>
        <time>2019-04-05T06:52:14Z</time>
      </trkpt>
      <trkpt lat="46.45288" lon="5.68482">
        <ele>534</ele>
        <time>2019-04-05T06:53:14Z</time>
      </trkpt>
      <trkpt lat="46.45248" lon="5.68593">
        <ele>539</ele>
        <time>2019-04-05T06:54:14Z</time>
      </trkpt>
      <trkpt lat="46.45239" lon="5.68677">
        <ele>537</ele>
        <time>2019-04-05T06:55:14Z</time>
      </trkpt>
      <trkpt lat="46.45232" lon="5.68687">
        <ele>537</ele>
        <time>2019-04-05T06:56:14Z</time>
      </trkpt>
      <trkpt lat="46.45205" lon="5.68741">
        <ele>535</ele>
        <time>2019-04-05T06:57:14Z</time>
      </trkpt>
      <trkpt lat="46.45198" lon="5.68778">
        <ele>534</ele>
        <time>2019-04-05T06:58:14Z</time>
      </trkpt>
      <trkpt lat="46.45213" lon="5.68781">
        <ele>533</ele>
        <time>2019-04-05T06:59:14Z</time>
      </trkpt>
      <trkpt lat="46.45247" lon="5.6875">
        <ele>532</ele>
        <time>2019-04-05T07:00:14Z</time>
      </trkpt>
      <trkpt lat="46.45293" lon="5.68701">
        <ele>530</ele>
        <time>2019-04-05T07:01:14Z</time>
      </trkpt>
      <trkpt lat="46.45322" lon="5.68699">
        <ele>526</ele>
        <time>2019-04-05T07:02:14Z</time>
      </trkpt>
      <trkpt lat="46.45338" lon="5.68671">
        <ele>523</ele>
        <time>2019-04-05T07:03:14Z</time>
      </trkpt>
      <trkpt lat="46.45353" lon="5.68612">
        <ele>516</ele>
        <time>2019-04-05T07:04:14Z</time>
      </trkpt>
      <trkpt lat="46.45379" lon="5.68514">
        <ele>503</ele>
        <time>2019-04-05T07:05:14Z</time>
      </trkpt>
      <trkpt lat="46.45405" lon="5.68437">
        <ele>493</ele>
        <time>2019-04-05T07:06:14Z</time>
      </trkpt>
      <trkpt lat="46.45441" lon="5.68388">
        <ele>482</ele>
        <time>2019-04-05T07:07:14Z</time>
      </trkpt>
      <trkpt lat="46.45468" lon="5.68375">
        <ele>473</ele>
        <time>2019-04-05T07:08:14Z</time>
      </trkpt>
      <trkpt lat="46.45471" lon="5.6835">
        <ele>474</ele>
        <time>2019-04-05T07:09:14Z</time>
      </trkpt>
      <trkpt lat="46.45493" lon="5.68323">
        <ele>468</ele>
        <time>2019-04-05T07:10:14Z</time>
      </trkpt>
      <trkpt lat="46.45517" lon="5.6827">
        <ele>465</ele>
        <time>2019-04-05T07:11:14Z</time>
      </trkpt>
      <trkpt lat="46.45525" lon="5.68236">
        <ele>465</ele>
        <time>2019-04-05T07:12:14Z</time>
      </trkpt>
      <trkpt lat="46.45528" lon="5.68199">
        <ele>467</ele>
        <time>2019-04-05T07:13:14Z</time>
      </trkpt>
      <trkpt lat="46.45534" lon="5.68194">
        <ele>465</ele>
        <time>2019-04-05T07:14:14Z</time>
      </trkpt>
      <trkpt lat="46.45571" lon="5.68071">
        <ele>461</ele>
        <time>2019-04-05T07:15:14Z</time>
      </trkpt>
      <trkpt lat="46.45578" lon="5.68047">
        <ele>460</ele>
        <time>2019-04-05T07:16:14Z</time>
      </trkpt>
      <trkpt lat="46.45586" lon="5.68023">
        <ele>459</ele>
        <time>2019-04-05T07:17:14Z</time>
      </trkpt>
      <trkpt lat="46.45591" lon="5.68007">
        <ele>459</ele>
        <time>2019-04-05T07:18:14Z</time>
      </trkpt>
      <trkpt lat="46.45597" lon="5.67995">
        <ele>459</ele>
        <time>2019-04-05T07:19:14Z</time>
      </trkpt>
      <trkpt lat="46.45603" lon="5.67984">
        <ele>459</ele>
        <time>2019-04-05T07:20:14Z</time>
      </trkpt>
      <trkpt lat="46.45612" lon="5.67972">
        <ele>458</ele>
        <time>2019-04-05T07:21:14Z</time>
      </trkpt>
      <trkpt lat="46.45642" lon="5.67939">
        <ele>452</ele>
        <time>2019-04-05T07:22:14Z</time>
      </trkpt>
      <trkpt lat="46.4565" lon="5.67931">
        <ele>449</ele>
        <time>2019-04-05T07:23:14Z</time>
      </trkpt>
      <trkpt lat="46.45657" lon="5.67918">
        <ele>447</ele>
        <time>2019-04-05T07:24:14Z</time>
      </trkpt>
      <trkpt lat="46.45664" lon="5.67906">
        <ele>446</ele>
        <time>2019-04-05T07:25:14Z</time>
      </trkpt>
      <trkpt lat="46.45667" lon="5.67893">
        <ele>446</ele>
        <time>2019-04-05T07:26:14Z</time>
      </trkpt>
      <trkpt lat="46.45673" lon="5.67867">
        <ele>448</ele>
        <time>2019-04-05T07:27:14Z</time>
      </trkpt>
      <trkpt lat="46.45681" lon="5.67835">
        <ele>450</ele>
        <time>2019-04-05T07:28:14Z</time>
      </trkpt>
      <trkpt lat="46.45689" lon="5.67807">
        <ele>452</ele>
        <time>2019-04-05T07:29:14Z</time>
      </trkpt>
      <trkpt lat="46.45693" lon="5.67786">
        <ele>454</ele>
        <time>2019-04-05T07:30:14Z</time>
      </trkpt>
      <trkpt lat="46.45693" lon="5.67758">
        <ele>459</ele>
        <time>2019-04-05T07:31:14Z</time>
      </trkpt>
      <trkpt lat="46.45694" lon="5.67735">
        <ele>462</ele>
        <time>2019-04-05T07:32:14Z</time>
      </trkpt>
      <trkpt lat="46.45697" lon="5.67721">
        <ele>462</ele>
        <time>2019-04-05T07:33:14Z</time>
      </trkpt>
      <trkpt lat="46.45702" lon="5.67706">
        <ele>462</ele>
        <time>2019-04-05T07:34:14Z</time>
      </trkpt>
      <trkpt lat="46.45716" lon="5.67678">
        <ele>460</ele>
        <time>2019-04-05T07:35:14Z</time>
      </trkpt>
      <trkpt lat="46.45725" lon="5.67663">
        <ele>459</ele>
        <time>2019-04-05T07:36:14Z</time>
      </trkpt>
      <trkpt lat="46.45734" lon="5.67648">
        <ele>458</ele>
        <time>2019-04-05T07:37:14Z</time>
      </trkpt>
      <trkpt lat="46.45825" lon="5.67559">
        <ele>449</ele>
        <time>2019-04-05T07:38:14Z</time>
      </trkpt>
      <trkpt lat="46.45844" lon="5.67541">
        <ele>449</ele>
        <time>2019-04-05T07:39:14Z</time>
      </trkpt>
      <trkpt lat="46.45856" lon="5.67529">
        <ele>450</ele>
        <time>2019-04-05T07:40:14Z</time>
      </trkpt>
      <trkpt lat="46.4587" lon="5.67511">
        <ele>450</ele>
        <time>2019-04-05T07:41:14Z</time>
      </trkpt>
      <trkpt lat="46.45886" lon="5.67495">
        <ele>450</ele>
        <time>2019-04-05T07:42:14Z</time>
      </trkpt>
      <trkpt lat="46.45902" lon="5.67479">
        <ele>450</ele>
        <time>2019-04-05T07:43:14Z</time>
      </trkpt>
      <trkpt lat="46.45954" lon="5.67418">
        <ele>455</ele>
        <time>2019-04-05T07:44:14Z</time>
      </trkpt>
      <trkpt lat="46.45967" lon="5.67407">
        <ele>455</ele>
        <time>2019-04-05T07:45:14Z</time>
      </trkpt>
      <trkpt lat="46.4598" lon="5.67401">
        <ele>455</ele>
        <time>2019-04-05T07:46:14Z</time>
      </trkpt>
      <trkpt lat="46.45989" lon="5.67399">
        <ele>454</ele>
        <time>2019-04-05T07:47:14Z</time>
      </trkpt>
      <trkpt lat="46.45998" lon="5.67397">
        <ele>453</ele>
        <time>2019-04-05T07:48:14Z</time>
      </trkpt>
      <trkpt lat="46.46014" lon="5.67396">
        <ele>452</ele>
        <time>2019-04-05T07:49:14Z</time>
      </trkpt>
      <trkpt lat="46.46025" lon="5.67394">
        <ele>451</ele>
        <time>2019-04-05T07:50:14Z</time>
      </trkpt>
      <trkpt lat="46.46035" lon="5.67389">
        <ele>451</ele>
        <time>2019-04-05T07:51:14Z</time>
      </trkpt>
      <trkpt lat="46.46047" lon="5.67379">
        <ele>452</ele>
        <time>2019-04-05T07:52:14Z</time>
      </trkpt>
      <trkpt lat="46.46064" lon="5.67357">
        <ele>454</ele>
        <time>2019-04-05T07:53:14Z</time>
      </trkpt>
      <trkpt lat="46.46074" lon="5.6735">
        <ele>454</ele>
        <time>2019-04-05T07:54:14Z</time>
      </trkpt>
      <trkpt lat="46.46116" lon="5.67326">
        <ele>453</ele>
        <time>2019-04-05T07:55:14Z</time>
      </trkpt>
      <trkpt lat="46.46127" lon="5.67319">
        <ele>453</ele>
        <time>2019-04-05T07:56:14Z</time>
      </trkpt>
      <trkpt lat="46.46135" lon="5.67311">
        <ele>453</ele>
        <time>2019-04-05T07:57:14Z</time>
      </trkpt>
      <trkpt lat="46.46161" lon="5.6728">
        <ele>454</ele>
        <time>2019-04-05T07:58:14Z</time>
      </trkpt>
      <trkpt lat="46.46172" lon="5.67272">
        <ele>453</ele>
        <time>2019-04-05T07:59:14Z</time>
      </trkpt>
      <trkpt lat="46.46189" lon="5.67265">
        <ele>452</ele>
        <time>2019-04-05T08:00:14Z</time>
      </trkpt>
      <trkpt lat="46.46199" lon="5.67261">
        <ele>451</ele>
        <time>2019-04-05T08:01:14Z</time>
      </trkpt>
      <trkpt lat="46.4621" lon="5.67255">
        <ele>450</ele>
        <time>2019-04-05T08:02:14Z</time>
      </trkpt>
      <trkpt lat="46.46232" lon="5.67242">
        <ele>448</ele>
        <time>2019-04-05T08:03:14Z</time>
      </trkpt>
      <trkpt lat="46.46242" lon="5.67236">
        <ele>447</ele>
        <time>2019-04-05T08:04:14Z</time>
      </trkpt>
      <trkpt lat="46.46273" lon="5.67208">
        <ele>450</ele>
        <time>2019-04-05T08:05:14Z</time>
      </trkpt>
      <trkpt lat="46.46286" lon="5.67198">
        <ele>451</ele>
        <time>2019-04-05T08:06:14Z</time>
      </trkpt>
      <trkpt lat="46.46299" lon="5.67192">
        <ele>451</ele>
        <time>2019-04-05T08:07:14Z</time>
      </trkpt>
      <trkpt lat="46.46325" lon="5.67183">
        <ele>451</ele>
        <time>2019-04-05T08:08:14Z</time>
      </trkpt>
      <trkpt lat="46.46339" lon="5.67176">
        <ele>451</ele>
        <time>2019-04-05T08:09:14Z</time>
      </trkpt>
      <trkpt lat="46.46352" lon="5.67161">
        <ele>453</ele>
        <time>2019-04-05T08:10:14Z</time>
      </trkpt>
      <trkpt lat="46.46367" lon="5.67143">
        <ele>454</ele>
        <time>2019-04-05T08:11:14Z</time>
      </trkpt>
      <trkpt lat="46.4638" lon="5.67131">
        <ele>455</ele>
        <time>2019-04-05T08:12:14Z</time>
      </trkpt>
      <trkpt lat="46.46396" lon="5.67117">
        <ele>455</ele>
        <time>2019-04-05T08:13:14Z</time>
      </trkpt>
      <trkpt lat="46.46406" lon="5.67111">
        <ele>455</ele>
        <time>2019-04-05T08:14:14Z</time>
      </trkpt>
      <trkpt lat="46.46416" lon="5.67108">
        <ele>455</ele>
        <time>2019-04-05T08:15:14Z</time>
      </trkpt>
      <trkpt lat="46.46428" lon="5.67107">
        <ele>453</ele>
        <time>2019-04-05T08:16:14Z</time>
      </trkpt>
      <trkpt lat="46.46438" lon="5.67104">
        <ele>452</ele>
        <time>2019-04-05T08:17:14Z</time>
      </trkpt>
      <trkpt lat="46.46445" lon="5.67099">
        <ele>451</ele>
        <time>2019-04-05T08:18:14Z</time>
      </trkpt>
      <trkpt lat="46.4645" lon="5.67091">
        <ele>452</ele>
        <time>2019-04-05T08:19:14Z</time>
      </trkpt>
      <trkpt lat="46.46457" lon="5.67078">
        <ele>453</ele>
        <time>2019-04-05T08:20:14Z</time>
      </trkpt>
      <trkpt lat="46.46464" lon="5.67067">
        <ele>453</ele>
        <time>2019-04-05T08:21:14Z</time>
      </trkpt>
      <trkpt lat="46.46472" lon="5.67061">
        <ele>453</ele>
        <time>2019-04-05T08:22:14Z</time>
      </trkpt>
      <trkpt lat="46.46481" lon="5.67058">
        <ele>452</ele>
        <time>2019-04-05T08:23:14Z</time>
      </trkpt>
      <trkpt lat="46.46493" lon="5.67057">
        <ele>450</ele>
        <time>2019-04-05T08:24:14Z</time>
      </trkpt>
      <trkpt lat="46.46508" lon="5.67058">
        <ele>448</ele>
        <time>2019-04-05T08:25:14Z</time>
      </trkpt>
      <trkpt lat="46.46523" lon="5.67061">
        <ele>447</ele>
        <time>2019-04-05T08:26:14Z</time>
      </trkpt>
      <trkpt lat="46.46535" lon="5.67061">
        <ele>446</ele>
        <time>2019-04-05T08:27:14Z</time>
      </trkpt>
      <trkpt lat="46.46546" lon="5.67058">
        <ele>445</ele>
        <time>2019-04-05T08:28:14Z</time>
      </trkpt>
      <trkpt lat="46.46553" lon="5.67052">
        <ele>446</ele>
        <time>2019-04-05T08:29:14Z</time>
      </trkpt>
      <trkpt lat="46.46581" lon="5.67025">
        <ele>450</ele>
        <time>2019-04-05T08:30:14Z</time>
      </trkpt>
      <trkpt lat="46.46599" lon="5.67006">
        <ele>451</ele>
        <time>2019-04-05T08:31:14Z</time>
      </trkpt>
      <trkpt lat="46.46607" lon="5.66994">
        <ele>452</ele>
        <time>2019-04-05T08:32:14Z</time>
      </trkpt>
      <trkpt lat="46.46613" lon="5.66976">
        <ele>455</ele>
        <time>2019-04-05T08:33:14Z</time>
      </trkpt>
      <trkpt lat="46.46617" lon="5.66967">
        <ele>457</ele>
        <time>2019-04-05T08:34:14Z</time>
      </trkpt>
      <trkpt lat="46.46625" lon="5.66956">
        <ele>458</ele>
        <time>2019-04-05T08:35:14Z</time>
      </trkpt>
      <trkpt lat="46.46634" lon="5.66949">
        <ele>457</ele>
        <time>2019-04-05T08:36:14Z</time>
      </trkpt>
      <trkpt lat="46.46643" lon="5.66943">
        <ele>456</ele>
        <time>2019-04-05T08:37:14Z</time>
      </trkpt>
      <trkpt lat="46.46654" lon="5.66938">
        <ele>455</ele>
        <time>2019-04-05T08:38:14Z</time>
      </trkpt>
      <trkpt lat="46.46666" lon="5.66929">
        <ele>454</ele>
        <time>2019-04-05T08:39:14Z</time>
      </trkpt>
      <trkpt lat="46.46678" lon="5.66918">
        <ele>455</ele>
        <time>2019-04-05T08:40:14Z</time>
      </trkpt>
      <trkpt lat="46.46686" lon="5.66908">
        <ele>455</ele>
        <time>2019-04-05T08:41:14Z</time>
      </trkpt>
      <trkpt lat="46.46695" lon="5.66894">
        <ele>457</ele>
        <time>2019-04-05T08:42:14Z</time>
      </trkpt>
      <trkpt lat="46.46711" lon="5.66866">
        <ele>460</ele>
        <time>2019-04-05T08:43:14Z</time>
      </trkpt>
      <trkpt lat="46.46718" lon="5.66854">
        <ele>462</ele>
        <time>2019-04-05T08:44:14Z</time>
      </trkpt>
      <trkpt lat="46.46725" lon="5.66848">
        <ele>461</ele>
        <time>2019-04-05T08:45:14Z</time>
      </trkpt>
      <trkpt lat="46.46741" lon="5.6684">
        <ele>460</ele>
        <time>2019-04-05T08:46:14Z</time>
      </trkpt>
      <trkpt lat="46.46748" lon="5.66836">
        <ele>459</ele>
        <time>2019-04-05T08:47:14Z</time>
      </trkpt>
      <trkpt lat="46.46755" lon="5.66834">
        <ele>458</ele>
        <time>2019-04-05T08:48:14Z</time>
      </trkpt>
      <trkpt lat="46.46763" lon="5.66831">
        <ele>456</ele>
        <time>2019-04-05T08:49:14Z</time>
      </trkpt>
      <trkpt lat="46.4678" lon="5.6683">
        <ele>453</ele>
        <time>2019-04-05T08:50:14Z</time>
      </trkpt>
      <trkpt lat="46.46786" lon="5.66829">
        <ele>451</ele>
        <time>2019-04-05T08:51:14Z</time>
      </trkpt>
      <trkpt lat="46.468" lon="5.66825">
        <ele>449</ele>
        <time>2019-04-05T08:52:14Z</time>
      </trkpt>
      <trkpt lat="46.46807" lon="5.6682">
        <ele>448</ele>
        <time>2019-04-05T08:53:14Z</time>
      </trkpt>
      <trkpt lat="46.46812" lon="5.66815">
        <ele>448</ele>
        <time>2019-04-05T08:54:14Z</time>
      </trkpt>
      <trkpt lat="46.46817" lon="5.66805">
        <ele>448</ele>
        <time>2019-04-05T08:55:14Z</time>
      </trkpt>
      <trkpt lat="46.46822" lon="5.66795">
        <ele>449</ele>
        <time>2019-04-05T08:56:14Z</time>
      </trkpt>
      <trkpt lat="46.46833" lon="5.66768">
        <ele>450</ele>
        <time>2019-04-05T08:57:14Z</time>
      </trkpt>
      <trkpt lat="46.46836" lon="5.66762">
        <ele>451</ele>
        <time>2019-04-05T08:58:14Z</time>
      </trkpt>
      <trkpt lat="46.4684" lon="5.66756">
        <ele>451</ele>
        <time>2019-04-05T08:59:14Z</time>
      </trkpt>
      <trkpt lat="46.46846" lon="5.66749">
        <ele>452</ele>
        <time>2019-04-05T09:00:14Z</time>
      </trkpt>
      <trkpt lat="46.46851" lon="5.66745">
        <ele>452</ele>
        <time>2019-04-05T09:01:14Z</time>
      </trkpt>
      <trkpt lat="46.46856" lon="5.66741">
        <ele>452</ele>
        <time>2019-04-05T09:02:14Z</time>
      </trkpt>
      <trkpt lat="46.46898" lon="5.66718">
        <ele>452</ele>
        <time>2019-04-05T09:03:14Z</time>
      </trkpt>
      <trkpt lat="46.46911" lon="5.66711">
        <ele>452</ele>
        <time>2019-04-05T09:04:14Z</time>
      </trkpt>
      <trkpt lat="46.46927" lon="5.66703">
        <ele>453</ele>
        <time>2019-04-05T09:05:14Z</time>
      </trkpt>
      <trkpt lat="46.4694" lon="5.66697">
        <ele>453</ele>
        <time>2019-04-05T09:06:14Z</time>
      </trkpt>
      <trkpt lat="46.46969" lon="5.66677">
        <ele>455</ele>
        <time>2019-04-05T09:07:14Z</time>
      </trkpt>
      <trkpt lat="46.46977" lon="5.66673">
        <ele>455</ele>
        <time>2019-04-05T09:08:14Z</time>
      </trkpt>
      <trkpt lat="46.46987" lon="5.66668">
        <ele>455</ele>
        <time>2019-04-05T09:09:14Z</time>
      </trkpt>
      <trkpt lat="46.46997" lon="5.66664">
        <ele>455</ele>
        <time>2019-04-05T09:10:14Z</time>
      </trkpt>
      <trkpt lat="46.47007" lon="5.66661">
        <ele>454</ele>
        <time>2019-04-05T09:11:14Z</time>
      </trkpt>
      <trkpt lat="46.4702" lon="5.66658">
        <ele>454</ele>
        <time>2019-04-05T09:12:14Z</time>
      </trkpt>
      <trkpt lat="46.47032" lon="5.66656">
        <ele>453</ele>
        <time>2019-04-05T09:13:14Z</time>
      </trkpt>
      <trkpt lat="46.47043" lon="5.66655">
        <ele>452</ele>
        <time>2019-04-05T09:14:14Z</time>
      </trkpt>
      <trkpt lat="46.47069" lon="5.66654">
        <ele>449</ele>
        <time>2019-04-05T09:15:14Z</time>
      </trkpt>
      <trkpt lat="46.47078" lon="5.66655">
        <ele>448</ele>
        <time>2019-04-05T09:16:14Z</time>
      </trkpt>
      <trkpt lat="46.47084" lon="5.66657">
        <ele>447</ele>
        <time>2019-04-05T09:17:14Z</time>
      </trkpt>
      <trkpt lat="46.47089" lon="5.6666">
        <ele>446</ele>
        <time>2019-04-05T09:18:14Z</time>
      </trkpt>
      <trkpt lat="46.47103" lon="5.66673">
        <ele>442</ele>
        <time>2019-04-05T09:19:14Z</time>
      </trkpt>
      <trkpt lat="46.47108" lon="5.66677">
        <ele>441</ele>
        <time>2019-04-05T09:20:14Z</time>
      </trkpt>
      <trkpt lat="46.47113" lon="5.66679">
        <ele>441</ele>
        <time>2019-04-05T09:21:14Z</time>
      </trkpt>
      <trkpt lat="46.47119" lon="5.66678">
        <ele>440</ele>
        <time>2019-04-05T09:22:14Z</time>
      </trkpt>
      <trkpt lat="46.47124" lon="5.66675">
        <ele>440</ele>
        <time>2019-04-05T09:23:14Z</time>
      </trkpt>
      <trkpt lat="46.47128" lon="5.66669">
        <ele>441</ele>
        <time>2019-04-05T09:24:14Z</time>
      </trkpt>
      <trkpt lat="46.4713" lon="5.66658">
        <ele>442</ele>
        <time>2019-04-05T09:25:14Z</time>
      </trkpt>
      <trkpt lat="46.4713" lon="5.6665">
        <ele>443</ele>
        <time>2019-04-05T09:26:14Z</time>
      </trkpt>
      <trkpt lat="46.47138" lon="5.66603">
        <ele>448</ele>
        <time>2019-04-05T09:27:14Z</time>
      </trkpt>
      <trkpt lat="46.47139" lon="5.66594">
        <ele>449</ele>
        <time>2019-04-05T09:28:14Z</time>
      </trkpt>
      <trkpt lat="46.47148" lon="5.66519">
        <ele>453</ele>
        <time>2019-04-05T09:29:14Z</time>
      </trkpt>
      <trkpt lat="46.4715" lon="5.66496">
        <ele>454</ele>
        <time>2019-04-05T09:30:14Z</time>
      </trkpt>
      <trkpt lat="46.47156" lon="5.66458">
        <ele>452</ele>
        <time>2019-04-05T09:31:14Z</time>
      </trkpt>
      <trkpt lat="46.47157" lon="5.66445">
        <ele>452</ele>
        <time>2019-04-05T09:32:14Z</time>
      </trkpt>
      <trkpt lat="46.47156" lon="5.66433">
        <ele>452</ele>
        <time>2019-04-05T09:33:14Z</time>
      </trkpt>
      <trkpt lat="46.47154" lon="5.6642">
        <ele>453</ele>
        <time>2019-04-05T09:34:14Z</time>
      </trkpt>
      <trkpt lat="46.4715" lon="5.66396">
        <ele>456</ele>
        <time>2019-04-05T09:35:14Z</time>
      </trkpt>
      <trkpt lat="46.4715" lon="5.66373">
        <ele>456</ele>
        <time>2019-04-05T09:36:14Z</time>
      </trkpt>
      <trkpt lat="46.47153" lon="5.66347">
        <ele>456</ele>
        <time>2019-04-05T09:37:14Z</time>
      </trkpt>
      <trkpt lat="46.47158" lon="5.66337">
        <ele>454</ele>
        <time>2019-04-05T09:38:14Z</time>
      </trkpt>
      <trkpt lat="46.4717" lon="5.66314">
        <ele>453</ele>
        <time>2019-04-05T09:39:14Z</time>
      </trkpt>
      <trkpt lat="46.47175" lon="5.66303">
        <ele>455</ele>
        <time>2019-04-05T09:40:14Z</time>
      </trkpt>
      <trkpt lat="46.4718" lon="5.66291">
        <ele>457</ele>
        <time>2019-04-05T09:41:14Z</time>
      </trkpt>
      <trkpt lat="46.47185" lon="5.66282">
        <ele>459</ele>
        <time>2019-04-05T09:42:14Z</time>
      </trkpt>
      <trkpt lat="46.47189" lon="5.6628">
        <ele>459</ele>
        <time>2019-04-05T09:43:14Z</time>
      </trkpt>
      <trkpt lat="46.47193" lon="5.6628">
        <ele>460</ele>
        <time>2019-04-05T09:44:14Z</time>
      </trkpt>
      <trkpt lat="46.47202" lon="5.66285">
        <ele>461</ele>
        <time>2019-04-05T09:45:14Z</time>
      </trkpt>
      <trkpt lat="46.47206" lon="5.66291">
        <ele>462</ele>
        <time>2019-04-05T09:46:14Z</time>
      </trkpt>
      <trkpt lat="46.47209" lon="5.663">
        <ele>462</ele>
        <time>2019-04-05T09:47:14Z</time>
      </trkpt>
      <trkpt lat="46.47211" lon="5.66339">
        <ele>460</ele>
        <time>2019-04-05T09:48:14Z</time>
      </trkpt>
      <trkpt lat="46.47212" lon="5.66349">
        <ele>459</ele>
        <time>2019-04-05T09:49:14Z</time>
      </trkpt>
      <trkpt lat="46.47216" lon="5.66359">
        <ele>459</ele>
        <time>2019-04-05T09:50:14Z</time>
      </trkpt>
      <trkpt lat="46.4722" lon="5.66368">
        <ele>459</ele>
        <time>2019-04-05T09:51:14Z</time>
      </trkpt>
      <trkpt lat="46.47228" lon="5.66382">
        <ele>459</ele>
        <time>2019-04-05T09:52:14Z</time>
      </trkpt>
      <trkpt lat="46.47235" lon="5.66391">
        <ele>459</ele>
        <time>2019-04-05T09:53:14Z</time>
      </trkpt>
      <trkpt lat="46.47242" lon="5.66401">
        <ele>458</ele>
        <time>2019-04-05T09:54:14Z</time>
      </trkpt>
      <trkpt lat="46.47248" lon="5.66412">
        <ele>457</ele>
        <time>2019-04-05T09:55:14Z</time>
      </trkpt>
      <trkpt lat="46.47252" lon="5.66422">
        <ele>457</ele>
        <time>2019-04-05T09:56:14Z</time>
      </trkpt>
      <trkpt lat="46.47257" lon="5.66435">
        <ele>457</ele>
        <time>2019-04-05T09:57:14Z</time>
      </trkpt>
      <trkpt lat="46.4726" lon="5.66446">
        <ele>457</ele>
        <time>2019-04-05T09:58:14Z</time>
      </trkpt>
      <trkpt lat="46.47266" lon="5.6647">
        <ele>456</ele>
        <time>2019-04-05T09:59:14Z</time>
      </trkpt>
      <trkpt lat="46.4727" lon="5.66484">
        <ele>456</ele>
        <time>2019-04-05T10:00:14Z</time>
      </trkpt>
      <trkpt lat="46.47273" lon="5.66494">
        <ele>456</ele>
        <time>2019-04-05T10:01:14Z</time>
      </trkpt>
      <trkpt lat="46.47274" lon="5.66509">
        <ele>454</ele>
        <time>2019-04-05T10:02:14Z</time>
      </trkpt>
      <trkpt lat="46.47272" lon="5.66531">
        <ele>452</ele>
        <time>2019-04-05T10:03:14Z</time>
      </trkpt>
      <trkpt lat="46.47273" lon="5.66542">
        <ele>451</ele>
        <time>2019-04-05T10:04:14Z</time>
      </trkpt>
      <trkpt lat="46.47278" lon="5.66575">
        <ele>449</ele>
        <time>2019-04-05T10:05:14Z</time>
      </trkpt>
      <trkpt lat="46.47281" lon="5.66592">
        <ele>448</ele>
        <time>2019-04-05T10:06:14Z</time>
      </trkpt>
      <trkpt lat="46.47285" lon="5.66611">
        <ele>446</ele>
        <time>2019-04-05T10:07:14Z</time>
      </trkpt>
      <trkpt lat="46.47288" lon="5.66617">
        <ele>446</ele>
        <time>2019-04-05T10:08:14Z</time>
      </trkpt>
      <trkpt lat="46.47294" lon="5.66619">
        <ele>447</ele>
        <time>2019-04-05T10:09:14Z</time>
      </trkpt>
      <trkpt lat="46.473" lon="5.6662">
        <ele>448</ele>
        <time>2019-04-05T10:10:14Z</time>
      </trkpt>
      <trkpt lat="46.47305" lon="5.66618">
        <ele>449</ele>
        <time>2019-04-05T10:11:14Z</time>
      </trkpt>
      <trkpt lat="46.47312" lon="5.66615">
        <ele>451</ele>
        <time>2019-04-05T10:12:14Z</time>
      </trkpt>
      <trkpt lat="46.4732" lon="5.66613">
        <ele>453</ele>
        <time>2019-04-05T10:13:14Z</time>
      </trkpt>
      <trkpt lat="46.47328" lon="5.66614">
        <ele>454</ele>
        <time>2019-04-05T10:14:14Z</time>
      </trkpt>
      <trkpt lat="46.47354" lon="5.66612">
        <ele>455</ele>
        <time>2019-04-05T10:15:14Z</time>
      </trkpt>
      <trkpt lat="46.47366" lon="5.66611">
        <ele>456</ele>
        <time>2019-04-05T10:16:14Z</time>
      </trkpt>
      <trkpt lat="46.47375" lon="5.66613">
        <ele>455</ele>
        <time>2019-04-05T10:17:14Z</time>
      </trkpt>
      <trkpt lat="46.47389" lon="5.66612">
        <ele>456</ele>
        <time>2019-04-05T10:18:14Z</time>
      </trkpt>
      <trkpt lat="46.47405" lon="5.66612">
        <ele>456</ele>
        <time>2019-04-05T10:19:14Z</time>
      </trkpt>
      <trkpt lat="46.47424" lon="5.66613">
        <ele>455</ele>
        <time>2019-04-05T10:20:14Z</time>
      </trkpt>
      <trkpt lat="46.47451" lon="5.66613">
        <ele>455</ele>
        <time>2019-04-05T10:21:14Z</time>
      </trkpt>
      <trkpt lat="46.47461" lon="5.66616">
        <ele>455</ele>
        <time>2019-04-05T10:22:14Z</time>
      </trkpt>
      <trkpt lat="46.4748" lon="5.66623">
        <ele>453</ele>
        <time>2019-04-05T10:23:14Z</time>
      </trkpt>
      <trkpt lat="46.47486" lon="5.66627">
        <ele>451</ele>
        <time>2019-04-05T10:24:14Z</time>
      </trkpt>
      <trkpt lat="46.47498" lon="5.66629">
        <ele>451</ele>
        <time>2019-04-05T10:25:14Z</time>
      </trkpt>
      <trkpt lat="46.47513" lon="5.66633">
        <ele>450</ele>
        <time>2019-04-05T10:26:14Z</time>
      </trkpt>
      <trkpt lat="46.47552" lon="5.66647">
        <ele>448</ele>
        <time>2019-04-05T10:27:14Z</time>
      </trkpt>
      <trkpt lat="46.47564" lon="5.66652">
        <ele>447</ele>
        <time>2019-04-05T10:28:14Z</time>
      </trkpt>
      <trkpt lat="46.47582" lon="5.66658">
        <ele>446</ele>
        <time>2019-04-05T10:29:14Z</time>
      </trkpt>
      <trkpt lat="46.47589" lon="5.66661">
        <ele>446</ele>
        <time>2019-04-05T10:30:14Z</time>
      </trkpt>
      <trkpt lat="46.47599" lon="5.66663">
        <ele>446</ele>
        <time>2019-04-05T10:31:14Z</time>
      </trkpt>
      <trkpt lat="46.47615" lon="5.66666">
        <ele>446</ele>
        <time>2019-04-05T10:32:14Z</time>
      </trkpt>
      <trkpt lat="46.47627" lon="5.66671">
        <ele>446</ele>
        <time>2019-04-05T10:33:14Z</time>
      </trkpt>
      <trkpt lat="46.47634" lon="5.66675">
        <ele>446</ele>
        <time>2019-04-05T10:34:14Z</time>
      </trkpt>
      <trkpt lat="46.47639" lon="5.66682">
        <ele>445</ele>
        <time>2019-04-05T10:35:14Z</time>
      </trkpt>
      <trkpt lat="46.47663" lon="5.6671">
        <ele>440</ele>
        <time>2019-04-05T10:36:14Z</time>
      </trkpt>
      <trkpt lat="46.47744" lon="5.6673">
        <ele>440</ele>
        <time>2019-04-05T10:37:14Z</time>
      </trkpt>
      <trkpt lat="46.47795" lon="5.66754">
        <ele>439</ele>
        <time>2019-04-05T10:38:14Z</time>
      </trkpt>
      <trkpt lat="46.47837" lon="5.6676">
        <ele>442</ele>
        <time>2019-04-05T10:39:14Z</time>
      </trkpt>
      <trkpt lat="46.47895" lon="5.66783">
        <ele>441</ele>
        <time>2019-04-05T10:40:14Z</time>
      </trkpt>
      <trkpt lat="46.47934" lon="5.66797">
        <ele>441</ele>
        <time>2019-04-05T10:41:14Z</time>
      </trkpt>
      <trkpt lat="46.47987" lon="5.6683">
        <ele>437</ele>
        <time>2019-04-05T10:42:14Z</time>
      </trkpt>
      <trkpt lat="46.48012" lon="5.66834">
        <ele>439</ele>
        <time>2019-04-05T10:43:14Z</time>
      </trkpt>
      <trkpt lat="46.48023" lon="5.66841">
        <ele>440</ele>
        <time>2019-04-05T10:44:14Z</time>
      </trkpt>
      <trkpt lat="46.48032" lon="5.66853">
        <ele>440</ele>
        <time>2019-04-05T10:45:14Z</time>
      </trkpt>
      <trkpt lat="46.48046" lon="5.66871">
        <ele>440</ele>
        <time>2019-04-05T10:46:14Z</time>
      </trkpt>
      <trkpt lat="46.48075" lon="5.66931">
        <ele>439</ele>
        <time>2019-04-05T10:47:14Z</time>
      </trkpt>
      <trkpt lat="46.48099" lon="5.67016">
        <ele>437</ele>
        <time>2019-04-05T10:48:14Z</time>
      </trkpt>
      <trkpt lat="46.48103" lon="5.67024">
        <ele>437</ele>
        <time>2019-04-05T10:49:14Z</time>
      </trkpt>
      <trkpt lat="46.48121" lon="5.67046">
        <ele>437</ele>
        <time>2019-04-05T10:50:14Z</time>
      </trkpt>
      <trkpt lat="46.48129" lon="5.67057">
        <ele>436</ele>
        <time>2019-04-05T10:51:14Z</time>
      </trkpt>
      <trkpt lat="46.48163" lon="5.67094">
        <ele>435</ele>
        <time>2019-04-05T10:52:14Z</time>
      </trkpt>
      <trkpt lat="46.48172" lon="5.67104">
        <ele>435</ele>
        <time>2019-04-05T10:53:14Z</time>
      </trkpt>
      <trkpt lat="46.48207" lon="5.67139">
        <ele>433</ele>
        <time>2019-04-05T10:54:14Z</time>
      </trkpt>
      <trkpt lat="46.48214" lon="5.67145">
        <ele>433</ele>
        <time>2019-04-05T10:55:14Z</time>
      </trkpt>
      <trkpt lat="46.48222" lon="5.67151">
        <ele>433</ele>
        <time>2019-04-05T10:56:14Z</time>
      </trkpt>
      <trkpt lat="46.48228" lon="5.67154">
        <ele>433</ele>
        <time>2019-04-05T10:57:14Z</time>
      </trkpt>
      <trkpt lat="46.48252" lon="5.67162">
        <ele>433</ele>
        <time>2019-04-05T10:58:14Z</time>
      </trkpt>
      <trkpt lat="46.48262" lon="5.67165">
        <ele>433</ele>
        <time>2019-04-05T10:59:14Z</time>
      </trkpt>
      <trkpt lat="46.483" lon="5.6718">
        <ele>436</ele>
        <time>2019-04-05T11:00:14Z</time>
      </trkpt>
      <trkpt lat="46.48314" lon="5.67186">
        <ele>436</ele>
        <time>2019-04-05T11:01:14Z</time>
      </trkpt>
      <trkpt lat="46.48334" lon="5.67196">
        <ele>437</ele>
        <time>2019-04-05T11:02:14Z</time>
      </trkpt>
      <trkpt lat="46.48346" lon="5.67201">
        <ele>437</ele>
        <time>2019-04-05T11:03:14Z</time>
      </trkpt>
      <trkpt lat="46.48353" lon="5.67205">
        <ele>437</ele>
        <time>2019-04-05T11:04:14Z</time>
      </trkpt>
      <trkpt lat="46.48361" lon="5.67211">
        <ele>437</ele>
        <time>2019-04-05T11:05:14Z</time>
      </trkpt>
      <trkpt lat="46.48375" lon="5.67219">
        <ele>437</ele>
        <time>2019-04-05T11:06:14Z</time>
      </trkpt>
      <trkpt lat="46.48382" lon="5.67221">
        <ele>437</ele>
        <time>2019-04-05T11:07:14Z</time>
      </trkpt>
      <trkpt lat="46.48385" lon="5.67225">
        <ele>437</ele>
        <time>2019-04-05T11:08:14Z</time>
      </trkpt>
      <trkpt lat="46.48388" lon="5.67227">
        <ele>437</ele>
        <time>2019-04-05T11:09:14Z</time>
      </trkpt>
      <trkpt lat="46.48391" lon="5.67227">
        <ele>437</ele>
        <time>2019-04-05T11:10:14Z</time>
      </trkpt>
      <trkpt lat="46.484" lon="5.67224">
        <ele>438</ele>
        <time>2019-04-05T11:11:14Z</time>
      </trkpt>
      <trkpt lat="46.48405" lon="5.67233">
        <ele>437</ele>
        <time>2019-04-05T11:12:14Z</time>
      </trkpt>
      <trkpt lat="46.48417" lon="5.67247">
        <ele>436</ele>
        <time>2019-04-05T11:13:14Z</time>
      </trkpt>
      <trkpt lat="46.48422" lon="5.67253">
        <ele>435</ele>
        <time>2019-04-05T11:14:14Z</time>
      </trkpt>
      <trkpt lat="46.4843" lon="5.67258">
        <ele>436</ele>
        <time>2019-04-05T11:15:14Z</time>
      </trkpt>
      <trkpt lat="46.4844" lon="5.67265">
        <ele>436</ele>
        <time>2019-04-05T11:16:14Z</time>
      </trkpt>
      <trkpt lat="46.48444" lon="5.67271">
        <ele>436</ele>
        <time>2019-04-05T11:17:14Z</time>
      </trkpt>
      <trkpt lat="46.48449" lon="5.67276">
        <ele>436</ele>
        <time>2019-04-05T11:18:14Z</time>
      </trkpt>
      <trkpt lat="46.48468" lon="5.67289">
        <ele>436</ele>
        <time>2019-04-05T11:19:14Z</time>
      </trkpt>
      <trkpt lat="46.48479" lon="5.67299">
        <ele>436</ele>
        <time>2019-04-05T11:20:14Z</time>
      </trkpt>
      <trkpt lat="46.48489" lon="5.67309">
        <ele>436</ele>
        <time>2019-04-05T11:21:14Z</time>
      </trkpt>
      <trkpt lat="46.48501" lon="5.67319">
        <ele>436</ele>
        <time>2019-04-05T11:22:14Z</time>
      </trkpt>
      <trkpt lat="46.48512" lon="5.67328">
        <ele>435</ele>
        <time>2019-04-05T11:23:14Z</time>
      </trkpt>
      <trkpt lat="46.48515" lon="5.67328">
        <ele>435</ele>
        <time>2019-04-05T11:24:14Z</time>
      </trkpt>
      <trkpt lat="46.48522" lon="5.67331">
        <ele>434</ele>
        <time>2019-04-05T11:25:14Z</time>
      </trkpt>
      <trkpt lat="46.48531" lon="5.67332">
        <ele>434</ele>
        <time>2019-04-05T11:26:14Z</time>
      </trkpt>
      <trkpt lat="46.48535" lon="5.67333">
        <ele>434</ele>
        <time>2019-04-05T11:27:14Z</time>
      </trkpt>
      <trkpt lat="46.48541" lon="5.67336">
        <ele>434</ele>
        <time>2019-04-05T11:28:14Z</time>
      </trkpt>
      <trkpt lat="46.48547" lon="5.67336">
        <ele>434</ele>
        <time>2019-04-05T11:29:14Z</time>
      </trkpt>
      <trkpt lat="46.4855" lon="5.67332">
        <ele>434</ele>
        <time>2019-04-05T11:30:14Z</time>
      </trkpt>
      <trkpt lat="46.48555" lon="5.67328">
        <ele>435</ele>
        <time>2019-04-05T11:31:14Z</time>
      </trkpt>
      <trkpt lat="46.48569" lon="5.67328">
        <ele>435</ele>
        <time>2019-04-05T11:32:14Z</time>
      </trkpt>
      <trkpt lat="46.48576" lon="5.67328">
        <ele>435</ele>
        <time>2019-04-05T11:33:14Z</time>
      </trkpt>
      <trkpt lat="46.4859" lon="5.67322">
        <ele>437</ele>
        <time>2019-04-05T11:34:14Z</time>
      </trkpt>
      <trkpt lat="46.48597" lon="5.67322">
        <ele>437</ele>
        <time>2019-04-05T11:35:14Z</time>
      </trkpt>
      <trkpt lat="46.48602" lon="5.67318">
        <ele>438</ele>
        <time>2019-04-05T11:36:14Z</time>
      </trkpt>
      <trkpt lat="46.48607" lon="5.67313">
        <ele>440</ele>
        <time>2019-04-05T11:37:14Z</time>
      </trkpt>
      <trkpt lat="46.48614" lon="5.67303">
        <ele>442</ele>
        <time>2019-04-05T11:38:14Z</time>
      </trkpt>
      <trkpt lat="46.48619" lon="5.673">
        <ele>442</ele>
        <time>2019-04-05T11:39:14Z</time>
      </trkpt>
      <trkpt lat="46.48627" lon="5.673">
        <ele>443</ele>
        <time>2019-04-05T11:40:14Z</time>
      </trkpt>
      <trkpt lat="46.48632" lon="5.67303">
        <ele>443</ele>
        <time>2019-04-05T11:41:14Z</time>
      </trkpt>
      <trkpt lat="46.48646" lon="5.67307">
        <ele>443</ele>
        <time>2019-04-05T11:42:14Z</time>
      </trkpt>
      <trkpt lat="46.48656" lon="5.67316">
        <ele>442</ele>
        <time>2019-04-05T11:43:14Z</time>
      </trkpt>
      <trkpt lat="46.48662" lon="5.6733">
        <ele>441</ele>
        <time>2019-04-05T11:44:14Z</time>
      </trkpt>
      <trkpt lat="46.48664" lon="5.67338">
        <ele>441</ele>
        <time>2019-04-05T11:45:14Z</time>
      </trkpt>
      <trkpt lat="46.48665" lon="5.67347">
        <ele>441</ele>
        <time>2019-04-05T11:46:14Z</time>
      </trkpt>
      <trkpt lat="46.48662" lon="5.67369">
        <ele>440</ele>
        <time>2019-04-05T11:47:14Z</time>
      </trkpt>
      <trkpt lat="46.48659" lon="5.67378">
        <ele>440</ele>
        <time>2019-04-05T11:48:14Z</time>
      </trkpt>
      <trkpt lat="46.48656" lon="5.6739">
        <ele>440</ele>
        <time>2019-04-05T11:49:14Z</time>
      </trkpt>
      <trkpt lat="46.48651" lon="5.67403">
        <ele>439</ele>
        <time>2019-04-05T11:50:14Z</time>
      </trkpt>
      <trkpt lat="46.48638" lon="5.67439">
        <ele>437</ele>
        <time>2019-04-05T11:51:14Z</time>
      </trkpt>
      <trkpt lat="46.48633" lon="5.6746">
        <ele>436</ele>
        <time>2019-04-05T11:52:14Z</time>
      </trkpt>
      <trkpt lat="46.48633" lon="5.67471">
        <ele>436</ele>
        <time>2019-04-05T11:53:14Z</time>
      </trkpt>
      <trkpt lat="46.48633" lon="5.6748">
        <ele>436</ele>
        <time>2019-04-05T11:54:14Z</time>
      </trkpt>
      <trkpt lat="46.48635" lon="5.67485">
        <ele>436</ele>
        <time>2019-04-05T11:55:14Z</time>
      </trkpt>
      <trkpt lat="46.48641" lon="5.67492">
        <ele>437</ele>
        <time>2019-04-05T11:56:14Z</time>
      </trkpt>
      <trkpt lat="46.48647" lon="5.67497">
        <ele>438</ele>
        <time>2019-04-05T11:57:14Z</time>
      </trkpt>
      <trkpt lat="46.48653" lon="5.67497">
        <ele>439</ele>
        <time>2019-04-05T11:58:14Z</time>
      </trkpt>
      <trkpt lat="46.48657" lon="5.67492">
        <ele>440</ele>
        <time>2019-04-05T11:59:14Z</time>
      </trkpt>
      <trkpt lat="46.48661" lon="5.67486">
        <ele>440</ele>
        <time>2019-04-05T12:00:14Z</time>
      </trkpt>
      <trkpt lat="46.48656" lon="5.67477">
        <ele>439</ele>
        <time>2019-04-05T12:01:14Z</time>
      </trkpt>
      <trkpt lat="46.48651" lon="5.6746">
        <ele>439</ele>
        <time>2019-04-05T12:02:14Z</time>
      </trkpt>
      <trkpt lat="46.48651" lon="5.6745">
        <ele>439</ele>
        <time>2019-04-05T12:03:14Z</time>
      </trkpt>
      <trkpt lat="46.48654" lon="5.67439">
        <ele>439</ele>
        <time>2019-04-05T12:04:14Z</time>
      </trkpt>
      <trkpt lat="46.48704" lon="5.67428">
        <ele>448</ele>
        <time>2019-04-05T12:05:14Z</time>
      </trkpt>
      <trkpt lat="46.48723" lon="5.67427">
        <ele>452</ele>
        <time>2019-04-05T12:06:14Z</time>
      </trkpt>
      <trkpt lat="46.48777" lon="5.67313">
        <ele>470</ele>
        <time>2019-04-05T12:07:14Z</time>
      </trkpt>
      <trkpt lat="46.48792" lon="5.67292">
        <ele>476</ele>
        <time>2019-04-05T12:08:14Z</time>
      </trkpt>
      <trkpt lat="46.48805" lon="5.67276">
        <ele>480</ele>
        <time>2019-04-05T12:09:14Z</time>
      </trkpt>
      <trkpt lat="46.48832" lon="5.67261">
        <ele>489</ele>
        <time>2019-04-05T12:10:14Z</time>
      </trkpt>
      <trkpt lat="46.48848" lon="5.67259">
        <ele>491</ele>
        <time>2019-04-05T12:11:14Z</time>
      </trkpt>
      <trkpt lat="46.48869" lon="5.67263">
        <ele>494</ele>
        <time>2019-04-05T12:12:14Z</time>
      </trkpt>
      <trkpt lat="46.4889" lon="5.67271">
        <ele>497</ele>
        <time>2019-04-05T12:13:14Z</time>
      </trkpt>
      <trkpt lat="46.48917" lon="5.67291">
        <ele>500</ele>
        <time>2019-04-05T12:14:14Z</time>
      </trkpt>
      <trkpt lat="46.48935" lon="5.67301">
        <ele>500</ele>
        <time>2019-04-05T12:15:14Z</time>
      </trkpt>
      <trkpt lat="46.48948" lon="5.67305">
        <ele>501</ele>
        <time>2019-04-05T12:16:14Z</time>
      </trkpt>
      <trkpt lat="46.48964" lon="5.67302">
        <ele>503</ele>
        <time>2019-04-05T12:17:14Z</time>
      </trkpt>
      <trkpt lat="46.48979" lon="5.67298">
        <ele>504</ele>
        <time>2019-04-05T12:18:14Z</time>
      </trkpt>
      <trkpt lat="46.48991" lon="5.6729">
        <ele>505</ele>
        <time>2019-04-05T12:19:14Z</time>
      </trkpt>
      <trkpt lat="46.49006" lon="5.67275">
        <ele>506</ele>
        <time>2019-04-05T12:20:14Z</time>
      </trkpt>
      <trkpt lat="46.49018" lon="5.67261">
        <ele>506</ele>
        <time>2019-04-05T12:21:14Z</time>
      </trkpt>
      <trkpt lat="46.49025" lon="5.6725">
        <ele>505</ele>
        <time>2019-04-05T12:22:14Z</time>
      </trkpt>
      <trkpt lat="46.49038" lon="5.67214">
        <ele>504</ele>
        <time>2019-04-05T12:23:14Z</time>
      </trkpt>
      <trkpt lat="46.49043" lon="5.67201">
        <ele>504</ele>
        <time>2019-04-05T12:24:14Z</time>
      </trkpt>
      <trkpt lat="46.49054" lon="5.67181">
        <ele>503</ele>
        <time>2019-04-05T12:25:14Z</time>
      </trkpt>
      <trkpt lat="46.49058" lon="5.6717">
        <ele>503</ele>
        <time>2019-04-05T12:26:14Z</time>
      </trkpt>
      <trkpt lat="46.49076" lon="5.67187">
        <ele>503</ele>
        <time>2019-04-05T12:27:14Z</time>
      </trkpt>
      <trkpt lat="46.49116" lon="5.67195">
        <ele>503</ele>
        <time>2019-04-05T12:28:14Z</time>
      </trkpt>
      <trkpt lat="46.49132" lon="5.67208">
        <ele>504</ele>
        <time>2019-04-05T12:29:14Z</time>
      </trkpt>
      <trkpt lat="46.49152" lon="5.67208">
        <ele>504</ele>
        <time>2019-04-05T12:30:14Z</time>
      </trkpt>
      <trkpt lat="46.49165" lon="5.67252">
        <ele>505</ele>
        <time>2019-04-05T12:31:14Z</time>
      </trkpt>
      <trkpt lat="46.4917" lon="5.67264">
        <ele>505</ele>
        <time>2019-04-05T12:32:14Z</time>
      </trkpt>
      <trkpt lat="46.49179" lon="5.67258">
        <ele>505</ele>
        <time>2019-04-05T12:33:14Z</time>
      </trkpt>
      <trkpt lat="46.4918" lon="5.6724">
        <ele>505</ele>
        <time>2019-04-05T12:34:14Z</time>
      </trkpt>
      <trkpt lat="46.49191" lon="5.67224">
        <ele>505</ele>
        <time>2019-04-05T12:35:14Z</time>
      </trkpt>
      <trkpt lat="46.492" lon="5.67234">
        <ele>506</ele>
        <time>2019-04-05T12:36:14Z</time>
      </trkpt>
      <trkpt lat="46.49211" lon="5.6722">
        <ele>506</ele>
        <time>2019-04-05T12:37:14Z</time>
      </trkpt>
      <trkpt lat="46.49219" lon="5.67219">
        <ele>506</ele>
        <time>2019-04-05T12:38:14Z</time>
      </trkpt>
      <trkpt lat="46.49236" lon="5.67244">
        <ele>506</ele>
        <time>2019-04-05T12:39:14Z</time>
      </trkpt>
      <trkpt lat="46.49254" lon="5.67254">
        <ele>506</ele>
        <time>2019-04-05T12:40:14Z</time>
      </trkpt>
      <trkpt lat="46.49254" lon="5.67279">
        <ele>505</ele>
        <time>2019-04-05T12:41:14Z</time>
      </trkpt>
      <trkpt lat="46.49266" lon="5.67279">
        <ele>505</ele>
        <time>2019-04-05T12:42:14Z</time>
      </trkpt>
      <trkpt lat="46.49289" lon="5.67236">
        <ele>506</ele>
        <time>2019-04-05T12:43:14Z</time>
      </trkpt>
      <trkpt lat="46.49297" lon="5.67237">
        <ele>506</ele>
        <time>2019-04-05T12:44:14Z</time>
      </trkpt>
      <trkpt lat="46.49307" lon="5.67245">
        <ele>506</ele>
        <time>2019-04-05T12:45:14Z</time>
      </trkpt>
      <trkpt lat="46.49324" lon="5.67229">
        <ele>506</ele>
        <time>2019-04-05T12:46:14Z</time>
      </trkpt>
      <trkpt lat="46.49339" lon="5.67233">
        <ele>506</ele>
        <time>2019-04-05T12:47:14Z</time>
      </trkpt>
      <trkpt lat="46.49344" lon="5.67218">
        <ele>507</ele>
        <time>2019-04-05T12:48:14Z</time>
      </trkpt>
      <trkpt lat="46.49359" lon="5.67206">
        <ele>508</ele>
        <time>2019-04-05T12:49:14Z</time>
      </trkpt>
      <trkpt lat="46.49373" lon="5.67209">
        <ele>508</ele>
        <time>2019-04-05T12:50:14Z</time>
      </trkpt>
      <trkpt lat="46.49378" lon="5.67186">
        <ele>509</ele>
        <time>2019-04-05T12:51:14Z</time>
      </trkpt>
      <trkpt lat="46.49386" lon="5.67186">
        <ele>509</ele>
        <time>2019-04-05T12:52:14Z</time>
      </trkpt>
      <trkpt lat="46.49401" lon="5.67157">
        <ele>510</ele>
        <time>2019-04-05T12:53:14Z</time>
      </trkpt>
      <trkpt lat="46.494" lon="5.6713">
        <ele>511</ele>
        <time>2019-04-05T12:54:14Z</time>
      </trkpt>
      <trkpt lat="46.49431" lon="5.6711">
        <ele>513</ele>
        <time>2019-04-05T12:55:14Z</time>
      </trkpt>
      <trkpt lat="46.49453" lon="5.67111">
        <ele>513</ele>
        <time>2019-04-05T12:56:14Z</time>
      </trkpt>
      <trkpt lat="46.49486" lon="5.67092">
        <ele>513</ele>
        <time>2019-04-05T12:57:14Z</time>
      </trkpt>
      <trkpt lat="46.49519" lon="5.67059">
        <ele>514</ele>
        <time>2019-04-05T12:58:14Z</time>
      </trkpt>
      <trkpt lat="46.49592" lon="5.67037">
        <ele>513</ele>
        <time>2019-04-05T12:59:14Z</time>
      </trkpt>
      <trkpt lat="46.49605" lon="5.6703">
        <ele>513</ele>
        <time>2019-04-05T13:00:14Z</time>
      </trkpt>
      <trkpt lat="46.49635" lon="5.67019">
        <ele>512</ele>
        <time>2019-04-05T13:01:14Z</time>
      </trkpt>
      <trkpt lat="46.49647" lon="5.67013">
        <ele>511</ele>
        <time>2019-04-05T13:02:14Z</time>
      </trkpt>
      <trkpt lat="46.49658" lon="5.6701">
        <ele>511</ele>
        <time>2019-04-05T13:03:14Z</time>
      </trkpt>
      <trkpt lat="46.49666" lon="5.67009">
        <ele>510</ele>
        <time>2019-04-05T13:04:14Z</time>
      </trkpt>
      <trkpt lat="46.49674" lon="5.67008">
        <ele>510</ele>
        <time>2019-04-05T13:05:14Z</time>
      </trkpt>
      <trkpt lat="46.49691" lon="5.66999">
        <ele>511</ele>
        <time>2019-04-05T13:06:14Z</time>
      </trkpt>
      <trkpt lat="46.4971" lon="5.66988">
        <ele>511</ele>
        <time>2019-04-05T13:07:14Z</time>
      </trkpt>
      <trkpt lat="46.49749" lon="5.6697">
        <ele>513</ele>
        <time>2019-04-05T13:08:14Z</time>
      </trkpt>
      <trkpt lat="46.49772" lon="5.66959">
        <ele>513</ele>
        <time>2019-04-05T13:09:14Z</time>
      </trkpt>
      <trkpt lat="46.4979" lon="5.66952">
        <ele>513</ele>
        <time>2019-04-05T13:10:14Z</time>
      </trkpt>
      <trkpt lat="46.49801" lon="5.66947">
        <ele>513</ele>
        <time>2019-04-05T13:11:14Z</time>
      </trkpt>
      <trkpt lat="46.49823" lon="5.66944">
        <ele>513</ele>
        <time>2019-04-05T13:12:14Z</time>
      </trkpt>
      <trkpt lat="46.49834" lon="5.66943">
        <ele>513</ele>
        <time>2019-04-05T13:13:14Z</time>
      </trkpt>
      <trkpt lat="46.49853" lon="5.66936">
        <ele>514</ele>
        <time>2019-04-05T13:14:14Z</time>
      </trkpt>
      <trkpt lat="46.49867" lon="5.66934">
        <ele>514</ele>
        <time>2019-04-05T13:15:14Z</time>
      </trkpt>
      <trkpt lat="46.49886" lon="5.66933">
        <ele>515</ele>
        <time>2019-04-05T13:16:14Z</time>
      </trkpt>
      <trkpt lat="46.49904" lon="5.66934">
        <ele>515</ele>
        <time>2019-04-05T13:17:14Z</time>
      </trkpt>
      <trkpt lat="46.49921" lon="5.66935">
        <ele>515</ele>
        <time>2019-04-05T13:18:14Z</time>
      </trkpt>
      <trkpt lat="46.49936" lon="5.66933">
        <ele>515</ele>
        <time>2019-04-05T13:19:14Z</time>
      </trkpt>
      <trkpt lat="46.49954" lon="5.66933">
        <ele>516</ele>
        <time>2019-04-05T13:20:14Z</time>
      </trkpt>
      <trkpt lat="46.49963" lon="5.66932">
        <ele>516</ele>
        <time>2019-04-05T13:21:14Z</time>
      </trkpt>
      <trkpt lat="46.49997" lon="5.66935">
        <ele>516</ele>
        <time>2019-04-05T13:22:14Z</time>
      </trkpt>
      <trkpt lat="46.50029" lon="5.6694">
        <ele>518</ele>
        <time>2019-04-05T13:23:14Z</time>
      </trkpt>
      <trkpt lat="46.50068" lon="5.66955">
        <ele>520</ele>
        <time>2019-04-05T13:24:14Z</time>
      </trkpt>
      <trkpt lat="46.50091" lon="5.66971">
        <ele>520</ele>
        <time>2019-04-05T13:25:14Z</time>
      </trkpt>
      <trkpt lat="46.50135" lon="5.66977">
        <ele>522</ele>
        <time>2019-04-05T13:26:14Z</time>
      </trkpt>
      <trkpt lat="46.5016" lon="5.66979">
        <ele>523</ele>
        <time>2019-04-05T13:27:14Z</time>
      </trkpt>
      <trkpt lat="46.5022" lon="5.66972">
        <ele>525</ele>
        <time>2019-04-05T13:28:14Z</time>
      </trkpt>
      <trkpt lat="46.50266" lon="5.66957">
        <ele>526</ele>
        <time>2019-04-05T13:29:14Z</time>
      </trkpt>
      <trkpt lat="46.50277" lon="5.66954">
        <ele>526</ele>
        <time>2019-04-05T13:30:14Z</time>
      </trkpt>
      <trkpt lat="46.50297" lon="5.66958">
        <ele>525</ele>
        <time>2019-04-05T13:31:14Z</time>
      </trkpt>
      <trkpt lat="46.50309" lon="5.66959">
        <ele>525</ele>
        <time>2019-04-05T13:32:14Z</time>
      </trkpt>
      <trkpt lat="46.5032" lon="5.66957">
        <ele>525</ele>
        <time>2019-04-05T13:33:14Z</time>
      </trkpt>
      <trkpt lat="46.50326" lon="5.66953">
        <ele>525</ele>
        <time>2019-04-05T13:34:14Z</time>
      </trkpt>
      <trkpt lat="46.50367" lon="5.66929">
        <ele>524</ele>
        <time>2019-04-05T13:35:14Z</time>
      </trkpt>
      <trkpt lat="46.50379" lon="5.66916">
        <ele>523</ele>
        <time>2019-04-05T13:36:14Z</time>
      </trkpt>
      <trkpt lat="46.50391" lon="5.66904">
        <ele>523</ele>
        <time>2019-04-05T13:37:14Z</time>
      </trkpt>
      <trkpt lat="46.50415" lon="5.66887">
        <ele>523</ele>
        <time>2019-04-05T13:38:14Z</time>
      </trkpt>
      <trkpt lat="46.50425" lon="5.66885">
        <ele>523</ele>
        <time>2019-04-05T13:39:14Z</time>
      </trkpt>
      <trkpt lat="46.50443" lon="5.66886">
        <ele>523</ele>
        <time>2019-04-05T13:40:14Z</time>
      </trkpt>
      <trkpt lat="46.50491" lon="5.66895">
        <ele>524</ele>
        <time>2019-04-05T13:41:14Z</time>
      </trkpt>
      <trkpt lat="46.50503" lon="5.66899">
        <ele>524</ele>
        <time>2019-04-05T13:42:14Z</time>
      </trkpt>
      <trkpt lat="46.50518" lon="5.66911">
        <ele>524</ele>
        <time>2019-04-05T13:43:14Z</time>
      </trkpt>
      <trkpt lat="46.50545" lon="5.66926">
        <ele>524</ele>
        <time>2019-04-05T13:44:14Z</time>
      </trkpt>
      <trkpt lat="46.50569" lon="5.66935">
        <ele>523</ele>
        <time>2019-04-05T13:45:14Z</time>
      </trkpt>
      <trkpt lat="46.50593" lon="5.66938">
        <ele>523</ele>
        <time>2019-04-05T13:46:14Z</time>
      </trkpt>
      <trkpt lat="46.50613" lon="5.66932">
        <ele>524</ele>
        <time>2019-04-05T13:47:14Z</time>
      </trkpt>
      <trkpt lat="46.50627" lon="5.66918">
        <ele>525</ele>
        <time>2019-04-05T13:48:14Z</time>
      </trkpt>
      <trkpt lat="46.50645" lon="5.66898">
        <ele>525</ele>
        <time>2019-04-05T13:49:14Z</time>
      </trkpt>
      <trkpt lat="46.50657" lon="5.66891">
        <ele>525</ele>
        <time>2019-04-05T13:50:14Z</time>
      </trkpt>
      <trkpt lat="46.50696" lon="5.66869">
        <ele>523</ele>
        <time>2019-04-05T13:51:14Z</time>
      </trkpt>
      <trkpt lat="46.50709" lon="5.6686">
        <ele>522</ele>
        <time>2019-04-05T13:52:14Z</time>
      </trkpt>
      <trkpt lat="46.50719" lon="5.66852">
        <ele>521</ele>
        <time>2019-04-05T13:53:14Z</time>
      </trkpt>
      <trkpt lat="46.50752" lon="5.66806">
        <ele>519</ele>
        <time>2019-04-05T13:54:14Z</time>
      </trkpt>
      <trkpt lat="46.5077" lon="5.66786">
        <ele>518</ele>
        <time>2019-04-05T13:55:14Z</time>
      </trkpt>
      <trkpt lat="46.50795" lon="5.66754">
        <ele>517</ele>
        <time>2019-04-05T13:56:14Z</time>
      </trkpt>
      <trkpt lat="46.50807" lon="5.66735">
        <ele>517</ele>
        <time>2019-04-05T13:57:14Z</time>
      </trkpt>
      <trkpt lat="46.50824" lon="5.66712">
        <ele>516</ele>
        <time>2019-04-05T13:58:14Z</time>
      </trkpt>
      <trkpt lat="46.50813" lon="5.66761">
        <ele>517</ele>
        <time>2019-04-05T13:59:14Z</time>
      </trkpt>
      <trkpt lat="46.50804" lon="5.6679">
        <ele>516</ele>
        <time>2019-04-05T14:00:14Z</time>
      </trkpt>
      <trkpt lat="46.50784" lon="5.66841">
        <ele>517</ele>
        <time>2019-04-05T14:01:14Z</time>
      </trkpt>
      <trkpt lat="46.50766" lon="5.66881">
        <ele>518</ele>
        <time>2019-04-05T14:02:14Z</time>
      </trkpt>
      <trkpt lat="46.50751" lon="5.66911">
        <ele>521</ele>
        <time>2019-04-05T14:03:14Z</time>
      </trkpt>
      <trkpt lat="46.50745" lon="5.66934">
        <ele>520</ele>
        <time>2019-04-05T14:04:14Z</time>
      </trkpt>
      <trkpt lat="46.5074" lon="5.6695">
        <ele>519</ele>
        <time>2019-04-05T14:05:14Z</time>
      </trkpt>
      <trkpt lat="46.50725" lon="5.66969">
        <ele>519</ele>
        <time>2019-04-05T14:06:14Z</time>
      </trkpt>
      <trkpt lat="46.50717" lon="5.66982">
        <ele>518</ele>
        <time>2019-04-05T14:07:14Z</time>
      </trkpt>
      <trkpt lat="46.5071" lon="5.67">
        <ele>518</ele>
        <time>2019-04-05T14:08:14Z</time>
      </trkpt>
      <trkpt lat="46.50707" lon="5.6702">
        <ele>515</ele>
        <time>2019-04-05T14:09:14Z</time>
      </trkpt>
      <trkpt lat="46.507" lon="5.67044">
        <ele>512</ele>
        <time>2019-04-05T14:10:14Z</time>
      </trkpt>
      <trkpt lat="46.50688" lon="5.67067">
        <ele>512</ele>
        <time>2019-04-05T14:11:14Z</time>
      </trkpt>
      <trkpt lat="46.5067" lon="5.67086">
        <ele>516</ele>
        <time>2019-04-05T14:12:14Z</time>
      </trkpt>
      <trkpt lat="46.50638" lon="5.67103">
        <ele>516</ele>
        <time>2019-04-05T14:13:14Z</time>
      </trkpt>
      <trkpt lat="46.50619" lon="5.6713">
        <ele>516</ele>
        <time>2019-04-05T14:14:14Z</time>
      </trkpt>
      <trkpt lat="46.50609" lon="5.67139">
        <ele>517</ele>
        <time>2019-04-05T14:15:14Z</time>
      </trkpt>
      <trkpt lat="46.50603" lon="5.6715">
        <ele>517</ele>
        <time>2019-04-05T14:16:14Z</time>
      </trkpt>
      <trkpt lat="46.50588" lon="5.67183">
        <ele>520</ele>
        <time>2019-04-05T14:17:14Z</time>
      </trkpt>
      <trkpt lat="46.50583" lon="5.672">
        <ele>522</ele>
        <time>2019-04-05T14:18:14Z</time>
      </trkpt>
      <trkpt lat="46.50579" lon="5.67215">
        <ele>523</ele>
        <time>2019-04-05T14:19:14Z</time>
      </trkpt>
      <trkpt lat="46.50571" lon="5.67252">
        <ele>525</ele>
        <time>2019-04-05T14:20:14Z</time>
      </trkpt>
      <trkpt lat="46.50566" lon="5.67286">
        <ele>525</ele>
        <time>2019-04-05T14:21:14Z</time>
      </trkpt>
      <trkpt lat="46.50566" lon="5.67317">
        <ele>525</ele>
        <time>2019-04-05T14:22:14Z</time>
      </trkpt>
      <trkpt lat="46.50568" lon="5.67354">
        <ele>525</ele>
        <time>2019-04-05T14:23:14Z</time>
      </trkpt>
      <trkpt lat="46.50571" lon="5.67367">
        <ele>525</ele>
        <time>2019-04-05T14:24:14Z</time>
      </trkpt>
      <trkpt lat="46.50573" lon="5.67381">
        <ele>525</ele>
        <time>2019-04-05T14:25:14Z</time>
      </trkpt>
      <trkpt lat="46.5057" lon="5.6746">
        <ele>524</ele>
        <time>2019-04-05T14:26:14Z</time>
      </trkpt>
      <trkpt lat="46.5057" lon="5.67476">
        <ele>523</ele>
        <time>2019-04-05T14:27:14Z</time>
      </trkpt>
      <trkpt lat="46.5057" lon="5.67494">
        <ele>523</ele>
        <time>2019-04-05T14:28:14Z</time>
      </trkpt>
      <trkpt lat="46.50571" lon="5.67509">
        <ele>522</ele>
        <time>2019-04-05T14:29:14Z</time>
      </trkpt>
      <trkpt lat="46.50578" lon="5.6753">
        <ele>521</ele>
        <time>2019-04-05T14:30:14Z</time>
      </trkpt>
      <trkpt lat="46.50585" lon="5.67543">
        <ele>521</ele>
        <time>2019-04-05T14:31:14Z</time>
      </trkpt>
      <trkpt lat="46.50588" lon="5.67557">
        <ele>519</ele>
        <time>2019-04-05T14:32:14Z</time>
      </trkpt>
      <trkpt lat="46.50586" lon="5.67573">
        <ele>518</ele>
        <time>2019-04-05T14:33:14Z</time>
      </trkpt>
      <trkpt lat="46.50582" lon="5.6759">
        <ele>517</ele>
        <time>2019-04-05T14:34:14Z</time>
      </trkpt>
      <trkpt lat="46.50582" lon="5.67605">
        <ele>515</ele>
        <time>2019-04-05T14:35:14Z</time>
      </trkpt>
      <trkpt lat="46.50583" lon="5.67619">
        <ele>513</ele>
        <time>2019-04-05T14:36:14Z</time>
      </trkpt>
      <trkpt lat="46.50587" lon="5.6763">
        <ele>511</ele>
        <time>2019-04-05T14:37:14Z</time>
      </trkpt>
      <trkpt lat="46.50595" lon="5.67642">
        <ele>509</ele>
        <time>2019-04-05T14:38:14Z</time>
      </trkpt>
      <trkpt lat="46.50611" lon="5.67655">
        <ele>508</ele>
        <time>2019-04-05T14:39:14Z</time>
      </trkpt>
      <trkpt lat="46.50627" lon="5.67669">
        <ele>507</ele>
        <time>2019-04-05T14:40:14Z</time>
      </trkpt>
      <trkpt lat="46.50638" lon="5.67681">
        <ele>506</ele>
        <time>2019-04-05T14:41:14Z</time>
      </trkpt>
      <trkpt lat="46.5065" lon="5.67695">
        <ele>505</ele>
        <time>2019-04-05T14:42:14Z</time>
      </trkpt>
      <trkpt lat="46.50661" lon="5.67712">
        <ele>505</ele>
        <time>2019-04-05T14:43:14Z</time>
      </trkpt>
      <trkpt lat="46.5067" lon="5.67726">
        <ele>503</ele>
        <time>2019-04-05T14:44:14Z</time>
      </trkpt>
      <trkpt lat="46.50681" lon="5.67734">
        <ele>500</ele>
        <time>2019-04-05T14:45:14Z</time>
      </trkpt>
      <trkpt lat="46.50692" lon="5.67739">
        <ele>497</ele>
        <time>2019-04-05T14:46:14Z</time>
      </trkpt>
      <trkpt lat="46.50701" lon="5.67739">
        <ele>494</ele>
        <time>2019-04-05T14:47:14Z</time>
      </trkpt>
      <trkpt lat="46.50707" lon="5.67734">
        <ele>493</ele>
        <time>2019-04-05T14:48:14Z</time>
      </trkpt>
      <trkpt lat="46.5071" lon="5.67725">
        <ele>492</ele>
        <time>2019-04-05T14:49:14Z</time>
      </trkpt>
      <trkpt lat="46.50712" lon="5.6771">
        <ele>491</ele>
        <time>2019-04-05T14:50:14Z</time>
      </trkpt>
      <trkpt lat="46.50712" lon="5.67667">
        <ele>491</ele>
        <time>2019-04-05T14:51:14Z</time>
      </trkpt>
      <trkpt lat="46.50712" lon="5.67653">
        <ele>490</ele>
        <time>2019-04-05T14:52:14Z</time>
      </trkpt>
      <trkpt lat="46.5071" lon="5.67604">
        <ele>486</ele>
        <time>2019-04-05T14:53:14Z</time>
      </trkpt>
      <trkpt lat="46.50709" lon="5.67591">
        <ele>485</ele>
        <time>2019-04-05T14:54:14Z</time>
      </trkpt>
      <trkpt lat="46.50706" lon="5.67579">
        <ele>486</ele>
        <time>2019-04-05T14:55:14Z</time>
      </trkpt>
      <trkpt lat="46.50698" lon="5.67561">
        <ele>488</ele>
        <time>2019-04-05T14:56:14Z</time>
      </trkpt>
      <trkpt lat="46.50694" lon="5.6755">
        <ele>490</ele>
        <time>2019-04-05T14:57:14Z</time>
      </trkpt>
      <trkpt lat="46.50687" lon="5.67537">
        <ele>493</ele>
        <time>2019-04-05T14:58:14Z</time>
      </trkpt>
      <trkpt lat="46.5068" lon="5.67521">
        <ele>496</ele>
        <time>2019-04-05T14:59:14Z</time>
      </trkpt>
      <trkpt lat="46.50675" lon="5.67507">
        <ele>498</ele>
        <time>2019-04-05T15:00:14Z</time>
      </trkpt>
      <trkpt lat="46.50674" lon="5.67494">
        <ele>498</ele>
        <time>2019-04-05T15:01:14Z</time>
      </trkpt>
      <trkpt lat="46.50674" lon="5.67481">
        <ele>498</ele>
        <time>2019-04-05T15:02:14Z</time>
      </trkpt>
      <trkpt lat="46.50674" lon="5.67463">
        <ele>498</ele>
        <time>2019-04-05T15:03:14Z</time>
      </trkpt>
      <trkpt lat="46.50675" lon="5.67444">
        <ele>498</ele>
        <time>2019-04-05T15:04:14Z</time>
      </trkpt>
      <trkpt lat="46.50678" lon="5.67398">
        <ele>496</ele>
        <time>2019-04-05T15:05:14Z</time>
      </trkpt>
      <trkpt lat="46.5068" lon="5.67379">
        <ele>494</ele>
        <time>2019-04-05T15:06:14Z</time>
      </trkpt>
      <trkpt lat="46.50674" lon="5.67355">
        <ele>498</ele>
        <time>2019-04-05T15:07:14Z</time>
      </trkpt>
      <trkpt lat="46.50675" lon="5.6734">
        <ele>497</ele>
        <time>2019-04-05T15:08:14Z</time>
      </trkpt>
      <trkpt lat="46.50681" lon="5.67321">
        <ele>493</ele>
        <time>2019-04-05T15:09:14Z</time>
      </trkpt>
      <trkpt lat="46.50694" lon="5.67291">
        <ele>486</ele>
        <time>2019-04-05T15:10:14Z</time>
      </trkpt>
      <trkpt lat="46.50705" lon="5.67235">
        <ele>483</ele>
        <time>2019-04-05T15:11:14Z</time>
      </trkpt>
      <trkpt lat="46.5072" lon="5.67187">
        <ele>481</ele>
        <time>2019-04-05T15:12:14Z</time>
      </trkpt>
      <trkpt lat="46.50749" lon="5.67123">
        <ele>481</ele>
        <time>2019-04-05T15:13:14Z</time>
      </trkpt>
      <trkpt lat="46.50791" lon="5.67046">
        <ele>480</ele>
        <time>2019-04-05T15:14:14Z</time>
      </trkpt>
      <trkpt lat="46.50831" lon="5.66984">
        <ele>482</ele>
        <time>2019-04-05T15:15:14Z</time>
      </trkpt>
      <trkpt lat="46.50851" lon="5.66967">
        <ele>480</ele>
        <time>2019-04-05T15:16:14Z</time>
      </trkpt>
      <trkpt lat="46.50874" lon="5.66951">
        <ele>478</ele>
        <time>2019-04-05T15:17:14Z</time>
      </trkpt>
      <trkpt lat="46.50911" lon="5.6693">
        <ele>475</ele>
        <time>2019-04-05T15:18:14Z</time>
      </trkpt>
      <trkpt lat="46.50948" lon="5.66903">
        <ele>478</ele>
        <time>2019-04-05T15:19:14Z</time>
      </trkpt>
      <trkpt lat="46.50986" lon="5.66884">
        <ele>477</ele>
        <time>2019-04-05T15:20:14Z</time>
      </trkpt>
      <trkpt lat="46.51038" lon="5.66873">
        <ele>475</ele>
        <time>2019-04-05T15:21:14Z</time>
      </trkpt>
      <trkpt lat="46.51084" lon="5.66872">
        <ele>472</ele>
        <time>2019-04-05T15:22:14Z</time>
      </trkpt>
      <trkpt lat="46.51131" lon="5.66874">
        <ele>474</ele>
        <time>2019-04-05T15:23:14Z</time>
      </trkpt>
      <trkpt lat="46.51181" lon="5.66882">
        <ele>475</ele>
        <time>2019-04-05T15:24:14Z</time>
      </trkpt>
      <trkpt lat="46.51196" lon="5.66884">
        <ele>476</ele>
        <time>2019-04-05T15:25:14Z</time>
      </trkpt>
      <trkpt lat="46.51206" lon="5.66894">
        <ele>473</ele>
        <time>2019-04-05T15:26:14Z</time>
      </trkpt>
      <trkpt lat="46.51226" lon="5.66918">
        <ele>465</ele>
        <time>2019-04-05T15:27:14Z</time>
      </trkpt>
      <trkpt lat="46.51247" lon="5.66932">
        <ele>462</ele>
        <time>2019-04-05T15:28:14Z</time>
      </trkpt>
      <trkpt lat="46.51288" lon="5.66964">
        <ele>459</ele>
        <time>2019-04-05T15:29:14Z</time>
      </trkpt>
      <trkpt lat="46.51328" lon="5.66984">
        <ele>459</ele>
        <time>2019-04-05T15:30:14Z</time>
      </trkpt>
      <trkpt lat="46.51362" lon="5.67">
        <ele>462</ele>
        <time>2019-04-05T15:31:14Z</time>
      </trkpt>
      <trkpt lat="46.51391" lon="5.6703">
        <ele>463</ele>
        <time>2019-04-05T15:32:14Z</time>
      </trkpt>
      <trkpt lat="46.51421" lon="5.6708">
        <ele>456</ele>
        <time>2019-04-05T15:33:14Z</time>
      </trkpt>
      <trkpt lat="46.51459" lon="5.67126">
        <ele>458</ele>
        <time>2019-04-05T15:34:14Z</time>
      </trkpt>
      <trkpt lat="46.51493" lon="5.67171">
        <ele>457</ele>
        <time>2019-04-05T15:35:14Z</time>
      </trkpt>
      <trkpt lat="46.51519" lon="5.67214">
        <ele>459</ele>
        <time>2019-04-05T15:36:14Z</time>
      </trkpt>
      <trkpt lat="46.51557" lon="5.67284">
        <ele>459</ele>
        <time>2019-04-05T15:37:14Z</time>
      </trkpt>
      <trkpt lat="46.51586" lon="5.67328">
        <ele>458</ele>
        <time>2019-04-05T15:38:14Z</time>
      </trkpt>
      <trkpt lat="46.51608" lon="5.67352">
        <ele>452</ele>
        <time>2019-04-05T15:39:14Z</time>
      </trkpt>
      <trkpt lat="46.51633" lon="5.67367">
        <ele>448</ele>
        <time>2019-04-05T15:40:14Z</time>
      </trkpt>
      <trkpt lat="46.51644" lon="5.67373">
        <ele>446</ele>
        <time>2019-04-05T15:41:14Z</time>
      </trkpt>
      <trkpt lat="46.51659" lon="5.67374">
        <ele>447</ele>
        <time>2019-04-05T15:42:14Z</time>
      </trkpt>
      <trkpt lat="46.51673" lon="5.67373">
        <ele>447</ele>
        <time>2019-04-05T15:43:14Z</time>
      </trkpt>
      <trkpt lat="46.51689" lon="5.67371">
        <ele>447</ele>
        <time>2019-04-05T15:44:14Z</time>
      </trkpt>
      <trkpt lat="46.51698" lon="5.67366">
        <ele>448</ele>
        <time>2019-04-05T15:45:14Z</time>
      </trkpt>
      <trkpt lat="46.51707" lon="5.67354">
        <ele>451</ele>
        <time>2019-04-05T15:46:14Z</time>
      </trkpt>
      <trkpt lat="46.51721" lon="5.67343">
        <ele>453</ele>
        <time>2019-04-05T15:47:14Z</time>
      </trkpt>
      <trkpt lat="46.51742" lon="5.67338">
        <ele>451</ele>
        <time>2019-04-05T15:48:14Z</time>
      </trkpt>
      <trkpt lat="46.51773" lon="5.67308">
        <ele>453</ele>
        <time>2019-04-05T15:49:14Z</time>
      </trkpt>
      <trkpt lat="46.51803" lon="5.67288">
        <ele>451</ele>
        <time>2019-04-05T15:50:14Z</time>
      </trkpt>
      <trkpt lat="46.51823" lon="5.6727">
        <ele>450</ele>
        <time>2019-04-05T15:51:14Z</time>
      </trkpt>
      <trkpt lat="46.51836" lon="5.67248">
        <ele>451</ele>
        <time>2019-04-05T15:52:14Z</time>
      </trkpt>
      <trkpt lat="46.51855" lon="5.67233">
        <ele>452</ele>
        <time>2019-04-05T15:53:14Z</time>
      </trkpt>
      <trkpt lat="46.51871" lon="5.67213">
        <ele>454</ele>
        <time>2019-04-05T15:54:14Z</time>
      </trkpt>
      <trkpt lat="46.51905" lon="5.67176">
        <ele>454</ele>
        <time>2019-04-05T15:55:14Z</time>
      </trkpt>
      <trkpt lat="46.51928" lon="5.67174">
        <ele>450</ele>
        <time>2019-04-05T15:56:14Z</time>
      </trkpt>
      <trkpt lat="46.51938" lon="5.67142">
        <ele>460</ele>
        <time>2019-04-05T15:57:14Z</time>
      </trkpt>
      <trkpt lat="46.51963" lon="5.67123">
        <ele>462</ele>
        <time>2019-04-05T15:58:14Z</time>
      </trkpt>
      <trkpt lat="46.51991" lon="5.67129">
        <ele>456</ele>
        <time>2019-04-05T15:59:14Z</time>
      </trkpt>
      <trkpt lat="46.52014" lon="5.6714">
        <ele>453</ele>
        <time>2019-04-05T16:00:14Z</time>
      </trkpt>
      <trkpt lat="46.52037" lon="5.67145">
        <ele>453</ele>
        <time>2019-04-05T16:01:14Z</time>
      </trkpt>
      <trkpt lat="46.5206" lon="5.67116">
        <ele>461</ele>
        <time>2019-04-05T16:02:14Z</time>
      </trkpt>
      <trkpt lat="46.52067" lon="5.67112">
        <ele>462</ele>
        <time>2019-04-05T16:03:14Z</time>
      </trkpt>
      <trkpt lat="46.52075" lon="5.67109">
        <ele>463</ele>
        <time>2019-04-05T16:04:14Z</time>
      </trkpt>
      <trkpt lat="46.5209" lon="5.67108">
        <ele>464</ele>
        <time>2019-04-05T16:05:14Z</time>
      </trkpt>
      <trkpt lat="46.52104" lon="5.6711">
        <ele>464</ele>
        <time>2019-04-05T16:06:14Z</time>
      </trkpt>
      <trkpt lat="46.52119" lon="5.67114">
        <ele>464</ele>
        <time>2019-04-05T16:07:14Z</time>
      </trkpt>
      <trkpt lat="46.52135" lon="5.67121">
        <ele>462</ele>
        <time>2019-04-05T16:08:14Z</time>
      </trkpt>
      <trkpt lat="46.52164" lon="5.67136">
        <ele>460</ele>
        <time>2019-04-05T16:09:14Z</time>
      </trkpt>
      <trkpt lat="46.5219" lon="5.67148">
        <ele>459</ele>
        <time>2019-04-05T16:10:14Z</time>
      </trkpt>
      <trkpt lat="46.5222" lon="5.67159">
        <ele>458</ele>
        <time>2019-04-05T16:11:14Z</time>
      </trkpt>
      <trkpt lat="46.52231" lon="5.67164">
        <ele>458</ele>
        <time>2019-04-05T16:12:14Z</time>
      </trkpt>
      <trkpt lat="46.52242" lon="5.67171">
        <ele>457</ele>
        <time>2019-04-05T16:13:14Z</time>
      </trkpt>
      <trkpt lat="46.52253" lon="5.67181">
        <ele>458</ele>
        <time>2019-04-05T16:14:14Z</time>
      </trkpt>
      <trkpt lat="46.52265" lon="5.67196">
        <ele>460</ele>
        <time>2019-04-05T16:15:14Z</time>
      </trkpt>
      <trkpt lat="46.52274" lon="5.67212">
        <ele>461</ele>
        <time>2019-04-05T16:16:14Z</time>
      </trkpt>
      <trkpt lat="46.52281" lon="5.67231">
        <ele>461</ele>
        <time>2019-04-05T16:17:14Z</time>
      </trkpt>
      <trkpt lat="46.52289" lon="5.67254">
        <ele>461</ele>
        <time>2019-04-05T16:18:14Z</time>
      </trkpt>
      <trkpt lat="46.52301" lon="5.67294">
        <ele>461</ele>
        <time>2019-04-05T16:19:14Z</time>
      </trkpt>
      <trkpt lat="46.52319" lon="5.67358">
        <ele>459</ele>
        <time>2019-04-05T16:20:14Z</time>
      </trkpt>
      <trkpt lat="46.52332" lon="5.67399">
        <ele>457</ele>
        <time>2019-04-05T16:21:14Z</time>
      </trkpt>
      <trkpt lat="46.52352" lon="5.67458">
        <ele>462</ele>
        <time>2019-04-05T16:22:14Z</time>
      </trkpt>
      <trkpt lat="46.52357" lon="5.67479">
        <ele>463</ele>
        <time>2019-04-05T16:23:14Z</time>
      </trkpt>
      <trkpt lat="46.52359" lon="5.67492">
        <ele>464</ele>
        <time>2019-04-05T16:24:14Z</time>
      </trkpt>
      <trkpt lat="46.52359" lon="5.67505">
        <ele>463</ele>
        <time>2019-04-05T16:25:14Z</time>
      </trkpt>
      <trkpt lat="46.52358" lon="5.6752">
        <ele>463</ele>
        <time>2019-04-05T16:26:14Z</time>
      </trkpt>
      <trkpt lat="46.52359" lon="5.67532">
        <ele>463</ele>
        <time>2019-04-05T16:27:14Z</time>
      </trkpt>
      <trkpt lat="46.52362" lon="5.67546">
        <ele>464</ele>
        <time>2019-04-05T16:28:14Z</time>
      </trkpt>
      <trkpt lat="46.52365" lon="5.67569">
        <ele>465</ele>
        <time>2019-04-05T16:29:14Z</time>
      </trkpt>
      <trkpt lat="46.52365" lon="5.67587">
        <ele>465</ele>
        <time>2019-04-05T16:30:14Z</time>
      </trkpt>
      <trkpt lat="46.52363" lon="5.67604">
        <ele>465</ele>
        <time>2019-04-05T16:31:14Z</time>
      </trkpt>
      <trkpt lat="46.5236" lon="5.67618">
        <ele>464</ele>
        <time>2019-04-05T16:32:14Z</time>
      </trkpt>
      <trkpt lat="46.52357" lon="5.67635">
        <ele>464</ele>
        <time>2019-04-05T16:33:14Z</time>
      </trkpt>
      <trkpt lat="46.52355" lon="5.67647">
        <ele>463</ele>
        <time>2019-04-05T16:34:14Z</time>
      </trkpt>
      <trkpt lat="46.52351" lon="5.67656">
        <ele>462</ele>
        <time>2019-04-05T16:35:14Z</time>
      </trkpt>
      <trkpt lat="46.52344" lon="5.67663">
        <ele>460</ele>
        <time>2019-04-05T16:36:14Z</time>
      </trkpt>
      <trkpt lat="46.52339" lon="5.67665">
        <ele>458</ele>
        <time>2019-04-05T16:37:14Z</time>
      </trkpt>
      <trkpt lat="46.52328" lon="5.67703">
        <ele>458</ele>
        <time>2019-04-05T16:38:14Z</time>
      </trkpt>
      <trkpt lat="46.52326" lon="5.67715">
        <ele>458</ele>
        <time>2019-04-05T16:39:14Z</time>
      </trkpt>
      <trkpt lat="46.52323" lon="5.67773">
        <ele>461</ele>
        <time>2019-04-05T16:40:14Z</time>
      </trkpt>
      <trkpt lat="46.52323" lon="5.67785">
        <ele>462</ele>
        <time>2019-04-05T16:41:14Z</time>
      </trkpt>
      <trkpt lat="46.52325" lon="5.67796">
        <ele>463</ele>
        <time>2019-04-05T16:42:14Z</time>
      </trkpt>
      <trkpt lat="46.52328" lon="5.67805">
        <ele>465</ele>
        <time>2019-04-05T16:43:14Z</time>
      </trkpt>
      <trkpt lat="46.52334" lon="5.67813">
        <ele>467</ele>
        <time>2019-04-05T16:44:14Z</time>
      </trkpt>
      <trkpt lat="46.52334" lon="5.67823">
        <ele>468</ele>
        <time>2019-04-05T16:45:14Z</time>
      </trkpt>
      <trkpt lat="46.52329" lon="5.67833">
        <ele>467</ele>
        <time>2019-04-05T16:46:14Z</time>
      </trkpt>
      <trkpt lat="46.52325" lon="5.67849">
        <ele>469</ele>
        <time>2019-04-05T16:47:14Z</time>
      </trkpt>
      <trkpt lat="46.52322" lon="5.67873">
        <ele>472</ele>
        <time>2019-04-05T16:48:14Z</time>
      </trkpt>
      <trkpt lat="46.52319" lon="5.67886">
        <ele>473</ele>
        <time>2019-04-05T16:49:14Z</time>
      </trkpt>
      <trkpt lat="46.52312" lon="5.67919">
        <ele>476</ele>
        <time>2019-04-05T16:50:14Z</time>
      </trkpt>
      <trkpt lat="46.52309" lon="5.67937">
        <ele>478</ele>
        <time>2019-04-05T16:51:14Z</time>
      </trkpt>
      <trkpt lat="46.52301" lon="5.67949">
        <ele>478</ele>
        <time>2019-04-05T16:52:14Z</time>
      </trkpt>
      <trkpt lat="46.52297" lon="5.67961">
        <ele>478</ele>
        <time>2019-04-05T16:53:14Z</time>
      </trkpt>
      <trkpt lat="46.52297" lon="5.67971">
        <ele>479</ele>
        <time>2019-04-05T16:54:14Z</time>
      </trkpt>
      <trkpt lat="46.52295" lon="5.67979">
        <ele>480</ele>
        <time>2019-04-05T16:55:14Z</time>
      </trkpt>
      <trkpt lat="46.5229" lon="5.6803">
        <ele>481</ele>
        <time>2019-04-05T16:56:14Z</time>
      </trkpt>
      <trkpt lat="46.52288" lon="5.68051">
        <ele>481</ele>
        <time>2019-04-05T16:57:14Z</time>
      </trkpt>
      <trkpt lat="46.52293" lon="5.68079">
        <ele>484</ele>
        <time>2019-04-05T16:58:14Z</time>
      </trkpt>
      <trkpt lat="46.52315" lon="5.68135">
        <ele>488</ele>
        <time>2019-04-05T16:59:14Z</time>
      </trkpt>
      <trkpt lat="46.52341" lon="5.68192">
        <ele>492</ele>
        <time>2019-04-05T17:00:14Z</time>
      </trkpt>
      <trkpt lat="46.5236" lon="5.6824">
        <ele>493</ele>
        <time>2019-04-05T17:01:14Z</time>
      </trkpt>
      <trkpt lat="46.5237" lon="5.68286">
        <ele>495</ele>
        <time>2019-04-05T17:02:14Z</time>
      </trkpt>
      <trkpt lat="46.52373" lon="5.68332">
        <ele>493</ele>
        <time>2019-04-05T17:03:14Z</time>
      </trkpt>
      <trkpt lat="46.52375" lon="5.68358">
        <ele>495</ele>
        <time>2019-04-05T17:04:14Z</time>
      </trkpt>
      <trkpt lat="46.52374" lon="5.68378">
        <ele>495</ele>
        <time>2019-04-05T17:05:14Z</time>
      </trkpt>
      <trkpt lat="46.52374" lon="5.68401">
        <ele>495</ele>
        <time>2019-04-05T17:06:14Z</time>
      </trkpt>
      <trkpt lat="46.52374" lon="5.68436">
        <ele>496</ele>
        <time>2019-04-05T17:07:14Z</time>
      </trkpt>
      <trkpt lat="46.52374" lon="5.68471">
        <ele>498</ele>
        <time>2019-04-05T17:08:14Z</time>
      </trkpt>
      <trkpt lat="46.52372" lon="5.68494">
        <ele>497</ele>
        <time>2019-04-05T17:09:14Z</time>
      </trkpt>
      <trkpt lat="46.5237" lon="5.68523">
        <ele>498</ele>
        <time>2019-04-05T17:10:14Z</time>
      </trkpt>
      <trkpt lat="46.52359" lon="5.686">
        <ele>499</ele>
        <time>2019-04-05T17:11:14Z</time>
      </trkpt>
      <trkpt lat="46.52356" lon="5.68625">
        <ele>500</ele>
        <time>2019-04-05T17:12:14Z</time>
      </trkpt>
      <trkpt lat="46.52353" lon="5.68663">
        <ele>503</ele>
        <time>2019-04-05T17:13:14Z</time>
      </trkpt>
      <trkpt lat="46.52348" lon="5.68711">
        <ele>505</ele>
        <time>2019-04-05T17:14:14Z</time>
      </trkpt>
      <trkpt lat="46.52348" lon="5.68746">
        <ele>507</ele>
        <time>2019-04-05T17:15:14Z</time>
      </trkpt>
      <trkpt lat="46.52349" lon="5.68762">
        <ele>508</ele>
        <time>2019-04-05T17:16:14Z</time>
      </trkpt>
      <trkpt lat="46.52348" lon="5.68769">
        <ele>508</ele>
        <time>2019-04-05T17:17:14Z</time>
      </trkpt>
      <trkpt lat="46.52343" lon="5.68782">
        <ele>507</ele>
        <time>2019-04-05T17:18:14Z</time>
      </trkpt>
      <trkpt lat="46.52342" lon="5.68792">
        <ele>506</ele>
        <time>2019-04-05T17:19:14Z</time>
      </trkpt>
      <trkpt lat="46.52346" lon="5.68806">
        <ele>508</ele>
        <time>2019-04-05T17:20:14Z</time>
      </trkpt>
      <trkpt lat="46.52349" lon="5.6882">
        <ele>509</ele>
        <time>2019-04-05T17:21:14Z</time>
      </trkpt>
      <trkpt lat="46.52348" lon="5.68833">
        <ele>509</ele>
        <time>2019-04-05T17:22:14Z</time>
      </trkpt>
      <trkpt lat="46.52343" lon="5.6884">
        <ele>507</ele>
        <time>2019-04-05T17:23:14Z</time>
      </trkpt>
      <trkpt lat="46.52339" lon="5.68849">
        <ele>506</ele>
        <time>2019-04-05T17:24:14Z</time>
      </trkpt>
      <trkpt lat="46.52339" lon="5.68863">
        <ele>505</ele>
        <time>2019-04-05T17:25:14Z</time>
      </trkpt>
      <trkpt lat="46.52353" lon="5.68884">
        <ele>508</ele>
        <time>2019-04-05T17:26:14Z</time>
      </trkpt>
      <trkpt lat="46.52361" lon="5.68888">
        <ele>510</ele>
        <time>2019-04-05T17:27:14Z</time>
      </trkpt>
      <trkpt lat="46.52384" lon="5.68887">
        <ele>515</ele>
        <time>2019-04-05T17:28:14Z</time>
      </trkpt>
      <trkpt lat="46.5242" lon="5.68872">
        <ele>524</ele>
        <time>2019-04-05T17:29:14Z</time>
      </trkpt>
      <trkpt lat="46.52467" lon="5.68833">
        <ele>530</ele>
        <time>2019-04-05T17:30:14Z</time>
      </trkpt>
      <trkpt lat="46.52482" lon="5.68824">
        <ele>532</ele>
        <time>2019-04-05T17:31:14Z</time>
      </trkpt>
      <trkpt lat="46.52496" lon="5.68822">
        <ele>533</ele>
        <time>2019-04-05T17:32:14Z</time>
      </trkpt>
      <trkpt lat="46.52511" lon="5.68826">
        <ele>533</ele>
        <time>2019-04-05T17:33:14Z</time>
      </trkpt>
      <trkpt lat="46.52516" lon="5.68833">
        <ele>533</ele>
        <time>2019-04-05T17:34:14Z</time>
      </trkpt>
      <trkpt lat="46.5252" lon="5.68848">
        <ele>533</ele>
        <time>2019-04-05T17:35:14Z</time>
      </trkpt>
      <trkpt lat="46.52544" lon="5.69004">
        <ele>526</ele>
        <time>2019-04-05T17:36:14Z</time>
      </trkpt>
      <trkpt lat="46.52567" lon="5.69162">
        <ele>527</ele>
        <time>2019-04-05T17:37:14Z</time>
      </trkpt>
      <trkpt lat="46.52556" lon="5.6921">
        <ele>524</ele>
        <time>2019-04-05T17:38:14Z</time>
      </trkpt>
      <trkpt lat="46.5255" lon="5.69245">
        <ele>522</ele>
        <time>2019-04-05T17:39:14Z</time>
      </trkpt>
      <trkpt lat="46.52533" lon="5.69273">
        <ele>520</ele>
        <time>2019-04-05T17:40:14Z</time>
      </trkpt>
      <trkpt lat="46.52502" lon="5.69312">
        <ele>519</ele>
        <time>2019-04-05T17:41:14Z</time>
      </trkpt>
      <trkpt lat="46.5249" lon="5.69318">
        <ele>518</ele>
        <time>2019-04-05T17:42:14Z</time>
      </trkpt>
      <trkpt lat="46.52475" lon="5.69318">
        <ele>518</ele>
        <time>2019-04-05T17:43:14Z</time>
      </trkpt>
      <trkpt lat="46.52463" lon="5.69315">
        <ele>518</ele>
        <time>2019-04-05T17:44:14Z</time>
      </trkpt>
      <trkpt lat="46.52418" lon="5.6929">
        <ele>518</ele>
        <time>2019-04-05T17:45:14Z</time>
      </trkpt>
      <trkpt lat="46.52408" lon="5.69288">
        <ele>515</ele>
        <time>2019-04-05T17:46:14Z</time>
      </trkpt>
      <trkpt lat="46.52399" lon="5.69291">
        <ele>513</ele>
        <time>2019-04-05T17:47:14Z</time>
      </trkpt>
      <trkpt lat="46.52391" lon="5.69301">
        <ele>510</ele>
        <time>2019-04-05T17:48:14Z</time>
      </trkpt>
      <trkpt lat="46.52368" lon="5.69338">
        <ele>503</ele>
        <time>2019-04-05T17:49:14Z</time>
      </trkpt>
      <trkpt lat="46.52342" lon="5.69373">
        <ele>495</ele>
        <time>2019-04-05T17:50:14Z</time>
      </trkpt>
      <trkpt lat="46.52344" lon="5.69382">
        <ele>495</ele>
        <time>2019-04-05T17:51:14Z</time>
      </trkpt>
      <trkpt lat="46.52344" lon="5.6939">
        <ele>495</ele>
        <time>2019-04-05T17:52:14Z</time>
      </trkpt>
      <trkpt lat="46.52339" lon="5.69402">
        <ele>493</ele>
        <time>2019-04-05T17:53:14Z</time>
      </trkpt>
      <trkpt lat="46.52339" lon="5.69417">
        <ele>492</ele>
        <time>2019-04-05T17:54:14Z</time>
      </trkpt>
      <trkpt lat="46.52341" lon="5.6944">
        <ele>492</ele>
        <time>2019-04-05T17:55:14Z</time>
      </trkpt>
      <trkpt lat="46.52348" lon="5.69461">
        <ele>494</ele>
        <time>2019-04-05T17:56:14Z</time>
      </trkpt>
      <trkpt lat="46.52346" lon="5.69476">
        <ele>493</ele>
        <time>2019-04-05T17:57:14Z</time>
      </trkpt>
      <trkpt lat="46.52348" lon="5.69484">
        <ele>493</ele>
        <time>2019-04-05T17:58:14Z</time>
      </trkpt>
      <trkpt lat="46.52346" lon="5.6949">
        <ele>493</ele>
        <time>2019-04-05T17:59:14Z</time>
      </trkpt>
      <trkpt lat="46.5234" lon="5.69493">
        <ele>491</ele>
        <time>2019-04-05T18:00:14Z</time>
      </trkpt>
      <trkpt lat="46.52337" lon="5.69502">
        <ele>490</ele>
        <time>2019-04-05T18:01:14Z</time>
      </trkpt>
      <trkpt lat="46.52337" lon="5.69536">
        <ele>490</ele>
        <time>2019-04-05T18:02:14Z</time>
      </trkpt>
      <trkpt lat="46.52342" lon="5.69581">
        <ele>491</ele>
        <time>2019-04-05T18:03:14Z</time>
      </trkpt>
      <trkpt lat="46.52351" lon="5.69626">
        <ele>488</ele>
        <time>2019-04-05T18:04:14Z</time>
      </trkpt>
      <trkpt lat="46.52367" lon="5.69666">
        <ele>489</ele>
        <time>2019-04-05T18:05:14Z</time>
      </trkpt>
      <trkpt lat="46.52384" lon="5.69706">
        <ele>486</ele>
        <time>2019-04-05T18:06:14Z</time>
      </trkpt>
      <trkpt lat="46.52398" lon="5.69722">
        <ele>487</ele>
        <time>2019-04-05T18:07:14Z</time>
      </trkpt>
      <trkpt lat="46.52415" lon="5.69728">
        <ele>492</ele>
        <time>2019-04-05T18:08:14Z</time>
      </trkpt>
      <trkpt lat="46.52433" lon="5.6973">
        <ele>491</ele>
        <time>2019-04-05T18:09:14Z</time>
      </trkpt>
      <trkpt lat="46.52446" lon="5.69723">
        <ele>491</ele>
        <time>2019-04-05T18:10:14Z</time>
      </trkpt>
      <trkpt lat="46.5247" lon="5.69701">
        <ele>495</ele>
        <time>2019-04-05T18:11:14Z</time>
      </trkpt>
      <trkpt lat="46.52508" lon="5.69655">
        <ele>500</ele>
        <time>2019-04-05T18:12:14Z</time>
      </trkpt>
      <trkpt lat="46.52533" lon="5.6961">
        <ele>498</ele>
        <time>2019-04-05T18:13:14Z</time>
      </trkpt>
      <trkpt lat="46.52543" lon="5.69583">
        <ele>499</ele>
        <time>2019-04-05T18:14:14Z</time>
      </trkpt>
      <trkpt lat="46.52551" lon="5.69557">
        <ele>498</ele>
        <time>2019-04-05T18:15:14Z</time>
      </trkpt>
      <trkpt lat="46.52568" lon="5.69503">
        <ele>496</ele>
        <time>2019-04-05T18:16:14Z</time>
      </trkpt>
      <trkpt lat="46.52582" lon="5.6943">
        <ele>498</ele>
        <time>2019-04-05T18:17:14Z</time>
      </trkpt>
      <trkpt lat="46.52607" lon="5.69334">
        <ele>499</ele>
        <time>2019-04-05T18:18:14Z</time>
      </trkpt>
      <trkpt lat="46.52624" lon="5.69299">
        <ele>500</ele>
        <time>2019-04-05T18:19:14Z</time>
      </trkpt>
      <trkpt lat="46.5264" lon="5.69271">
        <ele>500</ele>
        <time>2019-04-05T18:20:14Z</time>
      </trkpt>
      <trkpt lat="46.52668" lon="5.69247">
        <ele>497</ele>
        <time>2019-04-05T18:21:14Z</time>
      </trkpt>
      <trkpt lat="46.52677" lon="5.69225">
        <ele>499</ele>
        <time>2019-04-05T18:22:14Z</time>
      </trkpt>
      <trkpt lat="46.5269" lon="5.69183">
        <ele>504</ele>
        <time>2019-04-05T18:23:14Z</time>
      </trkpt>
      <trkpt lat="46.52699" lon="5.69164">
        <ele>504</ele>
        <time>2019-04-05T18:24:14Z</time>
      </trkpt>
      <trkpt lat="46.52736" lon="5.69141">
        <ele>491</ele>
        <time>2019-04-05T18:25:14Z</time>
      </trkpt>
      <trkpt lat="46.52755" lon="5.69106">
        <ele>489</ele>
        <time>2019-04-05T18:26:14Z</time>
      </trkpt>
      <trkpt lat="46.52758" lon="5.69064">
        <ele>495</ele>
        <time>2019-04-05T18:27:14Z</time>
      </trkpt>
      <trkpt lat="46.5276" lon="5.68993">
        <ele>502</ele>
        <time>2019-04-05T18:28:14Z</time>
      </trkpt>
      <trkpt lat="46.52753" lon="5.68872">
        <ele>494</ele>
        <time>2019-04-05T18:29:14Z</time>
      </trkpt>
      <trkpt lat="46.52752" lon="5.68755">
        <ele>468</ele>
        <time>2019-04-05T18:30:14Z</time>
      </trkpt>
      <trkpt lat="46.5275" lon="5.68734">
        <ele>466</ele>
        <time>2019-04-05T18:31:14Z</time>
      </trkpt>
      <trkpt lat="46.5275" lon="5.68717">
        <ele>465</ele>
        <time>2019-04-05T18:32:14Z</time>
      </trkpt>
      <trkpt lat="46.5275" lon="5.68704">
        <ele>464</ele>
        <time>2019-04-05T18:33:14Z</time>
      </trkpt>
      <trkpt lat="46.52749" lon="5.68678">
        <ele>462</ele>
        <time>2019-04-05T18:34:14Z</time>
      </trkpt>
      <trkpt lat="46.5275" lon="5.68664">
        <ele>460</ele>
        <time>2019-04-05T18:35:14Z</time>
      </trkpt>
      <trkpt lat="46.52748" lon="5.6864">
        <ele>462</ele>
        <time>2019-04-05T18:36:14Z</time>
      </trkpt>
      <trkpt lat="46.52747" lon="5.6861">
        <ele>462</ele>
        <time>2019-04-05T18:37:14Z</time>
      </trkpt>
      <trkpt lat="46.52747" lon="5.68588">
        <ele>462</ele>
        <time>2019-04-05T18:38:14Z</time>
      </trkpt>
      <trkpt lat="46.52742" lon="5.68533">
        <ele>468</ele>
        <time>2019-04-05T18:39:14Z</time>
      </trkpt>
      <trkpt lat="46.52743" lon="5.68511">
        <ele>469</ele>
        <time>2019-04-05T18:40:14Z</time>
      </trkpt>
      <trkpt lat="46.52769" lon="5.68389">
        <ele>470</ele>
        <time>2019-04-05T18:41:14Z</time>
      </trkpt>
      <trkpt lat="46.52798" lon="5.68304">
        <ele>465</ele>
        <time>2019-04-05T18:42:14Z</time>
      </trkpt>
      <trkpt lat="46.52844" lon="5.6819">
        <ele>464</ele>
        <time>2019-04-05T18:43:14Z</time>
      </trkpt>
      <trkpt lat="46.5288" lon="5.68122">
        <ele>465</ele>
        <time>2019-04-05T18:44:14Z</time>
      </trkpt>
      <trkpt lat="46.52889" lon="5.68111">
        <ele>464</ele>
        <time>2019-04-05T18:45:14Z</time>
      </trkpt>
      <trkpt lat="46.52917" lon="5.68078">
        <ele>457</ele>
        <time>2019-04-05T18:46:14Z</time>
      </trkpt>
      <trkpt lat="46.52931" lon="5.68054">
        <ele>460</ele>
        <time>2019-04-05T18:47:14Z</time>
      </trkpt>
      <trkpt lat="46.52934" lon="5.68046">
        <ele>461</ele>
        <time>2019-04-05T18:48:14Z</time>
      </trkpt>
      <trkpt lat="46.52949" lon="5.68029">
        <ele>460</ele>
        <time>2019-04-05T18:49:14Z</time>
      </trkpt>
      <trkpt lat="46.52956" lon="5.68014">
        <ele>461</ele>
        <time>2019-04-05T18:50:14Z</time>
      </trkpt>
      <trkpt lat="46.5297" lon="5.67996">
        <ele>460</ele>
        <time>2019-04-05T18:51:14Z</time>
      </trkpt>
      <trkpt lat="46.52983" lon="5.67985">
        <ele>457</ele>
        <time>2019-04-05T18:52:14Z</time>
      </trkpt>
      <trkpt lat="46.53" lon="5.67972">
        <ele>454</ele>
        <time>2019-04-05T18:53:14Z</time>
      </trkpt>
      <trkpt lat="46.53011" lon="5.6797">
        <ele>452</ele>
        <time>2019-04-05T18:54:14Z</time>
      </trkpt>
      <trkpt lat="46.53023" lon="5.67958">
        <ele>453</ele>
        <time>2019-04-05T18:55:14Z</time>
      </trkpt>
      <trkpt lat="46.53035" lon="5.6795">
        <ele>452</ele>
        <time>2019-04-05T18:56:14Z</time>
      </trkpt>
      <trkpt lat="46.53048" lon="5.67936">
        <ele>452</ele>
        <time>2019-04-05T18:57:14Z</time>
      </trkpt>
      <trkpt lat="46.53057" lon="5.67933">
        <ele>450</ele>
        <time>2019-04-05T18:58:14Z</time>
      </trkpt>
      <trkpt lat="46.53066" lon="5.67924">
        <ele>450</ele>
        <time>2019-04-05T18:59:14Z</time>
      </trkpt>
      <trkpt lat="46.53105" lon="5.67886">
        <ele>451</ele>
        <time>2019-04-05T19:00:14Z</time>
      </trkpt>
      <trkpt lat="46.53119" lon="5.67853">
        <ele>457</ele>
        <time>2019-04-05T19:01:14Z</time>
      </trkpt>
      <trkpt lat="46.53144" lon="5.67823">
        <ele>460</ele>
        <time>2019-04-05T19:02:14Z</time>
      </trkpt>
      <trkpt lat="46.53188" lon="5.67818">
        <ele>451</ele>
        <time>2019-04-05T19:03:14Z</time>
      </trkpt>
      <trkpt lat="46.53206" lon="5.67806">
        <ele>452</ele>
        <time>2019-04-05T19:04:14Z</time>
      </trkpt>
      <trkpt lat="46.53224" lon="5.678">
        <ele>450</ele>
        <time>2019-04-05T19:05:14Z</time>
      </trkpt>
      <trkpt lat="46.53277" lon="5.67759">
        <ele>452</ele>
        <time>2019-04-05T19:06:14Z</time>
      </trkpt>
      <trkpt lat="46.53374" lon="5.67692">
        <ele>460</ele>
        <time>2019-04-05T19:07:14Z</time>
      </trkpt>
      <trkpt lat="46.5339" lon="5.67691">
        <ele>457</ele>
        <time>2019-04-05T19:08:14Z</time>
      </trkpt>
      <trkpt lat="46.53642" lon="5.67519">
        <ele>485</ele>
        <time>2019-04-05T19:09:14Z</time>
      </trkpt>
      <trkpt lat="46.53644" lon="5.67508">
        <ele>489</ele>
        <time>2019-04-05T19:10:14Z</time>
      </trkpt>
      <trkpt lat="46.53653" lon="5.6749">
        <ele>496</ele>
        <time>2019-04-05T19:11:14Z</time>
      </trkpt>
      <trkpt lat="46.53669" lon="5.67482">
        <ele>497</ele>
        <time>2019-04-05T19:12:14Z</time>
      </trkpt>
      <trkpt lat="46.53685" lon="5.67483">
        <ele>496</ele>
        <time>2019-04-05T19:13:14Z</time>
      </trkpt>
      <trkpt lat="46.53708" lon="5.67496">
        <ele>490</ele>
        <time>2019-04-05T19:14:14Z</time>
      </trkpt>
      <trkpt lat="46.53772" lon="5.67466">
        <ele>501</ele>
        <time>2019-04-05T19:15:14Z</time>
      </trkpt>
      <trkpt lat="46.53824" lon="5.67456">
        <ele>504</ele>
        <time>2019-04-05T19:16:14Z</time>
      </trkpt>
      <trkpt lat="46.53963" lon="5.67398">
        <ele>520</ele>
        <time>2019-04-05T19:17:14Z</time>
      </trkpt>
      <trkpt lat="46.53971" lon="5.67397">
        <ele>521</ele>
        <time>2019-04-05T19:18:14Z</time>
      </trkpt>
      <trkpt lat="46.54008" lon="5.67401">
        <ele>521</ele>
        <time>2019-04-05T19:19:14Z</time>
      </trkpt>
      <trkpt lat="46.54028" lon="5.67379">
        <ele>527</ele>
        <time>2019-04-05T19:20:14Z</time>
      </trkpt>
      <trkpt lat="46.54042" lon="5.67375">
        <ele>529</ele>
        <time>2019-04-05T19:21:14Z</time>
      </trkpt>
      <trkpt lat="46.54069" lon="5.67375">
        <ele>530</ele>
        <time>2019-04-05T19:22:14Z</time>
      </trkpt>
      <trkpt lat="46.54079" lon="5.67359">
        <ele>533</ele>
        <time>2019-04-05T19:23:14Z</time>
      </trkpt>
      <trkpt lat="46.54081" lon="5.67308">
        <ele>538</ele>
        <time>2019-04-05T19:24:14Z</time>
      </trkpt>
      <trkpt lat="46.54073" lon="5.6727">
        <ele>540</ele>
        <time>2019-04-05T19:25:14Z</time>
      </trkpt>
      <trkpt lat="46.54065" lon="5.67257">
        <ele>541</ele>
        <time>2019-04-05T19:26:14Z</time>
      </trkpt>
      <trkpt lat="46.54037" lon="5.67255">
        <ele>542</ele>
        <time>2019-04-05T19:27:14Z</time>
      </trkpt>
      <trkpt lat="46.53978" lon="5.67255">
        <ele>543</ele>
        <time>2019-04-05T19:28:14Z</time>
      </trkpt>
      <trkpt lat="46.53945" lon="5.67239">
        <ele>541</ele>
        <time>2019-04-05T19:29:14Z</time>
      </trkpt>
      <trkpt lat="46.53941" lon="5.67233">
        <ele>541</ele>
        <time>2019-04-05T19:30:14Z</time>
      </trkpt>
      <trkpt lat="46.53938" lon="5.67225">
        <ele>541</ele>
        <time>2019-04-05T19:31:14Z</time>
      </trkpt>
      <trkpt lat="46.53942" lon="5.67128">
        <ele>541</ele>
        <time>2019-04-05T19:32:14Z</time>
      </trkpt>
      <trkpt lat="46.53942" lon="5.6712">
        <ele>541</ele>
        <time>2019-04-05T19:33:14Z</time>
      </trkpt>
      <trkpt lat="46.5394" lon="5.67113">
        <ele>542</ele>
        <time>2019-04-05T19:34:14Z</time>
      </trkpt>
      <trkpt lat="46.53918" lon="5.67064">
        <ele>544</ele>
        <time>2019-04-05T19:35:14Z</time>
      </trkpt>
      <trkpt lat="46.53908" lon="5.67042">
        <ele>544</ele>
        <time>2019-04-05T19:36:14Z</time>
      </trkpt>
      <trkpt lat="46.53912" lon="5.67043">
        <ele>544</ele>
        <time>2019-04-05T19:37:14Z</time>
      </trkpt>
      <trkpt lat="46.53917" lon="5.67042">
        <ele>544</ele>
        <time>2019-04-05T19:38:14Z</time>
      </trkpt>
      <trkpt lat="46.53923" lon="5.67038">
        <ele>545</ele>
        <time>2019-04-05T19:39:14Z</time>
      </trkpt>
      <trkpt lat="46.53933" lon="5.67027">
        <ele>545</ele>
        <time>2019-04-05T19:40:14Z</time>
      </trkpt>
      <trkpt lat="46.53951" lon="5.67005">
        <ele>547</ele>
        <time>2019-04-05T19:41:14Z</time>
      </trkpt>
      <trkpt lat="46.53969" lon="5.66981">
        <ele>550</ele>
        <time>2019-04-05T19:42:14Z</time>
      </trkpt>
      <trkpt lat="46.53976" lon="5.66975">
        <ele>551</ele>
        <time>2019-04-05T19:43:14Z</time>
      </trkpt>
      <trkpt lat="46.53981" lon="5.66971">
        <ele>551</ele>
        <time>2019-04-05T19:44:14Z</time>
      </trkpt>
      <trkpt lat="46.53988" lon="5.66971">
        <ele>552</ele>
        <time>2019-04-05T19:45:14Z</time>
      </trkpt>
      <trkpt lat="46.54001" lon="5.66971">
        <ele>552</ele>
        <time>2019-04-05T19:46:14Z</time>
      </trkpt>
      <trkpt lat="46.5404" lon="5.66975">
        <ele>554</ele>
        <time>2019-04-05T19:47:14Z</time>
      </trkpt>
      <trkpt lat="46.54074" lon="5.6691">
        <ele>561</ele>
        <time>2019-04-05T19:48:14Z</time>
      </trkpt>
      <trkpt lat="46.54137" lon="5.6691">
        <ele>566</ele>
        <time>2019-04-05T19:49:14Z</time>
      </trkpt>
      <trkpt lat="46.542" lon="5.66906">
        <ele>572</ele>
        <time>2019-04-05T19:50:14Z</time>
      </trkpt>
      <trkpt lat="46.54233" lon="5.66928">
        <ele>572</ele>
        <time>2019-04-05T19:51:14Z</time>
      </trkpt>
      <trkpt lat="46.54265" lon="5.6693">
        <ele>575</ele>
        <time>2019-04-05T19:52:14Z</time>
      </trkpt>
      <trkpt lat="46.54296" lon="5.66936">
        <ele>576</ele>
        <time>2019-04-05T19:53:14Z</time>
      </trkpt>
      <trkpt lat="46.54335" lon="5.66986">
        <ele>571</ele>
        <time>2019-04-05T19:54:14Z</time>
      </trkpt>
      <trkpt lat="46.54415" lon="5.67033">
        <ele>571</ele>
        <time>2019-04-05T19:55:14Z</time>
      </trkpt>
      <trkpt lat="46.54461" lon="5.67056">
        <ele>567</ele>
        <time>2019-04-05T19:56:14Z</time>
      </trkpt>
      <trkpt lat="46.54508" lon="5.67065">
        <ele>566</ele>
        <time>2019-04-05T19:57:14Z</time>
      </trkpt>
      <trkpt lat="46.54559" lon="5.67091">
        <ele>562</ele>
        <time>2019-04-05T19:58:14Z</time>
      </trkpt>
      <trkpt lat="46.54601" lon="5.67131">
        <ele>558</ele>
        <time>2019-04-05T19:59:14Z</time>
      </trkpt>
      <trkpt lat="46.54635" lon="5.67183">
        <ele>554</ele>
        <time>2019-04-05T20:00:14Z</time>
      </trkpt>
      <trkpt lat="46.54721" lon="5.67207">
        <ele>552</ele>
        <time>2019-04-05T20:01:14Z</time>
      </trkpt>
      <trkpt lat="46.5474" lon="5.67212">
        <ele>552</ele>
        <time>2019-04-05T20:02:14Z</time>
      </trkpt>
      <trkpt lat="46.54775" lon="5.67277">
        <ele>545</ele>
        <time>2019-04-05T20:03:14Z</time>
      </trkpt>
      <trkpt lat="46.54807" lon="5.67309">
        <ele>541</ele>
        <time>2019-04-05T20:04:14Z</time>
      </trkpt>
      <trkpt lat="46.54814" lon="5.6732">
        <ele>540</ele>
        <time>2019-04-05T20:05:14Z</time>
      </trkpt>
      <trkpt lat="46.54827" lon="5.67341">
        <ele>538</ele>
        <time>2019-04-05T20:06:14Z</time>
      </trkpt>
      <trkpt lat="46.54844" lon="5.67363">
        <ele>535</ele>
        <time>2019-04-05T20:07:14Z</time>
      </trkpt>
      <trkpt lat="46.54866" lon="5.67391">
        <ele>531</ele>
        <time>2019-04-05T20:08:14Z</time>
      </trkpt>
      <trkpt lat="46.5488" lon="5.67414">
        <ele>526</ele>
        <time>2019-04-05T20:09:14Z</time>
      </trkpt>
      <trkpt lat="46.54885" lon="5.67419">
        <ele>525</ele>
        <time>2019-04-05T20:10:14Z</time>
      </trkpt>
      <trkpt lat="46.54893" lon="5.67422">
        <ele>524</ele>
        <time>2019-04-05T20:11:14Z</time>
      </trkpt>
      <trkpt lat="46.549" lon="5.67421">
        <ele>523</ele>
        <time>2019-04-05T20:12:14Z</time>
      </trkpt>
      <trkpt lat="46.54909" lon="5.67417">
        <ele>524</ele>
        <time>2019-04-05T20:13:14Z</time>
      </trkpt>
      <trkpt lat="46.54919" lon="5.67409">
        <ele>524</ele>
        <time>2019-04-05T20:14:14Z</time>
      </trkpt>
      <trkpt lat="46.54926" lon="5.67403">
        <ele>522</ele>
        <time>2019-04-05T20:15:14Z</time>
      </trkpt>
      <trkpt lat="46.54937" lon="5.6739">
        <ele>521</ele>
        <time>2019-04-05T20:16:14Z</time>
      </trkpt>
      <trkpt lat="46.54948" lon="5.67373">
        <ele>520</ele>
        <time>2019-04-05T20:17:14Z</time>
      </trkpt>
      <trkpt lat="46.54958" lon="5.67354">
        <ele>520</ele>
        <time>2019-04-05T20:18:14Z</time>
      </trkpt>
      <trkpt lat="46.54972" lon="5.67314">
        <ele>524</ele>
        <time>2019-04-05T20:19:14Z</time>
      </trkpt>
      <trkpt lat="46.54978" lon="5.67295">
        <ele>526</ele>
        <time>2019-04-05T20:20:14Z</time>
      </trkpt>
      <trkpt lat="46.54984" lon="5.67283">
        <ele>526</ele>
        <time>2019-04-05T20:21:14Z</time>
      </trkpt>
      <trkpt lat="46.54989" lon="5.67268">
        <ele>528</ele>
        <time>2019-04-05T20:22:14Z</time>
      </trkpt>
      <trkpt lat="46.54997" lon="5.67255">
        <ele>530</ele>
        <time>2019-04-05T20:23:14Z</time>
      </trkpt>
      <trkpt lat="46.55006" lon="5.67236">
        <ele>530</ele>
        <time>2019-04-05T20:24:14Z</time>
      </trkpt>
      <trkpt lat="46.55014" lon="5.67214">
        <ele>532</ele>
        <time>2019-04-05T20:25:14Z</time>
      </trkpt>
      <trkpt lat="46.5502" lon="5.672">
        <ele>532</ele>
        <time>2019-04-05T20:26:14Z</time>
      </trkpt>
      <trkpt lat="46.55025" lon="5.67182">
        <ele>533</ele>
        <time>2019-04-05T20:27:14Z</time>
      </trkpt>
      <trkpt lat="46.5503" lon="5.67167">
        <ele>534</ele>
        <time>2019-04-05T20:28:14Z</time>
      </trkpt>
      <trkpt lat="46.55036" lon="5.67153">
        <ele>533</ele>
        <time>2019-04-05T20:29:14Z</time>
      </trkpt>
      <trkpt lat="46.55045" lon="5.67134">
        <ele>531</ele>
        <time>2019-04-05T20:30:14Z</time>
      </trkpt>
      <trkpt lat="46.55053" lon="5.67117">
        <ele>529</ele>
        <time>2019-04-05T20:31:14Z</time>
      </trkpt>
      <trkpt lat="46.55059" lon="5.67102">
        <ele>529</ele>
        <time>2019-04-05T20:32:14Z</time>
      </trkpt>
      <trkpt lat="46.55068" lon="5.67078">
        <ele>527</ele>
        <time>2019-04-05T20:33:14Z</time>
      </trkpt>
      <trkpt lat="46.55073" lon="5.67064">
        <ele>524</ele>
        <time>2019-04-05T20:34:14Z</time>
      </trkpt>
      <trkpt lat="46.55078" lon="5.67049">
        <ele>522</ele>
        <time>2019-04-05T20:35:14Z</time>
      </trkpt>
      <trkpt lat="46.55081" lon="5.67036">
        <ele>521</ele>
        <time>2019-04-05T20:36:14Z</time>
      </trkpt>
      <trkpt lat="46.55081" lon="5.6701">
        <ele>522</ele>
        <time>2019-04-05T20:37:14Z</time>
      </trkpt>
      <trkpt lat="46.55081" lon="5.66992">
        <ele>521</ele>
        <time>2019-04-05T20:38:14Z</time>
      </trkpt>
      <trkpt lat="46.55078" lon="5.66978">
        <ele>519</ele>
        <time>2019-04-05T20:39:14Z</time>
      </trkpt>
      <trkpt lat="46.55074" lon="5.66966">
        <ele>519</ele>
        <time>2019-04-05T20:40:14Z</time>
      </trkpt>
      <trkpt lat="46.55066" lon="5.66946">
        <ele>518</ele>
        <time>2019-04-05T20:41:14Z</time>
      </trkpt>
      <trkpt lat="46.5506" lon="5.66936">
        <ele>518</ele>
        <time>2019-04-05T20:42:14Z</time>
      </trkpt>
      <trkpt lat="46.55053" lon="5.66926">
        <ele>518</ele>
        <time>2019-04-05T20:43:14Z</time>
      </trkpt>
      <trkpt lat="46.55044" lon="5.66915">
        <ele>519</ele>
        <time>2019-04-05T20:44:14Z</time>
      </trkpt>
      <trkpt lat="46.55032" lon="5.66906">
        <ele>521</ele>
        <time>2019-04-05T20:45:14Z</time>
      </trkpt>
      <trkpt lat="46.5502" lon="5.66896">
        <ele>523</ele>
        <time>2019-04-05T20:46:14Z</time>
      </trkpt>
      <trkpt lat="46.55005" lon="5.66887">
        <ele>525</ele>
        <time>2019-04-05T20:47:14Z</time>
      </trkpt>
      <trkpt lat="46.54995" lon="5.66881">
        <ele>526</ele>
        <time>2019-04-05T20:48:14Z</time>
      </trkpt>
      <trkpt lat="46.54984" lon="5.66877">
        <ele>526</ele>
        <time>2019-04-05T20:49:14Z</time>
      </trkpt>
      <trkpt lat="46.54974" lon="5.66875">
        <ele>527</ele>
        <time>2019-04-05T20:50:14Z</time>
      </trkpt>
      <trkpt lat="46.54967" lon="5.66873">
        <ele>527</ele>
        <time>2019-04-05T20:51:14Z</time>
      </trkpt>
      <trkpt lat="46.54962" lon="5.6687">
        <ele>527</ele>
        <time>2019-04-05T20:52:14Z</time>
      </trkpt>
      <trkpt lat="46.54961" lon="5.66865">
        <ele>526</ele>
        <time>2019-04-05T20:53:14Z</time>
      </trkpt>
      <trkpt lat="46.54961" lon="5.66859">
        <ele>525</ele>
        <time>2019-04-05T20:54:14Z</time>
      </trkpt>
      <trkpt lat="46.54976" lon="5.66859">
        <ele>523</ele>
        <time>2019-04-05T20:55:14Z</time>
      </trkpt>
      <trkpt lat="46.55" lon="5.6686">
        <ele>520</ele>
        <time>2019-04-05T20:56:14Z</time>
      </trkpt>
      <trkpt lat="46.55025" lon="5.66868">
        <ele>516</ele>
        <time>2019-04-05T20:57:14Z</time>
      </trkpt>
      <trkpt lat="46.55042" lon="5.66875">
        <ele>513</ele>
        <time>2019-04-05T20:58:14Z</time>
      </trkpt>
      <trkpt lat="46.5505" lon="5.66878">
        <ele>512</ele>
        <time>2019-04-05T20:59:14Z</time>
      </trkpt>
      <trkpt lat="46.55056" lon="5.66877">
        <ele>510</ele>
        <time>2019-04-05T21:00:14Z</time>
      </trkpt>
      <trkpt lat="46.55061" lon="5.66873">
        <ele>509</ele>
        <time>2019-04-05T21:01:14Z</time>
      </trkpt>
      <trkpt lat="46.5507" lon="5.66864">
        <ele>506</ele>
        <time>2019-04-05T21:02:14Z</time>
      </trkpt>
      <trkpt lat="46.55082" lon="5.66844">
        <ele>501</ele>
        <time>2019-04-05T21:03:14Z</time>
      </trkpt>
      <trkpt lat="46.55089" lon="5.66835">
        <ele>500</ele>
        <time>2019-04-05T21:04:14Z</time>
      </trkpt>
      <trkpt lat="46.55096" lon="5.66828">
        <ele>499</ele>
        <time>2019-04-05T21:05:14Z</time>
      </trkpt>
      <trkpt lat="46.55103" lon="5.66824">
        <ele>498</ele>
        <time>2019-04-05T21:06:14Z</time>
      </trkpt>
      <trkpt lat="46.55111" lon="5.66821">
        <ele>497</ele>
        <time>2019-04-05T21:07:14Z</time>
      </trkpt>
      <trkpt lat="46.55119" lon="5.6682">
        <ele>496</ele>
        <time>2019-04-05T21:08:14Z</time>
      </trkpt>
      <trkpt lat="46.55144" lon="5.66822">
        <ele>494</ele>
        <time>2019-04-05T21:09:14Z</time>
      </trkpt>
      <trkpt lat="46.55157" lon="5.66823">
        <ele>493</ele>
        <time>2019-04-05T21:10:14Z</time>
      </trkpt>
      <trkpt lat="46.55173" lon="5.66823">
        <ele>492</ele>
        <time>2019-04-05T21:11:14Z</time>
      </trkpt>
      <trkpt lat="46.55188" lon="5.66825">
        <ele>491</ele>
        <time>2019-04-05T21:12:14Z</time>
      </trkpt>
      <trkpt lat="46.55199" lon="5.66828">
        <ele>491</ele>
        <time>2019-04-05T21:13:14Z</time>
      </trkpt>
      <trkpt lat="46.55212" lon="5.66833">
        <ele>491</ele>
        <time>2019-04-05T21:14:14Z</time>
      </trkpt>
      <trkpt lat="46.55238" lon="5.66844">
        <ele>490</ele>
        <time>2019-04-05T21:15:14Z</time>
      </trkpt>
      <trkpt lat="46.55248" lon="5.6685">
        <ele>490</ele>
        <time>2019-04-05T21:16:14Z</time>
      </trkpt>
      <trkpt lat="46.55259" lon="5.66866">
        <ele>490</ele>
        <time>2019-04-05T21:17:14Z</time>
      </trkpt>
      <trkpt lat="46.55265" lon="5.66877">
        <ele>490</ele>
        <time>2019-04-05T21:18:14Z</time>
      </trkpt>
      <trkpt lat="46.55273" lon="5.66885">
        <ele>490</ele>
        <time>2019-04-05T21:19:14Z</time>
      </trkpt>
      <trkpt lat="46.5528" lon="5.66895">
        <ele>490</ele>
        <time>2019-04-05T21:20:14Z</time>
      </trkpt>
      <trkpt lat="46.55285" lon="5.66904">
        <ele>491</ele>
        <time>2019-04-05T21:21:14Z</time>
      </trkpt>
      <trkpt lat="46.55295" lon="5.66916">
        <ele>491</ele>
        <time>2019-04-05T21:22:14Z</time>
      </trkpt>
      <trkpt lat="46.55305" lon="5.66922">
        <ele>491</ele>
        <time>2019-04-05T21:23:14Z</time>
      </trkpt>
      <trkpt lat="46.5531" lon="5.66921">
        <ele>491</ele>
        <time>2019-04-05T21:24:14Z</time>
      </trkpt>
      <trkpt lat="46.5532" lon="5.66941">
        <ele>492</ele>
        <time>2019-04-05T21:25:14Z</time>
      </trkpt>
      <trkpt lat="46.55327" lon="5.66958">
        <ele>492</ele>
        <time>2019-04-05T21:26:14Z</time>
      </trkpt>
      <trkpt lat="46.55336" lon="5.6698">
        <ele>492</ele>
        <time>2019-04-05T21:27:14Z</time>
      </trkpt>
      <trkpt lat="46.55352" lon="5.67024">
        <ele>491</ele>
        <time>2019-04-05T21:28:14Z</time>
      </trkpt>
      <trkpt lat="46.55355" lon="5.67033">
        <ele>491</ele>
        <time>2019-04-05T21:29:14Z</time>
      </trkpt>
      <trkpt lat="46.5536" lon="5.67048">
        <ele>491</ele>
        <time>2019-04-05T21:30:14Z</time>
      </trkpt>
      <trkpt lat="46.55364" lon="5.67061">
        <ele>492</ele>
        <time>2019-04-05T21:31:14Z</time>
      </trkpt>
      <trkpt lat="46.55374" lon="5.67097">
        <ele>492</ele>
        <time>2019-04-05T21:32:14Z</time>
      </trkpt>
      <trkpt lat="46.55378" lon="5.6711">
        <ele>491</ele>
        <time>2019-04-05T21:33:14Z</time>
      </trkpt>
      <trkpt lat="46.55388" lon="5.67161">
        <ele>491</ele>
        <time>2019-04-05T21:34:14Z</time>
      </trkpt>
      <trkpt lat="46.55392" lon="5.67181">
        <ele>491</ele>
        <time>2019-04-05T21:35:14Z</time>
      </trkpt>
      <trkpt lat="46.55415" lon="5.67292">
        <ele>490</ele>
        <time>2019-04-05T21:36:14Z</time>
      </trkpt>
      <trkpt lat="46.55419" lon="5.67313">
        <ele>490</ele>
        <time>2019-04-05T21:37:14Z</time>
      </trkpt>
      <trkpt lat="46.55425" lon="5.67329">
        <ele>489</ele>
        <time>2019-04-05T21:38:14Z</time>
      </trkpt>
      <trkpt lat="46.55428" lon="5.67335">
        <ele>489</ele>
        <time>2019-04-05T21:39:14Z</time>
      </trkpt>
      <trkpt lat="46.55428" lon="5.67343">
        <ele>489</ele>
        <time>2019-04-05T21:40:14Z</time>
      </trkpt>
      <trkpt lat="46.55429" lon="5.6735">
        <ele>489</ele>
        <time>2019-04-05T21:41:14Z</time>
      </trkpt>
      <trkpt lat="46.55436" lon="5.67395">
        <ele>488</ele>
        <time>2019-04-05T21:42:14Z</time>
      </trkpt>
      <trkpt lat="46.55439" lon="5.67407">
        <ele>488</ele>
        <time>2019-04-05T21:43:14Z</time>
      </trkpt>
      <trkpt lat="46.55439" lon="5.67416">
        <ele>488</ele>
        <time>2019-04-05T21:44:14Z</time>
      </trkpt>
      <trkpt lat="46.55439" lon="5.6743">
        <ele>488</ele>
        <time>2019-04-05T21:45:14Z</time>
      </trkpt>
      <trkpt lat="46.55438" lon="5.67454">
        <ele>487</ele>
        <time>2019-04-05T21:46:14Z</time>
      </trkpt>
      <trkpt lat="46.55446" lon="5.67461">
        <ele>486</ele>
        <time>2019-04-05T21:47:14Z</time>
      </trkpt>
      <trkpt lat="46.55452" lon="5.67471">
        <ele>485</ele>
        <time>2019-04-05T21:48:14Z</time>
      </trkpt>
      <trkpt lat="46.55462" lon="5.67482">
        <ele>485</ele>
        <time>2019-04-05T21:49:14Z</time>
      </trkpt>
      <trkpt lat="46.5547" lon="5.67491">
        <ele>484</ele>
        <time>2019-04-05T21:50:14Z</time>
      </trkpt>
      <trkpt lat="46.55478" lon="5.67502">
        <ele>484</ele>
        <time>2019-04-05T21:51:14Z</time>
      </trkpt>
      <trkpt lat="46.55485" lon="5.67512">
        <ele>484</ele>
        <time>2019-04-05T21:52:14Z</time>
      </trkpt>
      <trkpt lat="46.55489" lon="5.67521">
        <ele>483</ele>
        <time>2019-04-05T21:53:14Z</time>
      </trkpt>
      <trkpt lat="46.55495" lon="5.67546">
        <ele>482</ele>
        <time>2019-04-05T21:54:14Z</time>
      </trkpt>
      <trkpt lat="46.55498" lon="5.67556">
        <ele>482</ele>
        <time>2019-04-05T21:55:14Z</time>
      </trkpt>
      <trkpt lat="46.55508" lon="5.67577">
        <ele>481</ele>
        <time>2019-04-05T21:56:14Z</time>
      </trkpt>
      <trkpt lat="46.55512" lon="5.67585">
        <ele>481</ele>
        <time>2019-04-05T21:57:14Z</time>
      </trkpt>
      <trkpt lat="46.55528" lon="5.67625">
        <ele>479</ele>
        <time>2019-04-05T21:58:14Z</time>
      </trkpt>
      <trkpt lat="46.55531" lon="5.67634">
        <ele>478</ele>
        <time>2019-04-05T21:59:14Z</time>
      </trkpt>
      <trkpt lat="46.55538" lon="5.67647">
        <ele>478</ele>
        <time>2019-04-05T22:00:14Z</time>
      </trkpt>
      <trkpt lat="46.55543" lon="5.67654">
        <ele>478</ele>
        <time>2019-04-05T22:01:14Z</time>
      </trkpt>
      <trkpt lat="46.5555" lon="5.6766">
        <ele>477</ele>
        <time>2019-04-05T22:02:14Z</time>
      </trkpt>
      <trkpt lat="46.55567" lon="5.67674">
        <ele>477</ele>
        <time>2019-04-05T22:03:14Z</time>
      </trkpt>
      <trkpt lat="46.55576" lon="5.67683">
        <ele>478</ele>
        <time>2019-04-05T22:04:14Z</time>
      </trkpt>
      <trkpt lat="46.55584" lon="5.6769">
        <ele>478</ele>
        <time>2019-04-05T22:05:14Z</time>
      </trkpt>
      <trkpt lat="46.55593" lon="5.67694">
        <ele>478</ele>
        <time>2019-04-05T22:06:14Z</time>
      </trkpt>
      <trkpt lat="46.55601" lon="5.67695">
        <ele>478</ele>
        <time>2019-04-05T22:07:14Z</time>
      </trkpt>
      <trkpt lat="46.55608" lon="5.67696">
        <ele>478</ele>
        <time>2019-04-05T22:08:14Z</time>
      </trkpt>
      <trkpt lat="46.55615" lon="5.67696">
        <ele>478</ele>
        <time>2019-04-05T22:09:14Z</time>
      </trkpt>
      <trkpt lat="46.55621" lon="5.67696">
        <ele>478</ele>
        <time>2019-04-05T22:10:14Z</time>
      </trkpt>
      <trkpt lat="46.55635" lon="5.67693">
        <ele>478</ele>
        <time>2019-04-05T22:11:14Z</time>
      </trkpt>
      <trkpt lat="46.55643" lon="5.67694">
        <ele>479</ele>
        <time>2019-04-05T22:12:14Z</time>
      </trkpt>
      <trkpt lat="46.55652" lon="5.67698">
        <ele>479</ele>
        <time>2019-04-05T22:13:14Z</time>
      </trkpt>
      <trkpt lat="46.5566" lon="5.67704">
        <ele>479</ele>
        <time>2019-04-05T22:14:14Z</time>
      </trkpt>
      <trkpt lat="46.55668" lon="5.67711">
        <ele>479</ele>
        <time>2019-04-05T22:15:14Z</time>
      </trkpt>
      <trkpt lat="46.55675" lon="5.67719">
        <ele>479</ele>
        <time>2019-04-05T22:16:14Z</time>
      </trkpt>
      <trkpt lat="46.55682" lon="5.67724">
        <ele>479</ele>
        <time>2019-04-05T22:17:14Z</time>
      </trkpt>
      <trkpt lat="46.55688" lon="5.67726">
        <ele>479</ele>
        <time>2019-04-05T22:18:14Z</time>
      </trkpt>
      <trkpt lat="46.55694" lon="5.67726">
        <ele>479</ele>
        <time>2019-04-05T22:19:14Z</time>
      </trkpt>
      <trkpt lat="46.55695" lon="5.67733">
        <ele>479</ele>
        <time>2019-04-05T22:20:14Z</time>
      </trkpt>
      <trkpt lat="46.55697" lon="5.6774">
        <ele>479</ele>
        <time>2019-04-05T22:21:14Z</time>
      </trkpt>
      <trkpt lat="46.55702" lon="5.67747">
        <ele>479</ele>
        <time>2019-04-05T22:22:14Z</time>
      </trkpt>
      <trkpt lat="46.55705" lon="5.67752">
        <ele>479</ele>
        <time>2019-04-05T22:23:14Z</time>
      </trkpt>
      <trkpt lat="46.55715" lon="5.67765">
        <ele>479</ele>
        <time>2019-04-05T22:24:14Z</time>
      </trkpt>
      <trkpt lat="46.55729" lon="5.67781">
        <ele>479</ele>
        <time>2019-04-05T22:25:14Z</time>
      </trkpt>
      <trkpt lat="46.55782" lon="5.67847">
        <ele>479</ele>
        <time>2019-04-05T22:26:14Z</time>
      </trkpt>
      <trkpt lat="46.5579" lon="5.67859">
        <ele>479</ele>
        <time>2019-04-05T22:27:14Z</time>
      </trkpt>
      <trkpt lat="46.55799" lon="5.67873">
        <ele>479</ele>
        <time>2019-04-05T22:28:14Z</time>
      </trkpt>
      <trkpt lat="46.55808" lon="5.67891">
        <ele>479</ele>
        <time>2019-04-05T22:29:14Z</time>
      </trkpt>
      <trkpt lat="46.55815" lon="5.67904">
        <ele>479</ele>
        <time>2019-04-05T22:30:14Z</time>
      </trkpt>
      <trkpt lat="46.5582" lon="5.6792">
        <ele>479</ele>
        <time>2019-04-05T22:31:14Z</time>
      </trkpt>
      <trkpt lat="46.55823" lon="5.67931">
        <ele>479</ele>
        <time>2019-04-05T22:32:14Z</time>
      </trkpt>
      <trkpt lat="46.55825" lon="5.67946">
        <ele>479</ele>
        <time>2019-04-05T22:33:14Z</time>
      </trkpt>
      <trkpt lat="46.55826" lon="5.67959">
        <ele>478</ele>
        <time>2019-04-05T22:34:14Z</time>
      </trkpt>
      <trkpt lat="46.55826" lon="5.67971">
        <ele>478</ele>
        <time>2019-04-05T22:35:14Z</time>
      </trkpt>
      <trkpt lat="46.55823" lon="5.68018">
        <ele>478</ele>
        <time>2019-04-05T22:36:14Z</time>
      </trkpt>
      <trkpt lat="46.55822" lon="5.68042">
        <ele>478</ele>
        <time>2019-04-05T22:37:14Z</time>
      </trkpt>
      <trkpt lat="46.55826" lon="5.68057">
        <ele>478</ele>
        <time>2019-04-05T22:38:14Z</time>
      </trkpt>
      <trkpt lat="46.55831" lon="5.68071">
        <ele>478</ele>
        <time>2019-04-05T22:39:14Z</time>
      </trkpt>
      <trkpt lat="46.55839" lon="5.68088">
        <ele>478</ele>
        <time>2019-04-05T22:40:14Z</time>
      </trkpt>
      <trkpt lat="46.55846" lon="5.681">
        <ele>478</ele>
        <time>2019-04-05T22:41:14Z</time>
      </trkpt>
      <trkpt lat="46.55853" lon="5.68112">
        <ele>479</ele>
        <time>2019-04-05T22:42:14Z</time>
      </trkpt>
      <trkpt lat="46.55854" lon="5.68119">
        <ele>479</ele>
        <time>2019-04-05T22:43:14Z</time>
      </trkpt>
      <trkpt lat="46.55857" lon="5.68124">
        <ele>479</ele>
        <time>2019-04-05T22:44:14Z</time>
      </trkpt>
      <trkpt lat="46.55859" lon="5.6813">
        <ele>479</ele>
        <time>2019-04-05T22:45:14Z</time>
      </trkpt>
      <trkpt lat="46.55865" lon="5.68135">
        <ele>479</ele>
        <time>2019-04-05T22:46:14Z</time>
      </trkpt>
      <trkpt lat="46.55974" lon="5.68178">
        <ele>481</ele>
        <time>2019-04-05T22:47:14Z</time>
      </trkpt>
      <trkpt lat="46.56101" lon="5.68226">
        <ele>483</ele>
        <time>2019-04-05T22:48:14Z</time>
      </trkpt>
      <trkpt lat="46.56215" lon="5.68285">
        <ele>486</ele>
        <time>2019-04-05T22:49:14Z</time>
      </trkpt>
      <trkpt lat="46.56634" lon="5.68585">
        <ele>486</ele>
        <time>2019-04-05T22:50:14Z</time>
      </trkpt>
      <trkpt lat="46.56754" lon="5.68667">
        <ele>484</ele>
        <time>2019-04-05T22:51:14Z</time>
      </trkpt>
      <trkpt lat="46.56842" lon="5.68739">
        <ele>482</ele>
        <time>2019-04-05T22:52:14Z</time>
      </trkpt>
      <trkpt lat="46.57039" lon="5.68815">
        <ele>478</ele>
        <time>2019-04-05T22:53:14Z</time>
      </trkpt>
      <trkpt lat="46.57356" lon="5.69227">
        <ele>473</ele>
        <time>2019-04-05T22:54:14Z</time>
      </trkpt>
      <trkpt lat="46.574" lon="5.69259">
        <ele>471</ele>
        <time>2019-04-05T22:55:14Z</time>
      </trkpt>
      <trkpt lat="46.57436" lon="5.69283">
        <ele>471</ele>
        <time>2019-04-05T22:56:14Z</time>
      </trkpt>
      <trkpt lat="46.57483" lon="5.69312">
        <ele>472</ele>
        <time>2019-04-05T22:57:14Z</time>
      </trkpt>
      <trkpt lat="46.57489" lon="5.69317">
        <ele>472</ele>
        <time>2019-04-05T22:58:14Z</time>
      </trkpt>
      <trkpt lat="46.57495" lon="5.69325">
        <ele>472</ele>
        <time>2019-04-05T22:59:14Z</time>
      </trkpt>
      <trkpt lat="46.57506" lon="5.69342">
        <ele>472</ele>
        <time>2019-04-05T23:00:14Z</time>
      </trkpt>
      <trkpt lat="46.5752" lon="5.69358">
        <ele>472</ele>
        <time>2019-04-05T23:01:14Z</time>
      </trkpt>
      <trkpt lat="46.57538" lon="5.69379">
        <ele>471</ele>
        <time>2019-04-05T23:02:14Z</time>
      </trkpt>
      <trkpt lat="46.57548" lon="5.69389">
        <ele>471</ele>
        <time>2019-04-05T23:03:14Z</time>
      </trkpt>
      <trkpt lat="46.57567" lon="5.6941">
        <ele>471</ele>
        <time>2019-04-05T23:04:14Z</time>
      </trkpt>
      <trkpt lat="46.57576" lon="5.6942">
        <ele>470</ele>
        <time>2019-04-05T23:05:14Z</time>
      </trkpt>
      <trkpt lat="46.57586" lon="5.69428">
        <ele>470</ele>
        <time>2019-04-05T23:06:14Z</time>
      </trkpt>
      <trkpt lat="46.57609" lon="5.69444">
        <ele>468</ele>
        <time>2019-04-05T23:07:14Z</time>
      </trkpt>
      <trkpt lat="46.57615" lon="5.69449">
        <ele>467</ele>
        <time>2019-04-05T23:08:14Z</time>
      </trkpt>
      <trkpt lat="46.5764" lon="5.69483">
        <ele>466</ele>
        <time>2019-04-05T23:09:14Z</time>
      </trkpt>
      <trkpt lat="46.57653" lon="5.69498">
        <ele>465</ele>
        <time>2019-04-05T23:10:14Z</time>
      </trkpt>
      <trkpt lat="46.57665" lon="5.6951">
        <ele>464</ele>
        <time>2019-04-05T23:11:14Z</time>
      </trkpt>
      <trkpt lat="46.57674" lon="5.69519">
        <ele>464</ele>
        <time>2019-04-05T23:12:14Z</time>
      </trkpt>
      <trkpt lat="46.57681" lon="5.69525">
        <ele>464</ele>
        <time>2019-04-05T23:13:14Z</time>
      </trkpt>
      <trkpt lat="46.57688" lon="5.69529">
        <ele>464</ele>
        <time>2019-04-05T23:14:14Z</time>
      </trkpt>
      <trkpt lat="46.57694" lon="5.69532">
        <ele>464</ele>
        <time>2019-04-05T23:15:14Z</time>
      </trkpt>
      <trkpt lat="46.577" lon="5.69533">
        <ele>464</ele>
        <time>2019-04-05T23:16:14Z</time>
      </trkpt>
      <trkpt lat="46.57707" lon="5.69533">
        <ele>464</ele>
        <time>2019-04-05T23:17:14Z</time>
      </trkpt>
      <trkpt lat="46.57714" lon="5.69532">
        <ele>464</ele>
        <time>2019-04-05T23:18:14Z</time>
      </trkpt>
      <trkpt lat="46.57728" lon="5.69525">
        <ele>463</ele>
        <time>2019-04-05T23:19:14Z</time>
      </trkpt>
      <trkpt lat="46.57735" lon="5.6952">
        <ele>463</ele>
        <time>2019-04-05T23:20:14Z</time>
      </trkpt>
      <trkpt lat="46.57743" lon="5.69512">
        <ele>463</ele>
        <time>2019-04-05T23:21:14Z</time>
      </trkpt>
      <trkpt lat="46.57757" lon="5.6949">
        <ele>463</ele>
        <time>2019-04-05T23:22:14Z</time>
      </trkpt>
      <trkpt lat="46.5779" lon="5.6943">
        <ele>462</ele>
        <time>2019-04-05T23:23:14Z</time>
      </trkpt>
      <trkpt lat="46.57796" lon="5.6942">
        <ele>462</ele>
        <time>2019-04-05T23:24:14Z</time>
      </trkpt>
      <trkpt lat="46.57801" lon="5.69414">
        <ele>462</ele>
        <time>2019-04-05T23:25:14Z</time>
      </trkpt>
      <trkpt lat="46.57808" lon="5.69407">
        <ele>462</ele>
        <time>2019-04-05T23:26:14Z</time>
      </trkpt>
      <trkpt lat="46.57814" lon="5.69403">
        <ele>462</ele>
        <time>2019-04-05T23:27:14Z</time>
      </trkpt>
      <trkpt lat="46.5782" lon="5.69399">
        <ele>462</ele>
        <time>2019-04-05T23:28:14Z</time>
      </trkpt>
      <trkpt lat="46.57859" lon="5.69384">
        <ele>462</ele>
        <time>2019-04-05T23:29:14Z</time>
      </trkpt>
      <trkpt lat="46.57882" lon="5.69376">
        <ele>462</ele>
        <time>2019-04-05T23:30:14Z</time>
      </trkpt>
      <trkpt lat="46.57928" lon="5.6936">
        <ele>462</ele>
        <time>2019-04-05T23:31:14Z</time>
      </trkpt>
      <trkpt lat="46.57935" lon="5.69358">
        <ele>462</ele>
        <time>2019-04-05T23:32:14Z</time>
      </trkpt>
      <trkpt lat="46.57941" lon="5.69357">
        <ele>462</ele>
        <time>2019-04-05T23:33:14Z</time>
      </trkpt>
      <trkpt lat="46.5795" lon="5.69356">
        <ele>461</ele>
        <time>2019-04-05T23:34:14Z</time>
      </trkpt>
      <trkpt lat="46.57971" lon="5.69355">
        <ele>461</ele>
        <time>2019-04-05T23:35:14Z</time>
      </trkpt>
      <trkpt lat="46.58012" lon="5.69352">
        <ele>460</ele>
        <time>2019-04-05T23:36:14Z</time>
      </trkpt>
      <trkpt lat="46.58023" lon="5.6935">
        <ele>460</ele>
        <time>2019-04-05T23:37:14Z</time>
      </trkpt>
      <trkpt lat="46.5803" lon="5.69349">
        <ele>460</ele>
        <time>2019-04-05T23:38:14Z</time>
      </trkpt>
      <trkpt lat="46.58042" lon="5.69347">
        <ele>460</ele>
        <time>2019-04-05T23:39:14Z</time>
      </trkpt>
      <trkpt lat="46.58075" lon="5.69337">
        <ele>460</ele>
        <time>2019-04-05T23:40:14Z</time>
      </trkpt>
      <trkpt lat="46.58085" lon="5.69335">
        <ele>460</ele>
        <time>2019-04-05T23:41:14Z</time>
      </trkpt>
      <trkpt lat="46.58095" lon="5.69333">
        <ele>460</ele>
        <time>2019-04-05T23:42:14Z</time>
      </trkpt>
      <trkpt lat="46.58105" lon="5.69331">
        <ele>459</ele>
        <time>2019-04-05T23:43:14Z</time>
      </trkpt>
      <trkpt lat="46.5813" lon="5.6933">
        <ele>458</ele>
        <time>2019-04-05T23:44:14Z</time>
      </trkpt>
      <trkpt lat="46.5817" lon="5.6933">
        <ele>457</ele>
        <time>2019-04-05T23:45:14Z</time>
      </trkpt>
      <trkpt lat="46.58178" lon="5.6933">
        <ele>457</ele>
        <time>2019-04-05T23:46:14Z</time>
      </trkpt>
      <trkpt lat="46.58182" lon="5.69329">
        <ele>457</ele>
        <time>2019-04-05T23:47:14Z</time>
      </trkpt>
      <trkpt lat="46.58191" lon="5.69323">
        <ele>457</ele>
        <time>2019-04-05T23:48:14Z</time>
      </trkpt>
      <trkpt lat="46.58194" lon="5.6932">
        <ele>457</ele>
        <time>2019-04-05T23:49:14Z</time>
      </trkpt>
      <trkpt lat="46.58195" lon="5.69321">
        <ele>457</ele>
        <time>2019-04-05T23:50:14Z</time>
      </trkpt>
      <trkpt lat="46.58196" lon="5.69323">
        <ele>457</ele>
        <time>2019-04-05T23:51:14Z</time>
      </trkpt>
      <trkpt lat="46.58198" lon="5.69325">
        <ele>457</ele>
        <time>2019-04-05T23:52:14Z</time>
      </trkpt>
      <trkpt lat="46.58199" lon="5.69326">
        <ele>457</ele>
        <time>2019-04-05T23:53:14Z</time>
      </trkpt>
      <trkpt lat="46.58191" lon="5.69352">
        <ele>456</ele>
        <time>2019-04-05T23:54:14Z</time>
      </trkpt>
      <trkpt lat="46.5819" lon="5.69363">
        <ele>456</ele>
        <time>2019-04-05T23:55:14Z</time>
      </trkpt>
      <trkpt lat="46.58192" lon="5.69388">
        <ele>455</ele>
        <time>2019-04-05T23:56:14Z</time>
      </trkpt>
      <trkpt lat="46.58198" lon="5.69439">
        <ele>456</ele>
        <time>2019-04-05T23:57:14Z</time>
      </trkpt>
      <trkpt lat="46.58199" lon="5.69451">
        <ele>456</ele>
        <time>2019-04-05T23:58:14Z</time>
      </trkpt>
      <trkpt lat="46.58199" lon="5.69458">
        <ele>456</ele>
        <time>2019-04-05T23:59:14Z</time>
      </trkpt>
      <trkpt lat="46.58199" lon="5.69464">
        <ele>457</ele>
        <time>2019-04-06T00:00:14Z</time>
      </trkpt>
      <trkpt lat="46.58198" lon="5.69472">
        <ele>457</ele>
        <time>2019-04-06T00:01:14Z</time>
      </trkpt>
      <trkpt lat="46.58197" lon="5.69478">
        <ele>457</ele>
        <time>2019-04-06T00:02:14Z</time>
      </trkpt>
      <trkpt lat="46.58193" lon="5.69485">
        <ele>458</ele>
        <time>2019-04-06T00:03:14Z</time>
      </trkpt>
      <trkpt lat="46.58165" lon="5.69521">
        <ele>460</ele>
        <time>2019-04-06T00:04:14Z</time>
      </trkpt>
      <trkpt lat="46.58153" lon="5.69533">
        <ele>459</ele>
        <time>2019-04-06T00:05:14Z</time>
      </trkpt>
      <trkpt lat="46.58143" lon="5.69543">
        <ele>459</ele>
        <time>2019-04-06T00:06:14Z</time>
      </trkpt>
      <trkpt lat="46.58124" lon="5.69558">
        <ele>458</ele>
        <time>2019-04-06T00:07:14Z</time>
      </trkpt>
      <trkpt lat="46.58096" lon="5.69578">
        <ele>456</ele>
        <time>2019-04-06T00:08:14Z</time>
      </trkpt>
      <trkpt lat="46.58089" lon="5.69585">
        <ele>456</ele>
        <time>2019-04-06T00:09:14Z</time>
      </trkpt>
      <trkpt lat="46.5808" lon="5.69592">
        <ele>456</ele>
        <time>2019-04-06T00:10:14Z</time>
      </trkpt>
      <trkpt lat="46.58066" lon="5.69605">
        <ele>456</ele>
        <time>2019-04-06T00:11:14Z</time>
      </trkpt>
      <trkpt lat="46.58061" lon="5.69611">
        <ele>456</ele>
        <time>2019-04-06T00:12:14Z</time>
      </trkpt>
      <trkpt lat="46.58016" lon="5.69671">
        <ele>457</ele>
        <time>2019-04-06T00:13:14Z</time>
      </trkpt>
      <trkpt lat="46.58007" lon="5.69684">
        <ele>456</ele>
        <time>2019-04-06T00:14:14Z</time>
      </trkpt>
      <trkpt lat="46.58002" lon="5.69693">
        <ele>455</ele>
        <time>2019-04-06T00:15:14Z</time>
      </trkpt>
      <trkpt lat="46.57998" lon="5.697">
        <ele>454</ele>
        <time>2019-04-06T00:16:14Z</time>
      </trkpt>
      <trkpt lat="46.57996" lon="5.69708">
        <ele>453</ele>
        <time>2019-04-06T00:17:14Z</time>
      </trkpt>
      <trkpt lat="46.57993" lon="5.69718">
        <ele>453</ele>
        <time>2019-04-06T00:18:14Z</time>
      </trkpt>
      <trkpt lat="46.5799" lon="5.69741">
        <ele>452</ele>
        <time>2019-04-06T00:19:14Z</time>
      </trkpt>
      <trkpt lat="46.5799" lon="5.69752">
        <ele>451</ele>
        <time>2019-04-06T00:20:14Z</time>
      </trkpt>
      <trkpt lat="46.57993" lon="5.69777">
        <ele>448</ele>
        <time>2019-04-06T00:21:14Z</time>
      </trkpt>
      <trkpt lat="46.58001" lon="5.69832">
        <ele>441</ele>
        <time>2019-04-06T00:22:14Z</time>
      </trkpt>
      <trkpt lat="46.58009" lon="5.69906">
        <ele>439</ele>
        <time>2019-04-06T00:23:14Z</time>
      </trkpt>
      <trkpt lat="46.58013" lon="5.69936">
        <ele>439</ele>
        <time>2019-04-06T00:24:14Z</time>
      </trkpt>
      <trkpt lat="46.58013" lon="5.69947">
        <ele>438</ele>
        <time>2019-04-06T00:25:14Z</time>
      </trkpt>
      <trkpt lat="46.58013" lon="5.69957">
        <ele>438</ele>
        <time>2019-04-06T00:26:14Z</time>
      </trkpt>
      <trkpt lat="46.58009" lon="5.69976">
        <ele>437</ele>
        <time>2019-04-06T00:27:14Z</time>
      </trkpt>
      <trkpt lat="46.58006" lon="5.69988">
        <ele>436</ele>
        <time>2019-04-06T00:28:14Z</time>
      </trkpt>
      <trkpt lat="46.57999" lon="5.70005">
        <ele>435</ele>
        <time>2019-04-06T00:29:14Z</time>
      </trkpt>
      <trkpt lat="46.57993" lon="5.70023">
        <ele>434</ele>
        <time>2019-04-06T00:30:14Z</time>
      </trkpt>
      <trkpt lat="46.5797" lon="5.70095">
        <ele>431</ele>
        <time>2019-04-06T00:31:14Z</time>
      </trkpt>
      <trkpt lat="46.57955" lon="5.70136">
        <ele>430</ele>
        <time>2019-04-06T00:32:14Z</time>
      </trkpt>
      <trkpt lat="46.57951" lon="5.70149">
        <ele>430</ele>
        <time>2019-04-06T00:33:14Z</time>
      </trkpt>
      <trkpt lat="46.57951" lon="5.70157">
        <ele>430</ele>
        <time>2019-04-06T00:34:14Z</time>
      </trkpt>
      <trkpt lat="46.57951" lon="5.70165">
        <ele>430</ele>
        <time>2019-04-06T00:35:14Z</time>
      </trkpt>
    </trkseg>
  </trk>
</gpx>